<?xml version="1.0" encoding="UTF-8" standalone="no" ?>
<gpx xmlns="http://www.topografix.com/GPX/1/1" xmlns:xsi="http://www.w3.org/2001/XMLSchema-instance" xsi:schemaLocation="http://www.topografix.com/GPX/1/1 http://www.topografix.com/GPX/1/1/gpx.xsd" version="1.1" creator="VisuGPX - https://www.visugpx.com">
  <metadata>
    <name>Vence - St Barnabé - Bramafan - Courmes - Puy de Naouri</name>
    <desc><![CDATA[Grosse boucle en compagnie de Marion & Vincent. Avec 2 très belles descentes, des portions bien roulantes sur piste et un beau portage : tout ce qui fait le VTT!
]]></desc>
  </metadata>
  <trk>
    <name><![CDATA[Vence - St Barnabé - Bramafan - Courmes - Puy de Naouri_1]]></name>
    <trkseg>
      <trkpt lat="43.74661" lon="7.1001">
        <ele>590.386963</ele>
        <time>2012-01-15T10:16:17+01:00</time>
      </trkpt>
      <trkpt lat="43.74668" lon="7.09992">
        <ele>591.348145</ele>
        <time>2012-01-15T10:16:24+01:00</time>
      </trkpt>
      <trkpt lat="43.74669" lon="7.09986">
        <ele>591.828857</ele>
        <time>2012-01-15T10:16:27+01:00</time>
      </trkpt>
      <trkpt lat="43.7467" lon="7.09986">
        <ele>591.828857</ele>
        <time>2012-01-15T10:16:37+01:00</time>
      </trkpt>
      <trkpt lat="43.74672" lon="7.09987">
        <ele>590.386963</ele>
        <time>2012-01-15T10:16:48+01:00</time>
      </trkpt>
      <trkpt lat="43.74673" lon="7.09988">
        <ele>589.425537</ele>
        <time>2012-01-15T10:16:59+01:00</time>
      </trkpt>
      <trkpt lat="43.74673" lon="7.09989">
        <ele>590.386963</ele>
        <time>2012-01-15T10:17:09+01:00</time>
      </trkpt>
      <trkpt lat="43.74672" lon="7.09989">
        <ele>590.386963</ele>
        <time>2012-01-15T10:17:16+01:00</time>
      </trkpt>
      <trkpt lat="43.74672" lon="7.09985">
        <ele>591.348145</ele>
        <time>2012-01-15T10:17:34+01:00</time>
      </trkpt>
      <trkpt lat="43.74673" lon="7.0998">
        <ele>590.867432</ele>
        <time>2012-01-15T10:17:37+01:00</time>
      </trkpt>
      <trkpt lat="43.74676" lon="7.09967">
        <ele>591.828857</ele>
        <time>2012-01-15T10:17:42+01:00</time>
      </trkpt>
      <trkpt lat="43.74677" lon="7.09963">
        <ele>591.828857</ele>
        <time>2012-01-15T10:17:43+01:00</time>
      </trkpt>
      <trkpt lat="43.74685" lon="7.0994">
        <ele>592.790283</ele>
        <time>2012-01-15T10:17:51+01:00</time>
      </trkpt>
      <trkpt lat="43.74687" lon="7.09928">
        <ele>592.790283</ele>
        <time>2012-01-15T10:17:57+01:00</time>
      </trkpt>
      <trkpt lat="43.74689" lon="7.09916">
        <ele>593.751465</ele>
        <time>2012-01-15T10:18:03+01:00</time>
      </trkpt>
      <trkpt lat="43.74691" lon="7.09914">
        <ele>593.751465</ele>
        <time>2012-01-15T10:18:05+01:00</time>
      </trkpt>
      <trkpt lat="43.74697" lon="7.09899">
        <ele>594.712646</ele>
        <time>2012-01-15T10:18:12+01:00</time>
      </trkpt>
      <trkpt lat="43.74701" lon="7.09887">
        <ele>596.154785</ele>
        <time>2012-01-15T10:18:17+01:00</time>
      </trkpt>
      <trkpt lat="43.74709" lon="7.09869">
        <ele>597.115967</ele>
        <time>2012-01-15T10:18:24+01:00</time>
      </trkpt>
      <trkpt lat="43.74718" lon="7.09854">
        <ele>596.635498</ele>
        <time>2012-01-15T10:18:30+01:00</time>
      </trkpt>
      <trkpt lat="43.74727" lon="7.09844">
        <ele>597.115967</ele>
        <time>2012-01-15T10:18:36+01:00</time>
      </trkpt>
      <trkpt lat="43.74737" lon="7.0983">
        <ele>598.077393</ele>
        <time>2012-01-15T10:18:42+01:00</time>
      </trkpt>
      <trkpt lat="43.7475" lon="7.09811">
        <ele>599.038574</ele>
        <time>2012-01-15T10:18:50+01:00</time>
      </trkpt>
      <trkpt lat="43.74762" lon="7.09796">
        <ele>600</ele>
        <time>2012-01-15T10:18:57+01:00</time>
      </trkpt>
      <trkpt lat="43.74775" lon="7.09773">
        <ele>600.961182</ele>
        <time>2012-01-15T10:19:06+01:00</time>
      </trkpt>
      <trkpt lat="43.74787" lon="7.09752">
        <ele>602.403076</ele>
        <time>2012-01-15T10:19:15+01:00</time>
      </trkpt>
      <trkpt lat="43.74795" lon="7.09738">
        <ele>603.364502</ele>
        <time>2012-01-15T10:19:20+01:00</time>
      </trkpt>
      <trkpt lat="43.74805" lon="7.09722">
        <ele>604.806641</ele>
        <time>2012-01-15T10:19:27+01:00</time>
      </trkpt>
      <trkpt lat="43.74817" lon="7.09707">
        <ele>606.248535</ele>
        <time>2012-01-15T10:19:33+01:00</time>
      </trkpt>
      <trkpt lat="43.74827" lon="7.09692">
        <ele>607.690674</ele>
        <time>2012-01-15T10:19:38+01:00</time>
      </trkpt>
      <trkpt lat="43.74841" lon="7.09674">
        <ele>608.651855</ele>
        <time>2012-01-15T10:19:45+01:00</time>
      </trkpt>
      <trkpt lat="43.74853" lon="7.09656">
        <ele>609.613281</ele>
        <time>2012-01-15T10:19:51+01:00</time>
      </trkpt>
      <trkpt lat="43.74871" lon="7.09637">
        <ele>611.535889</ele>
        <time>2012-01-15T10:20:00+01:00</time>
      </trkpt>
      <trkpt lat="43.7489" lon="7.09626">
        <ele>614.900391</ele>
        <time>2012-01-15T10:20:09+01:00</time>
      </trkpt>
      <trkpt lat="43.74905" lon="7.09618">
        <ele>616.822998</ele>
        <time>2012-01-15T10:20:15+01:00</time>
      </trkpt>
      <trkpt lat="43.7492" lon="7.09608">
        <ele>618.264893</ele>
        <time>2012-01-15T10:20:21+01:00</time>
      </trkpt>
      <trkpt lat="43.74939" lon="7.09598">
        <ele>620.187744</ele>
        <time>2012-01-15T10:20:29+01:00</time>
      </trkpt>
      <trkpt lat="43.7496" lon="7.09586">
        <ele>622.110352</ele>
        <time>2012-01-15T10:20:38+01:00</time>
      </trkpt>
      <trkpt lat="43.7498" lon="7.09575">
        <ele>624.994385</ele>
        <time>2012-01-15T10:20:47+01:00</time>
      </trkpt>
      <trkpt lat="43.74999" lon="7.09565">
        <ele>627.397705</ele>
        <time>2012-01-15T10:20:55+01:00</time>
      </trkpt>
      <trkpt lat="43.75012" lon="7.0956">
        <ele>628.8396</ele>
        <time>2012-01-15T10:21:00+01:00</time>
      </trkpt>
      <trkpt lat="43.75018" lon="7.09573">
        <ele>629.320068</ele>
        <time>2012-01-15T10:21:05+01:00</time>
      </trkpt>
      <trkpt lat="43.75012" lon="7.09581">
        <ele>628.8396</ele>
        <time>2012-01-15T10:21:08+01:00</time>
      </trkpt>
      <trkpt lat="43.74992" lon="7.09583">
        <ele>630.281494</ele>
        <time>2012-01-15T10:21:15+01:00</time>
      </trkpt>
      <trkpt lat="43.7498" lon="7.09587">
        <ele>631.723389</ele>
        <time>2012-01-15T10:21:20+01:00</time>
      </trkpt>
      <trkpt lat="43.74972" lon="7.09594">
        <ele>633.165283</ele>
        <time>2012-01-15T10:21:25+01:00</time>
      </trkpt>
      <trkpt lat="43.74952" lon="7.0961">
        <ele>634.607422</ele>
        <time>2012-01-15T10:21:33+01:00</time>
      </trkpt>
      <trkpt lat="43.74934" lon="7.09625">
        <ele>635.568604</ele>
        <time>2012-01-15T10:21:41+01:00</time>
      </trkpt>
      <trkpt lat="43.74917" lon="7.09641">
        <ele>636.530273</ele>
        <time>2012-01-15T10:21:49+01:00</time>
      </trkpt>
      <trkpt lat="43.74913" lon="7.09645">
        <ele>636.530273</ele>
        <time>2012-01-15T10:21:54+01:00</time>
      </trkpt>
      <trkpt lat="43.74913" lon="7.09646">
        <ele>636.049561</ele>
        <time>2012-01-15T10:21:59+01:00</time>
      </trkpt>
      <trkpt lat="43.74912" lon="7.09648">
        <ele>636.049561</ele>
        <time>2012-01-15T10:22:04+01:00</time>
      </trkpt>
      <trkpt lat="43.74913" lon="7.09648">
        <ele>635.088135</ele>
        <time>2012-01-15T10:22:10+01:00</time>
      </trkpt>
      <trkpt lat="43.74914" lon="7.09647">
        <ele>634.126709</ele>
        <time>2012-01-15T10:22:45+01:00</time>
      </trkpt>
      <trkpt lat="43.74915" lon="7.09647">
        <ele>634.607422</ele>
        <time>2012-01-15T10:22:50+01:00</time>
      </trkpt>
      <trkpt lat="43.74915" lon="7.09647">
        <ele>635.088135</ele>
        <time>2012-01-15T10:22:59+01:00</time>
      </trkpt>
      <trkpt lat="43.74914" lon="7.09649">
        <ele>636.049561</ele>
        <time>2012-01-15T10:23:22+01:00</time>
      </trkpt>
      <trkpt lat="43.74916" lon="7.09648">
        <ele>636.049561</ele>
        <time>2012-01-15T10:23:31+01:00</time>
      </trkpt>
      <trkpt lat="43.74917" lon="7.09647">
        <ele>634.126709</ele>
        <time>2012-01-15T10:23:48+01:00</time>
      </trkpt>
      <trkpt lat="43.74917" lon="7.09646">
        <ele>633.165283</ele>
        <time>2012-01-15T10:24:22+01:00</time>
      </trkpt>
      <trkpt lat="43.74917" lon="7.09646">
        <ele>632.204102</ele>
        <time>2012-01-15T10:24:35+01:00</time>
      </trkpt>
      <trkpt lat="43.74917" lon="7.09646">
        <ele>632.204102</ele>
        <time>2012-01-15T10:24:52+01:00</time>
      </trkpt>
      <trkpt lat="43.74916" lon="7.09647">
        <ele>634.126709</ele>
        <time>2012-01-15T10:25:02+01:00</time>
      </trkpt>
      <trkpt lat="43.74915" lon="7.09648">
        <ele>634.607422</ele>
        <time>2012-01-15T10:25:09+01:00</time>
      </trkpt>
      <trkpt lat="43.74916" lon="7.09648">
        <ele>633.645996</ele>
        <time>2012-01-15T10:25:16+01:00</time>
      </trkpt>
      <trkpt lat="43.74917" lon="7.09648">
        <ele>633.165283</ele>
        <time>2012-01-15T10:25:22+01:00</time>
      </trkpt>
      <trkpt lat="43.74917" lon="7.09648">
        <ele>631.723389</ele>
        <time>2012-01-15T10:25:28+01:00</time>
      </trkpt>
      <trkpt lat="43.74918" lon="7.0965">
        <ele>630.762207</ele>
        <time>2012-01-15T10:25:37+01:00</time>
      </trkpt>
      <trkpt lat="43.74918" lon="7.0965">
        <ele>630.281494</ele>
        <time>2012-01-15T10:25:42+01:00</time>
      </trkpt>
      <trkpt lat="43.74919" lon="7.09651">
        <ele>631.24292</ele>
        <time>2012-01-15T10:25:46+01:00</time>
      </trkpt>
      <trkpt lat="43.74919" lon="7.09652">
        <ele>632.204102</ele>
        <time>2012-01-15T10:25:53+01:00</time>
      </trkpt>
      <trkpt lat="43.74919" lon="7.09654">
        <ele>632.204102</ele>
        <time>2012-01-15T10:25:54+01:00</time>
      </trkpt>
      <trkpt lat="43.74926" lon="7.09665">
        <ele>633.165283</ele>
        <time>2012-01-15T10:25:59+01:00</time>
      </trkpt>
      <trkpt lat="43.74937" lon="7.09663">
        <ele>634.126709</ele>
        <time>2012-01-15T10:26:03+01:00</time>
      </trkpt>
      <trkpt lat="43.7494" lon="7.0966">
        <ele>634.126709</ele>
        <time>2012-01-15T10:26:04+01:00</time>
      </trkpt>
      <trkpt lat="43.74964" lon="7.09634">
        <ele>637.010742</ele>
        <time>2012-01-15T10:26:13+01:00</time>
      </trkpt>
      <trkpt lat="43.74987" lon="7.09623">
        <ele>639.414062</ele>
        <time>2012-01-15T10:26:20+01:00</time>
      </trkpt>
      <trkpt lat="43.75009" lon="7.09618">
        <ele>641.817383</ele>
        <time>2012-01-15T10:26:27+01:00</time>
      </trkpt>
      <trkpt lat="43.75027" lon="7.09616">
        <ele>643.73999</ele>
        <time>2012-01-15T10:26:33+01:00</time>
      </trkpt>
      <trkpt lat="43.75046" lon="7.09612">
        <ele>645.662598</ele>
        <time>2012-01-15T10:26:40+01:00</time>
      </trkpt>
      <trkpt lat="43.7507" lon="7.09604">
        <ele>647.585205</ele>
        <time>2012-01-15T10:26:48+01:00</time>
      </trkpt>
      <trkpt lat="43.75098" lon="7.09594">
        <ele>649.507812</ele>
        <time>2012-01-15T10:26:57+01:00</time>
      </trkpt>
      <trkpt lat="43.75122" lon="7.09589">
        <ele>651.43042</ele>
        <time>2012-01-15T10:27:05+01:00</time>
      </trkpt>
      <trkpt lat="43.75144" lon="7.09593">
        <ele>653.833984</ele>
        <time>2012-01-15T10:27:12+01:00</time>
      </trkpt>
      <trkpt lat="43.75162" lon="7.09588">
        <ele>655.756592</ele>
        <time>2012-01-15T10:27:18+01:00</time>
      </trkpt>
      <trkpt lat="43.75169" lon="7.09567">
        <ele>657.679199</ele>
        <time>2012-01-15T10:27:23+01:00</time>
      </trkpt>
      <trkpt lat="43.75176" lon="7.09538">
        <ele>660.562988</ele>
        <time>2012-01-15T10:27:30+01:00</time>
      </trkpt>
      <trkpt lat="43.75192" lon="7.09516">
        <ele>663.447021</ele>
        <time>2012-01-15T10:27:37+01:00</time>
      </trkpt>
      <trkpt lat="43.75214" lon="7.09492">
        <ele>666.330811</ele>
        <time>2012-01-15T10:27:46+01:00</time>
      </trkpt>
      <trkpt lat="43.75231" lon="7.09484">
        <ele>667.772705</ele>
        <time>2012-01-15T10:27:52+01:00</time>
      </trkpt>
      <trkpt lat="43.75252" lon="7.09481">
        <ele>669.695801</ele>
        <time>2012-01-15T10:27:59+01:00</time>
      </trkpt>
      <trkpt lat="43.75275" lon="7.09476">
        <ele>671.618164</ele>
        <time>2012-01-15T10:28:07+01:00</time>
      </trkpt>
      <trkpt lat="43.75301" lon="7.0947">
        <ele>673.541016</ele>
        <time>2012-01-15T10:28:16+01:00</time>
      </trkpt>
      <trkpt lat="43.75327" lon="7.0946">
        <ele>675.944092</ele>
        <time>2012-01-15T10:28:25+01:00</time>
      </trkpt>
      <trkpt lat="43.75353" lon="7.09446">
        <ele>677.866699</ele>
        <time>2012-01-15T10:28:34+01:00</time>
      </trkpt>
      <trkpt lat="43.75378" lon="7.09432">
        <ele>679.789307</ele>
        <time>2012-01-15T10:28:43+01:00</time>
      </trkpt>
      <trkpt lat="43.75398" lon="7.09415">
        <ele>681.711914</ele>
        <time>2012-01-15T10:28:51+01:00</time>
      </trkpt>
      <trkpt lat="43.75412" lon="7.09402">
        <ele>683.153809</ele>
        <time>2012-01-15T10:28:57+01:00</time>
      </trkpt>
      <trkpt lat="43.75427" lon="7.09381">
        <ele>684.596191</ele>
        <time>2012-01-15T10:29:04+01:00</time>
      </trkpt>
      <trkpt lat="43.75441" lon="7.0935">
        <ele>686.518799</ele>
        <time>2012-01-15T10:29:13+01:00</time>
      </trkpt>
      <trkpt lat="43.75454" lon="7.0932">
        <ele>688.922119</ele>
        <time>2012-01-15T10:29:22+01:00</time>
      </trkpt>
      <trkpt lat="43.75451" lon="7.09301">
        <ele>690.364014</ele>
        <time>2012-01-15T10:29:27+01:00</time>
      </trkpt>
      <trkpt lat="43.75441" lon="7.09295">
        <ele>691.325195</ele>
        <time>2012-01-15T10:29:31+01:00</time>
      </trkpt>
      <trkpt lat="43.75429" lon="7.09303">
        <ele>692.286621</ele>
        <time>2012-01-15T10:29:36+01:00</time>
      </trkpt>
      <trkpt lat="43.75418" lon="7.09318">
        <ele>692.767334</ele>
        <time>2012-01-15T10:29:43+01:00</time>
      </trkpt>
      <trkpt lat="43.75407" lon="7.09327">
        <ele>692.767334</ele>
        <time>2012-01-15T10:29:50+01:00</time>
      </trkpt>
      <trkpt lat="43.75396" lon="7.09333">
        <ele>693.728516</ele>
        <time>2012-01-15T10:29:56+01:00</time>
      </trkpt>
      <trkpt lat="43.75385" lon="7.09338">
        <ele>694.209229</ele>
        <time>2012-01-15T10:30:02+01:00</time>
      </trkpt>
      <trkpt lat="43.7537" lon="7.09339">
        <ele>695.17041</ele>
        <time>2012-01-15T10:30:09+01:00</time>
      </trkpt>
      <trkpt lat="43.75359" lon="7.09336">
        <ele>696.612549</ele>
        <time>2012-01-15T10:30:15+01:00</time>
      </trkpt>
      <trkpt lat="43.75349" lon="7.0933">
        <ele>697.093018</ele>
        <time>2012-01-15T10:30:20+01:00</time>
      </trkpt>
      <trkpt lat="43.75331" lon="7.09322">
        <ele>697.57373</ele>
        <time>2012-01-15T10:30:28+01:00</time>
      </trkpt>
      <trkpt lat="43.75322" lon="7.09317">
        <ele>698.054443</ele>
        <time>2012-01-15T10:30:34+01:00</time>
      </trkpt>
      <trkpt lat="43.75307" lon="7.09305">
        <ele>699.496338</ele>
        <time>2012-01-15T10:30:42+01:00</time>
      </trkpt>
      <trkpt lat="43.7529" lon="7.09292">
        <ele>700.458008</ele>
        <time>2012-01-15T10:30:50+01:00</time>
      </trkpt>
      <trkpt lat="43.75279" lon="7.0928">
        <ele>702.380371</ele>
        <time>2012-01-15T10:30:56+01:00</time>
      </trkpt>
      <trkpt lat="43.75271" lon="7.09264">
        <ele>702.380371</ele>
        <time>2012-01-15T10:31:02+01:00</time>
      </trkpt>
      <trkpt lat="43.75267" lon="7.09248">
        <ele>702.380371</ele>
        <time>2012-01-15T10:31:07+01:00</time>
      </trkpt>
      <trkpt lat="43.75265" lon="7.09229">
        <ele>702.861084</ele>
        <time>2012-01-15T10:31:13+01:00</time>
      </trkpt>
      <trkpt lat="43.75264" lon="7.09207">
        <ele>703.82251</ele>
        <time>2012-01-15T10:31:20+01:00</time>
      </trkpt>
      <trkpt lat="43.75263" lon="7.09191">
        <ele>704.303223</ele>
        <time>2012-01-15T10:31:25+01:00</time>
      </trkpt>
      <trkpt lat="43.75263" lon="7.09161">
        <ele>705.745117</ele>
        <time>2012-01-15T10:31:34+01:00</time>
      </trkpt>
      <trkpt lat="43.75263" lon="7.09129">
        <ele>707.667725</ele>
        <time>2012-01-15T10:31:43+01:00</time>
      </trkpt>
      <trkpt lat="43.75263" lon="7.09097">
        <ele>709.109619</ele>
        <time>2012-01-15T10:31:52+01:00</time>
      </trkpt>
      <trkpt lat="43.75263" lon="7.09074">
        <ele>710.551514</ele>
        <time>2012-01-15T10:31:59+01:00</time>
      </trkpt>
      <trkpt lat="43.75263" lon="7.09051">
        <ele>711.993652</ele>
        <time>2012-01-15T10:32:06+01:00</time>
      </trkpt>
      <trkpt lat="43.75258" lon="7.09025">
        <ele>713.435547</ele>
        <time>2012-01-15T10:32:13+01:00</time>
      </trkpt>
      <trkpt lat="43.75254" lon="7.09018">
        <ele>713.435547</ele>
        <time>2012-01-15T10:32:17+01:00</time>
      </trkpt>
      <trkpt lat="43.75252" lon="7.0901">
        <ele>713.435547</ele>
        <time>2012-01-15T10:32:22+01:00</time>
      </trkpt>
      <trkpt lat="43.75251" lon="7.09003">
        <ele>713.435547</ele>
        <time>2012-01-15T10:32:25+01:00</time>
      </trkpt>
      <trkpt lat="43.75245" lon="7.08987">
        <ele>714.877441</ele>
        <time>2012-01-15T10:32:31+01:00</time>
      </trkpt>
      <trkpt lat="43.75248" lon="7.08973">
        <ele>715.358154</ele>
        <time>2012-01-15T10:32:36+01:00</time>
      </trkpt>
      <trkpt lat="43.75258" lon="7.0897">
        <ele>715.358154</ele>
        <time>2012-01-15T10:32:40+01:00</time>
      </trkpt>
      <trkpt lat="43.75267" lon="7.08984">
        <ele>716.800293</ele>
        <time>2012-01-15T10:32:46+01:00</time>
      </trkpt>
      <trkpt lat="43.75271" lon="7.09004">
        <ele>718.7229</ele>
        <time>2012-01-15T10:32:52+01:00</time>
      </trkpt>
      <trkpt lat="43.75275" lon="7.0902">
        <ele>719.203613</ele>
        <time>2012-01-15T10:32:58+01:00</time>
      </trkpt>
      <trkpt lat="43.7528" lon="7.09041">
        <ele>720.164795</ele>
        <time>2012-01-15T10:33:05+01:00</time>
      </trkpt>
      <trkpt lat="43.75287" lon="7.09062">
        <ele>721.606689</ele>
        <time>2012-01-15T10:33:12+01:00</time>
      </trkpt>
      <trkpt lat="43.75297" lon="7.09081">
        <ele>722.568115</ele>
        <time>2012-01-15T10:33:20+01:00</time>
      </trkpt>
      <trkpt lat="43.75301" lon="7.09088">
        <ele>723.048828</ele>
        <time>2012-01-15T10:33:25+01:00</time>
      </trkpt>
      <trkpt lat="43.75301" lon="7.09088">
        <ele>724.01001</ele>
        <time>2012-01-15T10:33:29+01:00</time>
      </trkpt>
      <trkpt lat="43.753" lon="7.09087">
        <ele>724.971436</ele>
        <time>2012-01-15T10:33:35+01:00</time>
      </trkpt>
      <trkpt lat="43.753" lon="7.09087">
        <ele>724.971436</ele>
        <time>2012-01-15T10:33:46+01:00</time>
      </trkpt>
      <trkpt lat="43.75301" lon="7.09087">
        <ele>724.971436</ele>
        <time>2012-01-15T10:33:51+01:00</time>
      </trkpt>
      <trkpt lat="43.75301" lon="7.09086">
        <ele>724.971436</ele>
        <time>2012-01-15T10:34:00+01:00</time>
      </trkpt>
      <trkpt lat="43.75304" lon="7.09089">
        <ele>724.971436</ele>
        <time>2012-01-15T10:34:08+01:00</time>
      </trkpt>
      <trkpt lat="43.75312" lon="7.09097">
        <ele>724.971436</ele>
        <time>2012-01-15T10:34:13+01:00</time>
      </trkpt>
      <trkpt lat="43.7533" lon="7.09111">
        <ele>726.894043</ele>
        <time>2012-01-15T10:34:21+01:00</time>
      </trkpt>
      <trkpt lat="43.75348" lon="7.09118">
        <ele>728.335938</ele>
        <time>2012-01-15T10:34:29+01:00</time>
      </trkpt>
      <trkpt lat="43.75362" lon="7.09117">
        <ele>729.777832</ele>
        <time>2012-01-15T10:34:35+01:00</time>
      </trkpt>
      <trkpt lat="43.75375" lon="7.0911">
        <ele>731.219971</ele>
        <time>2012-01-15T10:34:41+01:00</time>
      </trkpt>
      <trkpt lat="43.75386" lon="7.09095">
        <ele>732.181396</ele>
        <time>2012-01-15T10:34:48+01:00</time>
      </trkpt>
      <trkpt lat="43.75396" lon="7.0908">
        <ele>733.623291</ele>
        <time>2012-01-15T10:34:55+01:00</time>
      </trkpt>
      <trkpt lat="43.75402" lon="7.09071">
        <ele>734.584717</ele>
        <time>2012-01-15T10:35:01+01:00</time>
      </trkpt>
      <trkpt lat="43.75404" lon="7.09066">
        <ele>734.584717</ele>
        <time>2012-01-15T10:35:04+01:00</time>
      </trkpt>
      <trkpt lat="43.75399" lon="7.09069">
        <ele>734.584717</ele>
        <time>2012-01-15T10:35:08+01:00</time>
      </trkpt>
      <trkpt lat="43.75394" lon="7.09076">
        <ele>734.104004</ele>
        <time>2012-01-15T10:35:10+01:00</time>
      </trkpt>
      <trkpt lat="43.75387" lon="7.09087">
        <ele>733.142578</ele>
        <time>2012-01-15T10:35:13+01:00</time>
      </trkpt>
      <trkpt lat="43.7539" lon="7.09088">
        <ele>733.142578</ele>
        <time>2012-01-15T10:35:17+01:00</time>
      </trkpt>
      <trkpt lat="43.75391" lon="7.09081">
        <ele>733.623291</ele>
        <time>2012-01-15T10:35:20+01:00</time>
      </trkpt>
      <trkpt lat="43.75394" lon="7.09058">
        <ele>736.026611</ele>
        <time>2012-01-15T10:35:29+01:00</time>
      </trkpt>
      <trkpt lat="43.75396" lon="7.09042">
        <ele>737.949219</ele>
        <time>2012-01-15T10:35:37+01:00</time>
      </trkpt>
      <trkpt lat="43.75398" lon="7.09031">
        <ele>739.391113</ele>
        <time>2012-01-15T10:35:43+01:00</time>
      </trkpt>
      <trkpt lat="43.754" lon="7.09019">
        <ele>740.352539</ele>
        <time>2012-01-15T10:35:49+01:00</time>
      </trkpt>
      <trkpt lat="43.75402" lon="7.09005">
        <ele>741.313721</ele>
        <time>2012-01-15T10:35:56+01:00</time>
      </trkpt>
      <trkpt lat="43.75403" lon="7.08992">
        <ele>741.794434</ele>
        <time>2012-01-15T10:36:03+01:00</time>
      </trkpt>
      <trkpt lat="43.75404" lon="7.08989">
        <ele>742.275146</ele>
        <time>2012-01-15T10:36:05+01:00</time>
      </trkpt>
      <trkpt lat="43.754" lon="7.08978">
        <ele>743.717041</ele>
        <time>2012-01-15T10:36:11+01:00</time>
      </trkpt>
      <trkpt lat="43.75397" lon="7.08968">
        <ele>745.158936</ele>
        <time>2012-01-15T10:36:17+01:00</time>
      </trkpt>
      <trkpt lat="43.75396" lon="7.08962">
        <ele>745.639648</ele>
        <time>2012-01-15T10:36:21+01:00</time>
      </trkpt>
      <trkpt lat="43.75396" lon="7.08961">
        <ele>745.639648</ele>
        <time>2012-01-15T10:36:28+01:00</time>
      </trkpt>
      <trkpt lat="43.75397" lon="7.08961">
        <ele>746.120361</ele>
        <time>2012-01-15T10:36:33+01:00</time>
      </trkpt>
      <trkpt lat="43.75398" lon="7.08962">
        <ele>746.120361</ele>
        <time>2012-01-15T10:36:37+01:00</time>
      </trkpt>
      <trkpt lat="43.75396" lon="7.08961">
        <ele>748.043213</ele>
        <time>2012-01-15T10:36:50+01:00</time>
      </trkpt>
      <trkpt lat="43.75396" lon="7.08961">
        <ele>748.523682</ele>
        <time>2012-01-15T10:36:57+01:00</time>
      </trkpt>
      <trkpt lat="43.75395" lon="7.0896">
        <ele>747.562256</ele>
        <time>2012-01-15T10:37:19+01:00</time>
      </trkpt>
      <trkpt lat="43.75392" lon="7.0896">
        <ele>745.639648</ele>
        <time>2012-01-15T10:37:36+01:00</time>
      </trkpt>
      <trkpt lat="43.75393" lon="7.0896">
        <ele>746.120361</ele>
        <time>2012-01-15T10:37:44+01:00</time>
      </trkpt>
      <trkpt lat="43.75394" lon="7.0896">
        <ele>747.081543</ele>
        <time>2012-01-15T10:37:56+01:00</time>
      </trkpt>
      <trkpt lat="43.75394" lon="7.0896">
        <ele>748.523682</ele>
        <time>2012-01-15T10:38:05+01:00</time>
      </trkpt>
      <trkpt lat="43.75394" lon="7.08961">
        <ele>748.043213</ele>
        <time>2012-01-15T10:38:10+01:00</time>
      </trkpt>
      <trkpt lat="43.75394" lon="7.0896">
        <ele>748.523682</ele>
        <time>2012-01-15T10:38:17+01:00</time>
      </trkpt>
      <trkpt lat="43.75394" lon="7.0896">
        <ele>749.004395</ele>
        <time>2012-01-15T10:38:23+01:00</time>
      </trkpt>
      <trkpt lat="43.75394" lon="7.08961">
        <ele>749.485107</ele>
        <time>2012-01-15T10:38:31+01:00</time>
      </trkpt>
      <trkpt lat="43.75394" lon="7.08962">
        <ele>749.485107</ele>
        <time>2012-01-15T10:38:38+01:00</time>
      </trkpt>
      <trkpt lat="43.75394" lon="7.08962">
        <ele>749.96582</ele>
        <time>2012-01-15T10:38:45+01:00</time>
      </trkpt>
      <trkpt lat="43.75395" lon="7.08962">
        <ele>749.96582</ele>
        <time>2012-01-15T10:38:55+01:00</time>
      </trkpt>
      <trkpt lat="43.75395" lon="7.08963">
        <ele>749.96582</ele>
        <time>2012-01-15T10:39:02+01:00</time>
      </trkpt>
      <trkpt lat="43.75396" lon="7.08963">
        <ele>749.485107</ele>
        <time>2012-01-15T10:39:14+01:00</time>
      </trkpt>
      <trkpt lat="43.75395" lon="7.08962">
        <ele>749.485107</ele>
        <time>2012-01-15T10:39:24+01:00</time>
      </trkpt>
      <trkpt lat="43.75395" lon="7.08962">
        <ele>748.523682</ele>
        <time>2012-01-15T10:39:29+01:00</time>
      </trkpt>
      <trkpt lat="43.75395" lon="7.08963">
        <ele>747.562256</ele>
        <time>2012-01-15T10:39:40+01:00</time>
      </trkpt>
      <trkpt lat="43.75396" lon="7.08964">
        <ele>746.601074</ele>
        <time>2012-01-15T10:39:59+01:00</time>
      </trkpt>
      <trkpt lat="43.75395" lon="7.08966">
        <ele>748.043213</ele>
        <time>2012-01-15T10:40:25+01:00</time>
      </trkpt>
      <trkpt lat="43.75395" lon="7.08965">
        <ele>748.523682</ele>
        <time>2012-01-15T10:40:39+01:00</time>
      </trkpt>
      <trkpt lat="43.75395" lon="7.08963">
        <ele>749.004395</ele>
        <time>2012-01-15T10:40:53+01:00</time>
      </trkpt>
      <trkpt lat="43.75395" lon="7.08961">
        <ele>749.004395</ele>
        <time>2012-01-15T10:41:08+01:00</time>
      </trkpt>
      <trkpt lat="43.75395" lon="7.08962">
        <ele>749.485107</ele>
        <time>2012-01-15T10:41:19+01:00</time>
      </trkpt>
      <trkpt lat="43.75395" lon="7.08962">
        <ele>749.485107</ele>
        <time>2012-01-15T10:41:34+01:00</time>
      </trkpt>
      <trkpt lat="43.75394" lon="7.08962">
        <ele>746.601074</ele>
        <time>2012-01-15T10:41:45+01:00</time>
      </trkpt>
      <trkpt lat="43.75394" lon="7.08964">
        <ele>745.158936</ele>
        <time>2012-01-15T10:41:56+01:00</time>
      </trkpt>
      <trkpt lat="43.75394" lon="7.08965">
        <ele>746.120361</ele>
        <time>2012-01-15T10:42:07+01:00</time>
      </trkpt>
      <trkpt lat="43.75394" lon="7.08964">
        <ele>746.601074</ele>
        <time>2012-01-15T10:42:29+01:00</time>
      </trkpt>
      <trkpt lat="43.75394" lon="7.08964">
        <ele>746.601074</ele>
        <time>2012-01-15T10:42:42+01:00</time>
      </trkpt>
      <trkpt lat="43.75394" lon="7.08961">
        <ele>745.639648</ele>
        <time>2012-01-15T10:43:05+01:00</time>
      </trkpt>
      <trkpt lat="43.75394" lon="7.0896">
        <ele>745.158936</ele>
        <time>2012-01-15T10:43:28+01:00</time>
      </trkpt>
      <trkpt lat="43.75395" lon="7.08959">
        <ele>746.120361</ele>
        <time>2012-01-15T10:43:42+01:00</time>
      </trkpt>
      <trkpt lat="43.75396" lon="7.08958">
        <ele>745.639648</ele>
        <time>2012-01-15T10:43:51+01:00</time>
      </trkpt>
      <trkpt lat="43.75396" lon="7.08959">
        <ele>745.639648</ele>
        <time>2012-01-15T10:44:00+01:00</time>
      </trkpt>
      <trkpt lat="43.75396" lon="7.0896">
        <ele>745.639648</ele>
        <time>2012-01-15T10:44:04+01:00</time>
      </trkpt>
      <trkpt lat="43.75396" lon="7.0896">
        <ele>746.120361</ele>
        <time>2012-01-15T10:44:08+01:00</time>
      </trkpt>
      <trkpt lat="43.75395" lon="7.08961">
        <ele>745.639648</ele>
        <time>2012-01-15T10:44:12+01:00</time>
      </trkpt>
      <trkpt lat="43.75395" lon="7.08962">
        <ele>746.120361</ele>
        <time>2012-01-15T10:44:21+01:00</time>
      </trkpt>
      <trkpt lat="43.75395" lon="7.08962">
        <ele>746.601074</ele>
        <time>2012-01-15T10:44:25+01:00</time>
      </trkpt>
      <trkpt lat="43.75395" lon="7.08962">
        <ele>746.601074</ele>
        <time>2012-01-15T10:44:35+01:00</time>
      </trkpt>
      <trkpt lat="43.75395" lon="7.08961">
        <ele>746.120361</ele>
        <time>2012-01-15T10:44:44+01:00</time>
      </trkpt>
      <trkpt lat="43.75395" lon="7.0896">
        <ele>746.601074</ele>
        <time>2012-01-15T10:44:47+01:00</time>
      </trkpt>
      <trkpt lat="43.75394" lon="7.08939">
        <ele>748.043213</ele>
        <time>2012-01-15T10:44:56+01:00</time>
      </trkpt>
      <trkpt lat="43.75392" lon="7.08923">
        <ele>749.004395</ele>
        <time>2012-01-15T10:45:03+01:00</time>
      </trkpt>
      <trkpt lat="43.75395" lon="7.08906">
        <ele>750.927002</ele>
        <time>2012-01-15T10:45:11+01:00</time>
      </trkpt>
      <trkpt lat="43.75395" lon="7.08891">
        <ele>751.888428</ele>
        <time>2012-01-15T10:45:19+01:00</time>
      </trkpt>
      <trkpt lat="43.75394" lon="7.08878">
        <ele>752.849609</ele>
        <time>2012-01-15T10:45:26+01:00</time>
      </trkpt>
      <trkpt lat="43.75395" lon="7.08864">
        <ele>753.811035</ele>
        <time>2012-01-15T10:45:33+01:00</time>
      </trkpt>
      <trkpt lat="43.75395" lon="7.08844">
        <ele>755.733643</ele>
        <time>2012-01-15T10:45:43+01:00</time>
      </trkpt>
      <trkpt lat="43.75396" lon="7.08841">
        <ele>755.733643</ele>
        <time>2012-01-15T10:45:45+01:00</time>
      </trkpt>
      <trkpt lat="43.75396" lon="7.0884">
        <ele>756.214111</ele>
        <time>2012-01-15T10:45:53+01:00</time>
      </trkpt>
      <trkpt lat="43.75396" lon="7.0884">
        <ele>756.214111</ele>
        <time>2012-01-15T10:46:03+01:00</time>
      </trkpt>
      <trkpt lat="43.75396" lon="7.0884">
        <ele>755.733643</ele>
        <time>2012-01-15T10:46:20+01:00</time>
      </trkpt>
      <trkpt lat="43.75396" lon="7.08839">
        <ele>756.214111</ele>
        <time>2012-01-15T10:46:39+01:00</time>
      </trkpt>
      <trkpt lat="43.75395" lon="7.0883">
        <ele>756.694824</ele>
        <time>2012-01-15T10:46:45+01:00</time>
      </trkpt>
      <trkpt lat="43.7539" lon="7.08817">
        <ele>757.65625</ele>
        <time>2012-01-15T10:46:51+01:00</time>
      </trkpt>
      <trkpt lat="43.75385" lon="7.08801">
        <ele>759.098145</ele>
        <time>2012-01-15T10:46:59+01:00</time>
      </trkpt>
      <trkpt lat="43.75384" lon="7.0879">
        <ele>760.540039</ele>
        <time>2012-01-15T10:47:05+01:00</time>
      </trkpt>
      <trkpt lat="43.75382" lon="7.08772">
        <ele>762.943359</ele>
        <time>2012-01-15T10:47:13+01:00</time>
      </trkpt>
      <trkpt lat="43.75381" lon="7.08759">
        <ele>763.904541</ele>
        <time>2012-01-15T10:47:20+01:00</time>
      </trkpt>
      <trkpt lat="43.75381" lon="7.08755">
        <ele>764.385498</ele>
        <time>2012-01-15T10:47:22+01:00</time>
      </trkpt>
      <trkpt lat="43.75381" lon="7.08755">
        <ele>764.385498</ele>
        <time>2012-01-15T10:47:34+01:00</time>
      </trkpt>
      <trkpt lat="43.75381" lon="7.08757">
        <ele>764.385498</ele>
        <time>2012-01-15T10:47:54+01:00</time>
      </trkpt>
      <trkpt lat="43.75381" lon="7.08757">
        <ele>764.866211</ele>
        <time>2012-01-15T10:48:03+01:00</time>
      </trkpt>
      <trkpt lat="43.75381" lon="7.08756">
        <ele>766.788818</ele>
        <time>2012-01-15T10:48:20+01:00</time>
      </trkpt>
      <trkpt lat="43.75382" lon="7.08756">
        <ele>766.788818</ele>
        <time>2012-01-15T10:48:26+01:00</time>
      </trkpt>
      <trkpt lat="43.75382" lon="7.08753">
        <ele>767.269531</ele>
        <time>2012-01-15T10:48:30+01:00</time>
      </trkpt>
      <trkpt lat="43.75381" lon="7.08747">
        <ele>768.230713</ele>
        <time>2012-01-15T10:48:34+01:00</time>
      </trkpt>
      <trkpt lat="43.75381" lon="7.08741">
        <ele>769.192139</ele>
        <time>2012-01-15T10:48:40+01:00</time>
      </trkpt>
      <trkpt lat="43.75381" lon="7.08738">
        <ele>769.672852</ele>
        <time>2012-01-15T10:48:42+01:00</time>
      </trkpt>
      <trkpt lat="43.75377" lon="7.08724">
        <ele>771.595215</ele>
        <time>2012-01-15T10:48:49+01:00</time>
      </trkpt>
      <trkpt lat="43.75374" lon="7.08708">
        <ele>773.518066</ele>
        <time>2012-01-15T10:48:57+01:00</time>
      </trkpt>
      <trkpt lat="43.75377" lon="7.08697">
        <ele>774.959961</ele>
        <time>2012-01-15T10:49:03+01:00</time>
      </trkpt>
      <trkpt lat="43.75375" lon="7.08687">
        <ele>775.921143</ele>
        <time>2012-01-15T10:49:09+01:00</time>
      </trkpt>
      <trkpt lat="43.75373" lon="7.08676">
        <ele>777.363281</ele>
        <time>2012-01-15T10:49:16+01:00</time>
      </trkpt>
      <trkpt lat="43.75373" lon="7.08671">
        <ele>777.84375</ele>
        <time>2012-01-15T10:49:19+01:00</time>
      </trkpt>
      <trkpt lat="43.75375" lon="7.0866">
        <ele>779.285645</ele>
        <time>2012-01-15T10:49:26+01:00</time>
      </trkpt>
      <trkpt lat="43.75378" lon="7.08648">
        <ele>780.728027</ele>
        <time>2012-01-15T10:49:33+01:00</time>
      </trkpt>
      <trkpt lat="43.75379" lon="7.08636">
        <ele>782.169922</ele>
        <time>2012-01-15T10:49:40+01:00</time>
      </trkpt>
      <trkpt lat="43.75379" lon="7.08632">
        <ele>782.650635</ele>
        <time>2012-01-15T10:49:43+01:00</time>
      </trkpt>
      <trkpt lat="43.75378" lon="7.08631">
        <ele>782.650635</ele>
        <time>2012-01-15T10:49:52+01:00</time>
      </trkpt>
      <trkpt lat="43.75378" lon="7.08632">
        <ele>782.169922</ele>
        <time>2012-01-15T10:50:22+01:00</time>
      </trkpt>
      <trkpt lat="43.75378" lon="7.08627">
        <ele>782.650635</ele>
        <time>2012-01-15T10:50:34+01:00</time>
      </trkpt>
      <trkpt lat="43.75376" lon="7.08612">
        <ele>785.053955</ele>
        <time>2012-01-15T10:50:42+01:00</time>
      </trkpt>
      <trkpt lat="43.75375" lon="7.08597">
        <ele>786.976318</ele>
        <time>2012-01-15T10:50:49+01:00</time>
      </trkpt>
      <trkpt lat="43.75376" lon="7.08583">
        <ele>788.418457</ele>
        <time>2012-01-15T10:50:55+01:00</time>
      </trkpt>
      <trkpt lat="43.75377" lon="7.08574">
        <ele>789.379639</ele>
        <time>2012-01-15T10:51:01+01:00</time>
      </trkpt>
      <trkpt lat="43.75378" lon="7.08572">
        <ele>789.860352</ele>
        <time>2012-01-15T10:51:08+01:00</time>
      </trkpt>
      <trkpt lat="43.75377" lon="7.08566">
        <ele>790.821533</ele>
        <time>2012-01-15T10:51:16+01:00</time>
      </trkpt>
      <trkpt lat="43.75374" lon="7.08557">
        <ele>791.782959</ele>
        <time>2012-01-15T10:51:21+01:00</time>
      </trkpt>
      <trkpt lat="43.75369" lon="7.08547">
        <ele>793.705566</ele>
        <time>2012-01-15T10:51:27+01:00</time>
      </trkpt>
      <trkpt lat="43.75369" lon="7.08543">
        <ele>794.186279</ele>
        <time>2012-01-15T10:51:29+01:00</time>
      </trkpt>
      <trkpt lat="43.75368" lon="7.08541">
        <ele>794.186279</ele>
        <time>2012-01-15T10:51:35+01:00</time>
      </trkpt>
      <trkpt lat="43.75366" lon="7.08534">
        <ele>795.147461</ele>
        <time>2012-01-15T10:51:43+01:00</time>
      </trkpt>
      <trkpt lat="43.75362" lon="7.08523">
        <ele>797.070312</ele>
        <time>2012-01-15T10:51:51+01:00</time>
      </trkpt>
      <trkpt lat="43.7536" lon="7.08515">
        <ele>798.512207</ele>
        <time>2012-01-15T10:51:58+01:00</time>
      </trkpt>
      <trkpt lat="43.75358" lon="7.08509">
        <ele>799.473633</ele>
        <time>2012-01-15T10:52:04+01:00</time>
      </trkpt>
      <trkpt lat="43.75358" lon="7.08503">
        <ele>800.435059</ele>
        <time>2012-01-15T10:52:12+01:00</time>
      </trkpt>
      <trkpt lat="43.75361" lon="7.0849">
        <ele>801.876953</ele>
        <time>2012-01-15T10:52:18+01:00</time>
      </trkpt>
      <trkpt lat="43.75366" lon="7.08483">
        <ele>803.318848</ele>
        <time>2012-01-15T10:52:23+01:00</time>
      </trkpt>
      <trkpt lat="43.75373" lon="7.0848">
        <ele>805.241455</ele>
        <time>2012-01-15T10:52:28+01:00</time>
      </trkpt>
      <trkpt lat="43.7538" lon="7.08474">
        <ele>806.68335</ele>
        <time>2012-01-15T10:52:35+01:00</time>
      </trkpt>
      <trkpt lat="43.75385" lon="7.08465">
        <ele>808.125488</ele>
        <time>2012-01-15T10:52:41+01:00</time>
      </trkpt>
      <trkpt lat="43.75385" lon="7.08456">
        <ele>809.08667</ele>
        <time>2012-01-15T10:52:47+01:00</time>
      </trkpt>
      <trkpt lat="43.75383" lon="7.08443">
        <ele>810.528564</ele>
        <time>2012-01-15T10:52:54+01:00</time>
      </trkpt>
      <trkpt lat="43.75383" lon="7.08441">
        <ele>810.528564</ele>
        <time>2012-01-15T10:52:55+01:00</time>
      </trkpt>
      <trkpt lat="43.75379" lon="7.08437">
        <ele>811.48999</ele>
        <time>2012-01-15T10:53:00+01:00</time>
      </trkpt>
      <trkpt lat="43.75376" lon="7.08433">
        <ele>812.451416</ele>
        <time>2012-01-15T10:53:06+01:00</time>
      </trkpt>
      <trkpt lat="43.75374" lon="7.08429">
        <ele>813.412842</ele>
        <time>2012-01-15T10:53:12+01:00</time>
      </trkpt>
      <trkpt lat="43.75375" lon="7.0843">
        <ele>814.374023</ele>
        <time>2012-01-15T10:53:17+01:00</time>
      </trkpt>
      <trkpt lat="43.75372" lon="7.08429">
        <ele>815.335449</ele>
        <time>2012-01-15T10:53:23+01:00</time>
      </trkpt>
      <trkpt lat="43.75371" lon="7.08428">
        <ele>815.335449</ele>
        <time>2012-01-15T10:53:29+01:00</time>
      </trkpt>
      <trkpt lat="43.75371" lon="7.08429">
        <ele>816.296631</ele>
        <time>2012-01-15T10:54:21+01:00</time>
      </trkpt>
      <trkpt lat="43.75373" lon="7.08429">
        <ele>817.258057</ele>
        <time>2012-01-15T10:54:26+01:00</time>
      </trkpt>
      <trkpt lat="43.75373" lon="7.08428">
        <ele>817.738525</ele>
        <time>2012-01-15T10:54:49+01:00</time>
      </trkpt>
      <trkpt lat="43.75372" lon="7.08429">
        <ele>817.258057</ele>
        <time>2012-01-15T10:55:05+01:00</time>
      </trkpt>
      <trkpt lat="43.75373" lon="7.08427">
        <ele>817.258057</ele>
        <time>2012-01-15T10:55:08+01:00</time>
      </trkpt>
      <trkpt lat="43.75375" lon="7.08414">
        <ele>817.738525</ele>
        <time>2012-01-15T10:55:14+01:00</time>
      </trkpt>
      <trkpt lat="43.75375" lon="7.08413">
        <ele>818.219238</ele>
        <time>2012-01-15T10:55:15+01:00</time>
      </trkpt>
      <trkpt lat="43.75375" lon="7.08396">
        <ele>819.180664</ele>
        <time>2012-01-15T10:55:23+01:00</time>
      </trkpt>
      <trkpt lat="43.75373" lon="7.08388">
        <ele>819.180664</ele>
        <time>2012-01-15T10:55:27+01:00</time>
      </trkpt>
      <trkpt lat="43.75368" lon="7.08375">
        <ele>819.661377</ele>
        <time>2012-01-15T10:55:33+01:00</time>
      </trkpt>
      <trkpt lat="43.75364" lon="7.08365">
        <ele>819.180664</ele>
        <time>2012-01-15T10:55:40+01:00</time>
      </trkpt>
      <trkpt lat="43.75357" lon="7.08354">
        <ele>818.699951</ele>
        <time>2012-01-15T10:55:46+01:00</time>
      </trkpt>
      <trkpt lat="43.75343" lon="7.08335">
        <ele>817.738525</ele>
        <time>2012-01-15T10:55:52+01:00</time>
      </trkpt>
      <trkpt lat="43.75336" lon="7.08323">
        <ele>817.258057</ele>
        <time>2012-01-15T10:55:56+01:00</time>
      </trkpt>
      <trkpt lat="43.75335" lon="7.08316">
        <ele>817.738525</ele>
        <time>2012-01-15T10:55:59+01:00</time>
      </trkpt>
      <trkpt lat="43.75341" lon="7.08312">
        <ele>818.219238</ele>
        <time>2012-01-15T10:56:05+01:00</time>
      </trkpt>
      <trkpt lat="43.75348" lon="7.08309">
        <ele>819.180664</ele>
        <time>2012-01-15T10:56:12+01:00</time>
      </trkpt>
      <trkpt lat="43.75353" lon="7.08303">
        <ele>819.180664</ele>
        <time>2012-01-15T10:56:18+01:00</time>
      </trkpt>
      <trkpt lat="43.75363" lon="7.08297">
        <ele>819.661377</ele>
        <time>2012-01-15T10:56:27+01:00</time>
      </trkpt>
      <trkpt lat="43.75373" lon="7.08296">
        <ele>819.661377</ele>
        <time>2012-01-15T10:56:33+01:00</time>
      </trkpt>
      <trkpt lat="43.75376" lon="7.08296">
        <ele>819.661377</ele>
        <time>2012-01-15T10:56:35+01:00</time>
      </trkpt>
      <trkpt lat="43.7538" lon="7.08295">
        <ele>820.141846</ele>
        <time>2012-01-15T10:56:38+01:00</time>
      </trkpt>
      <trkpt lat="43.75388" lon="7.0829">
        <ele>820.622559</ele>
        <time>2012-01-15T10:56:45+01:00</time>
      </trkpt>
      <trkpt lat="43.75398" lon="7.08291">
        <ele>822.064453</ele>
        <time>2012-01-15T10:56:52+01:00</time>
      </trkpt>
      <trkpt lat="43.75399" lon="7.08291">
        <ele>822.064453</ele>
        <time>2012-01-15T10:56:53+01:00</time>
      </trkpt>
      <trkpt lat="43.7541" lon="7.08287">
        <ele>823.506592</ele>
        <time>2012-01-15T10:57:01+01:00</time>
      </trkpt>
      <trkpt lat="43.75413" lon="7.08286">
        <ele>823.506592</ele>
        <time>2012-01-15T10:57:03+01:00</time>
      </trkpt>
      <trkpt lat="43.75418" lon="7.08288">
        <ele>823.987061</ele>
        <time>2012-01-15T10:57:09+01:00</time>
      </trkpt>
      <trkpt lat="43.75419" lon="7.08285">
        <ele>823.987061</ele>
        <time>2012-01-15T10:57:13+01:00</time>
      </trkpt>
      <trkpt lat="43.75419" lon="7.08285">
        <ele>823.987061</ele>
        <time>2012-01-15T10:57:24+01:00</time>
      </trkpt>
      <trkpt lat="43.75419" lon="7.08285">
        <ele>823.987061</ele>
        <time>2012-01-15T10:57:56+01:00</time>
      </trkpt>
      <trkpt lat="43.75419" lon="7.08285">
        <ele>824.467773</ele>
        <time>2012-01-15T10:58:03+01:00</time>
      </trkpt>
      <trkpt lat="43.7542" lon="7.08283">
        <ele>825.428955</ele>
        <time>2012-01-15T10:58:12+01:00</time>
      </trkpt>
      <trkpt lat="43.75422" lon="7.08281">
        <ele>825.909668</ele>
        <time>2012-01-15T10:58:14+01:00</time>
      </trkpt>
      <trkpt lat="43.75426" lon="7.08268">
        <ele>827.832275</ele>
        <time>2012-01-15T10:58:21+01:00</time>
      </trkpt>
      <trkpt lat="43.75432" lon="7.08254">
        <ele>829.755127</ele>
        <time>2012-01-15T10:58:29+01:00</time>
      </trkpt>
      <trkpt lat="43.75436" lon="7.08242">
        <ele>830.716553</ele>
        <time>2012-01-15T10:58:35+01:00</time>
      </trkpt>
      <trkpt lat="43.75437" lon="7.08237">
        <ele>831.677734</ele>
        <time>2012-01-15T10:58:38+01:00</time>
      </trkpt>
      <trkpt lat="43.75442" lon="7.08224">
        <ele>833.600342</ele>
        <time>2012-01-15T10:58:45+01:00</time>
      </trkpt>
      <trkpt lat="43.75448" lon="7.08213">
        <ele>835.04248</ele>
        <time>2012-01-15T10:58:53+01:00</time>
      </trkpt>
      <trkpt lat="43.75456" lon="7.08198">
        <ele>836.964844</ele>
        <time>2012-01-15T10:59:02+01:00</time>
      </trkpt>
      <trkpt lat="43.75461" lon="7.08192">
        <ele>838.406982</ele>
        <time>2012-01-15T10:59:07+01:00</time>
      </trkpt>
      <trkpt lat="43.75466" lon="7.08187">
        <ele>839.368164</ele>
        <time>2012-01-15T10:59:12+01:00</time>
      </trkpt>
      <trkpt lat="43.75473" lon="7.08181">
        <ele>840.32959</ele>
        <time>2012-01-15T10:59:20+01:00</time>
      </trkpt>
      <trkpt lat="43.75473" lon="7.08182">
        <ele>840.32959</ele>
        <time>2012-01-15T10:59:31+01:00</time>
      </trkpt>
      <trkpt lat="43.75472" lon="7.08182">
        <ele>838.887695</ele>
        <time>2012-01-15T10:59:52+01:00</time>
      </trkpt>
      <trkpt lat="43.75486" lon="7.08175">
        <ele>841.771484</ele>
        <time>2012-01-15T11:00:00+01:00</time>
      </trkpt>
      <trkpt lat="43.75496" lon="7.08173">
        <ele>843.213379</ele>
        <time>2012-01-15T11:00:06+01:00</time>
      </trkpt>
      <trkpt lat="43.75506" lon="7.08173">
        <ele>845.13623</ele>
        <time>2012-01-15T11:00:12+01:00</time>
      </trkpt>
      <trkpt lat="43.75517" lon="7.08175">
        <ele>846.578369</ele>
        <time>2012-01-15T11:00:19+01:00</time>
      </trkpt>
      <trkpt lat="43.75528" lon="7.08176">
        <ele>848.020264</ele>
        <time>2012-01-15T11:00:26+01:00</time>
      </trkpt>
      <trkpt lat="43.75539" lon="7.08175">
        <ele>848.981445</ele>
        <time>2012-01-15T11:00:33+01:00</time>
      </trkpt>
      <trkpt lat="43.75543" lon="7.08173">
        <ele>849.462158</ele>
        <time>2012-01-15T11:00:36+01:00</time>
      </trkpt>
      <trkpt lat="43.75552" lon="7.08173">
        <ele>850.423584</ele>
        <time>2012-01-15T11:00:42+01:00</time>
      </trkpt>
      <trkpt lat="43.75562" lon="7.08172">
        <ele>851.384766</ele>
        <time>2012-01-15T11:00:49+01:00</time>
      </trkpt>
      <trkpt lat="43.75573" lon="7.08171">
        <ele>852.345947</ele>
        <time>2012-01-15T11:00:57+01:00</time>
      </trkpt>
      <trkpt lat="43.7558" lon="7.08172">
        <ele>853.307373</ele>
        <time>2012-01-15T11:01:02+01:00</time>
      </trkpt>
      <trkpt lat="43.75588" lon="7.08172">
        <ele>854.268799</ele>
        <time>2012-01-15T11:01:08+01:00</time>
      </trkpt>
      <trkpt lat="43.75599" lon="7.08171">
        <ele>856.191162</ele>
        <time>2012-01-15T11:01:16+01:00</time>
      </trkpt>
      <trkpt lat="43.756" lon="7.08171">
        <ele>856.671875</ele>
        <time>2012-01-15T11:01:17+01:00</time>
      </trkpt>
      <trkpt lat="43.75608" lon="7.08171">
        <ele>857.633301</ele>
        <time>2012-01-15T11:01:23+01:00</time>
      </trkpt>
      <trkpt lat="43.75612" lon="7.08171">
        <ele>858.114014</ele>
        <time>2012-01-15T11:01:26+01:00</time>
      </trkpt>
      <trkpt lat="43.75623" lon="7.0817">
        <ele>859.075195</ele>
        <time>2012-01-15T11:01:34+01:00</time>
      </trkpt>
      <trkpt lat="43.75632" lon="7.08169">
        <ele>860.517334</ele>
        <time>2012-01-15T11:01:41+01:00</time>
      </trkpt>
      <trkpt lat="43.75642" lon="7.0817">
        <ele>860.998047</ele>
        <time>2012-01-15T11:01:48+01:00</time>
      </trkpt>
      <trkpt lat="43.7565" lon="7.08171">
        <ele>861.959473</ele>
        <time>2012-01-15T11:01:53+01:00</time>
      </trkpt>
      <trkpt lat="43.75659" lon="7.08172">
        <ele>862.920654</ele>
        <time>2012-01-15T11:01:59+01:00</time>
      </trkpt>
      <trkpt lat="43.75668" lon="7.08173">
        <ele>863.881836</ele>
        <time>2012-01-15T11:02:05+01:00</time>
      </trkpt>
      <trkpt lat="43.75678" lon="7.08173">
        <ele>864.843262</ele>
        <time>2012-01-15T11:02:12+01:00</time>
      </trkpt>
      <trkpt lat="43.75687" lon="7.0817">
        <ele>866.285156</ele>
        <time>2012-01-15T11:02:19+01:00</time>
      </trkpt>
      <trkpt lat="43.75692" lon="7.0817">
        <ele>866.765869</ele>
        <time>2012-01-15T11:02:23+01:00</time>
      </trkpt>
      <trkpt lat="43.75694" lon="7.08169">
        <ele>866.765869</ele>
        <time>2012-01-15T11:02:25+01:00</time>
      </trkpt>
      <trkpt lat="43.75702" lon="7.08168">
        <ele>867.727051</ele>
        <time>2012-01-15T11:02:31+01:00</time>
      </trkpt>
      <trkpt lat="43.75711" lon="7.08167">
        <ele>869.169189</ele>
        <time>2012-01-15T11:02:38+01:00</time>
      </trkpt>
      <trkpt lat="43.7572" lon="7.08165">
        <ele>870.611084</ele>
        <time>2012-01-15T11:02:45+01:00</time>
      </trkpt>
      <trkpt lat="43.75726" lon="7.08162">
        <ele>871.572266</ele>
        <time>2012-01-15T11:02:51+01:00</time>
      </trkpt>
      <trkpt lat="43.75727" lon="7.08156">
        <ele>872.533691</ele>
        <time>2012-01-15T11:02:56+01:00</time>
      </trkpt>
      <trkpt lat="43.75725" lon="7.08152">
        <ele>873.014404</ele>
        <time>2012-01-15T11:02:59+01:00</time>
      </trkpt>
      <trkpt lat="43.7572" lon="7.08143">
        <ele>874.937012</ele>
        <time>2012-01-15T11:03:06+01:00</time>
      </trkpt>
      <trkpt lat="43.75719" lon="7.08141">
        <ele>875.41748</ele>
        <time>2012-01-15T11:03:07+01:00</time>
      </trkpt>
      <trkpt lat="43.75716" lon="7.08134">
        <ele>876.37915</ele>
        <time>2012-01-15T11:03:13+01:00</time>
      </trkpt>
      <trkpt lat="43.75715" lon="7.08132">
        <ele>876.859863</ele>
        <time>2012-01-15T11:03:19+01:00</time>
      </trkpt>
      <trkpt lat="43.75715" lon="7.08131">
        <ele>876.859863</ele>
        <time>2012-01-15T11:03:33+01:00</time>
      </trkpt>
      <trkpt lat="43.75715" lon="7.0813">
        <ele>877.340576</ele>
        <time>2012-01-15T11:03:39+01:00</time>
      </trkpt>
      <trkpt lat="43.75714" lon="7.08127">
        <ele>877.821045</ele>
        <time>2012-01-15T11:03:44+01:00</time>
      </trkpt>
      <trkpt lat="43.75711" lon="7.08122">
        <ele>878.782471</ele>
        <time>2012-01-15T11:03:51+01:00</time>
      </trkpt>
      <trkpt lat="43.75706" lon="7.0811">
        <ele>880.224365</ele>
        <time>2012-01-15T11:03:57+01:00</time>
      </trkpt>
      <trkpt lat="43.75706" lon="7.08108">
        <ele>880.224365</ele>
        <time>2012-01-15T11:03:58+01:00</time>
      </trkpt>
      <trkpt lat="43.75713" lon="7.08105">
        <ele>881.66626</ele>
        <time>2012-01-15T11:04:04+01:00</time>
      </trkpt>
      <trkpt lat="43.7572" lon="7.08104">
        <ele>882.627686</ele>
        <time>2012-01-15T11:04:08+01:00</time>
      </trkpt>
      <trkpt lat="43.7573" lon="7.08104">
        <ele>883.108154</ele>
        <time>2012-01-15T11:04:14+01:00</time>
      </trkpt>
      <trkpt lat="43.75738" lon="7.08102">
        <ele>884.550293</ele>
        <time>2012-01-15T11:04:20+01:00</time>
      </trkpt>
      <trkpt lat="43.75744" lon="7.081">
        <ele>885.511475</ele>
        <time>2012-01-15T11:04:25+01:00</time>
      </trkpt>
      <trkpt lat="43.75748" lon="7.08097">
        <ele>886.4729</ele>
        <time>2012-01-15T11:04:30+01:00</time>
      </trkpt>
      <trkpt lat="43.75754" lon="7.08096">
        <ele>886.953369</ele>
        <time>2012-01-15T11:04:36+01:00</time>
      </trkpt>
      <trkpt lat="43.75755" lon="7.08097">
        <ele>887.914795</ele>
        <time>2012-01-15T11:04:41+01:00</time>
      </trkpt>
      <trkpt lat="43.75754" lon="7.08097">
        <ele>888.395508</ele>
        <time>2012-01-15T11:04:48+01:00</time>
      </trkpt>
      <trkpt lat="43.75754" lon="7.08096">
        <ele>888.876221</ele>
        <time>2012-01-15T11:04:54+01:00</time>
      </trkpt>
      <trkpt lat="43.75754" lon="7.08096">
        <ele>887.914795</ele>
        <time>2012-01-15T11:05:15+01:00</time>
      </trkpt>
      <trkpt lat="43.75755" lon="7.08096">
        <ele>888.395508</ele>
        <time>2012-01-15T11:05:34+01:00</time>
      </trkpt>
      <trkpt lat="43.75754" lon="7.08096">
        <ele>888.876221</ele>
        <time>2012-01-15T11:05:45+01:00</time>
      </trkpt>
      <trkpt lat="43.75754" lon="7.08097">
        <ele>888.876221</ele>
        <time>2012-01-15T11:06:04+01:00</time>
      </trkpt>
      <trkpt lat="43.75753" lon="7.08097">
        <ele>889.356689</ele>
        <time>2012-01-15T11:06:31+01:00</time>
      </trkpt>
      <trkpt lat="43.75754" lon="7.08097">
        <ele>889.356689</ele>
        <time>2012-01-15T11:06:39+01:00</time>
      </trkpt>
      <trkpt lat="43.75754" lon="7.08096">
        <ele>888.876221</ele>
        <time>2012-01-15T11:06:52+01:00</time>
      </trkpt>
      <trkpt lat="43.75754" lon="7.08096">
        <ele>888.395508</ele>
        <time>2012-01-15T11:07:25+01:00</time>
      </trkpt>
      <trkpt lat="43.75754" lon="7.08096">
        <ele>888.876221</ele>
        <time>2012-01-15T11:07:43+01:00</time>
      </trkpt>
      <trkpt lat="43.75754" lon="7.08096">
        <ele>888.876221</ele>
        <time>2012-01-15T11:07:54+01:00</time>
      </trkpt>
      <trkpt lat="43.75754" lon="7.08098">
        <ele>889.356689</ele>
        <time>2012-01-15T11:08:21+01:00</time>
      </trkpt>
      <trkpt lat="43.75753" lon="7.08099">
        <ele>889.356689</ele>
        <time>2012-01-15T11:08:26+01:00</time>
      </trkpt>
      <trkpt lat="43.75753" lon="7.08099">
        <ele>888.876221</ele>
        <time>2012-01-15T11:08:33+01:00</time>
      </trkpt>
      <trkpt lat="43.75756" lon="7.08094">
        <ele>889.837402</ele>
        <time>2012-01-15T11:08:39+01:00</time>
      </trkpt>
      <trkpt lat="43.75757" lon="7.0809">
        <ele>890.798584</ele>
        <time>2012-01-15T11:08:46+01:00</time>
      </trkpt>
      <trkpt lat="43.75757" lon="7.08088">
        <ele>890.798584</ele>
        <time>2012-01-15T11:08:53+01:00</time>
      </trkpt>
      <trkpt lat="43.75757" lon="7.08087">
        <ele>890.798584</ele>
        <time>2012-01-15T11:09:09+01:00</time>
      </trkpt>
      <trkpt lat="43.75757" lon="7.08086">
        <ele>890.318115</ele>
        <time>2012-01-15T11:09:25+01:00</time>
      </trkpt>
      <trkpt lat="43.75756" lon="7.08084">
        <ele>890.798584</ele>
        <time>2012-01-15T11:10:01+01:00</time>
      </trkpt>
      <trkpt lat="43.75753" lon="7.08075">
        <ele>891.76001</ele>
        <time>2012-01-15T11:10:08+01:00</time>
      </trkpt>
      <trkpt lat="43.75754" lon="7.08074">
        <ele>892.240967</ele>
        <time>2012-01-15T11:10:16+01:00</time>
      </trkpt>
      <trkpt lat="43.75751" lon="7.08072">
        <ele>892.72168</ele>
        <time>2012-01-15T11:10:29+01:00</time>
      </trkpt>
      <trkpt lat="43.75743" lon="7.08066">
        <ele>893.202148</ele>
        <time>2012-01-15T11:10:36+01:00</time>
      </trkpt>
      <trkpt lat="43.75739" lon="7.08062">
        <ele>893.682861</ele>
        <time>2012-01-15T11:10:40+01:00</time>
      </trkpt>
      <trkpt lat="43.7573" lon="7.08055">
        <ele>894.163574</ele>
        <time>2012-01-15T11:10:47+01:00</time>
      </trkpt>
      <trkpt lat="43.75723" lon="7.08049">
        <ele>894.644043</ele>
        <time>2012-01-15T11:10:53+01:00</time>
      </trkpt>
      <trkpt lat="43.75714" lon="7.08042">
        <ele>895.124756</ele>
        <time>2012-01-15T11:11:01+01:00</time>
      </trkpt>
      <trkpt lat="43.7571" lon="7.08038">
        <ele>895.124756</ele>
        <time>2012-01-15T11:11:05+01:00</time>
      </trkpt>
      <trkpt lat="43.75703" lon="7.0803">
        <ele>895.605469</ele>
        <time>2012-01-15T11:11:12+01:00</time>
      </trkpt>
      <trkpt lat="43.75702" lon="7.08028">
        <ele>895.605469</ele>
        <time>2012-01-15T11:11:13+01:00</time>
      </trkpt>
      <trkpt lat="43.75691" lon="7.08016">
        <ele>896.566895</ele>
        <time>2012-01-15T11:11:21+01:00</time>
      </trkpt>
      <trkpt lat="43.75688" lon="7.08011">
        <ele>897.047363</ele>
        <time>2012-01-15T11:11:24+01:00</time>
      </trkpt>
      <trkpt lat="43.75686" lon="7.07996">
        <ele>897.528076</ele>
        <time>2012-01-15T11:11:32+01:00</time>
      </trkpt>
      <trkpt lat="43.75684" lon="7.07979">
        <ele>898.489258</ele>
        <time>2012-01-15T11:11:40+01:00</time>
      </trkpt>
      <trkpt lat="43.75682" lon="7.07965">
        <ele>898.969971</ele>
        <time>2012-01-15T11:11:47+01:00</time>
      </trkpt>
      <trkpt lat="43.75681" lon="7.07949">
        <ele>899.450684</ele>
        <time>2012-01-15T11:11:55+01:00</time>
      </trkpt>
      <trkpt lat="43.75679" lon="7.07932">
        <ele>900.412109</ele>
        <time>2012-01-15T11:12:02+01:00</time>
      </trkpt>
      <trkpt lat="43.75677" lon="7.07914">
        <ele>900.892578</ele>
        <time>2012-01-15T11:12:09+01:00</time>
      </trkpt>
      <trkpt lat="43.75675" lon="7.07896">
        <ele>901.373291</ele>
        <time>2012-01-15T11:12:16+01:00</time>
      </trkpt>
      <trkpt lat="43.75673" lon="7.0788">
        <ele>901.854004</ele>
        <time>2012-01-15T11:12:23+01:00</time>
      </trkpt>
      <trkpt lat="43.75672" lon="7.07859">
        <ele>902.815186</ele>
        <time>2012-01-15T11:12:33+01:00</time>
      </trkpt>
      <trkpt lat="43.75671" lon="7.07838">
        <ele>903.776611</ele>
        <time>2012-01-15T11:12:42+01:00</time>
      </trkpt>
      <trkpt lat="43.75671" lon="7.07821">
        <ele>904.737793</ele>
        <time>2012-01-15T11:12:49+01:00</time>
      </trkpt>
      <trkpt lat="43.7567" lon="7.07809">
        <ele>905.218506</ele>
        <time>2012-01-15T11:12:54+01:00</time>
      </trkpt>
      <trkpt lat="43.7567" lon="7.07805">
        <ele>905.699219</ele>
        <time>2012-01-15T11:12:56+01:00</time>
      </trkpt>
      <trkpt lat="43.7567" lon="7.0779">
        <ele>905.699219</ele>
        <time>2012-01-15T11:13:03+01:00</time>
      </trkpt>
      <trkpt lat="43.7567" lon="7.07786">
        <ele>905.699219</ele>
        <time>2012-01-15T11:13:05+01:00</time>
      </trkpt>
      <trkpt lat="43.75671" lon="7.07774">
        <ele>906.6604</ele>
        <time>2012-01-15T11:13:11+01:00</time>
      </trkpt>
      <trkpt lat="43.75673" lon="7.07757">
        <ele>907.141113</ele>
        <time>2012-01-15T11:13:17+01:00</time>
      </trkpt>
      <trkpt lat="43.75676" lon="7.07738">
        <ele>908.583252</ele>
        <time>2012-01-15T11:13:22+01:00</time>
      </trkpt>
      <trkpt lat="43.75687" lon="7.07705">
        <ele>910.986572</ele>
        <time>2012-01-15T11:13:31+01:00</time>
      </trkpt>
      <trkpt lat="43.75695" lon="7.07681">
        <ele>911.947998</ele>
        <time>2012-01-15T11:13:38+01:00</time>
      </trkpt>
      <trkpt lat="43.75705" lon="7.07649">
        <ele>913.870361</ele>
        <time>2012-01-15T11:13:47+01:00</time>
      </trkpt>
      <trkpt lat="43.75717" lon="7.0761">
        <ele>916.273682</ele>
        <time>2012-01-15T11:13:58+01:00</time>
      </trkpt>
      <trkpt lat="43.75719" lon="7.07583">
        <ele>917.715576</ele>
        <time>2012-01-15T11:14:05+01:00</time>
      </trkpt>
      <trkpt lat="43.75722" lon="7.07556">
        <ele>919.157715</ele>
        <time>2012-01-15T11:14:12+01:00</time>
      </trkpt>
      <trkpt lat="43.75722" lon="7.07522">
        <ele>920.599609</ele>
        <time>2012-01-15T11:14:20+01:00</time>
      </trkpt>
      <trkpt lat="43.75718" lon="7.07494">
        <ele>921.560791</ele>
        <time>2012-01-15T11:14:27+01:00</time>
      </trkpt>
      <trkpt lat="43.75716" lon="7.07466">
        <ele>923.00293</ele>
        <time>2012-01-15T11:14:34+01:00</time>
      </trkpt>
      <trkpt lat="43.75726" lon="7.07455">
        <ele>923.483643</ele>
        <time>2012-01-15T11:14:38+01:00</time>
      </trkpt>
      <trkpt lat="43.75735" lon="7.0746">
        <ele>923.964111</ele>
        <time>2012-01-15T11:14:41+01:00</time>
      </trkpt>
      <trkpt lat="43.75752" lon="7.0749">
        <ele>924.925781</ele>
        <time>2012-01-15T11:14:48+01:00</time>
      </trkpt>
      <trkpt lat="43.75763" lon="7.0753">
        <ele>926.367676</ele>
        <time>2012-01-15T11:14:56+01:00</time>
      </trkpt>
      <trkpt lat="43.7577" lon="7.07564">
        <ele>928.290283</ele>
        <time>2012-01-15T11:15:02+01:00</time>
      </trkpt>
      <trkpt lat="43.75779" lon="7.0761">
        <ele>931.174316</ele>
        <time>2012-01-15T11:15:10+01:00</time>
      </trkpt>
      <trkpt lat="43.75782" lon="7.07626">
        <ele>932.135498</ele>
        <time>2012-01-15T11:15:13+01:00</time>
      </trkpt>
      <trkpt lat="43.75785" lon="7.07643">
        <ele>933.577393</ele>
        <time>2012-01-15T11:15:19+01:00</time>
      </trkpt>
      <trkpt lat="43.75788" lon="7.07639">
        <ele>933.577393</ele>
        <time>2012-01-15T11:15:23+01:00</time>
      </trkpt>
      <trkpt lat="43.75784" lon="7.07631">
        <ele>933.09668</ele>
        <time>2012-01-15T11:15:28+01:00</time>
      </trkpt>
      <trkpt lat="43.75782" lon="7.07635">
        <ele>933.577393</ele>
        <time>2012-01-15T11:15:31+01:00</time>
      </trkpt>
      <trkpt lat="43.75775" lon="7.07649">
        <ele>932.135498</ele>
        <time>2012-01-15T11:15:35+01:00</time>
      </trkpt>
      <trkpt lat="43.75764" lon="7.07667">
        <ele>930.212891</ele>
        <time>2012-01-15T11:15:39+01:00</time>
      </trkpt>
      <trkpt lat="43.7576" lon="7.07677">
        <ele>928.770996</ele>
        <time>2012-01-15T11:15:41+01:00</time>
      </trkpt>
      <trkpt lat="43.75756" lon="7.07689">
        <ele>927.80957</ele>
        <time>2012-01-15T11:15:43+01:00</time>
      </trkpt>
      <trkpt lat="43.75747" lon="7.0771">
        <ele>925.886963</ele>
        <time>2012-01-15T11:15:46+01:00</time>
      </trkpt>
      <trkpt lat="43.75732" lon="7.07752">
        <ele>921.560791</ele>
        <time>2012-01-15T11:15:52+01:00</time>
      </trkpt>
      <trkpt lat="43.75727" lon="7.07762">
        <ele>920.118896</ele>
        <time>2012-01-15T11:15:54+01:00</time>
      </trkpt>
      <trkpt lat="43.7572" lon="7.07778">
        <ele>918.677002</ele>
        <time>2012-01-15T11:15:57+01:00</time>
      </trkpt>
      <trkpt lat="43.75712" lon="7.0781">
        <ele>915.793213</ele>
        <time>2012-01-15T11:16:02+01:00</time>
      </trkpt>
      <trkpt lat="43.75701" lon="7.07834">
        <ele>912.90918</ele>
        <time>2012-01-15T11:16:06+01:00</time>
      </trkpt>
      <trkpt lat="43.75698" lon="7.07857">
        <ele>910.986572</ele>
        <time>2012-01-15T11:16:11+01:00</time>
      </trkpt>
      <trkpt lat="43.75698" lon="7.07862">
        <ele>910.505859</ele>
        <time>2012-01-15T11:16:12+01:00</time>
      </trkpt>
      <trkpt lat="43.75693" lon="7.07886">
        <ele>908.102783</ele>
        <time>2012-01-15T11:16:18+01:00</time>
      </trkpt>
      <trkpt lat="43.75688" lon="7.07898">
        <ele>906.179688</ele>
        <time>2012-01-15T11:16:23+01:00</time>
      </trkpt>
      <trkpt lat="43.75682" lon="7.07922">
        <ele>902.815186</ele>
        <time>2012-01-15T11:16:28+01:00</time>
      </trkpt>
      <trkpt lat="43.7568" lon="7.07939">
        <ele>900.412109</ele>
        <time>2012-01-15T11:16:32+01:00</time>
      </trkpt>
      <trkpt lat="43.75678" lon="7.07947">
        <ele>899.931396</ele>
        <time>2012-01-15T11:16:34+01:00</time>
      </trkpt>
      <trkpt lat="43.75674" lon="7.07947">
        <ele>899.931396</ele>
        <time>2012-01-15T11:16:38+01:00</time>
      </trkpt>
      <trkpt lat="43.75677" lon="7.07931">
        <ele>900.412109</ele>
        <time>2012-01-15T11:16:42+01:00</time>
      </trkpt>
      <trkpt lat="43.75676" lon="7.07915">
        <ele>900.892578</ele>
        <time>2012-01-15T11:16:46+01:00</time>
      </trkpt>
      <trkpt lat="43.75673" lon="7.07884">
        <ele>902.334473</ele>
        <time>2012-01-15T11:16:54+01:00</time>
      </trkpt>
      <trkpt lat="43.75672" lon="7.07865">
        <ele>903.295898</ele>
        <time>2012-01-15T11:16:59+01:00</time>
      </trkpt>
      <trkpt lat="43.7567" lon="7.07844">
        <ele>905.218506</ele>
        <time>2012-01-15T11:17:04+01:00</time>
      </trkpt>
      <trkpt lat="43.75671" lon="7.07828">
        <ele>906.179688</ele>
        <time>2012-01-15T11:17:08+01:00</time>
      </trkpt>
      <trkpt lat="43.7567" lon="7.078">
        <ele>907.621826</ele>
        <time>2012-01-15T11:17:15+01:00</time>
      </trkpt>
      <trkpt lat="43.7567" lon="7.07777">
        <ele>908.583252</ele>
        <time>2012-01-15T11:17:21+01:00</time>
      </trkpt>
      <trkpt lat="43.75675" lon="7.07742">
        <ele>910.986572</ele>
        <time>2012-01-15T11:17:30+01:00</time>
      </trkpt>
      <trkpt lat="43.75683" lon="7.07711">
        <ele>912.428467</ele>
        <time>2012-01-15T11:17:38+01:00</time>
      </trkpt>
      <trkpt lat="43.75693" lon="7.07683">
        <ele>914.351074</ele>
        <time>2012-01-15T11:17:46+01:00</time>
      </trkpt>
      <trkpt lat="43.75704" lon="7.0765">
        <ele>916.273682</ele>
        <time>2012-01-15T11:17:55+01:00</time>
      </trkpt>
      <trkpt lat="43.75718" lon="7.07602">
        <ele>919.157715</ele>
        <time>2012-01-15T11:18:08+01:00</time>
      </trkpt>
      <trkpt lat="43.7572" lon="7.0757">
        <ele>921.080322</ele>
        <time>2012-01-15T11:18:16+01:00</time>
      </trkpt>
      <trkpt lat="43.75723" lon="7.07535">
        <ele>922.522217</ele>
        <time>2012-01-15T11:18:25+01:00</time>
      </trkpt>
      <trkpt lat="43.75721" lon="7.07514">
        <ele>923.483643</ele>
        <time>2012-01-15T11:18:31+01:00</time>
      </trkpt>
      <trkpt lat="43.75716" lon="7.07481">
        <ele>924.925781</ele>
        <time>2012-01-15T11:18:40+01:00</time>
      </trkpt>
      <trkpt lat="43.75718" lon="7.07458">
        <ele>926.367676</ele>
        <time>2012-01-15T11:18:46+01:00</time>
      </trkpt>
      <trkpt lat="43.75729" lon="7.07453">
        <ele>926.848389</ele>
        <time>2012-01-15T11:18:50+01:00</time>
      </trkpt>
      <trkpt lat="43.75739" lon="7.07464">
        <ele>927.329102</ele>
        <time>2012-01-15T11:18:54+01:00</time>
      </trkpt>
      <trkpt lat="43.75749" lon="7.07484">
        <ele>927.80957</ele>
        <time>2012-01-15T11:19:00+01:00</time>
      </trkpt>
      <trkpt lat="43.75757" lon="7.07511">
        <ele>928.770996</ele>
        <time>2012-01-15T11:19:06+01:00</time>
      </trkpt>
      <trkpt lat="43.75764" lon="7.07545">
        <ele>930.693604</ele>
        <time>2012-01-15T11:19:14+01:00</time>
      </trkpt>
      <trkpt lat="43.75771" lon="7.07574">
        <ele>932.135498</ele>
        <time>2012-01-15T11:19:21+01:00</time>
      </trkpt>
      <trkpt lat="43.75778" lon="7.07608">
        <ele>933.577393</ele>
        <time>2012-01-15T11:19:29+01:00</time>
      </trkpt>
      <trkpt lat="43.75783" lon="7.07637">
        <ele>935.5</ele>
        <time>2012-01-15T11:19:36+01:00</time>
      </trkpt>
      <trkpt lat="43.75795" lon="7.07669">
        <ele>937.422607</ele>
        <time>2012-01-15T11:19:44+01:00</time>
      </trkpt>
      <trkpt lat="43.75811" lon="7.07687">
        <ele>939.345215</ele>
        <time>2012-01-15T11:19:50+01:00</time>
      </trkpt>
      <trkpt lat="43.75835" lon="7.07698">
        <ele>941.748779</ele>
        <time>2012-01-15T11:19:57+01:00</time>
      </trkpt>
      <trkpt lat="43.75859" lon="7.07702">
        <ele>943.671387</ele>
        <time>2012-01-15T11:20:04+01:00</time>
      </trkpt>
      <trkpt lat="43.75879" lon="7.07695">
        <ele>945.113281</ele>
        <time>2012-01-15T11:20:10+01:00</time>
      </trkpt>
      <trkpt lat="43.75896" lon="7.07678">
        <ele>946.55542</ele>
        <time>2012-01-15T11:20:16+01:00</time>
      </trkpt>
      <trkpt lat="43.75918" lon="7.07645">
        <ele>948.477783</ele>
        <time>2012-01-15T11:20:26+01:00</time>
      </trkpt>
      <trkpt lat="43.75932" lon="7.07622">
        <ele>950.400635</ele>
        <time>2012-01-15T11:20:33+01:00</time>
      </trkpt>
      <trkpt lat="43.75948" lon="7.076">
        <ele>952.322998</ele>
        <time>2012-01-15T11:20:40+01:00</time>
      </trkpt>
      <trkpt lat="43.75968" lon="7.07573">
        <ele>953.284424</ele>
        <time>2012-01-15T11:20:49+01:00</time>
      </trkpt>
      <trkpt lat="43.75988" lon="7.07558">
        <ele>955.207031</ele>
        <time>2012-01-15T11:20:56+01:00</time>
      </trkpt>
      <trkpt lat="43.76014" lon="7.07547">
        <ele>956.64917</ele>
        <time>2012-01-15T11:21:04+01:00</time>
      </trkpt>
      <trkpt lat="43.7604" lon="7.07532">
        <ele>959.05249</ele>
        <time>2012-01-15T11:21:12+01:00</time>
      </trkpt>
      <trkpt lat="43.76069" lon="7.07511">
        <ele>961.455811</ele>
        <time>2012-01-15T11:21:21+01:00</time>
      </trkpt>
      <trkpt lat="43.76099" lon="7.07489">
        <ele>961.936523</ele>
        <time>2012-01-15T11:21:30+01:00</time>
      </trkpt>
      <trkpt lat="43.76122" lon="7.07466">
        <ele>961.936523</ele>
        <time>2012-01-15T11:21:37+01:00</time>
      </trkpt>
      <trkpt lat="43.76144" lon="7.07433">
        <ele>961.936523</ele>
        <time>2012-01-15T11:21:43+01:00</time>
      </trkpt>
      <trkpt lat="43.7616" lon="7.07407">
        <ele>961.455811</ele>
        <time>2012-01-15T11:21:48+01:00</time>
      </trkpt>
      <trkpt lat="43.76162" lon="7.07404">
        <ele>961.455811</ele>
        <time>2012-01-15T11:21:49+01:00</time>
      </trkpt>
      <trkpt lat="43.76166" lon="7.07399">
        <ele>960.975098</ele>
        <time>2012-01-15T11:21:51+01:00</time>
      </trkpt>
      <trkpt lat="43.76167" lon="7.07398">
        <ele>960.975098</ele>
        <time>2012-01-15T11:21:57+01:00</time>
      </trkpt>
      <trkpt lat="43.76166" lon="7.07399">
        <ele>961.455811</ele>
        <time>2012-01-15T11:22:01+01:00</time>
      </trkpt>
      <trkpt lat="43.76165" lon="7.07397">
        <ele>962.416992</ele>
        <time>2012-01-15T11:22:11+01:00</time>
      </trkpt>
      <trkpt lat="43.76164" lon="7.07397">
        <ele>962.897705</ele>
        <time>2012-01-15T11:22:25+01:00</time>
      </trkpt>
      <trkpt lat="43.76164" lon="7.07396">
        <ele>962.897705</ele>
        <time>2012-01-15T11:22:31+01:00</time>
      </trkpt>
      <trkpt lat="43.76164" lon="7.07397">
        <ele>962.897705</ele>
        <time>2012-01-15T11:22:43+01:00</time>
      </trkpt>
      <trkpt lat="43.76165" lon="7.07397">
        <ele>962.416992</ele>
        <time>2012-01-15T11:22:52+01:00</time>
      </trkpt>
      <trkpt lat="43.76164" lon="7.07396">
        <ele>962.897705</ele>
        <time>2012-01-15T11:23:05+01:00</time>
      </trkpt>
      <trkpt lat="43.76165" lon="7.07393">
        <ele>961.936523</ele>
        <time>2012-01-15T11:23:13+01:00</time>
      </trkpt>
      <trkpt lat="43.76173" lon="7.07375">
        <ele>960.494385</ele>
        <time>2012-01-15T11:23:18+01:00</time>
      </trkpt>
      <trkpt lat="43.76187" lon="7.07338">
        <ele>958.571777</ele>
        <time>2012-01-15T11:23:23+01:00</time>
      </trkpt>
      <trkpt lat="43.76193" lon="7.07322">
        <ele>958.091309</ele>
        <time>2012-01-15T11:23:25+01:00</time>
      </trkpt>
      <trkpt lat="43.76221" lon="7.07278">
        <ele>956.168457</ele>
        <time>2012-01-15T11:23:31+01:00</time>
      </trkpt>
      <trkpt lat="43.76251" lon="7.07251">
        <ele>954.726318</ele>
        <time>2012-01-15T11:23:36+01:00</time>
      </trkpt>
      <trkpt lat="43.76265" lon="7.07239">
        <ele>953.284424</ele>
        <time>2012-01-15T11:23:38+01:00</time>
      </trkpt>
      <trkpt lat="43.763" lon="7.07194">
        <ele>952.803711</ele>
        <time>2012-01-15T11:23:44+01:00</time>
      </trkpt>
      <trkpt lat="43.76326" lon="7.0717">
        <ele>952.322998</ele>
        <time>2012-01-15T11:23:48+01:00</time>
      </trkpt>
      <trkpt lat="43.76374" lon="7.07147">
        <ele>948.958496</ele>
        <time>2012-01-15T11:23:54+01:00</time>
      </trkpt>
      <trkpt lat="43.76443" lon="7.07114">
        <ele>944.632568</ele>
        <time>2012-01-15T11:24:01+01:00</time>
      </trkpt>
      <trkpt lat="43.76499" lon="7.07082">
        <ele>943.190674</ele>
        <time>2012-01-15T11:24:07+01:00</time>
      </trkpt>
      <trkpt lat="43.76531" lon="7.07063">
        <ele>942.710205</ele>
        <time>2012-01-15T11:24:11+01:00</time>
      </trkpt>
      <trkpt lat="43.76595" lon="7.07045">
        <ele>937.90332</ele>
        <time>2012-01-15T11:24:18+01:00</time>
      </trkpt>
      <trkpt lat="43.76707" lon="7.07012">
        <ele>932.135498</ele>
        <time>2012-01-15T11:24:29+01:00</time>
      </trkpt>
      <trkpt lat="43.76771" lon="7.06993">
        <ele>931.174316</ele>
        <time>2012-01-15T11:24:36+01:00</time>
      </trkpt>
      <trkpt lat="43.76811" lon="7.06977">
        <ele>930.693604</ele>
        <time>2012-01-15T11:24:41+01:00</time>
      </trkpt>
      <trkpt lat="43.76818" lon="7.06971">
        <ele>930.212891</ele>
        <time>2012-01-15T11:24:42+01:00</time>
      </trkpt>
      <trkpt lat="43.76836" lon="7.06954">
        <ele>929.251465</ele>
        <time>2012-01-15T11:24:45+01:00</time>
      </trkpt>
      <trkpt lat="43.76843" lon="7.06937">
        <ele>927.80957</ele>
        <time>2012-01-15T11:24:49+01:00</time>
      </trkpt>
      <trkpt lat="43.76848" lon="7.06923">
        <ele>926.848389</ele>
        <time>2012-01-15T11:24:53+01:00</time>
      </trkpt>
      <trkpt lat="43.76854" lon="7.06917">
        <ele>926.367676</ele>
        <time>2012-01-15T11:24:56+01:00</time>
      </trkpt>
      <trkpt lat="43.76865" lon="7.06898">
        <ele>925.886963</ele>
        <time>2012-01-15T11:25:03+01:00</time>
      </trkpt>
      <trkpt lat="43.76878" lon="7.06877">
        <ele>925.40625</ele>
        <time>2012-01-15T11:25:08+01:00</time>
      </trkpt>
      <trkpt lat="43.76898" lon="7.06851">
        <ele>925.40625</ele>
        <time>2012-01-15T11:25:16+01:00</time>
      </trkpt>
      <trkpt lat="43.76903" lon="7.06846">
        <ele>925.40625</ele>
        <time>2012-01-15T11:25:20+01:00</time>
      </trkpt>
      <trkpt lat="43.76903" lon="7.06845">
        <ele>926.848389</ele>
        <time>2012-01-15T11:25:33+01:00</time>
      </trkpt>
      <trkpt lat="43.76903" lon="7.06844">
        <ele>927.329102</ele>
        <time>2012-01-15T11:25:42+01:00</time>
      </trkpt>
      <trkpt lat="43.76907" lon="7.06839">
        <ele>927.80957</ele>
        <time>2012-01-15T11:25:47+01:00</time>
      </trkpt>
      <trkpt lat="43.76908" lon="7.06838">
        <ele>928.290283</ele>
        <time>2012-01-15T11:25:54+01:00</time>
      </trkpt>
      <trkpt lat="43.76916" lon="7.06828">
        <ele>929.732178</ele>
        <time>2012-01-15T11:26:00+01:00</time>
      </trkpt>
      <trkpt lat="43.76922" lon="7.06821">
        <ele>930.212891</ele>
        <time>2012-01-15T11:26:05+01:00</time>
      </trkpt>
      <trkpt lat="43.76932" lon="7.06813">
        <ele>930.693604</ele>
        <time>2012-01-15T11:26:12+01:00</time>
      </trkpt>
      <trkpt lat="43.76942" lon="7.06805">
        <ele>929.732178</ele>
        <time>2012-01-15T11:26:19+01:00</time>
      </trkpt>
      <trkpt lat="43.76952" lon="7.06795">
        <ele>929.732178</ele>
        <time>2012-01-15T11:26:26+01:00</time>
      </trkpt>
      <trkpt lat="43.7696" lon="7.06787">
        <ele>930.212891</ele>
        <time>2012-01-15T11:26:32+01:00</time>
      </trkpt>
      <trkpt lat="43.7697" lon="7.06779">
        <ele>931.174316</ele>
        <time>2012-01-15T11:26:39+01:00</time>
      </trkpt>
      <trkpt lat="43.76977" lon="7.0677">
        <ele>932.135498</ele>
        <time>2012-01-15T11:26:46+01:00</time>
      </trkpt>
      <trkpt lat="43.76984" lon="7.06762">
        <ele>932.135498</ele>
        <time>2012-01-15T11:26:53+01:00</time>
      </trkpt>
      <trkpt lat="43.7699" lon="7.06754">
        <ele>932.135498</ele>
        <time>2012-01-15T11:27:00+01:00</time>
      </trkpt>
      <trkpt lat="43.76998" lon="7.06742">
        <ele>932.616211</ele>
        <time>2012-01-15T11:27:06+01:00</time>
      </trkpt>
      <trkpt lat="43.77006" lon="7.06733">
        <ele>933.577393</ele>
        <time>2012-01-15T11:27:11+01:00</time>
      </trkpt>
      <trkpt lat="43.77016" lon="7.06721">
        <ele>934.058105</ele>
        <time>2012-01-15T11:27:18+01:00</time>
      </trkpt>
      <trkpt lat="43.77026" lon="7.06709">
        <ele>934.058105</ele>
        <time>2012-01-15T11:27:25+01:00</time>
      </trkpt>
      <trkpt lat="43.77036" lon="7.06701">
        <ele>935.019531</ele>
        <time>2012-01-15T11:27:31+01:00</time>
      </trkpt>
      <trkpt lat="43.77038" lon="7.067">
        <ele>935.019531</ele>
        <time>2012-01-15T11:27:32+01:00</time>
      </trkpt>
      <trkpt lat="43.77054" lon="7.06692">
        <ele>935.019531</ele>
        <time>2012-01-15T11:27:40+01:00</time>
      </trkpt>
      <trkpt lat="43.77062" lon="7.06688">
        <ele>935.019531</ele>
        <time>2012-01-15T11:27:45+01:00</time>
      </trkpt>
      <trkpt lat="43.77065" lon="7.06688">
        <ele>936.941895</ele>
        <time>2012-01-15T11:27:51+01:00</time>
      </trkpt>
      <trkpt lat="43.77067" lon="7.06688">
        <ele>940.306885</ele>
        <time>2012-01-15T11:28:05+01:00</time>
      </trkpt>
      <trkpt lat="43.7707" lon="7.06688">
        <ele>945.593994</ele>
        <time>2012-01-15T11:28:25+01:00</time>
      </trkpt>
      <trkpt lat="43.77069" lon="7.06689">
        <ele>943.671387</ele>
        <time>2012-01-15T11:28:35+01:00</time>
      </trkpt>
      <trkpt lat="43.77068" lon="7.0669">
        <ele>943.671387</ele>
        <time>2012-01-15T11:28:39+01:00</time>
      </trkpt>
      <trkpt lat="43.77069" lon="7.06689">
        <ele>942.710205</ele>
        <time>2012-01-15T11:28:45+01:00</time>
      </trkpt>
      <trkpt lat="43.77068" lon="7.06688">
        <ele>942.710205</ele>
        <time>2012-01-15T11:28:55+01:00</time>
      </trkpt>
      <trkpt lat="43.77071" lon="7.06686">
        <ele>942.229492</ele>
        <time>2012-01-15T11:28:59+01:00</time>
      </trkpt>
      <trkpt lat="43.77082" lon="7.06681">
        <ele>941.268066</ele>
        <time>2012-01-15T11:29:05+01:00</time>
      </trkpt>
      <trkpt lat="43.77101" lon="7.06659">
        <ele>940.787354</ele>
        <time>2012-01-15T11:29:15+01:00</time>
      </trkpt>
      <trkpt lat="43.77112" lon="7.06642">
        <ele>939.825928</ele>
        <time>2012-01-15T11:29:22+01:00</time>
      </trkpt>
      <trkpt lat="43.77121" lon="7.06627">
        <ele>939.825928</ele>
        <time>2012-01-15T11:29:29+01:00</time>
      </trkpt>
      <trkpt lat="43.7713" lon="7.06609">
        <ele>938.864746</ele>
        <time>2012-01-15T11:29:36+01:00</time>
      </trkpt>
      <trkpt lat="43.7714" lon="7.0659">
        <ele>938.384033</ele>
        <time>2012-01-15T11:29:44+01:00</time>
      </trkpt>
      <trkpt lat="43.77146" lon="7.06575">
        <ele>937.90332</ele>
        <time>2012-01-15T11:29:50+01:00</time>
      </trkpt>
      <trkpt lat="43.77147" lon="7.06557">
        <ele>935.980713</ele>
        <time>2012-01-15T11:29:56+01:00</time>
      </trkpt>
      <trkpt lat="43.77147" lon="7.06543">
        <ele>936.461426</ele>
        <time>2012-01-15T11:30:01+01:00</time>
      </trkpt>
      <trkpt lat="43.77145" lon="7.06527">
        <ele>937.90332</ele>
        <time>2012-01-15T11:30:06+01:00</time>
      </trkpt>
      <trkpt lat="43.77144" lon="7.06508">
        <ele>940.787354</ele>
        <time>2012-01-15T11:30:13+01:00</time>
      </trkpt>
      <trkpt lat="43.77143" lon="7.06504">
        <ele>943.671387</ele>
        <time>2012-01-15T11:30:19+01:00</time>
      </trkpt>
      <trkpt lat="43.77143" lon="7.06503">
        <ele>944.1521</ele>
        <time>2012-01-15T11:30:25+01:00</time>
      </trkpt>
      <trkpt lat="43.77143" lon="7.06501">
        <ele>945.113281</ele>
        <time>2012-01-15T11:30:32+01:00</time>
      </trkpt>
      <trkpt lat="43.77143" lon="7.06501">
        <ele>947.035889</ele>
        <time>2012-01-15T11:30:40+01:00</time>
      </trkpt>
      <trkpt lat="43.77143" lon="7.06501">
        <ele>950.400635</ele>
        <time>2012-01-15T11:30:49+01:00</time>
      </trkpt>
      <trkpt lat="43.77143" lon="7.06502">
        <ele>954.24585</ele>
        <time>2012-01-15T11:30:59+01:00</time>
      </trkpt>
      <trkpt lat="43.77144" lon="7.06494">
        <ele>953.765137</ele>
        <time>2012-01-15T11:31:07+01:00</time>
      </trkpt>
      <trkpt lat="43.77141" lon="7.06479">
        <ele>953.284424</ele>
        <time>2012-01-15T11:31:12+01:00</time>
      </trkpt>
      <trkpt lat="43.7714" lon="7.06459">
        <ele>953.284424</ele>
        <time>2012-01-15T11:31:19+01:00</time>
      </trkpt>
      <trkpt lat="43.77138" lon="7.06444">
        <ele>952.803711</ele>
        <time>2012-01-15T11:31:25+01:00</time>
      </trkpt>
      <trkpt lat="43.77135" lon="7.06429">
        <ele>951.361816</ele>
        <time>2012-01-15T11:31:31+01:00</time>
      </trkpt>
      <trkpt lat="43.77136" lon="7.06417">
        <ele>951.842529</ele>
        <time>2012-01-15T11:31:36+01:00</time>
      </trkpt>
      <trkpt lat="43.77142" lon="7.06407">
        <ele>952.803711</ele>
        <time>2012-01-15T11:31:41+01:00</time>
      </trkpt>
      <trkpt lat="43.77146" lon="7.06397">
        <ele>954.24585</ele>
        <time>2012-01-15T11:31:46+01:00</time>
      </trkpt>
      <trkpt lat="43.77141" lon="7.06383">
        <ele>950.881104</ele>
        <time>2012-01-15T11:31:53+01:00</time>
      </trkpt>
      <trkpt lat="43.77135" lon="7.06368">
        <ele>950.400635</ele>
        <time>2012-01-15T11:32:01+01:00</time>
      </trkpt>
      <trkpt lat="43.77128" lon="7.06348">
        <ele>947.516602</ele>
        <time>2012-01-15T11:32:09+01:00</time>
      </trkpt>
      <trkpt lat="43.77123" lon="7.06328">
        <ele>948.477783</ele>
        <time>2012-01-15T11:32:17+01:00</time>
      </trkpt>
      <trkpt lat="43.77122" lon="7.06313">
        <ele>949.439209</ele>
        <time>2012-01-15T11:32:24+01:00</time>
      </trkpt>
      <trkpt lat="43.7712" lon="7.06294">
        <ele>949.919922</ele>
        <time>2012-01-15T11:32:32+01:00</time>
      </trkpt>
      <trkpt lat="43.77119" lon="7.06282">
        <ele>950.400635</ele>
        <time>2012-01-15T11:32:38+01:00</time>
      </trkpt>
      <trkpt lat="43.77118" lon="7.06272">
        <ele>951.361816</ele>
        <time>2012-01-15T11:32:43+01:00</time>
      </trkpt>
      <trkpt lat="43.77118" lon="7.06255">
        <ele>951.361816</ele>
        <time>2012-01-15T11:32:50+01:00</time>
      </trkpt>
      <trkpt lat="43.77119" lon="7.06243">
        <ele>953.284424</ele>
        <time>2012-01-15T11:32:56+01:00</time>
      </trkpt>
      <trkpt lat="43.7712" lon="7.06232">
        <ele>954.726318</ele>
        <time>2012-01-15T11:33:02+01:00</time>
      </trkpt>
      <trkpt lat="43.77121" lon="7.06223">
        <ele>957.610596</ele>
        <time>2012-01-15T11:33:07+01:00</time>
      </trkpt>
      <trkpt lat="43.77122" lon="7.06215">
        <ele>960.013672</ele>
        <time>2012-01-15T11:33:12+01:00</time>
      </trkpt>
      <trkpt lat="43.77123" lon="7.06197">
        <ele>960.494385</ele>
        <time>2012-01-15T11:33:21+01:00</time>
      </trkpt>
      <trkpt lat="43.77124" lon="7.06179">
        <ele>959.05249</ele>
        <time>2012-01-15T11:33:30+01:00</time>
      </trkpt>
      <trkpt lat="43.77126" lon="7.06167">
        <ele>960.494385</ele>
        <time>2012-01-15T11:33:36+01:00</time>
      </trkpt>
      <trkpt lat="43.77128" lon="7.06152">
        <ele>962.416992</ele>
        <time>2012-01-15T11:33:43+01:00</time>
      </trkpt>
      <trkpt lat="43.77128" lon="7.06137">
        <ele>964.820312</ele>
        <time>2012-01-15T11:33:50+01:00</time>
      </trkpt>
      <trkpt lat="43.7713" lon="7.0613">
        <ele>966.262207</ele>
        <time>2012-01-15T11:33:54+01:00</time>
      </trkpt>
      <trkpt lat="43.7713" lon="7.06126">
        <ele>970.107422</ele>
        <time>2012-01-15T11:34:01+01:00</time>
      </trkpt>
      <trkpt lat="43.7713" lon="7.06127">
        <ele>971.068848</ele>
        <time>2012-01-15T11:34:04+01:00</time>
      </trkpt>
      <trkpt lat="43.77126" lon="7.06124">
        <ele>973.952881</ele>
        <time>2012-01-15T11:34:16+01:00</time>
      </trkpt>
      <trkpt lat="43.77125" lon="7.06122">
        <ele>979.720703</ele>
        <time>2012-01-15T11:34:29+01:00</time>
      </trkpt>
      <trkpt lat="43.77125" lon="7.06123">
        <ele>980.201416</ele>
        <time>2012-01-15T11:34:38+01:00</time>
      </trkpt>
      <trkpt lat="43.77127" lon="7.06121">
        <ele>978.759521</ele>
        <time>2012-01-15T11:34:50+01:00</time>
      </trkpt>
      <trkpt lat="43.77128" lon="7.06118">
        <ele>977.798096</ele>
        <time>2012-01-15T11:34:52+01:00</time>
      </trkpt>
      <trkpt lat="43.77136" lon="7.06101">
        <ele>973.952881</ele>
        <time>2012-01-15T11:35:02+01:00</time>
      </trkpt>
      <trkpt lat="43.7714" lon="7.06087">
        <ele>972.510986</ele>
        <time>2012-01-15T11:35:09+01:00</time>
      </trkpt>
      <trkpt lat="43.77141" lon="7.06077">
        <ele>972.510986</ele>
        <time>2012-01-15T11:35:12+01:00</time>
      </trkpt>
      <trkpt lat="43.77143" lon="7.06061">
        <ele>972.030273</ele>
        <time>2012-01-15T11:35:19+01:00</time>
      </trkpt>
      <trkpt lat="43.77145" lon="7.06046">
        <ele>971.549316</ele>
        <time>2012-01-15T11:35:26+01:00</time>
      </trkpt>
      <trkpt lat="43.77147" lon="7.06037">
        <ele>971.068848</ele>
        <time>2012-01-15T11:35:31+01:00</time>
      </trkpt>
      <trkpt lat="43.7715" lon="7.06025">
        <ele>971.068848</ele>
        <time>2012-01-15T11:35:38+01:00</time>
      </trkpt>
      <trkpt lat="43.77152" lon="7.0602">
        <ele>972.030273</ele>
        <time>2012-01-15T11:35:41+01:00</time>
      </trkpt>
      <trkpt lat="43.77156" lon="7.06005">
        <ele>974.914307</ele>
        <time>2012-01-15T11:35:49+01:00</time>
      </trkpt>
      <trkpt lat="43.77159" lon="7.05991">
        <ele>976.836914</ele>
        <time>2012-01-15T11:35:57+01:00</time>
      </trkpt>
      <trkpt lat="43.7716" lon="7.05979">
        <ele>976.836914</ele>
        <time>2012-01-15T11:36:04+01:00</time>
      </trkpt>
      <trkpt lat="43.77161" lon="7.05976">
        <ele>977.317627</ele>
        <time>2012-01-15T11:36:06+01:00</time>
      </trkpt>
      <trkpt lat="43.77162" lon="7.05967">
        <ele>978.278809</ele>
        <time>2012-01-15T11:36:11+01:00</time>
      </trkpt>
      <trkpt lat="43.77164" lon="7.05954">
        <ele>977.317627</ele>
        <time>2012-01-15T11:36:19+01:00</time>
      </trkpt>
      <trkpt lat="43.77165" lon="7.05941">
        <ele>975.394775</ele>
        <time>2012-01-15T11:36:26+01:00</time>
      </trkpt>
      <trkpt lat="43.77166" lon="7.0593">
        <ele>975.394775</ele>
        <time>2012-01-15T11:36:32+01:00</time>
      </trkpt>
      <trkpt lat="43.77169" lon="7.05916">
        <ele>977.317627</ele>
        <time>2012-01-15T11:36:40+01:00</time>
      </trkpt>
      <trkpt lat="43.7717" lon="7.05905">
        <ele>979.23999</ele>
        <time>2012-01-15T11:36:47+01:00</time>
      </trkpt>
      <trkpt lat="43.77175" lon="7.05893">
        <ele>980.682129</ele>
        <time>2012-01-15T11:36:55+01:00</time>
      </trkpt>
      <trkpt lat="43.77176" lon="7.05891">
        <ele>980.682129</ele>
        <time>2012-01-15T11:36:57+01:00</time>
      </trkpt>
      <trkpt lat="43.77182" lon="7.05877">
        <ele>983.565918</ele>
        <time>2012-01-15T11:37:05+01:00</time>
      </trkpt>
      <trkpt lat="43.77185" lon="7.05864">
        <ele>984.046631</ele>
        <time>2012-01-15T11:37:12+01:00</time>
      </trkpt>
      <trkpt lat="43.77189" lon="7.05852">
        <ele>983.565918</ele>
        <time>2012-01-15T11:37:19+01:00</time>
      </trkpt>
      <trkpt lat="43.77193" lon="7.05841">
        <ele>985.488525</ele>
        <time>2012-01-15T11:37:26+01:00</time>
      </trkpt>
      <trkpt lat="43.77197" lon="7.05828">
        <ele>986.449951</ele>
        <time>2012-01-15T11:37:34+01:00</time>
      </trkpt>
      <trkpt lat="43.77201" lon="7.05818">
        <ele>986.93042</ele>
        <time>2012-01-15T11:37:40+01:00</time>
      </trkpt>
      <trkpt lat="43.77205" lon="7.05807">
        <ele>988.372803</ele>
        <time>2012-01-15T11:37:46+01:00</time>
      </trkpt>
      <trkpt lat="43.7721" lon="7.05796">
        <ele>990.29541</ele>
        <time>2012-01-15T11:37:52+01:00</time>
      </trkpt>
      <trkpt lat="43.77215" lon="7.05784">
        <ele>992.69873</ele>
        <time>2012-01-15T11:37:59+01:00</time>
      </trkpt>
      <trkpt lat="43.77219" lon="7.05769">
        <ele>995.58252</ele>
        <time>2012-01-15T11:38:07+01:00</time>
      </trkpt>
      <trkpt lat="43.77222" lon="7.05756">
        <ele>996.063232</ele>
        <time>2012-01-15T11:38:14+01:00</time>
      </trkpt>
      <trkpt lat="43.77227" lon="7.05746">
        <ele>993.659912</ele>
        <time>2012-01-15T11:38:21+01:00</time>
      </trkpt>
      <trkpt lat="43.77232" lon="7.05734">
        <ele>992.218018</ele>
        <time>2012-01-15T11:38:29+01:00</time>
      </trkpt>
      <trkpt lat="43.77236" lon="7.0572">
        <ele>989.333984</ele>
        <time>2012-01-15T11:38:37+01:00</time>
      </trkpt>
      <trkpt lat="43.77238" lon="7.0571">
        <ele>989.814697</ele>
        <time>2012-01-15T11:38:42+01:00</time>
      </trkpt>
      <trkpt lat="43.77241" lon="7.05703">
        <ele>992.218018</ele>
        <time>2012-01-15T11:38:46+01:00</time>
      </trkpt>
      <trkpt lat="43.77244" lon="7.05693">
        <ele>993.659912</ele>
        <time>2012-01-15T11:38:52+01:00</time>
      </trkpt>
      <trkpt lat="43.77245" lon="7.05681">
        <ele>994.621094</ele>
        <time>2012-01-15T11:38:58+01:00</time>
      </trkpt>
      <trkpt lat="43.77248" lon="7.0567">
        <ele>997.024414</ele>
        <time>2012-01-15T11:39:04+01:00</time>
      </trkpt>
      <trkpt lat="43.77253" lon="7.05657">
        <ele>998.466309</ele>
        <time>2012-01-15T11:39:12+01:00</time>
      </trkpt>
      <trkpt lat="43.77257" lon="7.05645">
        <ele>999.427734</ele>
        <time>2012-01-15T11:39:18+01:00</time>
      </trkpt>
      <trkpt lat="43.77262" lon="7.05631">
        <ele>1000.86963</ele>
        <time>2012-01-15T11:39:24+01:00</time>
      </trkpt>
      <trkpt lat="43.77269" lon="7.05615">
        <ele>1002.79224</ele>
        <time>2012-01-15T11:39:32+01:00</time>
      </trkpt>
      <trkpt lat="43.77275" lon="7.05604">
        <ele>1004.23462</ele>
        <time>2012-01-15T11:39:39+01:00</time>
      </trkpt>
      <trkpt lat="43.77282" lon="7.0559">
        <ele>1004.71509</ele>
        <time>2012-01-15T11:39:47+01:00</time>
      </trkpt>
      <trkpt lat="43.77286" lon="7.05582">
        <ele>1006.15698</ele>
        <time>2012-01-15T11:39:52+01:00</time>
      </trkpt>
      <trkpt lat="43.77291" lon="7.05569">
        <ele>1007.59912</ele>
        <time>2012-01-15T11:40:00+01:00</time>
      </trkpt>
      <trkpt lat="43.77295" lon="7.05557">
        <ele>1008.5603</ele>
        <time>2012-01-15T11:40:07+01:00</time>
      </trkpt>
      <trkpt lat="43.77297" lon="7.05547">
        <ele>1009.52173</ele>
        <time>2012-01-15T11:40:13+01:00</time>
      </trkpt>
      <trkpt lat="43.773" lon="7.05532">
        <ele>1010.0022</ele>
        <time>2012-01-15T11:40:21+01:00</time>
      </trkpt>
      <trkpt lat="43.77304" lon="7.05516">
        <ele>1010.0022</ele>
        <time>2012-01-15T11:40:30+01:00</time>
      </trkpt>
      <trkpt lat="43.77309" lon="7.05504">
        <ele>1011.44434</ele>
        <time>2012-01-15T11:40:37+01:00</time>
      </trkpt>
      <trkpt lat="43.77313" lon="7.05497">
        <ele>1011.44434</ele>
        <time>2012-01-15T11:40:42+01:00</time>
      </trkpt>
      <trkpt lat="43.77316" lon="7.05491">
        <ele>1011.44434</ele>
        <time>2012-01-15T11:40:46+01:00</time>
      </trkpt>
      <trkpt lat="43.77318" lon="7.05488">
        <ele>1011.92505</ele>
        <time>2012-01-15T11:40:49+01:00</time>
      </trkpt>
      <trkpt lat="43.77322" lon="7.05481">
        <ele>1012.40552</ele>
        <time>2012-01-15T11:40:53+01:00</time>
      </trkpt>
      <trkpt lat="43.77326" lon="7.05467">
        <ele>1013.84741</ele>
        <time>2012-01-15T11:41:02+01:00</time>
      </trkpt>
      <trkpt lat="43.77325" lon="7.05451">
        <ele>1012.40552</ele>
        <time>2012-01-15T11:41:09+01:00</time>
      </trkpt>
      <trkpt lat="43.77322" lon="7.05435">
        <ele>1012.40552</ele>
        <time>2012-01-15T11:41:17+01:00</time>
      </trkpt>
      <trkpt lat="43.77319" lon="7.05422">
        <ele>1013.36694</ele>
        <time>2012-01-15T11:41:24+01:00</time>
      </trkpt>
      <trkpt lat="43.77319" lon="7.0541">
        <ele>1013.84741</ele>
        <time>2012-01-15T11:41:31+01:00</time>
      </trkpt>
      <trkpt lat="43.77321" lon="7.05394">
        <ele>1014.32812</ele>
        <time>2012-01-15T11:41:39+01:00</time>
      </trkpt>
      <trkpt lat="43.77323" lon="7.05377">
        <ele>1016.25073</ele>
        <time>2012-01-15T11:41:47+01:00</time>
      </trkpt>
      <trkpt lat="43.77326" lon="7.05364">
        <ele>1017.21216</ele>
        <time>2012-01-15T11:41:54+01:00</time>
      </trkpt>
      <trkpt lat="43.77329" lon="7.05348">
        <ele>1018.17334</ele>
        <time>2012-01-15T11:42:02+01:00</time>
      </trkpt>
      <trkpt lat="43.7733" lon="7.05335">
        <ele>1019.13477</ele>
        <time>2012-01-15T11:42:08+01:00</time>
      </trkpt>
      <trkpt lat="43.77332" lon="7.05321">
        <ele>1019.61548</ele>
        <time>2012-01-15T11:42:15+01:00</time>
      </trkpt>
      <trkpt lat="43.77334" lon="7.05311">
        <ele>1020.5769</ele>
        <time>2012-01-15T11:42:20+01:00</time>
      </trkpt>
      <trkpt lat="43.77336" lon="7.05297">
        <ele>1021.53809</ele>
        <time>2012-01-15T11:42:27+01:00</time>
      </trkpt>
      <trkpt lat="43.77338" lon="7.05284">
        <ele>1022.49951</ele>
        <time>2012-01-15T11:42:34+01:00</time>
      </trkpt>
      <trkpt lat="43.7734" lon="7.05268">
        <ele>1024.42212</ele>
        <time>2012-01-15T11:42:42+01:00</time>
      </trkpt>
      <trkpt lat="43.77343" lon="7.05253">
        <ele>1024.90283</ele>
        <time>2012-01-15T11:42:50+01:00</time>
      </trkpt>
      <trkpt lat="43.77344" lon="7.05246">
        <ele>1025.86401</ele>
        <time>2012-01-15T11:42:54+01:00</time>
      </trkpt>
      <trkpt lat="43.77343" lon="7.05244">
        <ele>1026.82544</ele>
        <time>2012-01-15T11:43:01+01:00</time>
      </trkpt>
      <trkpt lat="43.77343" lon="7.05243">
        <ele>1027.78662</ele>
        <time>2012-01-15T11:43:10+01:00</time>
      </trkpt>
      <trkpt lat="43.77342" lon="7.05243">
        <ele>1029.70923</ele>
        <time>2012-01-15T11:43:24+01:00</time>
      </trkpt>
      <trkpt lat="43.77342" lon="7.05243">
        <ele>1030.67065</ele>
        <time>2012-01-15T11:43:36+01:00</time>
      </trkpt>
      <trkpt lat="43.77342" lon="7.05243">
        <ele>1030.67065</ele>
        <time>2012-01-15T11:43:45+01:00</time>
      </trkpt>
      <trkpt lat="43.77343" lon="7.05241">
        <ele>1030.67065</ele>
        <time>2012-01-15T11:43:47+01:00</time>
      </trkpt>
      <trkpt lat="43.77348" lon="7.05219">
        <ele>1032.11255</ele>
        <time>2012-01-15T11:43:56+01:00</time>
      </trkpt>
      <trkpt lat="43.77354" lon="7.05205">
        <ele>1033.55444</ele>
        <time>2012-01-15T11:44:03+01:00</time>
      </trkpt>
      <trkpt lat="43.77356" lon="7.05201">
        <ele>1033.55444</ele>
        <time>2012-01-15T11:44:05+01:00</time>
      </trkpt>
      <trkpt lat="43.7736" lon="7.0519">
        <ele>1034.51587</ele>
        <time>2012-01-15T11:44:11+01:00</time>
      </trkpt>
      <trkpt lat="43.77369" lon="7.05179">
        <ele>1035.95776</ele>
        <time>2012-01-15T11:44:19+01:00</time>
      </trkpt>
      <trkpt lat="43.77374" lon="7.05174">
        <ele>1036.91919</ele>
        <time>2012-01-15T11:44:23+01:00</time>
      </trkpt>
      <trkpt lat="43.77381" lon="7.05168">
        <ele>1037.3999</ele>
        <time>2012-01-15T11:44:30+01:00</time>
      </trkpt>
      <trkpt lat="43.77384" lon="7.05166">
        <ele>1037.3999</ele>
        <time>2012-01-15T11:44:32+01:00</time>
      </trkpt>
      <trkpt lat="43.77386" lon="7.05166">
        <ele>1037.3999</ele>
        <time>2012-01-15T11:44:34+01:00</time>
      </trkpt>
      <trkpt lat="43.77392" lon="7.05162">
        <ele>1037.88062</ele>
        <time>2012-01-15T11:44:39+01:00</time>
      </trkpt>
      <trkpt lat="43.77397" lon="7.05158">
        <ele>1038.84204</ele>
        <time>2012-01-15T11:44:44+01:00</time>
      </trkpt>
      <trkpt lat="43.77405" lon="7.05144">
        <ele>1040.28394</ele>
        <time>2012-01-15T11:44:54+01:00</time>
      </trkpt>
      <trkpt lat="43.77405" lon="7.05139">
        <ele>1040.28394</ele>
        <time>2012-01-15T11:44:57+01:00</time>
      </trkpt>
      <trkpt lat="43.77405" lon="7.05126">
        <ele>1040.28394</ele>
        <time>2012-01-15T11:45:05+01:00</time>
      </trkpt>
      <trkpt lat="43.77404" lon="7.05122">
        <ele>1040.28394</ele>
        <time>2012-01-15T11:45:07+01:00</time>
      </trkpt>
      <trkpt lat="43.77402" lon="7.05105">
        <ele>1042.20654</ele>
        <time>2012-01-15T11:45:17+01:00</time>
      </trkpt>
      <trkpt lat="43.77401" lon="7.05091">
        <ele>1043.16772</ele>
        <time>2012-01-15T11:45:24+01:00</time>
      </trkpt>
      <trkpt lat="43.77398" lon="7.05076">
        <ele>1044.12915</ele>
        <time>2012-01-15T11:45:31+01:00</time>
      </trkpt>
      <trkpt lat="43.77398" lon="7.0506">
        <ele>1045.09033</ele>
        <time>2012-01-15T11:45:38+01:00</time>
      </trkpt>
      <trkpt lat="43.77394" lon="7.05036">
        <ele>1046.05176</ele>
        <time>2012-01-15T11:45:48+01:00</time>
      </trkpt>
      <trkpt lat="43.77393" lon="7.05033">
        <ele>1046.05176</ele>
        <time>2012-01-15T11:45:50+01:00</time>
      </trkpt>
      <trkpt lat="43.7739" lon="7.05029">
        <ele>1046.53247</ele>
        <time>2012-01-15T11:45:57+01:00</time>
      </trkpt>
      <trkpt lat="43.7739" lon="7.05029">
        <ele>1046.53247</ele>
        <time>2012-01-15T11:46:13+01:00</time>
      </trkpt>
      <trkpt lat="43.77389" lon="7.05025">
        <ele>1046.05176</ele>
        <time>2012-01-15T11:46:30+01:00</time>
      </trkpt>
      <trkpt lat="43.77386" lon="7.05017">
        <ele>1046.53247</ele>
        <time>2012-01-15T11:46:35+01:00</time>
      </trkpt>
      <trkpt lat="43.77382" lon="7.05008">
        <ele>1047.01294</ele>
        <time>2012-01-15T11:46:40+01:00</time>
      </trkpt>
      <trkpt lat="43.77378" lon="7.04993">
        <ele>1047.49365</ele>
        <time>2012-01-15T11:46:48+01:00</time>
      </trkpt>
      <trkpt lat="43.77375" lon="7.04982">
        <ele>1048.45483</ele>
        <time>2012-01-15T11:46:53+01:00</time>
      </trkpt>
      <trkpt lat="43.77371" lon="7.04968">
        <ele>1048.93555</ele>
        <time>2012-01-15T11:47:01+01:00</time>
      </trkpt>
      <trkpt lat="43.77368" lon="7.04957">
        <ele>1049.89697</ele>
        <time>2012-01-15T11:47:07+01:00</time>
      </trkpt>
      <trkpt lat="43.77364" lon="7.04948">
        <ele>1050.85815</ele>
        <time>2012-01-15T11:47:12+01:00</time>
      </trkpt>
      <trkpt lat="43.7736" lon="7.04935">
        <ele>1051.33887</ele>
        <time>2012-01-15T11:47:19+01:00</time>
      </trkpt>
      <trkpt lat="43.77357" lon="7.04923">
        <ele>1051.81958</ele>
        <time>2012-01-15T11:47:26+01:00</time>
      </trkpt>
      <trkpt lat="43.77353" lon="7.04911">
        <ele>1052.78101</ele>
        <time>2012-01-15T11:47:32+01:00</time>
      </trkpt>
      <trkpt lat="43.77345" lon="7.04902">
        <ele>1054.70361</ele>
        <time>2012-01-15T11:47:39+01:00</time>
      </trkpt>
      <trkpt lat="43.77337" lon="7.04896">
        <ele>1056.14551</ele>
        <time>2012-01-15T11:47:45+01:00</time>
      </trkpt>
      <trkpt lat="43.77333" lon="7.04893">
        <ele>1056.62622</ele>
        <time>2012-01-15T11:47:49+01:00</time>
      </trkpt>
      <trkpt lat="43.77322" lon="7.04882">
        <ele>1057.58765</ele>
        <time>2012-01-15T11:47:57+01:00</time>
      </trkpt>
      <trkpt lat="43.77313" lon="7.04872">
        <ele>1058.54883</ele>
        <time>2012-01-15T11:48:04+01:00</time>
      </trkpt>
      <trkpt lat="43.77307" lon="7.0486">
        <ele>1059.02954</ele>
        <time>2012-01-15T11:48:10+01:00</time>
      </trkpt>
      <trkpt lat="43.77302" lon="7.04845">
        <ele>1059.51025</ele>
        <time>2012-01-15T11:48:18+01:00</time>
      </trkpt>
      <trkpt lat="43.77302" lon="7.04845">
        <ele>1059.99072</ele>
        <time>2012-01-15T11:48:24+01:00</time>
      </trkpt>
      <trkpt lat="43.773" lon="7.04838">
        <ele>1059.99072</ele>
        <time>2012-01-15T11:48:33+01:00</time>
      </trkpt>
      <trkpt lat="43.77297" lon="7.04821">
        <ele>1060.95215</ele>
        <time>2012-01-15T11:48:40+01:00</time>
      </trkpt>
      <trkpt lat="43.77292" lon="7.04804">
        <ele>1061.91357</ele>
        <time>2012-01-15T11:48:47+01:00</time>
      </trkpt>
      <trkpt lat="43.7729" lon="7.04795">
        <ele>1062.39404</ele>
        <time>2012-01-15T11:48:51+01:00</time>
      </trkpt>
      <trkpt lat="43.77283" lon="7.04782">
        <ele>1063.83594</ele>
        <time>2012-01-15T11:48:59+01:00</time>
      </trkpt>
      <trkpt lat="43.77275" lon="7.04768">
        <ele>1064.79736</ele>
        <time>2012-01-15T11:49:08+01:00</time>
      </trkpt>
      <trkpt lat="43.7727" lon="7.04758">
        <ele>1066.23926</ele>
        <time>2012-01-15T11:49:14+01:00</time>
      </trkpt>
      <trkpt lat="43.77267" lon="7.04753">
        <ele>1067.20068</ele>
        <time>2012-01-15T11:49:18+01:00</time>
      </trkpt>
      <trkpt lat="43.77266" lon="7.0475">
        <ele>1067.20068</ele>
        <time>2012-01-15T11:49:20+01:00</time>
      </trkpt>
      <trkpt lat="43.77259" lon="7.04735">
        <ele>1067.20068</ele>
        <time>2012-01-15T11:49:29+01:00</time>
      </trkpt>
      <trkpt lat="43.77255" lon="7.04722">
        <ele>1067.68115</ele>
        <time>2012-01-15T11:49:36+01:00</time>
      </trkpt>
      <trkpt lat="43.77252" lon="7.0471">
        <ele>1068.16211</ele>
        <time>2012-01-15T11:49:42+01:00</time>
      </trkpt>
      <trkpt lat="43.7725" lon="7.04698">
        <ele>1068.16211</ele>
        <time>2012-01-15T11:49:48+01:00</time>
      </trkpt>
      <trkpt lat="43.77249" lon="7.04687">
        <ele>1068.64282</ele>
        <time>2012-01-15T11:49:55+01:00</time>
      </trkpt>
      <trkpt lat="43.77249" lon="7.04674">
        <ele>1068.16211</ele>
        <time>2012-01-15T11:50:00+01:00</time>
      </trkpt>
      <trkpt lat="43.77239" lon="7.04657">
        <ele>1066.71997</ele>
        <time>2012-01-15T11:50:05+01:00</time>
      </trkpt>
      <trkpt lat="43.77236" lon="7.04632">
        <ele>1065.27808</ele>
        <time>2012-01-15T11:50:10+01:00</time>
      </trkpt>
      <trkpt lat="43.77229" lon="7.04592">
        <ele>1064.31665</ele>
        <time>2012-01-15T11:50:16+01:00</time>
      </trkpt>
      <trkpt lat="43.77219" lon="7.04549">
        <ele>1064.79736</ele>
        <time>2012-01-15T11:50:23+01:00</time>
      </trkpt>
      <trkpt lat="43.77225" lon="7.04519">
        <ele>1066.23926</ele>
        <time>2012-01-15T11:50:28+01:00</time>
      </trkpt>
      <trkpt lat="43.77229" lon="7.04509">
        <ele>1066.23926</ele>
        <time>2012-01-15T11:50:30+01:00</time>
      </trkpt>
      <trkpt lat="43.77235" lon="7.04489">
        <ele>1066.71997</ele>
        <time>2012-01-15T11:50:35+01:00</time>
      </trkpt>
      <trkpt lat="43.77233" lon="7.04484">
        <ele>1066.23926</ele>
        <time>2012-01-15T11:50:36+01:00</time>
      </trkpt>
      <trkpt lat="43.7723" lon="7.04471">
        <ele>1065.75879</ele>
        <time>2012-01-15T11:50:38+01:00</time>
      </trkpt>
      <trkpt lat="43.77218" lon="7.04454">
        <ele>1064.79736</ele>
        <time>2012-01-15T11:50:42+01:00</time>
      </trkpt>
      <trkpt lat="43.77212" lon="7.04465">
        <ele>1065.27808</ele>
        <time>2012-01-15T11:50:45+01:00</time>
      </trkpt>
      <trkpt lat="43.77212" lon="7.04476">
        <ele>1065.75879</ele>
        <time>2012-01-15T11:50:47+01:00</time>
      </trkpt>
      <trkpt lat="43.77215" lon="7.04511">
        <ele>1066.71997</ele>
        <time>2012-01-15T11:50:53+01:00</time>
      </trkpt>
      <trkpt lat="43.77215" lon="7.04532">
        <ele>1066.23926</ele>
        <time>2012-01-15T11:50:58+01:00</time>
      </trkpt>
      <trkpt lat="43.77218" lon="7.04536">
        <ele>1067.68115</ele>
        <time>2012-01-15T11:51:02+01:00</time>
      </trkpt>
      <trkpt lat="43.77221" lon="7.04524">
        <ele>1068.16211</ele>
        <time>2012-01-15T11:51:06+01:00</time>
      </trkpt>
      <trkpt lat="43.77222" lon="7.04521">
        <ele>1067.68115</ele>
        <time>2012-01-15T11:51:07+01:00</time>
      </trkpt>
      <trkpt lat="43.77229" lon="7.04503">
        <ele>1068.16211</ele>
        <time>2012-01-15T11:51:13+01:00</time>
      </trkpt>
      <trkpt lat="43.77232" lon="7.04497">
        <ele>1069.12354</ele>
        <time>2012-01-15T11:51:16+01:00</time>
      </trkpt>
      <trkpt lat="43.77231" lon="7.0448">
        <ele>1068.16211</ele>
        <time>2012-01-15T11:51:20+01:00</time>
      </trkpt>
      <trkpt lat="43.77221" lon="7.04433">
        <ele>1065.27808</ele>
        <time>2012-01-15T11:51:26+01:00</time>
      </trkpt>
      <trkpt lat="43.77222" lon="7.04401">
        <ele>1064.31665</ele>
        <time>2012-01-15T11:51:31+01:00</time>
      </trkpt>
      <trkpt lat="43.77226" lon="7.04387">
        <ele>1064.79736</ele>
        <time>2012-01-15T11:51:34+01:00</time>
      </trkpt>
      <trkpt lat="43.77242" lon="7.04356">
        <ele>1065.75879</ele>
        <time>2012-01-15T11:51:41+01:00</time>
      </trkpt>
      <trkpt lat="43.77251" lon="7.04338">
        <ele>1066.71997</ele>
        <time>2012-01-15T11:51:47+01:00</time>
      </trkpt>
      <trkpt lat="43.77249" lon="7.04329">
        <ele>1068.16211</ele>
        <time>2012-01-15T11:51:52+01:00</time>
      </trkpt>
      <trkpt lat="43.77253" lon="7.04321">
        <ele>1069.12354</ele>
        <time>2012-01-15T11:51:56+01:00</time>
      </trkpt>
      <trkpt lat="43.77254" lon="7.04319">
        <ele>1069.12354</ele>
        <time>2012-01-15T11:51:57+01:00</time>
      </trkpt>
      <trkpt lat="43.77268" lon="7.04311">
        <ele>1070.56543</ele>
        <time>2012-01-15T11:52:04+01:00</time>
      </trkpt>
      <trkpt lat="43.7728" lon="7.04306">
        <ele>1072.00732</ele>
        <time>2012-01-15T11:52:10+01:00</time>
      </trkpt>
      <trkpt lat="43.77288" lon="7.04294">
        <ele>1072.96875</ele>
        <time>2012-01-15T11:52:15+01:00</time>
      </trkpt>
      <trkpt lat="43.77297" lon="7.04276">
        <ele>1073.92993</ele>
        <time>2012-01-15T11:52:22+01:00</time>
      </trkpt>
      <trkpt lat="43.77303" lon="7.04257">
        <ele>1073.92993</ele>
        <time>2012-01-15T11:52:29+01:00</time>
      </trkpt>
      <trkpt lat="43.77309" lon="7.04244">
        <ele>1074.41064</ele>
        <time>2012-01-15T11:52:35+01:00</time>
      </trkpt>
      <trkpt lat="43.77318" lon="7.04236">
        <ele>1074.41064</ele>
        <time>2012-01-15T11:52:40+01:00</time>
      </trkpt>
      <trkpt lat="43.77321" lon="7.04225">
        <ele>1073.92993</ele>
        <time>2012-01-15T11:52:45+01:00</time>
      </trkpt>
      <trkpt lat="43.77312" lon="7.04216">
        <ele>1073.92993</ele>
        <time>2012-01-15T11:52:50+01:00</time>
      </trkpt>
      <trkpt lat="43.77311" lon="7.04214">
        <ele>1073.92993</ele>
        <time>2012-01-15T11:52:51+01:00</time>
      </trkpt>
      <trkpt lat="43.77308" lon="7.04208">
        <ele>1073.92993</ele>
        <time>2012-01-15T11:53:02+01:00</time>
      </trkpt>
      <trkpt lat="43.77302" lon="7.04193">
        <ele>1075.85254</ele>
        <time>2012-01-15T11:53:10+01:00</time>
      </trkpt>
      <trkpt lat="43.77301" lon="7.04177">
        <ele>1076.81396</ele>
        <time>2012-01-15T11:53:18+01:00</time>
      </trkpt>
      <trkpt lat="43.77303" lon="7.04162">
        <ele>1078.25586</ele>
        <time>2012-01-15T11:53:26+01:00</time>
      </trkpt>
      <trkpt lat="43.77304" lon="7.04146">
        <ele>1078.73657</ele>
        <time>2012-01-15T11:53:34+01:00</time>
      </trkpt>
      <trkpt lat="43.77303" lon="7.04133">
        <ele>1079.21704</ele>
        <time>2012-01-15T11:53:41+01:00</time>
      </trkpt>
      <trkpt lat="43.77305" lon="7.04116">
        <ele>1079.69775</ele>
        <time>2012-01-15T11:53:49+01:00</time>
      </trkpt>
      <trkpt lat="43.77304" lon="7.04105">
        <ele>1080.17847</ele>
        <time>2012-01-15T11:53:54+01:00</time>
      </trkpt>
      <trkpt lat="43.77304" lon="7.04101">
        <ele>1080.17847</ele>
        <time>2012-01-15T11:53:56+01:00</time>
      </trkpt>
      <trkpt lat="43.77304" lon="7.04085">
        <ele>1081.13989</ele>
        <time>2012-01-15T11:54:03+01:00</time>
      </trkpt>
      <trkpt lat="43.77307" lon="7.04067">
        <ele>1081.62036</ele>
        <time>2012-01-15T11:54:13+01:00</time>
      </trkpt>
      <trkpt lat="43.77308" lon="7.04055">
        <ele>1083.06226</ele>
        <time>2012-01-15T11:54:19+01:00</time>
      </trkpt>
      <trkpt lat="43.77309" lon="7.04041">
        <ele>1084.02393</ele>
        <time>2012-01-15T11:54:26+01:00</time>
      </trkpt>
      <trkpt lat="43.77309" lon="7.04029">
        <ele>1084.98535</ele>
        <time>2012-01-15T11:54:32+01:00</time>
      </trkpt>
      <trkpt lat="43.7731" lon="7.04015">
        <ele>1086.42725</ele>
        <time>2012-01-15T11:54:39+01:00</time>
      </trkpt>
      <trkpt lat="43.7731" lon="7.04002">
        <ele>1087.86914</ele>
        <time>2012-01-15T11:54:45+01:00</time>
      </trkpt>
      <trkpt lat="43.7731" lon="7.03988">
        <ele>1088.83057</ele>
        <time>2012-01-15T11:54:53+01:00</time>
      </trkpt>
      <trkpt lat="43.77311" lon="7.03982">
        <ele>1089.31104</ele>
        <time>2012-01-15T11:54:56+01:00</time>
      </trkpt>
      <trkpt lat="43.77311" lon="7.03966">
        <ele>1090.27246</ele>
        <time>2012-01-15T11:55:04+01:00</time>
      </trkpt>
      <trkpt lat="43.77312" lon="7.03962">
        <ele>1090.75293</ele>
        <time>2012-01-15T11:55:06+01:00</time>
      </trkpt>
      <trkpt lat="43.77311" lon="7.0395">
        <ele>1091.71436</ele>
        <time>2012-01-15T11:55:12+01:00</time>
      </trkpt>
      <trkpt lat="43.77311" lon="7.03928">
        <ele>1093.15625</ele>
        <time>2012-01-15T11:55:22+01:00</time>
      </trkpt>
      <trkpt lat="43.77311" lon="7.03915">
        <ele>1093.63696</ele>
        <time>2012-01-15T11:55:28+01:00</time>
      </trkpt>
      <trkpt lat="43.7731" lon="7.03903">
        <ele>1094.59814</ele>
        <time>2012-01-15T11:55:34+01:00</time>
      </trkpt>
      <trkpt lat="43.77311" lon="7.0389">
        <ele>1096.04028</ele>
        <time>2012-01-15T11:55:40+01:00</time>
      </trkpt>
      <trkpt lat="43.77308" lon="7.03875">
        <ele>1097.48218</ele>
        <time>2012-01-15T11:55:47+01:00</time>
      </trkpt>
      <trkpt lat="43.77304" lon="7.03863">
        <ele>1098.92407</ele>
        <time>2012-01-15T11:55:53+01:00</time>
      </trkpt>
      <trkpt lat="43.77303" lon="7.03853">
        <ele>1099.8855</ele>
        <time>2012-01-15T11:55:58+01:00</time>
      </trkpt>
      <trkpt lat="43.77301" lon="7.03849">
        <ele>1100.36646</ele>
        <time>2012-01-15T11:56:05+01:00</time>
      </trkpt>
      <trkpt lat="43.77302" lon="7.03847">
        <ele>1100.84692</ele>
        <time>2012-01-15T11:56:13+01:00</time>
      </trkpt>
      <trkpt lat="43.77297" lon="7.0383">
        <ele>1101.80835</ele>
        <time>2012-01-15T11:56:19+01:00</time>
      </trkpt>
      <trkpt lat="43.77293" lon="7.03825">
        <ele>1102.28882</ele>
        <time>2012-01-15T11:56:21+01:00</time>
      </trkpt>
      <trkpt lat="43.77283" lon="7.03812">
        <ele>1103.73096</ele>
        <time>2012-01-15T11:56:27+01:00</time>
      </trkpt>
      <trkpt lat="43.77271" lon="7.03799">
        <ele>1105.65356</ele>
        <time>2012-01-15T11:56:34+01:00</time>
      </trkpt>
      <trkpt lat="43.7726" lon="7.03786">
        <ele>1106.61475</ele>
        <time>2012-01-15T11:56:41+01:00</time>
      </trkpt>
      <trkpt lat="43.7725" lon="7.03778">
        <ele>1108.05688</ele>
        <time>2012-01-15T11:56:47+01:00</time>
      </trkpt>
      <trkpt lat="43.77237" lon="7.03766">
        <ele>1109.49878</ele>
        <time>2012-01-15T11:56:55+01:00</time>
      </trkpt>
      <trkpt lat="43.77224" lon="7.03752">
        <ele>1110.94067</ele>
        <time>2012-01-15T11:57:04+01:00</time>
      </trkpt>
      <trkpt lat="43.77214" lon="7.03739">
        <ele>1112.38257</ele>
        <time>2012-01-15T11:57:11+01:00</time>
      </trkpt>
      <trkpt lat="43.77208" lon="7.03724">
        <ele>1113.34399</ele>
        <time>2012-01-15T11:57:18+01:00</time>
      </trkpt>
      <trkpt lat="43.77203" lon="7.03707">
        <ele>1115.2666</ele>
        <time>2012-01-15T11:57:25+01:00</time>
      </trkpt>
      <trkpt lat="43.77196" lon="7.03694">
        <ele>1116.22803</ele>
        <time>2012-01-15T11:57:31+01:00</time>
      </trkpt>
      <trkpt lat="43.77187" lon="7.03683">
        <ele>1117.18945</ele>
        <time>2012-01-15T11:57:37+01:00</time>
      </trkpt>
      <trkpt lat="43.77176" lon="7.03671">
        <ele>1117.66992</ele>
        <time>2012-01-15T11:57:43+01:00</time>
      </trkpt>
      <trkpt lat="43.77168" lon="7.03657">
        <ele>1117.18945</ele>
        <time>2012-01-15T11:57:49+01:00</time>
      </trkpt>
      <trkpt lat="43.77164" lon="7.03634">
        <ele>1117.18945</ele>
        <time>2012-01-15T11:57:56+01:00</time>
      </trkpt>
      <trkpt lat="43.77155" lon="7.03618">
        <ele>1117.66992</ele>
        <time>2012-01-15T11:58:03+01:00</time>
      </trkpt>
      <trkpt lat="43.77145" lon="7.03613">
        <ele>1117.66992</ele>
        <time>2012-01-15T11:58:08+01:00</time>
      </trkpt>
      <trkpt lat="43.77134" lon="7.03602">
        <ele>1117.18945</ele>
        <time>2012-01-15T11:58:13+01:00</time>
      </trkpt>
      <trkpt lat="43.7713" lon="7.03577">
        <ele>1116.22803</ele>
        <time>2012-01-15T11:58:19+01:00</time>
      </trkpt>
      <trkpt lat="43.77138" lon="7.03561">
        <ele>1115.74731</ele>
        <time>2012-01-15T11:58:24+01:00</time>
      </trkpt>
      <trkpt lat="43.77148" lon="7.03564">
        <ele>1115.74731</ele>
        <time>2012-01-15T11:58:29+01:00</time>
      </trkpt>
      <trkpt lat="43.77151" lon="7.03567">
        <ele>1116.22803</ele>
        <time>2012-01-15T11:58:31+01:00</time>
      </trkpt>
      <trkpt lat="43.77158" lon="7.03584">
        <ele>1116.22803</ele>
        <time>2012-01-15T11:58:37+01:00</time>
      </trkpt>
      <trkpt lat="43.7716" lon="7.03582">
        <ele>1116.22803</ele>
        <time>2012-01-15T11:58:45+01:00</time>
      </trkpt>
      <trkpt lat="43.77158" lon="7.03585">
        <ele>1119.11206</ele>
        <time>2012-01-15T11:59:34+01:00</time>
      </trkpt>
      <trkpt lat="43.77159" lon="7.03589">
        <ele>1120.07324</ele>
        <time>2012-01-15T11:59:39+01:00</time>
      </trkpt>
      <trkpt lat="43.7716" lon="7.03589">
        <ele>1120.07324</ele>
        <time>2012-01-15T11:59:40+01:00</time>
      </trkpt>
      <trkpt lat="43.77169" lon="7.03578">
        <ele>1120.07324</ele>
        <time>2012-01-15T11:59:44+01:00</time>
      </trkpt>
      <trkpt lat="43.77174" lon="7.03563">
        <ele>1120.07324</ele>
        <time>2012-01-15T11:59:47+01:00</time>
      </trkpt>
      <trkpt lat="43.77179" lon="7.03533">
        <ele>1119.59277</ele>
        <time>2012-01-15T11:59:54+01:00</time>
      </trkpt>
      <trkpt lat="43.7718" lon="7.03528">
        <ele>1119.59277</ele>
        <time>2012-01-15T11:59:56+01:00</time>
      </trkpt>
      <trkpt lat="43.77181" lon="7.03528">
        <ele>1119.59277</ele>
        <time>2012-01-15T12:00:01+01:00</time>
      </trkpt>
      <trkpt lat="43.77181" lon="7.03529">
        <ele>1120.55396</ele>
        <time>2012-01-15T12:00:06+01:00</time>
      </trkpt>
      <trkpt lat="43.77181" lon="7.03532">
        <ele>1120.55396</ele>
        <time>2012-01-15T12:00:09+01:00</time>
      </trkpt>
      <trkpt lat="43.77177" lon="7.0355">
        <ele>1121.03467</ele>
        <time>2012-01-15T12:00:14+01:00</time>
      </trkpt>
      <trkpt lat="43.77167" lon="7.03586">
        <ele>1121.51514</ele>
        <time>2012-01-15T12:00:21+01:00</time>
      </trkpt>
      <trkpt lat="43.77162" lon="7.03593">
        <ele>1121.99585</ele>
        <time>2012-01-15T12:00:24+01:00</time>
      </trkpt>
      <trkpt lat="43.77162" lon="7.03593">
        <ele>1122.47656</ele>
        <time>2012-01-15T12:00:31+01:00</time>
      </trkpt>
      <trkpt lat="43.77162" lon="7.03594">
        <ele>1122.47656</ele>
        <time>2012-01-15T12:00:35+01:00</time>
      </trkpt>
      <trkpt lat="43.77163" lon="7.03594">
        <ele>1121.99585</ele>
        <time>2012-01-15T12:00:43+01:00</time>
      </trkpt>
      <trkpt lat="43.77163" lon="7.03594">
        <ele>1122.95728</ele>
        <time>2012-01-15T12:00:50+01:00</time>
      </trkpt>
      <trkpt lat="43.77163" lon="7.03594">
        <ele>1121.99585</ele>
        <time>2012-01-15T12:00:56+01:00</time>
      </trkpt>
      <trkpt lat="43.77163" lon="7.03594">
        <ele>1122.47656</ele>
        <time>2012-01-15T12:01:00+01:00</time>
      </trkpt>
      <trkpt lat="43.77163" lon="7.03594">
        <ele>1122.95728</ele>
        <time>2012-01-15T12:01:08+01:00</time>
      </trkpt>
      <trkpt lat="43.77163" lon="7.03594">
        <ele>1121.99585</ele>
        <time>2012-01-15T12:01:17+01:00</time>
      </trkpt>
      <trkpt lat="43.77163" lon="7.03594">
        <ele>1121.99585</ele>
        <time>2012-01-15T12:01:26+01:00</time>
      </trkpt>
      <trkpt lat="43.77163" lon="7.03595">
        <ele>1121.99585</ele>
        <time>2012-01-15T12:01:39+01:00</time>
      </trkpt>
      <trkpt lat="43.77163" lon="7.03594">
        <ele>1121.51514</ele>
        <time>2012-01-15T12:01:51+01:00</time>
      </trkpt>
      <trkpt lat="43.77164" lon="7.03595">
        <ele>1121.51514</ele>
        <time>2012-01-15T12:01:58+01:00</time>
      </trkpt>
      <trkpt lat="43.77163" lon="7.03594">
        <ele>1122.47656</ele>
        <time>2012-01-15T12:02:04+01:00</time>
      </trkpt>
      <trkpt lat="43.77163" lon="7.03593">
        <ele>1122.47656</ele>
        <time>2012-01-15T12:02:12+01:00</time>
      </trkpt>
      <trkpt lat="43.77163" lon="7.03594">
        <ele>1123.43799</ele>
        <time>2012-01-15T12:02:19+01:00</time>
      </trkpt>
      <trkpt lat="43.77162" lon="7.03595">
        <ele>1123.43799</ele>
        <time>2012-01-15T12:02:29+01:00</time>
      </trkpt>
      <trkpt lat="43.77163" lon="7.03595">
        <ele>1123.91846</ele>
        <time>2012-01-15T12:02:39+01:00</time>
      </trkpt>
      <trkpt lat="43.77163" lon="7.03596">
        <ele>1123.43799</ele>
        <time>2012-01-15T12:02:45+01:00</time>
      </trkpt>
      <trkpt lat="43.77163" lon="7.03595">
        <ele>1122.95728</ele>
        <time>2012-01-15T12:02:53+01:00</time>
      </trkpt>
      <trkpt lat="43.77163" lon="7.03595">
        <ele>1123.43799</ele>
        <time>2012-01-15T12:03:01+01:00</time>
      </trkpt>
      <trkpt lat="43.77163" lon="7.03594">
        <ele>1123.91846</ele>
        <time>2012-01-15T12:03:07+01:00</time>
      </trkpt>
      <trkpt lat="43.77163" lon="7.03593">
        <ele>1123.91846</ele>
        <time>2012-01-15T12:03:10+01:00</time>
      </trkpt>
      <trkpt lat="43.77164" lon="7.03592">
        <ele>1123.43799</ele>
        <time>2012-01-15T12:03:14+01:00</time>
      </trkpt>
      <trkpt lat="43.77164" lon="7.03592">
        <ele>1123.91846</ele>
        <time>2012-01-15T12:03:23+01:00</time>
      </trkpt>
      <trkpt lat="43.77163" lon="7.03593">
        <ele>1123.91846</ele>
        <time>2012-01-15T12:03:31+01:00</time>
      </trkpt>
      <trkpt lat="43.77163" lon="7.03594">
        <ele>1123.91846</ele>
        <time>2012-01-15T12:03:37+01:00</time>
      </trkpt>
      <trkpt lat="43.77162" lon="7.03594">
        <ele>1123.91846</ele>
        <time>2012-01-15T12:03:44+01:00</time>
      </trkpt>
      <trkpt lat="43.77162" lon="7.03595">
        <ele>1123.91846</ele>
        <time>2012-01-15T12:03:55+01:00</time>
      </trkpt>
      <trkpt lat="43.77163" lon="7.03595">
        <ele>1124.39917</ele>
        <time>2012-01-15T12:04:03+01:00</time>
      </trkpt>
      <trkpt lat="43.77163" lon="7.03595">
        <ele>1124.39917</ele>
        <time>2012-01-15T12:04:11+01:00</time>
      </trkpt>
      <trkpt lat="43.77163" lon="7.03594">
        <ele>1124.39917</ele>
        <time>2012-01-15T12:04:19+01:00</time>
      </trkpt>
      <trkpt lat="43.77163" lon="7.03593">
        <ele>1123.43799</ele>
        <time>2012-01-15T12:04:29+01:00</time>
      </trkpt>
      <trkpt lat="43.77163" lon="7.03594">
        <ele>1122.95728</ele>
        <time>2012-01-15T12:04:40+01:00</time>
      </trkpt>
      <trkpt lat="43.77163" lon="7.03593">
        <ele>1123.91846</ele>
        <time>2012-01-15T12:04:55+01:00</time>
      </trkpt>
      <trkpt lat="43.77163" lon="7.03595">
        <ele>1125.36035</ele>
        <time>2012-01-15T12:05:05+01:00</time>
      </trkpt>
      <trkpt lat="43.77162" lon="7.03593">
        <ele>1125.36035</ele>
        <time>2012-01-15T12:05:11+01:00</time>
      </trkpt>
      <trkpt lat="43.77163" lon="7.03593">
        <ele>1124.87988</ele>
        <time>2012-01-15T12:05:18+01:00</time>
      </trkpt>
      <trkpt lat="43.77163" lon="7.03591">
        <ele>1124.87988</ele>
        <time>2012-01-15T12:05:30+01:00</time>
      </trkpt>
      <trkpt lat="43.77163" lon="7.03592">
        <ele>1125.36035</ele>
        <time>2012-01-15T12:05:43+01:00</time>
      </trkpt>
      <trkpt lat="43.77163" lon="7.03591">
        <ele>1125.84106</ele>
        <time>2012-01-15T12:06:00+01:00</time>
      </trkpt>
      <trkpt lat="43.77163" lon="7.03591">
        <ele>1125.84106</ele>
        <time>2012-01-15T12:06:11+01:00</time>
      </trkpt>
      <trkpt lat="43.77163" lon="7.03591">
        <ele>1125.36035</ele>
        <time>2012-01-15T12:06:22+01:00</time>
      </trkpt>
      <trkpt lat="43.77163" lon="7.03591">
        <ele>1123.91846</ele>
        <time>2012-01-15T12:06:34+01:00</time>
      </trkpt>
      <trkpt lat="43.77163" lon="7.03591">
        <ele>1122.95728</ele>
        <time>2012-01-15T12:06:41+01:00</time>
      </trkpt>
      <trkpt lat="43.77162" lon="7.03589">
        <ele>1121.99585</ele>
        <time>2012-01-15T12:06:48+01:00</time>
      </trkpt>
      <trkpt lat="43.77158" lon="7.03584">
        <ele>1121.51514</ele>
        <time>2012-01-15T12:06:53+01:00</time>
      </trkpt>
      <trkpt lat="43.77159" lon="7.03584">
        <ele>1121.03467</ele>
        <time>2012-01-15T12:07:10+01:00</time>
      </trkpt>
      <trkpt lat="43.7716" lon="7.03587">
        <ele>1120.07324</ele>
        <time>2012-01-15T12:07:20+01:00</time>
      </trkpt>
      <trkpt lat="43.77161" lon="7.03589">
        <ele>1120.07324</ele>
        <time>2012-01-15T12:07:24+01:00</time>
      </trkpt>
      <trkpt lat="43.7716" lon="7.03589">
        <ele>1120.55396</ele>
        <time>2012-01-15T12:07:29+01:00</time>
      </trkpt>
      <trkpt lat="43.77161" lon="7.0359">
        <ele>1120.55396</ele>
        <time>2012-01-15T12:07:35+01:00</time>
      </trkpt>
      <trkpt lat="43.77158" lon="7.03588">
        <ele>1120.07324</ele>
        <time>2012-01-15T12:07:41+01:00</time>
      </trkpt>
      <trkpt lat="43.77158" lon="7.03586">
        <ele>1120.07324</ele>
        <time>2012-01-15T12:07:46+01:00</time>
      </trkpt>
      <trkpt lat="43.77155" lon="7.03582">
        <ele>1119.59277</ele>
        <time>2012-01-15T12:07:51+01:00</time>
      </trkpt>
      <trkpt lat="43.7715" lon="7.03569">
        <ele>1119.59277</ele>
        <time>2012-01-15T12:07:55+01:00</time>
      </trkpt>
      <trkpt lat="43.7715" lon="7.03547">
        <ele>1117.66992</ele>
        <time>2012-01-15T12:08:00+01:00</time>
      </trkpt>
      <trkpt lat="43.77151" lon="7.03523">
        <ele>1114.78589</ele>
        <time>2012-01-15T12:08:03+01:00</time>
      </trkpt>
      <trkpt lat="43.7715" lon="7.03512">
        <ele>1113.34399</ele>
        <time>2012-01-15T12:08:04+01:00</time>
      </trkpt>
      <trkpt lat="43.77133" lon="7.03474">
        <ele>1107.57617</ele>
        <time>2012-01-15T12:08:08+01:00</time>
      </trkpt>
      <trkpt lat="43.77114" lon="7.03444">
        <ele>1101.32764</ele>
        <time>2012-01-15T12:08:12+01:00</time>
      </trkpt>
      <trkpt lat="43.77089" lon="7.03416">
        <ele>1094.11768</ele>
        <time>2012-01-15T12:08:17+01:00</time>
      </trkpt>
      <trkpt lat="43.77084" lon="7.03414">
        <ele>1093.15625</ele>
        <time>2012-01-15T12:08:18+01:00</time>
      </trkpt>
      <trkpt lat="43.77064" lon="7.03399">
        <ele>1087.86914</ele>
        <time>2012-01-15T12:08:22+01:00</time>
      </trkpt>
      <trkpt lat="43.77056" lon="7.03395">
        <ele>1085.46582</ele>
        <time>2012-01-15T12:08:24+01:00</time>
      </trkpt>
      <trkpt lat="43.77045" lon="7.03386">
        <ele>1081.62036</ele>
        <time>2012-01-15T12:08:28+01:00</time>
      </trkpt>
      <trkpt lat="43.77031" lon="7.03377">
        <ele>1076.33325</ele>
        <time>2012-01-15T12:08:33+01:00</time>
      </trkpt>
      <trkpt lat="43.77014" lon="7.03368">
        <ele>1071.04614</ele>
        <time>2012-01-15T12:08:38+01:00</time>
      </trkpt>
      <trkpt lat="43.7701" lon="7.03364">
        <ele>1069.60425</ele>
        <time>2012-01-15T12:08:40+01:00</time>
      </trkpt>
      <trkpt lat="43.77004" lon="7.03363">
        <ele>1068.64282</ele>
        <time>2012-01-15T12:08:46+01:00</time>
      </trkpt>
      <trkpt lat="43.77004" lon="7.03363">
        <ele>1068.64282</ele>
        <time>2012-01-15T12:08:52+01:00</time>
      </trkpt>
      <trkpt lat="43.77002" lon="7.03363">
        <ele>1068.64282</ele>
        <time>2012-01-15T12:08:57+01:00</time>
      </trkpt>
      <trkpt lat="43.77001" lon="7.03364">
        <ele>1069.12354</ele>
        <time>2012-01-15T12:09:05+01:00</time>
      </trkpt>
      <trkpt lat="43.77001" lon="7.03364">
        <ele>1069.60425</ele>
        <time>2012-01-15T12:09:12+01:00</time>
      </trkpt>
      <trkpt lat="43.77001" lon="7.03364">
        <ele>1069.60425</ele>
        <time>2012-01-15T12:09:17+01:00</time>
      </trkpt>
      <trkpt lat="43.77001" lon="7.03364">
        <ele>1071.52661</ele>
        <time>2012-01-15T12:09:30+01:00</time>
      </trkpt>
      <trkpt lat="43.77" lon="7.03365">
        <ele>1071.52661</ele>
        <time>2012-01-15T12:09:37+01:00</time>
      </trkpt>
      <trkpt lat="43.76999" lon="7.03365">
        <ele>1072.48804</ele>
        <time>2012-01-15T12:09:46+01:00</time>
      </trkpt>
      <trkpt lat="43.76999" lon="7.03363">
        <ele>1075.37183</ele>
        <time>2012-01-15T12:10:50+01:00</time>
      </trkpt>
      <trkpt lat="43.76998" lon="7.03363">
        <ele>1074.89136</ele>
        <time>2012-01-15T12:10:56+01:00</time>
      </trkpt>
      <trkpt lat="43.76998" lon="7.03363">
        <ele>1074.41064</ele>
        <time>2012-01-15T12:11:01+01:00</time>
      </trkpt>
      <trkpt lat="43.76999" lon="7.03365">
        <ele>1073.44946</ele>
        <time>2012-01-15T12:11:04+01:00</time>
      </trkpt>
      <trkpt lat="43.77" lon="7.03365">
        <ele>1072.48804</ele>
        <time>2012-01-15T12:11:12+01:00</time>
      </trkpt>
      <trkpt lat="43.77001" lon="7.03365">
        <ele>1072.00732</ele>
        <time>2012-01-15T12:11:18+01:00</time>
      </trkpt>
      <trkpt lat="43.77001" lon="7.03365">
        <ele>1072.00732</ele>
        <time>2012-01-15T12:11:32+01:00</time>
      </trkpt>
      <trkpt lat="43.77001" lon="7.03365">
        <ele>1072.48804</ele>
        <time>2012-01-15T12:11:47+01:00</time>
      </trkpt>
      <trkpt lat="43.77002" lon="7.03365">
        <ele>1072.00732</ele>
        <time>2012-01-15T12:11:58+01:00</time>
      </trkpt>
      <trkpt lat="43.77001" lon="7.03364">
        <ele>1072.00732</ele>
        <time>2012-01-15T12:12:12+01:00</time>
      </trkpt>
      <trkpt lat="43.77001" lon="7.03366">
        <ele>1070.56543</ele>
        <time>2012-01-15T12:12:37+01:00</time>
      </trkpt>
      <trkpt lat="43.77001" lon="7.03367">
        <ele>1071.04614</ele>
        <time>2012-01-15T12:12:52+01:00</time>
      </trkpt>
      <trkpt lat="43.77001" lon="7.03367">
        <ele>1070.08472</ele>
        <time>2012-01-15T12:13:03+01:00</time>
      </trkpt>
      <trkpt lat="43.77" lon="7.03368">
        <ele>1071.52661</ele>
        <time>2012-01-15T12:13:10+01:00</time>
      </trkpt>
      <trkpt lat="43.77" lon="7.03368">
        <ele>1071.52661</ele>
        <time>2012-01-15T12:13:22+01:00</time>
      </trkpt>
      <trkpt lat="43.77" lon="7.03367">
        <ele>1071.04614</ele>
        <time>2012-01-15T12:13:27+01:00</time>
      </trkpt>
      <trkpt lat="43.76997" lon="7.03366">
        <ele>1070.08472</ele>
        <time>2012-01-15T12:13:35+01:00</time>
      </trkpt>
      <trkpt lat="43.76985" lon="7.03362">
        <ele>1068.64282</ele>
        <time>2012-01-15T12:13:39+01:00</time>
      </trkpt>
      <trkpt lat="43.76976" lon="7.0335">
        <ele>1066.71997</ele>
        <time>2012-01-15T12:13:42+01:00</time>
      </trkpt>
      <trkpt lat="43.76974" lon="7.03339">
        <ele>1064.79736</ele>
        <time>2012-01-15T12:13:45+01:00</time>
      </trkpt>
      <trkpt lat="43.76969" lon="7.03335">
        <ele>1063.83594</ele>
        <time>2012-01-15T12:13:48+01:00</time>
      </trkpt>
      <trkpt lat="43.76968" lon="7.03334">
        <ele>1062.87476</ele>
        <time>2012-01-15T12:13:54+01:00</time>
      </trkpt>
      <trkpt lat="43.76967" lon="7.03334">
        <ele>1062.87476</ele>
        <time>2012-01-15T12:14:03+01:00</time>
      </trkpt>
      <trkpt lat="43.76961" lon="7.03325">
        <ele>1059.99072</ele>
        <time>2012-01-15T12:14:08+01:00</time>
      </trkpt>
      <trkpt lat="43.76959" lon="7.0332">
        <ele>1058.54883</ele>
        <time>2012-01-15T12:14:10+01:00</time>
      </trkpt>
      <trkpt lat="43.76946" lon="7.03311">
        <ele>1055.66504</ele>
        <time>2012-01-15T12:14:15+01:00</time>
      </trkpt>
      <trkpt lat="43.76932" lon="7.03292">
        <ele>1049.89697</ele>
        <time>2012-01-15T12:14:21+01:00</time>
      </trkpt>
      <trkpt lat="43.7692" lon="7.03278">
        <ele>1046.05176</ele>
        <time>2012-01-15T12:14:25+01:00</time>
      </trkpt>
      <trkpt lat="43.7691" lon="7.03264">
        <ele>1042.20654</ele>
        <time>2012-01-15T12:14:29+01:00</time>
      </trkpt>
      <trkpt lat="43.76908" lon="7.0326">
        <ele>1040.7644</ele>
        <time>2012-01-15T12:14:30+01:00</time>
      </trkpt>
      <trkpt lat="43.76906" lon="7.03256">
        <ele>1038.36133</ele>
        <time>2012-01-15T12:14:34+01:00</time>
      </trkpt>
      <trkpt lat="43.76906" lon="7.03257">
        <ele>1039.32251</ele>
        <time>2012-01-15T12:14:41+01:00</time>
      </trkpt>
      <trkpt lat="43.76905" lon="7.03257">
        <ele>1039.80322</ele>
        <time>2012-01-15T12:14:47+01:00</time>
      </trkpt>
      <trkpt lat="43.76905" lon="7.03258">
        <ele>1039.32251</ele>
        <time>2012-01-15T12:14:53+01:00</time>
      </trkpt>
      <trkpt lat="43.76905" lon="7.03256">
        <ele>1041.72583</ele>
        <time>2012-01-15T12:15:05+01:00</time>
      </trkpt>
      <trkpt lat="43.76906" lon="7.03256">
        <ele>1042.20654</ele>
        <time>2012-01-15T12:15:11+01:00</time>
      </trkpt>
      <trkpt lat="43.76906" lon="7.03254">
        <ele>1041.24512</ele>
        <time>2012-01-15T12:15:17+01:00</time>
      </trkpt>
      <trkpt lat="43.76905" lon="7.03253">
        <ele>1040.7644</ele>
        <time>2012-01-15T12:15:18+01:00</time>
      </trkpt>
      <trkpt lat="43.76899" lon="7.03252">
        <ele>1039.80322</ele>
        <time>2012-01-15T12:15:22+01:00</time>
      </trkpt>
      <trkpt lat="43.76895" lon="7.03251">
        <ele>1038.84204</ele>
        <time>2012-01-15T12:15:25+01:00</time>
      </trkpt>
      <trkpt lat="43.76888" lon="7.03245">
        <ele>1037.3999</ele>
        <time>2012-01-15T12:15:30+01:00</time>
      </trkpt>
      <trkpt lat="43.76888" lon="7.03246">
        <ele>1037.3999</ele>
        <time>2012-01-15T12:15:36+01:00</time>
      </trkpt>
      <trkpt lat="43.76889" lon="7.03246">
        <ele>1037.88062</ele>
        <time>2012-01-15T12:15:42+01:00</time>
      </trkpt>
      <trkpt lat="43.76888" lon="7.03246">
        <ele>1040.28394</ele>
        <time>2012-01-15T12:16:05+01:00</time>
      </trkpt>
      <trkpt lat="43.76886" lon="7.03247">
        <ele>1041.24512</ele>
        <time>2012-01-15T12:16:20+01:00</time>
      </trkpt>
      <trkpt lat="43.76883" lon="7.03244">
        <ele>1041.24512</ele>
        <time>2012-01-15T12:16:34+01:00</time>
      </trkpt>
      <trkpt lat="43.76873" lon="7.03237">
        <ele>1038.36133</ele>
        <time>2012-01-15T12:16:38+01:00</time>
      </trkpt>
      <trkpt lat="43.7686" lon="7.03232">
        <ele>1035.95776</ele>
        <time>2012-01-15T12:16:41+01:00</time>
      </trkpt>
      <trkpt lat="43.76844" lon="7.0322">
        <ele>1032.11255</ele>
        <time>2012-01-15T12:16:45+01:00</time>
      </trkpt>
      <trkpt lat="43.76835" lon="7.03218">
        <ele>1030.67065</ele>
        <time>2012-01-15T12:16:47+01:00</time>
      </trkpt>
      <trkpt lat="43.76803" lon="7.03217">
        <ele>1026.82544</ele>
        <time>2012-01-15T12:16:53+01:00</time>
      </trkpt>
      <trkpt lat="43.76793" lon="7.03216">
        <ele>1024.42212</ele>
        <time>2012-01-15T12:16:55+01:00</time>
      </trkpt>
      <trkpt lat="43.7678" lon="7.0322">
        <ele>1022.49951</ele>
        <time>2012-01-15T12:16:58+01:00</time>
      </trkpt>
      <trkpt lat="43.76756" lon="7.03237">
        <ele>1018.17334</ele>
        <time>2012-01-15T12:17:04+01:00</time>
      </trkpt>
      <trkpt lat="43.76743" lon="7.03245">
        <ele>1015.77026</ele>
        <time>2012-01-15T12:17:07+01:00</time>
      </trkpt>
      <trkpt lat="43.76731" lon="7.03259">
        <ele>1013.36694</ele>
        <time>2012-01-15T12:17:11+01:00</time>
      </trkpt>
      <trkpt lat="43.7671" lon="7.03276">
        <ele>1010.0022</ele>
        <time>2012-01-15T12:17:16+01:00</time>
      </trkpt>
      <trkpt lat="43.76694" lon="7.03292">
        <ele>1008.07983</ele>
        <time>2012-01-15T12:17:20+01:00</time>
      </trkpt>
      <trkpt lat="43.7668" lon="7.03306">
        <ele>1005.1958</ele>
        <time>2012-01-15T12:17:24+01:00</time>
      </trkpt>
      <trkpt lat="43.76658" lon="7.03332">
        <ele>1002.31152</ele>
        <time>2012-01-15T12:17:29+01:00</time>
      </trkpt>
      <trkpt lat="43.76654" lon="7.03337">
        <ele>1001.83105</ele>
        <time>2012-01-15T12:17:30+01:00</time>
      </trkpt>
      <trkpt lat="43.76636" lon="7.0336">
        <ele>998.466309</ele>
        <time>2012-01-15T12:17:34+01:00</time>
      </trkpt>
      <trkpt lat="43.76616" lon="7.03375">
        <ele>993.659912</ele>
        <time>2012-01-15T12:17:38+01:00</time>
      </trkpt>
      <trkpt lat="43.76604" lon="7.03382">
        <ele>991.737305</ele>
        <time>2012-01-15T12:17:41+01:00</time>
      </trkpt>
      <trkpt lat="43.76603" lon="7.03381">
        <ele>991.737305</ele>
        <time>2012-01-15T12:17:45+01:00</time>
      </trkpt>
      <trkpt lat="43.76595" lon="7.03387">
        <ele>991.256592</ele>
        <time>2012-01-15T12:17:51+01:00</time>
      </trkpt>
      <trkpt lat="43.76587" lon="7.03391">
        <ele>989.333984</ele>
        <time>2012-01-15T12:17:54+01:00</time>
      </trkpt>
      <trkpt lat="43.76586" lon="7.03391">
        <ele>989.333984</ele>
        <time>2012-01-15T12:18:02+01:00</time>
      </trkpt>
      <trkpt lat="43.76588" lon="7.03389">
        <ele>988.372803</ele>
        <time>2012-01-15T12:18:09+01:00</time>
      </trkpt>
      <trkpt lat="43.76589" lon="7.03389">
        <ele>988.372803</ele>
        <time>2012-01-15T12:18:20+01:00</time>
      </trkpt>
      <trkpt lat="43.76591" lon="7.03386">
        <ele>988.372803</ele>
        <time>2012-01-15T12:18:25+01:00</time>
      </trkpt>
      <trkpt lat="43.76591" lon="7.03385">
        <ele>988.372803</ele>
        <time>2012-01-15T12:18:30+01:00</time>
      </trkpt>
      <trkpt lat="43.76592" lon="7.03385">
        <ele>988.372803</ele>
        <time>2012-01-15T12:18:39+01:00</time>
      </trkpt>
      <trkpt lat="43.76593" lon="7.03386">
        <ele>988.372803</ele>
        <time>2012-01-15T12:18:59+01:00</time>
      </trkpt>
      <trkpt lat="43.76593" lon="7.03388">
        <ele>989.333984</ele>
        <time>2012-01-15T12:19:08+01:00</time>
      </trkpt>
      <trkpt lat="43.76591" lon="7.03389">
        <ele>989.333984</ele>
        <time>2012-01-15T12:19:14+01:00</time>
      </trkpt>
      <trkpt lat="43.76591" lon="7.03389">
        <ele>989.814697</ele>
        <time>2012-01-15T12:19:20+01:00</time>
      </trkpt>
      <trkpt lat="43.7659" lon="7.03391">
        <ele>989.814697</ele>
        <time>2012-01-15T12:19:29+01:00</time>
      </trkpt>
      <trkpt lat="43.7659" lon="7.0339">
        <ele>989.814697</ele>
        <time>2012-01-15T12:19:34+01:00</time>
      </trkpt>
      <trkpt lat="43.7659" lon="7.03393">
        <ele>989.814697</ele>
        <time>2012-01-15T12:19:39+01:00</time>
      </trkpt>
      <trkpt lat="43.7659" lon="7.03391">
        <ele>990.29541</ele>
        <time>2012-01-15T12:19:44+01:00</time>
      </trkpt>
      <trkpt lat="43.76589" lon="7.03392">
        <ele>989.333984</ele>
        <time>2012-01-15T12:20:01+01:00</time>
      </trkpt>
      <trkpt lat="43.76589" lon="7.03392">
        <ele>990.29541</ele>
        <time>2012-01-15T12:20:05+01:00</time>
      </trkpt>
      <trkpt lat="43.76589" lon="7.03392">
        <ele>989.814697</ele>
        <time>2012-01-15T12:20:12+01:00</time>
      </trkpt>
      <trkpt lat="43.7659" lon="7.03393">
        <ele>990.29541</ele>
        <time>2012-01-15T12:20:17+01:00</time>
      </trkpt>
      <trkpt lat="43.76589" lon="7.03393">
        <ele>990.29541</ele>
        <time>2012-01-15T12:20:25+01:00</time>
      </trkpt>
      <trkpt lat="43.7659" lon="7.03393">
        <ele>990.29541</ele>
        <time>2012-01-15T12:20:53+01:00</time>
      </trkpt>
      <trkpt lat="43.7659" lon="7.03393">
        <ele>990.29541</ele>
        <time>2012-01-15T12:21:00+01:00</time>
      </trkpt>
      <trkpt lat="43.7659" lon="7.03392">
        <ele>989.333984</ele>
        <time>2012-01-15T12:21:20+01:00</time>
      </trkpt>
      <trkpt lat="43.76595" lon="7.03383">
        <ele>989.333984</ele>
        <time>2012-01-15T12:21:25+01:00</time>
      </trkpt>
      <trkpt lat="43.76604" lon="7.03368">
        <ele>989.333984</ele>
        <time>2012-01-15T12:21:33+01:00</time>
      </trkpt>
      <trkpt lat="43.76614" lon="7.03354">
        <ele>989.333984</ele>
        <time>2012-01-15T12:21:40+01:00</time>
      </trkpt>
      <trkpt lat="43.76625" lon="7.03336">
        <ele>989.333984</ele>
        <time>2012-01-15T12:21:48+01:00</time>
      </trkpt>
      <trkpt lat="43.76634" lon="7.03317">
        <ele>989.333984</ele>
        <time>2012-01-15T12:21:56+01:00</time>
      </trkpt>
      <trkpt lat="43.76638" lon="7.03299">
        <ele>989.814697</ele>
        <time>2012-01-15T12:22:03+01:00</time>
      </trkpt>
      <trkpt lat="43.76641" lon="7.03283">
        <ele>990.29541</ele>
        <time>2012-01-15T12:22:09+01:00</time>
      </trkpt>
      <trkpt lat="43.76646" lon="7.03263">
        <ele>991.256592</ele>
        <time>2012-01-15T12:22:17+01:00</time>
      </trkpt>
      <trkpt lat="43.76655" lon="7.03246">
        <ele>991.737305</ele>
        <time>2012-01-15T12:22:25+01:00</time>
      </trkpt>
      <trkpt lat="43.76664" lon="7.03229">
        <ele>991.737305</ele>
        <time>2012-01-15T12:22:33+01:00</time>
      </trkpt>
      <trkpt lat="43.76667" lon="7.03217">
        <ele>993.179199</ele>
        <time>2012-01-15T12:22:38+01:00</time>
      </trkpt>
      <trkpt lat="43.76672" lon="7.03202">
        <ele>996.063232</ele>
        <time>2012-01-15T12:22:44+01:00</time>
      </trkpt>
      <trkpt lat="43.76678" lon="7.03187">
        <ele>997.505127</ele>
        <time>2012-01-15T12:22:50+01:00</time>
      </trkpt>
      <trkpt lat="43.76681" lon="7.03168">
        <ele>999.427734</ele>
        <time>2012-01-15T12:22:57+01:00</time>
      </trkpt>
      <trkpt lat="43.76687" lon="7.03158">
        <ele>999.427734</ele>
        <time>2012-01-15T12:23:04+01:00</time>
      </trkpt>
      <trkpt lat="43.76689" lon="7.03156">
        <ele>999.427734</ele>
        <time>2012-01-15T12:23:06+01:00</time>
      </trkpt>
      <trkpt lat="43.76692" lon="7.03152">
        <ele>999.908447</ele>
        <time>2012-01-15T12:23:10+01:00</time>
      </trkpt>
      <trkpt lat="43.76699" lon="7.03141">
        <ele>1000.38916</ele>
        <time>2012-01-15T12:23:18+01:00</time>
      </trkpt>
      <trkpt lat="43.76704" lon="7.03128">
        <ele>1000.86963</ele>
        <time>2012-01-15T12:23:26+01:00</time>
      </trkpt>
      <trkpt lat="43.76709" lon="7.03115">
        <ele>1000.86963</ele>
        <time>2012-01-15T12:23:34+01:00</time>
      </trkpt>
      <trkpt lat="43.76711" lon="7.03108">
        <ele>1000.86963</ele>
        <time>2012-01-15T12:23:37+01:00</time>
      </trkpt>
      <trkpt lat="43.76713" lon="7.03108">
        <ele>1002.31152</ele>
        <time>2012-01-15T12:24:00+01:00</time>
      </trkpt>
      <trkpt lat="43.76718" lon="7.03098">
        <ele>1001.83105</ele>
        <time>2012-01-15T12:24:06+01:00</time>
      </trkpt>
      <trkpt lat="43.76722" lon="7.03091">
        <ele>1002.31152</ele>
        <time>2012-01-15T12:24:11+01:00</time>
      </trkpt>
      <trkpt lat="43.76728" lon="7.03079">
        <ele>1002.31152</ele>
        <time>2012-01-15T12:24:18+01:00</time>
      </trkpt>
      <trkpt lat="43.7673" lon="7.03075">
        <ele>1002.31152</ele>
        <time>2012-01-15T12:24:20+01:00</time>
      </trkpt>
      <trkpt lat="43.7674" lon="7.03056">
        <ele>1002.31152</ele>
        <time>2012-01-15T12:24:28+01:00</time>
      </trkpt>
      <trkpt lat="43.76748" lon="7.03037">
        <ele>1002.79224</ele>
        <time>2012-01-15T12:24:36+01:00</time>
      </trkpt>
      <trkpt lat="43.76754" lon="7.03015">
        <ele>1004.23462</ele>
        <time>2012-01-15T12:24:44+01:00</time>
      </trkpt>
      <trkpt lat="43.76761" lon="7.02988">
        <ele>1005.1958</ele>
        <time>2012-01-15T12:24:53+01:00</time>
      </trkpt>
      <trkpt lat="43.76766" lon="7.02968">
        <ele>1006.6377</ele>
        <time>2012-01-15T12:25:00+01:00</time>
      </trkpt>
      <trkpt lat="43.76769" lon="7.02946">
        <ele>1008.07983</ele>
        <time>2012-01-15T12:25:07+01:00</time>
      </trkpt>
      <trkpt lat="43.76777" lon="7.0292">
        <ele>1010.48291</ele>
        <time>2012-01-15T12:25:16+01:00</time>
      </trkpt>
      <trkpt lat="43.76783" lon="7.02903">
        <ele>1010.96362</ele>
        <time>2012-01-15T12:25:22+01:00</time>
      </trkpt>
      <trkpt lat="43.76792" lon="7.02874">
        <ele>1011.44434</ele>
        <time>2012-01-15T12:25:32+01:00</time>
      </trkpt>
      <trkpt lat="43.76799" lon="7.02856">
        <ele>1012.40552</ele>
        <time>2012-01-15T12:25:39+01:00</time>
      </trkpt>
      <trkpt lat="43.76809" lon="7.02842">
        <ele>1013.84741</ele>
        <time>2012-01-15T12:25:46+01:00</time>
      </trkpt>
      <trkpt lat="43.76817" lon="7.02829">
        <ele>1015.28955</ele>
        <time>2012-01-15T12:25:52+01:00</time>
      </trkpt>
      <trkpt lat="43.76819" lon="7.02811">
        <ele>1016.25073</ele>
        <time>2012-01-15T12:25:58+01:00</time>
      </trkpt>
      <trkpt lat="43.76822" lon="7.02793">
        <ele>1017.21216</ele>
        <time>2012-01-15T12:26:04+01:00</time>
      </trkpt>
      <trkpt lat="43.76828" lon="7.02776">
        <ele>1019.13477</ele>
        <time>2012-01-15T12:26:10+01:00</time>
      </trkpt>
      <trkpt lat="43.76836" lon="7.02756">
        <ele>1021.05762</ele>
        <time>2012-01-15T12:26:18+01:00</time>
      </trkpt>
      <trkpt lat="43.76846" lon="7.02742">
        <ele>1022.49951</ele>
        <time>2012-01-15T12:26:25+01:00</time>
      </trkpt>
      <trkpt lat="43.76854" lon="7.02725">
        <ele>1024.42212</ele>
        <time>2012-01-15T12:26:32+01:00</time>
      </trkpt>
      <trkpt lat="43.76861" lon="7.02713">
        <ele>1025.86401</ele>
        <time>2012-01-15T12:26:38+01:00</time>
      </trkpt>
      <trkpt lat="43.76863" lon="7.02707">
        <ele>1025.86401</ele>
        <time>2012-01-15T12:26:41+01:00</time>
      </trkpt>
      <trkpt lat="43.76867" lon="7.02699">
        <ele>1025.86401</ele>
        <time>2012-01-15T12:26:47+01:00</time>
      </trkpt>
      <trkpt lat="43.76865" lon="7.02694">
        <ele>1025.86401</ele>
        <time>2012-01-15T12:26:53+01:00</time>
      </trkpt>
      <trkpt lat="43.76858" lon="7.02696">
        <ele>1025.86401</ele>
        <time>2012-01-15T12:26:58+01:00</time>
      </trkpt>
      <trkpt lat="43.76859" lon="7.02691">
        <ele>1025.86401</ele>
        <time>2012-01-15T12:27:01+01:00</time>
      </trkpt>
      <trkpt lat="43.76862" lon="7.02684">
        <ele>1026.34473</ele>
        <time>2012-01-15T12:27:06+01:00</time>
      </trkpt>
      <trkpt lat="43.76869" lon="7.02681">
        <ele>1026.34473</ele>
        <time>2012-01-15T12:27:11+01:00</time>
      </trkpt>
      <trkpt lat="43.76871" lon="7.02682">
        <ele>1026.34473</ele>
        <time>2012-01-15T12:27:12+01:00</time>
      </trkpt>
      <trkpt lat="43.76874" lon="7.02679">
        <ele>1026.82544</ele>
        <time>2012-01-15T12:27:18+01:00</time>
      </trkpt>
      <trkpt lat="43.76874" lon="7.0268">
        <ele>1026.82544</ele>
        <time>2012-01-15T12:27:24+01:00</time>
      </trkpt>
      <trkpt lat="43.76875" lon="7.02679">
        <ele>1027.78662</ele>
        <time>2012-01-15T12:27:31+01:00</time>
      </trkpt>
      <trkpt lat="43.76876" lon="7.02679">
        <ele>1028.26733</ele>
        <time>2012-01-15T12:27:40+01:00</time>
      </trkpt>
      <trkpt lat="43.76875" lon="7.02681">
        <ele>1029.70923</ele>
        <time>2012-01-15T12:28:09+01:00</time>
      </trkpt>
      <trkpt lat="43.76876" lon="7.0268">
        <ele>1029.70923</ele>
        <time>2012-01-15T12:28:16+01:00</time>
      </trkpt>
      <trkpt lat="43.76879" lon="7.02672">
        <ele>1029.22852</ele>
        <time>2012-01-15T12:28:20+01:00</time>
      </trkpt>
      <trkpt lat="43.76884" lon="7.02659">
        <ele>1027.78662</ele>
        <time>2012-01-15T12:28:28+01:00</time>
      </trkpt>
      <trkpt lat="43.7689" lon="7.02646">
        <ele>1026.82544</ele>
        <time>2012-01-15T12:28:34+01:00</time>
      </trkpt>
      <trkpt lat="43.76901" lon="7.02626">
        <ele>1025.86401</ele>
        <time>2012-01-15T12:28:39+01:00</time>
      </trkpt>
      <trkpt lat="43.76909" lon="7.02601">
        <ele>1023.46094</ele>
        <time>2012-01-15T12:28:43+01:00</time>
      </trkpt>
      <trkpt lat="43.7691" lon="7.02592">
        <ele>1022.98022</ele>
        <time>2012-01-15T12:28:44+01:00</time>
      </trkpt>
      <trkpt lat="43.76917" lon="7.02537">
        <ele>1019.13477</ele>
        <time>2012-01-15T12:28:49+01:00</time>
      </trkpt>
      <trkpt lat="43.76917" lon="7.02502">
        <ele>1016.73145</ele>
        <time>2012-01-15T12:28:52+01:00</time>
      </trkpt>
      <trkpt lat="43.76919" lon="7.02479">
        <ele>1014.80884</ele>
        <time>2012-01-15T12:28:54+01:00</time>
      </trkpt>
      <trkpt lat="43.76934" lon="7.02443">
        <ele>1010.96362</ele>
        <time>2012-01-15T12:28:58+01:00</time>
      </trkpt>
      <trkpt lat="43.7694" lon="7.02434">
        <ele>1010.0022</ele>
        <time>2012-01-15T12:28:59+01:00</time>
      </trkpt>
      <trkpt lat="43.7695" lon="7.02416">
        <ele>1008.07983</ele>
        <time>2012-01-15T12:29:01+01:00</time>
      </trkpt>
      <trkpt lat="43.76961" lon="7.02373">
        <ele>1004.71509</ele>
        <time>2012-01-15T12:29:05+01:00</time>
      </trkpt>
      <trkpt lat="43.76965" lon="7.02351">
        <ele>1003.75366</ele>
        <time>2012-01-15T12:29:07+01:00</time>
      </trkpt>
      <trkpt lat="43.76988" lon="7.02306">
        <ele>999.427734</ele>
        <time>2012-01-15T12:29:12+01:00</time>
      </trkpt>
      <trkpt lat="43.76998" lon="7.0229">
        <ele>997.98584</ele>
        <time>2012-01-15T12:29:14+01:00</time>
      </trkpt>
      <trkpt lat="43.77016" lon="7.02249">
        <ele>996.543945</ele>
        <time>2012-01-15T12:29:19+01:00</time>
      </trkpt>
      <trkpt lat="43.77023" lon="7.02224">
        <ele>996.543945</ele>
        <time>2012-01-15T12:29:23+01:00</time>
      </trkpt>
      <trkpt lat="43.77024" lon="7.02218">
        <ele>996.543945</ele>
        <time>2012-01-15T12:29:24+01:00</time>
      </trkpt>
      <trkpt lat="43.77031" lon="7.02197">
        <ele>997.505127</ele>
        <time>2012-01-15T12:29:29+01:00</time>
      </trkpt>
      <trkpt lat="43.77042" lon="7.02188">
        <ele>999.427734</ele>
        <time>2012-01-15T12:29:36+01:00</time>
      </trkpt>
      <trkpt lat="43.77043" lon="7.02187">
        <ele>999.908447</ele>
        <time>2012-01-15T12:29:37+01:00</time>
      </trkpt>
      <trkpt lat="43.77049" lon="7.02183">
        <ele>1000.38916</ele>
        <time>2012-01-15T12:29:43+01:00</time>
      </trkpt>
      <trkpt lat="43.77048" lon="7.02183">
        <ele>1000.38916</ele>
        <time>2012-01-15T12:29:53+01:00</time>
      </trkpt>
      <trkpt lat="43.77049" lon="7.02182">
        <ele>1001.83105</ele>
        <time>2012-01-15T12:30:03+01:00</time>
      </trkpt>
      <trkpt lat="43.77049" lon="7.02183">
        <ele>1002.31152</ele>
        <time>2012-01-15T12:30:12+01:00</time>
      </trkpt>
      <trkpt lat="43.77051" lon="7.02183">
        <ele>1006.15698</ele>
        <time>2012-01-15T12:30:30+01:00</time>
      </trkpt>
      <trkpt lat="43.77056" lon="7.02181">
        <ele>1006.15698</ele>
        <time>2012-01-15T12:30:40+01:00</time>
      </trkpt>
      <trkpt lat="43.77064" lon="7.02176">
        <ele>1005.67651</ele>
        <time>2012-01-15T12:30:45+01:00</time>
      </trkpt>
      <trkpt lat="43.77074" lon="7.02164">
        <ele>1004.71509</ele>
        <time>2012-01-15T12:30:49+01:00</time>
      </trkpt>
      <trkpt lat="43.77079" lon="7.02147">
        <ele>1004.23462</ele>
        <time>2012-01-15T12:30:53+01:00</time>
      </trkpt>
      <trkpt lat="43.77078" lon="7.02123">
        <ele>1005.1958</ele>
        <time>2012-01-15T12:31:00+01:00</time>
      </trkpt>
      <trkpt lat="43.77074" lon="7.02092">
        <ele>1006.6377</ele>
        <time>2012-01-15T12:31:08+01:00</time>
      </trkpt>
      <trkpt lat="43.77077" lon="7.02066">
        <ele>1006.6377</ele>
        <time>2012-01-15T12:31:16+01:00</time>
      </trkpt>
      <trkpt lat="43.7708" lon="7.0205">
        <ele>1005.67651</ele>
        <time>2012-01-15T12:31:23+01:00</time>
      </trkpt>
      <trkpt lat="43.77088" lon="7.02033">
        <ele>1004.23462</ele>
        <time>2012-01-15T12:31:28+01:00</time>
      </trkpt>
      <trkpt lat="43.77109" lon="7.02013">
        <ele>1003.27295</ele>
        <time>2012-01-15T12:31:35+01:00</time>
      </trkpt>
      <trkpt lat="43.77131" lon="7.01996">
        <ele>1002.79224</ele>
        <time>2012-01-15T12:31:41+01:00</time>
      </trkpt>
      <trkpt lat="43.77136" lon="7.01976">
        <ele>1003.27295</ele>
        <time>2012-01-15T12:31:45+01:00</time>
      </trkpt>
      <trkpt lat="43.77135" lon="7.01963">
        <ele>1003.75366</ele>
        <time>2012-01-15T12:31:48+01:00</time>
      </trkpt>
      <trkpt lat="43.77139" lon="7.0193">
        <ele>1005.1958</ele>
        <time>2012-01-15T12:31:56+01:00</time>
      </trkpt>
      <trkpt lat="43.77148" lon="7.01913">
        <ele>1006.15698</ele>
        <time>2012-01-15T12:32:01+01:00</time>
      </trkpt>
      <trkpt lat="43.77159" lon="7.01888">
        <ele>1006.6377</ele>
        <time>2012-01-15T12:32:09+01:00</time>
      </trkpt>
      <trkpt lat="43.77173" lon="7.01867">
        <ele>1007.59912</ele>
        <time>2012-01-15T12:32:17+01:00</time>
      </trkpt>
      <trkpt lat="43.77181" lon="7.0185">
        <ele>1008.07983</ele>
        <time>2012-01-15T12:32:23+01:00</time>
      </trkpt>
      <trkpt lat="43.77182" lon="7.01841">
        <ele>1008.07983</ele>
        <time>2012-01-15T12:32:27+01:00</time>
      </trkpt>
      <trkpt lat="43.77181" lon="7.01826">
        <ele>1010.48291</ele>
        <time>2012-01-15T12:32:33+01:00</time>
      </trkpt>
      <trkpt lat="43.77182" lon="7.01813">
        <ele>1011.92505</ele>
        <time>2012-01-15T12:32:39+01:00</time>
      </trkpt>
      <trkpt lat="43.77182" lon="7.01801">
        <ele>1013.84741</ele>
        <time>2012-01-15T12:32:45+01:00</time>
      </trkpt>
      <trkpt lat="43.77184" lon="7.01788">
        <ele>1014.80884</ele>
        <time>2012-01-15T12:32:52+01:00</time>
      </trkpt>
      <trkpt lat="43.77186" lon="7.01776">
        <ele>1016.25073</ele>
        <time>2012-01-15T12:32:58+01:00</time>
      </trkpt>
      <trkpt lat="43.77186" lon="7.01764">
        <ele>1017.69263</ele>
        <time>2012-01-15T12:33:05+01:00</time>
      </trkpt>
      <trkpt lat="43.77186" lon="7.01751">
        <ele>1019.13477</ele>
        <time>2012-01-15T12:33:11+01:00</time>
      </trkpt>
      <trkpt lat="43.77193" lon="7.01742">
        <ele>1020.5769</ele>
        <time>2012-01-15T12:33:17+01:00</time>
      </trkpt>
      <trkpt lat="43.77199" lon="7.01736">
        <ele>1022.49951</ele>
        <time>2012-01-15T12:33:23+01:00</time>
      </trkpt>
      <trkpt lat="43.772" lon="7.01726">
        <ele>1023.46094</ele>
        <time>2012-01-15T12:33:30+01:00</time>
      </trkpt>
      <trkpt lat="43.77199" lon="7.01724">
        <ele>1023.94141</ele>
        <time>2012-01-15T12:33:31+01:00</time>
      </trkpt>
      <trkpt lat="43.77195" lon="7.0172">
        <ele>1024.42212</ele>
        <time>2012-01-15T12:33:35+01:00</time>
      </trkpt>
      <trkpt lat="43.77197" lon="7.0171">
        <ele>1025.3833</ele>
        <time>2012-01-15T12:33:41+01:00</time>
      </trkpt>
      <trkpt lat="43.772" lon="7.01708">
        <ele>1025.86401</ele>
        <time>2012-01-15T12:33:43+01:00</time>
      </trkpt>
      <trkpt lat="43.77209" lon="7.01702">
        <ele>1027.30615</ele>
        <time>2012-01-15T12:33:51+01:00</time>
      </trkpt>
      <trkpt lat="43.77211" lon="7.01698">
        <ele>1027.30615</ele>
        <time>2012-01-15T12:33:54+01:00</time>
      </trkpt>
      <trkpt lat="43.77217" lon="7.01692">
        <ele>1027.78662</ele>
        <time>2012-01-15T12:34:01+01:00</time>
      </trkpt>
      <trkpt lat="43.77224" lon="7.01685">
        <ele>1028.74805</ele>
        <time>2012-01-15T12:34:08+01:00</time>
      </trkpt>
      <trkpt lat="43.77231" lon="7.01682">
        <ele>1029.70923</ele>
        <time>2012-01-15T12:34:13+01:00</time>
      </trkpt>
      <trkpt lat="43.77239" lon="7.01678">
        <ele>1030.67065</ele>
        <time>2012-01-15T12:34:20+01:00</time>
      </trkpt>
      <trkpt lat="43.77243" lon="7.01669">
        <ele>1031.63184</ele>
        <time>2012-01-15T12:34:25+01:00</time>
      </trkpt>
      <trkpt lat="43.77246" lon="7.01663">
        <ele>1032.11255</ele>
        <time>2012-01-15T12:34:28+01:00</time>
      </trkpt>
      <trkpt lat="43.77253" lon="7.01649">
        <ele>1033.07373</ele>
        <time>2012-01-15T12:34:36+01:00</time>
      </trkpt>
      <trkpt lat="43.77257" lon="7.01636">
        <ele>1033.55444</ele>
        <time>2012-01-15T12:34:43+01:00</time>
      </trkpt>
      <trkpt lat="43.7726" lon="7.01621">
        <ele>1034.03516</ele>
        <time>2012-01-15T12:34:50+01:00</time>
      </trkpt>
      <trkpt lat="43.77266" lon="7.01609">
        <ele>1034.51587</ele>
        <time>2012-01-15T12:34:57+01:00</time>
      </trkpt>
      <trkpt lat="43.77267" lon="7.01608">
        <ele>1034.51587</ele>
        <time>2012-01-15T12:34:58+01:00</time>
      </trkpt>
      <trkpt lat="43.77274" lon="7.01598">
        <ele>1034.51587</ele>
        <time>2012-01-15T12:35:05+01:00</time>
      </trkpt>
      <trkpt lat="43.77282" lon="7.01585">
        <ele>1034.03516</ele>
        <time>2012-01-15T12:35:13+01:00</time>
      </trkpt>
      <trkpt lat="43.77286" lon="7.01572">
        <ele>1033.55444</ele>
        <time>2012-01-15T12:35:19+01:00</time>
      </trkpt>
      <trkpt lat="43.77286" lon="7.01556">
        <ele>1033.55444</ele>
        <time>2012-01-15T12:35:24+01:00</time>
      </trkpt>
      <trkpt lat="43.77281" lon="7.01548">
        <ele>1033.07373</ele>
        <time>2012-01-15T12:35:27+01:00</time>
      </trkpt>
      <trkpt lat="43.77273" lon="7.01542">
        <ele>1033.55444</ele>
        <time>2012-01-15T12:35:31+01:00</time>
      </trkpt>
      <trkpt lat="43.77274" lon="7.01541">
        <ele>1033.55444</ele>
        <time>2012-01-15T12:35:36+01:00</time>
      </trkpt>
      <trkpt lat="43.77271" lon="7.01532">
        <ele>1033.07373</ele>
        <time>2012-01-15T12:35:42+01:00</time>
      </trkpt>
      <trkpt lat="43.77271" lon="7.01531">
        <ele>1033.55444</ele>
        <time>2012-01-15T12:35:50+01:00</time>
      </trkpt>
      <trkpt lat="43.7727" lon="7.01529">
        <ele>1035.95776</ele>
        <time>2012-01-15T12:36:34+01:00</time>
      </trkpt>
      <trkpt lat="43.77271" lon="7.01538">
        <ele>1035.95776</ele>
        <time>2012-01-15T12:36:41+01:00</time>
      </trkpt>
      <trkpt lat="43.77272" lon="7.01539">
        <ele>1036.43872</ele>
        <time>2012-01-15T12:36:46+01:00</time>
      </trkpt>
      <trkpt lat="43.77272" lon="7.01539">
        <ele>1038.36133</ele>
        <time>2012-01-15T12:36:58+01:00</time>
      </trkpt>
      <trkpt lat="43.77272" lon="7.01539">
        <ele>1039.32251</ele>
        <time>2012-01-15T12:37:09+01:00</time>
      </trkpt>
      <trkpt lat="43.77272" lon="7.01541">
        <ele>1038.36133</ele>
        <time>2012-01-15T12:37:17+01:00</time>
      </trkpt>
      <trkpt lat="43.77272" lon="7.0154">
        <ele>1038.36133</ele>
        <time>2012-01-15T12:37:25+01:00</time>
      </trkpt>
      <trkpt lat="43.7727" lon="7.0154">
        <ele>1037.3999</ele>
        <time>2012-01-15T12:37:34+01:00</time>
      </trkpt>
      <trkpt lat="43.7727" lon="7.01538">
        <ele>1037.88062</ele>
        <time>2012-01-15T12:37:41+01:00</time>
      </trkpt>
      <trkpt lat="43.77269" lon="7.01538">
        <ele>1037.3999</ele>
        <time>2012-01-15T12:37:47+01:00</time>
      </trkpt>
      <trkpt lat="43.7727" lon="7.01538">
        <ele>1036.91919</ele>
        <time>2012-01-15T12:37:51+01:00</time>
      </trkpt>
      <trkpt lat="43.77269" lon="7.01538">
        <ele>1036.43872</ele>
        <time>2012-01-15T12:37:57+01:00</time>
      </trkpt>
      <trkpt lat="43.77269" lon="7.01538">
        <ele>1036.91919</ele>
        <time>2012-01-15T12:38:03+01:00</time>
      </trkpt>
      <trkpt lat="43.77269" lon="7.01538">
        <ele>1036.43872</ele>
        <time>2012-01-15T12:38:11+01:00</time>
      </trkpt>
      <trkpt lat="43.77269" lon="7.01537">
        <ele>1035.95776</ele>
        <time>2012-01-15T12:38:21+01:00</time>
      </trkpt>
      <trkpt lat="43.77268" lon="7.01537">
        <ele>1035.95776</ele>
        <time>2012-01-15T12:38:37+01:00</time>
      </trkpt>
      <trkpt lat="43.77269" lon="7.01537">
        <ele>1035.47705</ele>
        <time>2012-01-15T12:38:46+01:00</time>
      </trkpt>
      <trkpt lat="43.77268" lon="7.01538">
        <ele>1034.51587</ele>
        <time>2012-01-15T12:38:56+01:00</time>
      </trkpt>
      <trkpt lat="43.77269" lon="7.01538">
        <ele>1034.99658</ele>
        <time>2012-01-15T12:39:04+01:00</time>
      </trkpt>
      <trkpt lat="43.77269" lon="7.01539">
        <ele>1034.03516</ele>
        <time>2012-01-15T12:39:26+01:00</time>
      </trkpt>
      <trkpt lat="43.77269" lon="7.01539">
        <ele>1034.03516</ele>
        <time>2012-01-15T12:39:31+01:00</time>
      </trkpt>
      <trkpt lat="43.77269" lon="7.01539">
        <ele>1034.03516</ele>
        <time>2012-01-15T12:39:46+01:00</time>
      </trkpt>
      <trkpt lat="43.77269" lon="7.01539">
        <ele>1033.07373</ele>
        <time>2012-01-15T12:40:01+01:00</time>
      </trkpt>
      <trkpt lat="43.77268" lon="7.01539">
        <ele>1034.51587</ele>
        <time>2012-01-15T12:40:12+01:00</time>
      </trkpt>
      <trkpt lat="43.77269" lon="7.01537">
        <ele>1034.51587</ele>
        <time>2012-01-15T12:40:22+01:00</time>
      </trkpt>
      <trkpt lat="43.77269" lon="7.01537">
        <ele>1034.03516</ele>
        <time>2012-01-15T12:40:32+01:00</time>
      </trkpt>
      <trkpt lat="43.7727" lon="7.01537">
        <ele>1033.55444</ele>
        <time>2012-01-15T12:40:45+01:00</time>
      </trkpt>
      <trkpt lat="43.77269" lon="7.01536">
        <ele>1033.55444</ele>
        <time>2012-01-15T12:40:54+01:00</time>
      </trkpt>
      <trkpt lat="43.77269" lon="7.01536">
        <ele>1034.51587</ele>
        <time>2012-01-15T12:41:12+01:00</time>
      </trkpt>
      <trkpt lat="43.77269" lon="7.01538">
        <ele>1034.03516</ele>
        <time>2012-01-15T12:41:34+01:00</time>
      </trkpt>
      <trkpt lat="43.77269" lon="7.01539">
        <ele>1034.51587</ele>
        <time>2012-01-15T12:41:49+01:00</time>
      </trkpt>
      <trkpt lat="43.77269" lon="7.01539">
        <ele>1034.51587</ele>
        <time>2012-01-15T12:41:57+01:00</time>
      </trkpt>
      <trkpt lat="43.77269" lon="7.01539">
        <ele>1034.51587</ele>
        <time>2012-01-15T12:42:02+01:00</time>
      </trkpt>
      <trkpt lat="43.77269" lon="7.01539">
        <ele>1034.51587</ele>
        <time>2012-01-15T12:42:08+01:00</time>
      </trkpt>
      <trkpt lat="43.77269" lon="7.01538">
        <ele>1034.51587</ele>
        <time>2012-01-15T12:42:14+01:00</time>
      </trkpt>
      <trkpt lat="43.77269" lon="7.01538">
        <ele>1033.55444</ele>
        <time>2012-01-15T12:42:24+01:00</time>
      </trkpt>
      <trkpt lat="43.7727" lon="7.01538">
        <ele>1033.55444</ele>
        <time>2012-01-15T12:42:32+01:00</time>
      </trkpt>
      <trkpt lat="43.7727" lon="7.01538">
        <ele>1033.55444</ele>
        <time>2012-01-15T12:42:44+01:00</time>
      </trkpt>
      <trkpt lat="43.77268" lon="7.01537">
        <ele>1034.51587</ele>
        <time>2012-01-15T12:42:58+01:00</time>
      </trkpt>
      <trkpt lat="43.7727" lon="7.01539">
        <ele>1033.07373</ele>
        <time>2012-01-15T12:43:10+01:00</time>
      </trkpt>
      <trkpt lat="43.77271" lon="7.01539">
        <ele>1033.07373</ele>
        <time>2012-01-15T12:43:17+01:00</time>
      </trkpt>
      <trkpt lat="43.7727" lon="7.01537">
        <ele>1033.55444</ele>
        <time>2012-01-15T12:43:37+01:00</time>
      </trkpt>
      <trkpt lat="43.7727" lon="7.01537">
        <ele>1034.03516</ele>
        <time>2012-01-15T12:43:58+01:00</time>
      </trkpt>
      <trkpt lat="43.77269" lon="7.01537">
        <ele>1033.55444</ele>
        <time>2012-01-15T12:44:19+01:00</time>
      </trkpt>
      <trkpt lat="43.77269" lon="7.01537">
        <ele>1034.03516</ele>
        <time>2012-01-15T12:44:40+01:00</time>
      </trkpt>
      <trkpt lat="43.77269" lon="7.01537">
        <ele>1034.51587</ele>
        <time>2012-01-15T12:44:59+01:00</time>
      </trkpt>
      <trkpt lat="43.77269" lon="7.01537">
        <ele>1034.51587</ele>
        <time>2012-01-15T12:45:15+01:00</time>
      </trkpt>
      <trkpt lat="43.77269" lon="7.01538">
        <ele>1034.99658</ele>
        <time>2012-01-15T12:45:59+01:00</time>
      </trkpt>
      <trkpt lat="43.7727" lon="7.01538">
        <ele>1034.51587</ele>
        <time>2012-01-15T12:46:15+01:00</time>
      </trkpt>
      <trkpt lat="43.7727" lon="7.01537">
        <ele>1034.03516</ele>
        <time>2012-01-15T12:46:42+01:00</time>
      </trkpt>
      <trkpt lat="43.7727" lon="7.01537">
        <ele>1034.03516</ele>
        <time>2012-01-15T12:47:01+01:00</time>
      </trkpt>
      <trkpt lat="43.7727" lon="7.01537">
        <ele>1034.03516</ele>
        <time>2012-01-15T12:47:36+01:00</time>
      </trkpt>
      <trkpt lat="43.7727" lon="7.01537">
        <ele>1034.51587</ele>
        <time>2012-01-15T12:47:42+01:00</time>
      </trkpt>
      <trkpt lat="43.7727" lon="7.01537">
        <ele>1034.51587</ele>
        <time>2012-01-15T12:47:48+01:00</time>
      </trkpt>
      <trkpt lat="43.7727" lon="7.01537">
        <ele>1034.51587</ele>
        <time>2012-01-15T12:47:59+01:00</time>
      </trkpt>
      <trkpt lat="43.77269" lon="7.01538">
        <ele>1034.51587</ele>
        <time>2012-01-15T12:48:11+01:00</time>
      </trkpt>
      <trkpt lat="43.77269" lon="7.01538">
        <ele>1034.99658</ele>
        <time>2012-01-15T12:48:19+01:00</time>
      </trkpt>
      <trkpt lat="43.77269" lon="7.01538">
        <ele>1034.51587</ele>
        <time>2012-01-15T12:48:24+01:00</time>
      </trkpt>
      <trkpt lat="43.77269" lon="7.01537">
        <ele>1034.03516</ele>
        <time>2012-01-15T12:48:55+01:00</time>
      </trkpt>
      <trkpt lat="43.77269" lon="7.01537">
        <ele>1033.55444</ele>
        <time>2012-01-15T12:49:27+01:00</time>
      </trkpt>
      <trkpt lat="43.77269" lon="7.01538">
        <ele>1032.11255</ele>
        <time>2012-01-15T12:50:05+01:00</time>
      </trkpt>
      <trkpt lat="43.77268" lon="7.01539">
        <ele>1031.63184</ele>
        <time>2012-01-15T12:50:22+01:00</time>
      </trkpt>
      <trkpt lat="43.77268" lon="7.01539">
        <ele>1031.63184</ele>
        <time>2012-01-15T12:50:27+01:00</time>
      </trkpt>
      <trkpt lat="43.77268" lon="7.01538">
        <ele>1031.63184</ele>
        <time>2012-01-15T12:50:58+01:00</time>
      </trkpt>
      <trkpt lat="43.77268" lon="7.01538">
        <ele>1032.11255</ele>
        <time>2012-01-15T12:51:04+01:00</time>
      </trkpt>
      <trkpt lat="43.77269" lon="7.01538">
        <ele>1032.11255</ele>
        <time>2012-01-15T12:51:13+01:00</time>
      </trkpt>
      <trkpt lat="43.77268" lon="7.01538">
        <ele>1032.11255</ele>
        <time>2012-01-15T12:51:19+01:00</time>
      </trkpt>
      <trkpt lat="43.77269" lon="7.01539">
        <ele>1033.07373</ele>
        <time>2012-01-15T12:51:27+01:00</time>
      </trkpt>
      <trkpt lat="43.77269" lon="7.01538">
        <ele>1033.55444</ele>
        <time>2012-01-15T12:51:33+01:00</time>
      </trkpt>
      <trkpt lat="43.77268" lon="7.01538">
        <ele>1033.07373</ele>
        <time>2012-01-15T12:51:45+01:00</time>
      </trkpt>
      <trkpt lat="43.77268" lon="7.01538">
        <ele>1032.59326</ele>
        <time>2012-01-15T12:51:52+01:00</time>
      </trkpt>
      <trkpt lat="43.77269" lon="7.01538">
        <ele>1033.07373</ele>
        <time>2012-01-15T12:52:01+01:00</time>
      </trkpt>
      <trkpt lat="43.77269" lon="7.01538">
        <ele>1033.07373</ele>
        <time>2012-01-15T12:52:06+01:00</time>
      </trkpt>
      <trkpt lat="43.77269" lon="7.01538">
        <ele>1033.07373</ele>
        <time>2012-01-15T12:52:15+01:00</time>
      </trkpt>
      <trkpt lat="43.77269" lon="7.01538">
        <ele>1033.55444</ele>
        <time>2012-01-15T12:52:20+01:00</time>
      </trkpt>
      <trkpt lat="43.7727" lon="7.01538">
        <ele>1033.55444</ele>
        <time>2012-01-15T12:52:27+01:00</time>
      </trkpt>
      <trkpt lat="43.7727" lon="7.01538">
        <ele>1033.55444</ele>
        <time>2012-01-15T12:52:33+01:00</time>
      </trkpt>
      <trkpt lat="43.7727" lon="7.01537">
        <ele>1034.03516</ele>
        <time>2012-01-15T12:52:44+01:00</time>
      </trkpt>
      <trkpt lat="43.7727" lon="7.01537">
        <ele>1033.55444</ele>
        <time>2012-01-15T12:52:49+01:00</time>
      </trkpt>
      <trkpt lat="43.77272" lon="7.0154">
        <ele>1033.55444</ele>
        <time>2012-01-15T12:52:54+01:00</time>
      </trkpt>
      <trkpt lat="43.7727" lon="7.01536">
        <ele>1033.55444</ele>
        <time>2012-01-15T12:52:59+01:00</time>
      </trkpt>
      <trkpt lat="43.7727" lon="7.01536">
        <ele>1033.55444</ele>
        <time>2012-01-15T12:53:11+01:00</time>
      </trkpt>
      <trkpt lat="43.77271" lon="7.01537">
        <ele>1033.07373</ele>
        <time>2012-01-15T12:53:20+01:00</time>
      </trkpt>
      <trkpt lat="43.77271" lon="7.01537">
        <ele>1033.55444</ele>
        <time>2012-01-15T12:53:24+01:00</time>
      </trkpt>
      <trkpt lat="43.77268" lon="7.01528">
        <ele>1033.55444</ele>
        <time>2012-01-15T12:53:29+01:00</time>
      </trkpt>
      <trkpt lat="43.77261" lon="7.01506">
        <ele>1032.59326</ele>
        <time>2012-01-15T12:53:36+01:00</time>
      </trkpt>
      <trkpt lat="43.77254" lon="7.01496">
        <ele>1031.15137</ele>
        <time>2012-01-15T12:53:40+01:00</time>
      </trkpt>
      <trkpt lat="43.7724" lon="7.01478">
        <ele>1028.74805</ele>
        <time>2012-01-15T12:53:44+01:00</time>
      </trkpt>
      <trkpt lat="43.77224" lon="7.0146">
        <ele>1026.82544</ele>
        <time>2012-01-15T12:53:47+01:00</time>
      </trkpt>
      <trkpt lat="43.77195" lon="7.01416">
        <ele>1023.94141</ele>
        <time>2012-01-15T12:53:53+01:00</time>
      </trkpt>
      <trkpt lat="43.77183" lon="7.01384">
        <ele>1021.53809</ele>
        <time>2012-01-15T12:53:57+01:00</time>
      </trkpt>
      <trkpt lat="43.77169" lon="7.01366">
        <ele>1019.13477</ele>
        <time>2012-01-15T12:54:00+01:00</time>
      </trkpt>
      <trkpt lat="43.77164" lon="7.01348">
        <ele>1018.17334</ele>
        <time>2012-01-15T12:54:03+01:00</time>
      </trkpt>
      <trkpt lat="43.77163" lon="7.01346">
        <ele>1018.65405</ele>
        <time>2012-01-15T12:54:06+01:00</time>
      </trkpt>
      <trkpt lat="43.77163" lon="7.01346">
        <ele>1019.13477</ele>
        <time>2012-01-15T12:54:18+01:00</time>
      </trkpt>
      <trkpt lat="43.77162" lon="7.01346">
        <ele>1020.09619</ele>
        <time>2012-01-15T12:54:26+01:00</time>
      </trkpt>
      <trkpt lat="43.77162" lon="7.01346">
        <ele>1019.61548</ele>
        <time>2012-01-15T12:54:33+01:00</time>
      </trkpt>
      <trkpt lat="43.77161" lon="7.01346">
        <ele>1019.61548</ele>
        <time>2012-01-15T12:54:39+01:00</time>
      </trkpt>
      <trkpt lat="43.77161" lon="7.01343">
        <ele>1019.61548</ele>
        <time>2012-01-15T12:54:41+01:00</time>
      </trkpt>
      <trkpt lat="43.77162" lon="7.01327">
        <ele>1018.17334</ele>
        <time>2012-01-15T12:54:46+01:00</time>
      </trkpt>
      <trkpt lat="43.77163" lon="7.01321">
        <ele>1017.69263</ele>
        <time>2012-01-15T12:54:47+01:00</time>
      </trkpt>
      <trkpt lat="43.77152" lon="7.01302">
        <ele>1015.77026</ele>
        <time>2012-01-15T12:54:51+01:00</time>
      </trkpt>
      <trkpt lat="43.77144" lon="7.0129">
        <ele>1014.80884</ele>
        <time>2012-01-15T12:54:53+01:00</time>
      </trkpt>
      <trkpt lat="43.77147" lon="7.01258">
        <ele>1012.40552</ele>
        <time>2012-01-15T12:54:57+01:00</time>
      </trkpt>
      <trkpt lat="43.77145" lon="7.01243">
        <ele>1010.48291</ele>
        <time>2012-01-15T12:54:59+01:00</time>
      </trkpt>
      <trkpt lat="43.7714" lon="7.01213">
        <ele>1008.5603</ele>
        <time>2012-01-15T12:55:03+01:00</time>
      </trkpt>
      <trkpt lat="43.77142" lon="7.01199">
        <ele>1007.11841</ele>
        <time>2012-01-15T12:55:05+01:00</time>
      </trkpt>
      <trkpt lat="43.77134" lon="7.01184">
        <ele>1004.71509</ele>
        <time>2012-01-15T12:55:08+01:00</time>
      </trkpt>
      <trkpt lat="43.77122" lon="7.01175">
        <ele>1002.31152</ele>
        <time>2012-01-15T12:55:10+01:00</time>
      </trkpt>
      <trkpt lat="43.77096" lon="7.0116">
        <ele>997.98584</ele>
        <time>2012-01-15T12:55:14+01:00</time>
      </trkpt>
      <trkpt lat="43.77089" lon="7.01159">
        <ele>997.505127</ele>
        <time>2012-01-15T12:55:15+01:00</time>
      </trkpt>
      <trkpt lat="43.77079" lon="7.01156">
        <ele>995.58252</ele>
        <time>2012-01-15T12:55:17+01:00</time>
      </trkpt>
      <trkpt lat="43.77073" lon="7.01129">
        <ele>989.814697</ele>
        <time>2012-01-15T12:55:21+01:00</time>
      </trkpt>
      <trkpt lat="43.77069" lon="7.01109">
        <ele>985.969238</ele>
        <time>2012-01-15T12:55:24+01:00</time>
      </trkpt>
      <trkpt lat="43.77058" lon="7.0107">
        <ele>979.720703</ele>
        <time>2012-01-15T12:55:29+01:00</time>
      </trkpt>
      <trkpt lat="43.77049" lon="7.01015">
        <ele>976.356201</ele>
        <time>2012-01-15T12:55:34+01:00</time>
      </trkpt>
      <trkpt lat="43.77047" lon="7.01003">
        <ele>975.394775</ele>
        <time>2012-01-15T12:55:35+01:00</time>
      </trkpt>
      <trkpt lat="43.77046" lon="7.00939">
        <ele>970.107422</ele>
        <time>2012-01-15T12:55:40+01:00</time>
      </trkpt>
      <trkpt lat="43.77045" lon="7.00927">
        <ele>969.626953</ele>
        <time>2012-01-15T12:55:41+01:00</time>
      </trkpt>
      <trkpt lat="43.77032" lon="7.00881">
        <ele>967.704102</ele>
        <time>2012-01-15T12:55:46+01:00</time>
      </trkpt>
      <trkpt lat="43.77023" lon="7.00849">
        <ele>968.184814</ele>
        <time>2012-01-15T12:55:50+01:00</time>
      </trkpt>
      <trkpt lat="43.77016" lon="7.00835">
        <ele>968.665527</ele>
        <time>2012-01-15T12:55:53+01:00</time>
      </trkpt>
      <trkpt lat="43.77016" lon="7.00834">
        <ele>970.107422</ele>
        <time>2012-01-15T12:56:03+01:00</time>
      </trkpt>
      <trkpt lat="43.77017" lon="7.00834">
        <ele>971.549316</ele>
        <time>2012-01-15T12:56:13+01:00</time>
      </trkpt>
      <trkpt lat="43.77017" lon="7.00834">
        <ele>972.991699</ele>
        <time>2012-01-15T12:56:22+01:00</time>
      </trkpt>
      <trkpt lat="43.77016" lon="7.00834">
        <ele>972.030273</ele>
        <time>2012-01-15T12:56:31+01:00</time>
      </trkpt>
      <trkpt lat="43.77015" lon="7.00836">
        <ele>968.184814</ele>
        <time>2012-01-15T12:57:04+01:00</time>
      </trkpt>
      <trkpt lat="43.77016" lon="7.00834">
        <ele>969.14624</ele>
        <time>2012-01-15T12:57:09+01:00</time>
      </trkpt>
      <trkpt lat="43.77015" lon="7.00831">
        <ele>968.665527</ele>
        <time>2012-01-15T12:57:15+01:00</time>
      </trkpt>
      <trkpt lat="43.77014" lon="7.00825">
        <ele>968.184814</ele>
        <time>2012-01-15T12:57:19+01:00</time>
      </trkpt>
      <trkpt lat="43.77008" lon="7.008">
        <ele>967.223633</ele>
        <time>2012-01-15T12:57:23+01:00</time>
      </trkpt>
      <trkpt lat="43.77001" lon="7.00778">
        <ele>965.781738</ele>
        <time>2012-01-15T12:57:26+01:00</time>
      </trkpt>
      <trkpt lat="43.7699" lon="7.00729">
        <ele>963.858887</ele>
        <time>2012-01-15T12:57:31+01:00</time>
      </trkpt>
      <trkpt lat="43.76972" lon="7.0071">
        <ele>961.936523</ele>
        <time>2012-01-15T12:57:35+01:00</time>
      </trkpt>
      <trkpt lat="43.76962" lon="7.00704">
        <ele>961.455811</ele>
        <time>2012-01-15T12:57:37+01:00</time>
      </trkpt>
      <trkpt lat="43.76957" lon="7.00693">
        <ele>960.494385</ele>
        <time>2012-01-15T12:57:41+01:00</time>
      </trkpt>
      <trkpt lat="43.76958" lon="7.00686">
        <ele>960.494385</ele>
        <time>2012-01-15T12:57:45+01:00</time>
      </trkpt>
      <trkpt lat="43.76961" lon="7.00683">
        <ele>963.378418</ele>
        <time>2012-01-15T12:57:49+01:00</time>
      </trkpt>
      <trkpt lat="43.76964" lon="7.00671">
        <ele>962.897705</ele>
        <time>2012-01-15T12:57:53+01:00</time>
      </trkpt>
      <trkpt lat="43.76967" lon="7.00642">
        <ele>959.533203</ele>
        <time>2012-01-15T12:57:57+01:00</time>
      </trkpt>
      <trkpt lat="43.76964" lon="7.00586">
        <ele>953.765137</ele>
        <time>2012-01-15T12:58:02+01:00</time>
      </trkpt>
      <trkpt lat="43.76968" lon="7.00523">
        <ele>946.074707</ele>
        <time>2012-01-15T12:58:07+01:00</time>
      </trkpt>
      <trkpt lat="43.7697" lon="7.00499">
        <ele>942.710205</ele>
        <time>2012-01-15T12:58:10+01:00</time>
      </trkpt>
      <trkpt lat="43.76968" lon="7.00486">
        <ele>940.306885</ele>
        <time>2012-01-15T12:58:12+01:00</time>
      </trkpt>
      <trkpt lat="43.76966" lon="7.00448">
        <ele>935.019531</ele>
        <time>2012-01-15T12:58:17+01:00</time>
      </trkpt>
      <trkpt lat="43.7698" lon="7.00433">
        <ele>931.654785</ele>
        <time>2012-01-15T12:58:20+01:00</time>
      </trkpt>
      <trkpt lat="43.76988" lon="7.00419">
        <ele>930.212891</ele>
        <time>2012-01-15T12:58:23+01:00</time>
      </trkpt>
      <trkpt lat="43.76987" lon="7.00414">
        <ele>929.732178</ele>
        <time>2012-01-15T12:58:26+01:00</time>
      </trkpt>
      <trkpt lat="43.76986" lon="7.00404">
        <ele>930.212891</ele>
        <time>2012-01-15T12:58:31+01:00</time>
      </trkpt>
      <trkpt lat="43.76984" lon="7.00401">
        <ele>931.654785</ele>
        <time>2012-01-15T12:58:35+01:00</time>
      </trkpt>
      <trkpt lat="43.76983" lon="7.00399">
        <ele>934.058105</ele>
        <time>2012-01-15T12:58:42+01:00</time>
      </trkpt>
      <trkpt lat="43.76982" lon="7.00398">
        <ele>934.058105</ele>
        <time>2012-01-15T12:58:46+01:00</time>
      </trkpt>
      <trkpt lat="43.7698" lon="7.00398">
        <ele>934.538818</ele>
        <time>2012-01-15T12:59:00+01:00</time>
      </trkpt>
      <trkpt lat="43.76981" lon="7.00396">
        <ele>934.538818</ele>
        <time>2012-01-15T12:59:12+01:00</time>
      </trkpt>
      <trkpt lat="43.76981" lon="7.00393">
        <ele>934.538818</ele>
        <time>2012-01-15T12:59:14+01:00</time>
      </trkpt>
      <trkpt lat="43.76972" lon="7.0038">
        <ele>934.058105</ele>
        <time>2012-01-15T12:59:18+01:00</time>
      </trkpt>
      <trkpt lat="43.76969" lon="7.00377">
        <ele>933.577393</ele>
        <time>2012-01-15T12:59:19+01:00</time>
      </trkpt>
      <trkpt lat="43.7695" lon="7.0036">
        <ele>930.212891</ele>
        <time>2012-01-15T12:59:24+01:00</time>
      </trkpt>
      <trkpt lat="43.76935" lon="7.00346">
        <ele>927.80957</ele>
        <time>2012-01-15T12:59:27+01:00</time>
      </trkpt>
      <trkpt lat="43.76927" lon="7.00335">
        <ele>926.367676</ele>
        <time>2012-01-15T12:59:29+01:00</time>
      </trkpt>
      <trkpt lat="43.76911" lon="7.00336">
        <ele>923.00293</ele>
        <time>2012-01-15T12:59:33+01:00</time>
      </trkpt>
      <trkpt lat="43.76895" lon="7.00349">
        <ele>918.196289</ele>
        <time>2012-01-15T12:59:37+01:00</time>
      </trkpt>
      <trkpt lat="43.76884" lon="7.0035">
        <ele>915.793213</ele>
        <time>2012-01-15T12:59:40+01:00</time>
      </trkpt>
      <trkpt lat="43.76881" lon="7.00343">
        <ele>914.831787</ele>
        <time>2012-01-15T12:59:43+01:00</time>
      </trkpt>
      <trkpt lat="43.76882" lon="7.00341">
        <ele>914.351074</ele>
        <time>2012-01-15T12:59:44+01:00</time>
      </trkpt>
      <trkpt lat="43.7689" lon="7.00328">
        <ele>911.947998</ele>
        <time>2012-01-15T12:59:48+01:00</time>
      </trkpt>
      <trkpt lat="43.76904" lon="7.00298">
        <ele>908.102783</ele>
        <time>2012-01-15T12:59:53+01:00</time>
      </trkpt>
      <trkpt lat="43.76921" lon="7.00263">
        <ele>905.699219</ele>
        <time>2012-01-15T12:59:58+01:00</time>
      </trkpt>
      <trkpt lat="43.76925" lon="7.00256">
        <ele>905.218506</ele>
        <time>2012-01-15T12:59:59+01:00</time>
      </trkpt>
      <trkpt lat="43.76943" lon="7.00227">
        <ele>902.334473</ele>
        <time>2012-01-15T13:00:04+01:00</time>
      </trkpt>
      <trkpt lat="43.7695" lon="7.00198">
        <ele>899.450684</ele>
        <time>2012-01-15T13:00:08+01:00</time>
      </trkpt>
      <trkpt lat="43.76951" lon="7.00179">
        <ele>897.047363</ele>
        <time>2012-01-15T13:00:10+01:00</time>
      </trkpt>
      <trkpt lat="43.76955" lon="7.00135">
        <ele>890.318115</ele>
        <time>2012-01-15T13:00:15+01:00</time>
      </trkpt>
      <trkpt lat="43.76965" lon="7.00104">
        <ele>884.550293</ele>
        <time>2012-01-15T13:00:19+01:00</time>
      </trkpt>
      <trkpt lat="43.76973" lon="7.00089">
        <ele>882.146973</ele>
        <time>2012-01-15T13:00:22+01:00</time>
      </trkpt>
      <trkpt lat="43.76974" lon="7.00089">
        <ele>880.224365</ele>
        <time>2012-01-15T13:00:26+01:00</time>
      </trkpt>
      <trkpt lat="43.76973" lon="7.00089">
        <ele>879.743652</ele>
        <time>2012-01-15T13:00:30+01:00</time>
      </trkpt>
      <trkpt lat="43.76976" lon="7.00084">
        <ele>880.224365</ele>
        <time>2012-01-15T13:00:38+01:00</time>
      </trkpt>
      <trkpt lat="43.76976" lon="7.00085">
        <ele>880.705078</ele>
        <time>2012-01-15T13:00:45+01:00</time>
      </trkpt>
      <trkpt lat="43.76975" lon="7.00088">
        <ele>881.185791</ele>
        <time>2012-01-15T13:00:51+01:00</time>
      </trkpt>
      <trkpt lat="43.76975" lon="7.00089">
        <ele>881.185791</ele>
        <time>2012-01-15T13:01:02+01:00</time>
      </trkpt>
      <trkpt lat="43.76974" lon="7.00091">
        <ele>881.185791</ele>
        <time>2012-01-15T13:01:05+01:00</time>
      </trkpt>
      <trkpt lat="43.76964" lon="7.0011">
        <ele>883.588867</ele>
        <time>2012-01-15T13:01:12+01:00</time>
      </trkpt>
      <trkpt lat="43.7696" lon="7.00121">
        <ele>884.550293</ele>
        <time>2012-01-15T13:01:17+01:00</time>
      </trkpt>
      <trkpt lat="43.76957" lon="7.00131">
        <ele>886.953369</ele>
        <time>2012-01-15T13:01:23+01:00</time>
      </trkpt>
      <trkpt lat="43.76955" lon="7.00133">
        <ele>887.914795</ele>
        <time>2012-01-15T13:01:26+01:00</time>
      </trkpt>
      <trkpt lat="43.76953" lon="7.00132">
        <ele>889.356689</ele>
        <time>2012-01-15T13:01:37+01:00</time>
      </trkpt>
      <trkpt lat="43.76953" lon="7.00133">
        <ele>891.279297</ele>
        <time>2012-01-15T13:01:50+01:00</time>
      </trkpt>
      <trkpt lat="43.76953" lon="7.00134">
        <ele>890.798584</ele>
        <time>2012-01-15T13:01:56+01:00</time>
      </trkpt>
      <trkpt lat="43.76947" lon="7.00135">
        <ele>889.837402</ele>
        <time>2012-01-15T13:02:04+01:00</time>
      </trkpt>
      <trkpt lat="43.76933" lon="7.00133">
        <ele>886.953369</ele>
        <time>2012-01-15T13:02:09+01:00</time>
      </trkpt>
      <trkpt lat="43.76921" lon="7.00129">
        <ele>885.031006</ele>
        <time>2012-01-15T13:02:12+01:00</time>
      </trkpt>
      <trkpt lat="43.76914" lon="7.00129">
        <ele>883.108154</ele>
        <time>2012-01-15T13:02:14+01:00</time>
      </trkpt>
      <trkpt lat="43.76911" lon="7.00129">
        <ele>881.66626</ele>
        <time>2012-01-15T13:02:18+01:00</time>
      </trkpt>
      <trkpt lat="43.76911" lon="7.00128">
        <ele>882.146973</ele>
        <time>2012-01-15T13:02:23+01:00</time>
      </trkpt>
      <trkpt lat="43.76909" lon="7.00127">
        <ele>886.4729</ele>
        <time>2012-01-15T13:02:42+01:00</time>
      </trkpt>
      <trkpt lat="43.76909" lon="7.00127">
        <ele>885.992188</ele>
        <time>2012-01-15T13:03:08+01:00</time>
      </trkpt>
      <trkpt lat="43.76898" lon="7.00118">
        <ele>883.108154</ele>
        <time>2012-01-15T13:03:12+01:00</time>
      </trkpt>
      <trkpt lat="43.76888" lon="7.0011">
        <ele>882.146973</ele>
        <time>2012-01-15T13:03:14+01:00</time>
      </trkpt>
      <trkpt lat="43.76866" lon="7.00097">
        <ele>881.185791</ele>
        <time>2012-01-15T13:03:18+01:00</time>
      </trkpt>
      <trkpt lat="43.76854" lon="7.00081">
        <ele>879.743652</ele>
        <time>2012-01-15T13:03:22+01:00</time>
      </trkpt>
      <trkpt lat="43.76855" lon="7.00074">
        <ele>878.301758</ele>
        <time>2012-01-15T13:03:24+01:00</time>
      </trkpt>
      <trkpt lat="43.76867" lon="7.00049">
        <ele>874.937012</ele>
        <time>2012-01-15T13:03:30+01:00</time>
      </trkpt>
      <trkpt lat="43.76873" lon="7.00038">
        <ele>874.456299</ele>
        <time>2012-01-15T13:03:34+01:00</time>
      </trkpt>
      <trkpt lat="43.76881" lon="7.00034">
        <ele>874.456299</ele>
        <time>2012-01-15T13:03:39+01:00</time>
      </trkpt>
      <trkpt lat="43.76877" lon="7.00044">
        <ele>873.975586</ele>
        <time>2012-01-15T13:03:42+01:00</time>
      </trkpt>
      <trkpt lat="43.7686" lon="7.00065">
        <ele>872.533691</ele>
        <time>2012-01-15T13:03:48+01:00</time>
      </trkpt>
      <trkpt lat="43.76852" lon="7.0008">
        <ele>873.014404</ele>
        <time>2012-01-15T13:03:53+01:00</time>
      </trkpt>
      <trkpt lat="43.76847" lon="7.00084">
        <ele>873.014404</ele>
        <time>2012-01-15T13:03:56+01:00</time>
      </trkpt>
      <trkpt lat="43.76842" lon="7.00083">
        <ele>872.533691</ele>
        <time>2012-01-15T13:04:01+01:00</time>
      </trkpt>
      <trkpt lat="43.76833" lon="7.00067">
        <ele>871.091797</ele>
        <time>2012-01-15T13:04:07+01:00</time>
      </trkpt>
      <trkpt lat="43.76823" lon="7.00049">
        <ele>869.169189</ele>
        <time>2012-01-15T13:04:11+01:00</time>
      </trkpt>
      <trkpt lat="43.76813" lon="7.00035">
        <ele>868.688477</ele>
        <time>2012-01-15T13:04:15+01:00</time>
      </trkpt>
      <trkpt lat="43.76803" lon="7.00026">
        <ele>868.688477</ele>
        <time>2012-01-15T13:04:20+01:00</time>
      </trkpt>
      <trkpt lat="43.76796" lon="7.00018">
        <ele>869.169189</ele>
        <time>2012-01-15T13:04:25+01:00</time>
      </trkpt>
      <trkpt lat="43.76789" lon="7.00016">
        <ele>870.130371</ele>
        <time>2012-01-15T13:04:29+01:00</time>
      </trkpt>
      <trkpt lat="43.76785" lon="7.00015">
        <ele>872.052979</ele>
        <time>2012-01-15T13:04:34+01:00</time>
      </trkpt>
      <trkpt lat="43.76784" lon="7.00015">
        <ele>872.533691</ele>
        <time>2012-01-15T13:04:36+01:00</time>
      </trkpt>
      <trkpt lat="43.76781" lon="7.00013">
        <ele>874.937012</ele>
        <time>2012-01-15T13:04:42+01:00</time>
      </trkpt>
      <trkpt lat="43.7678" lon="7.00011">
        <ele>876.37915</ele>
        <time>2012-01-15T13:04:50+01:00</time>
      </trkpt>
      <trkpt lat="43.76774" lon="7.00009">
        <ele>877.821045</ele>
        <time>2012-01-15T13:04:55+01:00</time>
      </trkpt>
      <trkpt lat="43.76763" lon="7.00007">
        <ele>879.262939</ele>
        <time>2012-01-15T13:05:00+01:00</time>
      </trkpt>
      <trkpt lat="43.76753" lon="7.00002">
        <ele>880.224365</ele>
        <time>2012-01-15T13:05:07+01:00</time>
      </trkpt>
      <trkpt lat="43.7675" lon="7.00002">
        <ele>880.705078</ele>
        <time>2012-01-15T13:05:09+01:00</time>
      </trkpt>
      <trkpt lat="43.76749" lon="7.00001">
        <ele>880.224365</ele>
        <time>2012-01-15T13:05:15+01:00</time>
      </trkpt>
      <trkpt lat="43.76749" lon="7.00001">
        <ele>880.705078</ele>
        <time>2012-01-15T13:05:24+01:00</time>
      </trkpt>
      <trkpt lat="43.76749" lon="7.00001">
        <ele>880.705078</ele>
        <time>2012-01-15T13:05:31+01:00</time>
      </trkpt>
      <trkpt lat="43.7675" lon="7.00002">
        <ele>880.705078</ele>
        <time>2012-01-15T13:05:43+01:00</time>
      </trkpt>
      <trkpt lat="43.7675" lon="7.00001">
        <ele>881.185791</ele>
        <time>2012-01-15T13:06:00+01:00</time>
      </trkpt>
      <trkpt lat="43.76744" lon="6.99991">
        <ele>881.185791</ele>
        <time>2012-01-15T13:06:04+01:00</time>
      </trkpt>
      <trkpt lat="43.76737" lon="6.99966">
        <ele>881.185791</ele>
        <time>2012-01-15T13:06:09+01:00</time>
      </trkpt>
      <trkpt lat="43.76734" lon="6.99957">
        <ele>881.66626</ele>
        <time>2012-01-15T13:06:12+01:00</time>
      </trkpt>
      <trkpt lat="43.76732" lon="6.99955">
        <ele>882.627686</ele>
        <time>2012-01-15T13:06:17+01:00</time>
      </trkpt>
      <trkpt lat="43.76733" lon="6.99956">
        <ele>882.146973</ele>
        <time>2012-01-15T13:06:23+01:00</time>
      </trkpt>
      <trkpt lat="43.76733" lon="6.99956">
        <ele>881.185791</ele>
        <time>2012-01-15T13:06:28+01:00</time>
      </trkpt>
      <trkpt lat="43.76732" lon="6.99955">
        <ele>880.705078</ele>
        <time>2012-01-15T13:06:36+01:00</time>
      </trkpt>
      <trkpt lat="43.76729" lon="6.99953">
        <ele>881.66626</ele>
        <time>2012-01-15T13:06:43+01:00</time>
      </trkpt>
      <trkpt lat="43.76727" lon="6.99951">
        <ele>882.627686</ele>
        <time>2012-01-15T13:06:51+01:00</time>
      </trkpt>
      <trkpt lat="43.76726" lon="6.99948">
        <ele>882.627686</ele>
        <time>2012-01-15T13:06:57+01:00</time>
      </trkpt>
      <trkpt lat="43.76727" lon="6.99945">
        <ele>882.627686</ele>
        <time>2012-01-15T13:06:59+01:00</time>
      </trkpt>
      <trkpt lat="43.76731" lon="6.99941">
        <ele>882.627686</ele>
        <time>2012-01-15T13:07:06+01:00</time>
      </trkpt>
      <trkpt lat="43.76732" lon="6.99941">
        <ele>883.108154</ele>
        <time>2012-01-15T13:07:13+01:00</time>
      </trkpt>
      <trkpt lat="43.76733" lon="6.99942">
        <ele>884.550293</ele>
        <time>2012-01-15T13:07:23+01:00</time>
      </trkpt>
      <trkpt lat="43.76733" lon="6.99943">
        <ele>885.031006</ele>
        <time>2012-01-15T13:07:26+01:00</time>
      </trkpt>
      <trkpt lat="43.76732" lon="6.99946">
        <ele>884.550293</ele>
        <time>2012-01-15T13:07:30+01:00</time>
      </trkpt>
      <trkpt lat="43.76732" lon="6.99945">
        <ele>885.511475</ele>
        <time>2012-01-15T13:07:36+01:00</time>
      </trkpt>
      <trkpt lat="43.76731" lon="6.99945">
        <ele>885.031006</ele>
        <time>2012-01-15T13:07:41+01:00</time>
      </trkpt>
      <trkpt lat="43.76732" lon="6.99944">
        <ele>885.511475</ele>
        <time>2012-01-15T13:07:45+01:00</time>
      </trkpt>
      <trkpt lat="43.76732" lon="6.99942">
        <ele>884.550293</ele>
        <time>2012-01-15T13:07:56+01:00</time>
      </trkpt>
      <trkpt lat="43.76731" lon="6.99941">
        <ele>883.108154</ele>
        <time>2012-01-15T13:08:19+01:00</time>
      </trkpt>
      <trkpt lat="43.76731" lon="6.99941">
        <ele>882.627686</ele>
        <time>2012-01-15T13:08:30+01:00</time>
      </trkpt>
      <trkpt lat="43.76732" lon="6.99942">
        <ele>881.66626</ele>
        <time>2012-01-15T13:08:43+01:00</time>
      </trkpt>
      <trkpt lat="43.76732" lon="6.99943">
        <ele>880.705078</ele>
        <time>2012-01-15T13:08:52+01:00</time>
      </trkpt>
      <trkpt lat="43.76731" lon="6.99943">
        <ele>880.705078</ele>
        <time>2012-01-15T13:08:58+01:00</time>
      </trkpt>
      <trkpt lat="43.76732" lon="6.99944">
        <ele>880.705078</ele>
        <time>2012-01-15T13:09:07+01:00</time>
      </trkpt>
      <trkpt lat="43.76732" lon="6.99944">
        <ele>881.185791</ele>
        <time>2012-01-15T13:09:15+01:00</time>
      </trkpt>
      <trkpt lat="43.76731" lon="6.99943">
        <ele>883.108154</ele>
        <time>2012-01-15T13:09:24+01:00</time>
      </trkpt>
      <trkpt lat="43.76731" lon="6.99942">
        <ele>884.550293</ele>
        <time>2012-01-15T13:09:29+01:00</time>
      </trkpt>
      <trkpt lat="43.76732" lon="6.99942">
        <ele>885.031006</ele>
        <time>2012-01-15T13:09:34+01:00</time>
      </trkpt>
      <trkpt lat="43.76733" lon="6.99942">
        <ele>885.511475</ele>
        <time>2012-01-15T13:09:46+01:00</time>
      </trkpt>
      <trkpt lat="43.76733" lon="6.99942">
        <ele>885.511475</ele>
        <time>2012-01-15T13:09:51+01:00</time>
      </trkpt>
      <trkpt lat="43.76729" lon="6.99947">
        <ele>885.031006</ele>
        <time>2012-01-15T13:09:55+01:00</time>
      </trkpt>
      <trkpt lat="43.76726" lon="6.9995">
        <ele>885.031006</ele>
        <time>2012-01-15T13:09:57+01:00</time>
      </trkpt>
      <trkpt lat="43.76727" lon="6.99948">
        <ele>885.992188</ele>
        <time>2012-01-15T13:10:03+01:00</time>
      </trkpt>
      <trkpt lat="43.76731" lon="6.99941">
        <ele>885.511475</ele>
        <time>2012-01-15T13:10:10+01:00</time>
      </trkpt>
      <trkpt lat="43.76731" lon="6.9994">
        <ele>885.511475</ele>
        <time>2012-01-15T13:10:16+01:00</time>
      </trkpt>
      <trkpt lat="43.76732" lon="6.9994">
        <ele>885.031006</ele>
        <time>2012-01-15T13:10:28+01:00</time>
      </trkpt>
      <trkpt lat="43.76739" lon="6.99939">
        <ele>883.588867</ele>
        <time>2012-01-15T13:10:32+01:00</time>
      </trkpt>
      <trkpt lat="43.76748" lon="6.99936">
        <ele>882.627686</ele>
        <time>2012-01-15T13:10:35+01:00</time>
      </trkpt>
      <trkpt lat="43.76754" lon="6.99916">
        <ele>881.185791</ele>
        <time>2012-01-15T13:10:40+01:00</time>
      </trkpt>
      <trkpt lat="43.76761" lon="6.99892">
        <ele>878.782471</ele>
        <time>2012-01-15T13:10:44+01:00</time>
      </trkpt>
      <trkpt lat="43.76776" lon="6.99885">
        <ele>878.782471</ele>
        <time>2012-01-15T13:10:48+01:00</time>
      </trkpt>
      <trkpt lat="43.76779" lon="6.99887">
        <ele>878.782471</ele>
        <time>2012-01-15T13:10:50+01:00</time>
      </trkpt>
      <trkpt lat="43.76789" lon="6.99887">
        <ele>879.743652</ele>
        <time>2012-01-15T13:10:56+01:00</time>
      </trkpt>
      <trkpt lat="43.76801" lon="6.99884">
        <ele>879.743652</ele>
        <time>2012-01-15T13:11:03+01:00</time>
      </trkpt>
      <trkpt lat="43.76812" lon="6.99881">
        <ele>879.262939</ele>
        <time>2012-01-15T13:11:09+01:00</time>
      </trkpt>
      <trkpt lat="43.76815" lon="6.9988">
        <ele>879.262939</ele>
        <time>2012-01-15T13:11:11+01:00</time>
      </trkpt>
      <trkpt lat="43.76815" lon="6.99879">
        <ele>879.743652</ele>
        <time>2012-01-15T13:11:16+01:00</time>
      </trkpt>
      <trkpt lat="43.76815" lon="6.99879">
        <ele>879.743652</ele>
        <time>2012-01-15T13:11:22+01:00</time>
      </trkpt>
      <trkpt lat="43.76816" lon="6.99881">
        <ele>880.705078</ele>
        <time>2012-01-15T13:11:27+01:00</time>
      </trkpt>
      <trkpt lat="43.76813" lon="6.99882">
        <ele>880.705078</ele>
        <time>2012-01-15T13:11:29+01:00</time>
      </trkpt>
      <trkpt lat="43.76803" lon="6.99884">
        <ele>880.224365</ele>
        <time>2012-01-15T13:11:34+01:00</time>
      </trkpt>
      <trkpt lat="43.76789" lon="6.99886">
        <ele>879.743652</ele>
        <time>2012-01-15T13:11:39+01:00</time>
      </trkpt>
      <trkpt lat="43.76772" lon="6.99884">
        <ele>878.301758</ele>
        <time>2012-01-15T13:11:44+01:00</time>
      </trkpt>
      <trkpt lat="43.76769" lon="6.99884">
        <ele>877.821045</ele>
        <time>2012-01-15T13:11:45+01:00</time>
      </trkpt>
      <trkpt lat="43.76759" lon="6.99894">
        <ele>877.340576</ele>
        <time>2012-01-15T13:11:49+01:00</time>
      </trkpt>
      <trkpt lat="43.76756" lon="6.99907">
        <ele>878.301758</ele>
        <time>2012-01-15T13:11:54+01:00</time>
      </trkpt>
      <trkpt lat="43.76755" lon="6.99915">
        <ele>878.782471</ele>
        <time>2012-01-15T13:11:57+01:00</time>
      </trkpt>
      <trkpt lat="43.76747" lon="6.99917">
        <ele>878.782471</ele>
        <time>2012-01-15T13:12:02+01:00</time>
      </trkpt>
      <trkpt lat="43.76745" lon="6.99917">
        <ele>878.782471</ele>
        <time>2012-01-15T13:12:07+01:00</time>
      </trkpt>
      <trkpt lat="43.76745" lon="6.99917">
        <ele>879.262939</ele>
        <time>2012-01-15T13:12:20+01:00</time>
      </trkpt>
      <trkpt lat="43.76746" lon="6.99916">
        <ele>880.224365</ele>
        <time>2012-01-15T13:12:28+01:00</time>
      </trkpt>
      <trkpt lat="43.76747" lon="6.99916">
        <ele>880.224365</ele>
        <time>2012-01-15T13:12:29+01:00</time>
      </trkpt>
      <trkpt lat="43.76756" lon="6.99908">
        <ele>880.224365</ele>
        <time>2012-01-15T13:12:35+01:00</time>
      </trkpt>
      <trkpt lat="43.76761" lon="6.99889">
        <ele>878.301758</ele>
        <time>2012-01-15T13:12:40+01:00</time>
      </trkpt>
      <trkpt lat="43.76768" lon="6.99883">
        <ele>878.301758</ele>
        <time>2012-01-15T13:12:44+01:00</time>
      </trkpt>
      <trkpt lat="43.76772" lon="6.99883">
        <ele>878.782471</ele>
        <time>2012-01-15T13:12:46+01:00</time>
      </trkpt>
      <trkpt lat="43.76789" lon="6.99886">
        <ele>880.705078</ele>
        <time>2012-01-15T13:12:54+01:00</time>
      </trkpt>
      <trkpt lat="43.76799" lon="6.99884">
        <ele>880.705078</ele>
        <time>2012-01-15T13:12:57+01:00</time>
      </trkpt>
      <trkpt lat="43.76825" lon="6.99876">
        <ele>880.224365</ele>
        <time>2012-01-15T13:13:05+01:00</time>
      </trkpt>
      <trkpt lat="43.76843" lon="6.99868">
        <ele>879.262939</ele>
        <time>2012-01-15T13:13:10+01:00</time>
      </trkpt>
      <trkpt lat="43.76856" lon="6.99865">
        <ele>879.262939</ele>
        <time>2012-01-15T13:13:15+01:00</time>
      </trkpt>
      <trkpt lat="43.76876" lon="6.99851">
        <ele>877.821045</ele>
        <time>2012-01-15T13:13:22+01:00</time>
      </trkpt>
      <trkpt lat="43.769" lon="6.99842">
        <ele>877.340576</ele>
        <time>2012-01-15T13:13:28+01:00</time>
      </trkpt>
      <trkpt lat="43.76904" lon="6.99834">
        <ele>876.859863</ele>
        <time>2012-01-15T13:13:32+01:00</time>
      </trkpt>
      <trkpt lat="43.76902" lon="6.99833">
        <ele>876.859863</ele>
        <time>2012-01-15T13:13:35+01:00</time>
      </trkpt>
      <trkpt lat="43.76901" lon="6.99832">
        <ele>876.859863</ele>
        <time>2012-01-15T13:13:43+01:00</time>
      </trkpt>
      <trkpt lat="43.76903" lon="6.99823">
        <ele>875.898193</ele>
        <time>2012-01-15T13:13:49+01:00</time>
      </trkpt>
      <trkpt lat="43.76904" lon="6.99823">
        <ele>875.898193</ele>
        <time>2012-01-15T13:13:58+01:00</time>
      </trkpt>
      <trkpt lat="43.76903" lon="6.99819">
        <ele>880.705078</ele>
        <time>2012-01-15T13:14:22+01:00</time>
      </trkpt>
      <trkpt lat="43.76902" lon="6.99824">
        <ele>880.705078</ele>
        <time>2012-01-15T13:14:30+01:00</time>
      </trkpt>
      <trkpt lat="43.76902" lon="6.99827">
        <ele>880.705078</ele>
        <time>2012-01-15T13:14:32+01:00</time>
      </trkpt>
      <trkpt lat="43.769" lon="6.99829">
        <ele>880.224365</ele>
        <time>2012-01-15T13:14:37+01:00</time>
      </trkpt>
      <trkpt lat="43.769" lon="6.99829">
        <ele>879.743652</ele>
        <time>2012-01-15T13:14:45+01:00</time>
      </trkpt>
      <trkpt lat="43.76897" lon="6.99827">
        <ele>878.782471</ele>
        <time>2012-01-15T13:14:51+01:00</time>
      </trkpt>
      <trkpt lat="43.76888" lon="6.99821">
        <ele>877.340576</ele>
        <time>2012-01-15T13:14:57+01:00</time>
      </trkpt>
      <trkpt lat="43.76889" lon="6.99821">
        <ele>876.859863</ele>
        <time>2012-01-15T13:15:04+01:00</time>
      </trkpt>
      <trkpt lat="43.76889" lon="6.99821">
        <ele>877.340576</ele>
        <time>2012-01-15T13:15:09+01:00</time>
      </trkpt>
      <trkpt lat="43.76876" lon="6.99809">
        <ele>873.975586</ele>
        <time>2012-01-15T13:15:14+01:00</time>
      </trkpt>
      <trkpt lat="43.76864" lon="6.99802">
        <ele>872.052979</ele>
        <time>2012-01-15T13:15:16+01:00</time>
      </trkpt>
      <trkpt lat="43.76851" lon="6.99795">
        <ele>869.649902</ele>
        <time>2012-01-15T13:15:18+01:00</time>
      </trkpt>
      <trkpt lat="43.76831" lon="6.99787">
        <ele>866.285156</ele>
        <time>2012-01-15T13:15:21+01:00</time>
      </trkpt>
      <trkpt lat="43.768" lon="6.99771">
        <ele>860.036621</ele>
        <time>2012-01-15T13:15:26+01:00</time>
      </trkpt>
      <trkpt lat="43.76786" lon="6.99765">
        <ele>856.671875</ele>
        <time>2012-01-15T13:15:28+01:00</time>
      </trkpt>
      <trkpt lat="43.76771" lon="6.99752">
        <ele>851.865479</ele>
        <time>2012-01-15T13:15:31+01:00</time>
      </trkpt>
      <trkpt lat="43.76751" lon="6.99745">
        <ele>846.578369</ele>
        <time>2012-01-15T13:15:35+01:00</time>
      </trkpt>
      <trkpt lat="43.76745" lon="6.99746">
        <ele>845.616943</ele>
        <time>2012-01-15T13:15:36+01:00</time>
      </trkpt>
      <trkpt lat="43.76718" lon="6.99736">
        <ele>838.887695</ele>
        <time>2012-01-15T13:15:41+01:00</time>
      </trkpt>
      <trkpt lat="43.76712" lon="6.99733">
        <ele>837.445557</ele>
        <time>2012-01-15T13:15:42+01:00</time>
      </trkpt>
      <trkpt lat="43.76686" lon="6.99721">
        <ele>831.677734</ele>
        <time>2012-01-15T13:15:46+01:00</time>
      </trkpt>
      <trkpt lat="43.76663" lon="6.99715">
        <ele>828.313232</ele>
        <time>2012-01-15T13:15:49+01:00</time>
      </trkpt>
      <trkpt lat="43.76639" lon="6.997">
        <ele>820.622559</ele>
        <time>2012-01-15T13:15:54+01:00</time>
      </trkpt>
      <trkpt lat="43.76633" lon="6.99696">
        <ele>819.180664</ele>
        <time>2012-01-15T13:15:55+01:00</time>
      </trkpt>
      <trkpt lat="43.76604" lon="6.99676">
        <ele>812.451416</ele>
        <time>2012-01-15T13:16:00+01:00</time>
      </trkpt>
      <trkpt lat="43.76591" lon="6.99663">
        <ele>808.605957</ele>
        <time>2012-01-15T13:16:03+01:00</time>
      </trkpt>
      <trkpt lat="43.7658" lon="6.99654">
        <ele>806.68335</ele>
        <time>2012-01-15T13:16:05+01:00</time>
      </trkpt>
      <trkpt lat="43.76558" lon="6.99637">
        <ele>802.357422</ele>
        <time>2012-01-15T13:16:09+01:00</time>
      </trkpt>
      <trkpt lat="43.76536" lon="6.99609">
        <ele>795.147461</ele>
        <time>2012-01-15T13:16:14+01:00</time>
      </trkpt>
      <trkpt lat="43.76532" lon="6.99605">
        <ele>794.186279</ele>
        <time>2012-01-15T13:16:15+01:00</time>
      </trkpt>
      <trkpt lat="43.76513" lon="6.99591">
        <ele>789.860352</ele>
        <time>2012-01-15T13:16:20+01:00</time>
      </trkpt>
      <trkpt lat="43.76515" lon="6.99589">
        <ele>789.379639</ele>
        <time>2012-01-15T13:16:22+01:00</time>
      </trkpt>
      <trkpt lat="43.76515" lon="6.9959">
        <ele>789.379639</ele>
        <time>2012-01-15T13:16:28+01:00</time>
      </trkpt>
      <trkpt lat="43.76515" lon="6.9959">
        <ele>789.379639</ele>
        <time>2012-01-15T13:16:32+01:00</time>
      </trkpt>
      <trkpt lat="43.76515" lon="6.99589">
        <ele>791.302246</ele>
        <time>2012-01-15T13:16:37+01:00</time>
      </trkpt>
      <trkpt lat="43.76521" lon="6.9959">
        <ele>790.341064</ele>
        <time>2012-01-15T13:16:40+01:00</time>
      </trkpt>
      <trkpt lat="43.76529" lon="6.99586">
        <ele>789.379639</ele>
        <time>2012-01-15T13:16:43+01:00</time>
      </trkpt>
      <trkpt lat="43.76529" lon="6.99574">
        <ele>786.976318</ele>
        <time>2012-01-15T13:16:47+01:00</time>
      </trkpt>
      <trkpt lat="43.76537" lon="6.99568">
        <ele>784.092529</ele>
        <time>2012-01-15T13:16:50+01:00</time>
      </trkpt>
      <trkpt lat="43.76554" lon="6.99559">
        <ele>780.247314</ele>
        <time>2012-01-15T13:16:55+01:00</time>
      </trkpt>
      <trkpt lat="43.76557" lon="6.99557">
        <ele>778.324463</ele>
        <time>2012-01-15T13:16:58+01:00</time>
      </trkpt>
      <trkpt lat="43.76558" lon="6.99557">
        <ele>780.728027</ele>
        <time>2012-01-15T13:17:08+01:00</time>
      </trkpt>
      <trkpt lat="43.76558" lon="6.99557">
        <ele>782.169922</ele>
        <time>2012-01-15T13:17:14+01:00</time>
      </trkpt>
      <trkpt lat="43.76558" lon="6.99557">
        <ele>782.169922</ele>
        <time>2012-01-15T13:17:25+01:00</time>
      </trkpt>
      <trkpt lat="43.76558" lon="6.99558">
        <ele>781.20874</ele>
        <time>2012-01-15T13:17:41+01:00</time>
      </trkpt>
      <trkpt lat="43.76558" lon="6.99557">
        <ele>781.20874</ele>
        <time>2012-01-15T13:17:59+01:00</time>
      </trkpt>
      <trkpt lat="43.76555" lon="6.99558">
        <ele>776.882568</ele>
        <time>2012-01-15T13:18:57+01:00</time>
      </trkpt>
      <trkpt lat="43.76553" lon="6.99559">
        <ele>781.689209</ele>
        <time>2012-01-15T13:19:16+01:00</time>
      </trkpt>
      <trkpt lat="43.76552" lon="6.99557">
        <ele>783.131104</ele>
        <time>2012-01-15T13:19:24+01:00</time>
      </trkpt>
      <trkpt lat="43.76554" lon="6.99555">
        <ele>782.169922</ele>
        <time>2012-01-15T13:19:31+01:00</time>
      </trkpt>
      <trkpt lat="43.76554" lon="6.99557">
        <ele>781.20874</ele>
        <time>2012-01-15T13:19:38+01:00</time>
      </trkpt>
      <trkpt lat="43.76556" lon="6.99558">
        <ele>780.728027</ele>
        <time>2012-01-15T13:19:57+01:00</time>
      </trkpt>
      <trkpt lat="43.76557" lon="6.9956">
        <ele>779.766357</ele>
        <time>2012-01-15T13:20:05+01:00</time>
      </trkpt>
      <trkpt lat="43.76557" lon="6.99559">
        <ele>779.766357</ele>
        <time>2012-01-15T13:20:20+01:00</time>
      </trkpt>
      <trkpt lat="43.76559" lon="6.99559">
        <ele>778.324463</ele>
        <time>2012-01-15T13:20:27+01:00</time>
      </trkpt>
      <trkpt lat="43.76567" lon="6.99552">
        <ele>776.401855</ele>
        <time>2012-01-15T13:20:32+01:00</time>
      </trkpt>
      <trkpt lat="43.76557" lon="6.99546">
        <ele>775.44043</ele>
        <time>2012-01-15T13:20:35+01:00</time>
      </trkpt>
      <trkpt lat="43.76544" lon="6.9953">
        <ele>771.114746</ele>
        <time>2012-01-15T13:20:40+01:00</time>
      </trkpt>
      <trkpt lat="43.7654" lon="6.99519">
        <ele>767.75</ele>
        <time>2012-01-15T13:20:44+01:00</time>
      </trkpt>
      <trkpt lat="43.76532" lon="6.99508">
        <ele>763.424072</ele>
        <time>2012-01-15T13:20:48+01:00</time>
      </trkpt>
      <trkpt lat="43.7653" lon="6.99506">
        <ele>762.462646</ele>
        <time>2012-01-15T13:20:49+01:00</time>
      </trkpt>
      <trkpt lat="43.76524" lon="6.99501">
        <ele>761.020752</ele>
        <time>2012-01-15T13:20:51+01:00</time>
      </trkpt>
      <trkpt lat="43.76513" lon="6.99487">
        <ele>756.694824</ele>
        <time>2012-01-15T13:20:55+01:00</time>
      </trkpt>
      <trkpt lat="43.76506" lon="6.99477">
        <ele>753.330322</ele>
        <time>2012-01-15T13:20:58+01:00</time>
      </trkpt>
      <trkpt lat="43.76505" lon="6.99475">
        <ele>752.849609</ele>
        <time>2012-01-15T13:20:59+01:00</time>
      </trkpt>
      <trkpt lat="43.76506" lon="6.99474">
        <ele>751.407715</ele>
        <time>2012-01-15T13:21:05+01:00</time>
      </trkpt>
      <trkpt lat="43.76509" lon="6.99472">
        <ele>749.96582</ele>
        <time>2012-01-15T13:21:08+01:00</time>
      </trkpt>
      <trkpt lat="43.76522" lon="6.99469">
        <ele>746.601074</ele>
        <time>2012-01-15T13:21:13+01:00</time>
      </trkpt>
      <trkpt lat="43.76537" lon="6.9946">
        <ele>743.717041</ele>
        <time>2012-01-15T13:21:17+01:00</time>
      </trkpt>
      <trkpt lat="43.76552" lon="6.99448">
        <ele>739.871826</ele>
        <time>2012-01-15T13:21:21+01:00</time>
      </trkpt>
      <trkpt lat="43.76559" lon="6.99444">
        <ele>737.468506</ele>
        <time>2012-01-15T13:21:23+01:00</time>
      </trkpt>
      <trkpt lat="43.76575" lon="6.99444">
        <ele>733.142578</ele>
        <time>2012-01-15T13:21:28+01:00</time>
      </trkpt>
      <trkpt lat="43.76578" lon="6.99442">
        <ele>731.700439</ele>
        <time>2012-01-15T13:21:30+01:00</time>
      </trkpt>
      <trkpt lat="43.7657" lon="6.99431">
        <ele>731.700439</ele>
        <time>2012-01-15T13:21:35+01:00</time>
      </trkpt>
      <trkpt lat="43.76564" lon="6.99428">
        <ele>731.219971</ele>
        <time>2012-01-15T13:21:39+01:00</time>
      </trkpt>
      <trkpt lat="43.76563" lon="6.99427">
        <ele>731.700439</ele>
        <time>2012-01-15T13:21:47+01:00</time>
      </trkpt>
      <trkpt lat="43.76563" lon="6.99426">
        <ele>732.181396</ele>
        <time>2012-01-15T13:21:57+01:00</time>
      </trkpt>
      <trkpt lat="43.76563" lon="6.99425">
        <ele>732.662109</ele>
        <time>2012-01-15T13:22:06+01:00</time>
      </trkpt>
      <trkpt lat="43.76564" lon="6.99426">
        <ele>733.142578</ele>
        <time>2012-01-15T13:22:14+01:00</time>
      </trkpt>
      <trkpt lat="43.76565" lon="6.99423">
        <ele>736.026611</ele>
        <time>2012-01-15T13:22:32+01:00</time>
      </trkpt>
      <trkpt lat="43.76563" lon="6.99422">
        <ele>736.026611</ele>
        <time>2012-01-15T13:23:20+01:00</time>
      </trkpt>
      <trkpt lat="43.76557" lon="6.99421">
        <ele>735.545898</ele>
        <time>2012-01-15T13:23:24+01:00</time>
      </trkpt>
      <trkpt lat="43.76539" lon="6.99418">
        <ele>736.026611</ele>
        <time>2012-01-15T13:23:30+01:00</time>
      </trkpt>
      <trkpt lat="43.76517" lon="6.99405">
        <ele>733.142578</ele>
        <time>2012-01-15T13:23:35+01:00</time>
      </trkpt>
      <trkpt lat="43.7651" lon="6.99397">
        <ele>731.700439</ele>
        <time>2012-01-15T13:23:37+01:00</time>
      </trkpt>
      <trkpt lat="43.76505" lon="6.99393">
        <ele>730.258545</ele>
        <time>2012-01-15T13:23:39+01:00</time>
      </trkpt>
      <trkpt lat="43.76506" lon="6.9939">
        <ele>728.335938</ele>
        <time>2012-01-15T13:23:43+01:00</time>
      </trkpt>
      <trkpt lat="43.76507" lon="6.9939">
        <ele>727.855225</ele>
        <time>2012-01-15T13:23:44+01:00</time>
      </trkpt>
      <trkpt lat="43.76513" lon="6.9939">
        <ele>725.932617</ele>
        <time>2012-01-15T13:23:47+01:00</time>
      </trkpt>
      <trkpt lat="43.76515" lon="6.99391">
        <ele>724.490723</ele>
        <time>2012-01-15T13:23:49+01:00</time>
      </trkpt>
      <trkpt lat="43.76527" lon="6.99384">
        <ele>720.164795</ele>
        <time>2012-01-15T13:23:53+01:00</time>
      </trkpt>
      <trkpt lat="43.76544" lon="6.99369">
        <ele>715.358154</ele>
        <time>2012-01-15T13:23:57+01:00</time>
      </trkpt>
      <trkpt lat="43.76553" lon="6.99363">
        <ele>711.032227</ele>
        <time>2012-01-15T13:24:01+01:00</time>
      </trkpt>
      <trkpt lat="43.76544" lon="6.99358">
        <ele>709.109619</ele>
        <time>2012-01-15T13:24:05+01:00</time>
      </trkpt>
      <trkpt lat="43.76537" lon="6.99353">
        <ele>705.745117</ele>
        <time>2012-01-15T13:24:09+01:00</time>
      </trkpt>
      <trkpt lat="43.76546" lon="6.99347">
        <ele>703.341797</ele>
        <time>2012-01-15T13:24:12+01:00</time>
      </trkpt>
      <trkpt lat="43.76554" lon="6.99346">
        <ele>700.938477</ele>
        <time>2012-01-15T13:24:14+01:00</time>
      </trkpt>
      <trkpt lat="43.76571" lon="6.9935">
        <ele>697.093018</ele>
        <time>2012-01-15T13:24:19+01:00</time>
      </trkpt>
      <trkpt lat="43.7657" lon="6.9935">
        <ele>695.651123</ele>
        <time>2012-01-15T13:24:21+01:00</time>
      </trkpt>
      <trkpt lat="43.7656" lon="6.99337">
        <ele>692.767334</ele>
        <time>2012-01-15T13:24:26+01:00</time>
      </trkpt>
      <trkpt lat="43.76559" lon="6.99334">
        <ele>693.728516</ele>
        <time>2012-01-15T13:24:32+01:00</time>
      </trkpt>
      <trkpt lat="43.76559" lon="6.99334">
        <ele>697.093018</ele>
        <time>2012-01-15T13:24:41+01:00</time>
      </trkpt>
      <trkpt lat="43.76558" lon="6.99332">
        <ele>700.938477</ele>
        <time>2012-01-15T13:25:19+01:00</time>
      </trkpt>
      <trkpt lat="43.76557" lon="6.99331">
        <ele>700.458008</ele>
        <time>2012-01-15T13:25:24+01:00</time>
      </trkpt>
      <trkpt lat="43.76544" lon="6.99322">
        <ele>699.015625</ele>
        <time>2012-01-15T13:25:29+01:00</time>
      </trkpt>
      <trkpt lat="43.76524" lon="6.99316">
        <ele>696.612549</ele>
        <time>2012-01-15T13:25:33+01:00</time>
      </trkpt>
      <trkpt lat="43.76512" lon="6.99309">
        <ele>693.728516</ele>
        <time>2012-01-15T13:25:36+01:00</time>
      </trkpt>
      <trkpt lat="43.76504" lon="6.99301">
        <ele>691.805908</ele>
        <time>2012-01-15T13:25:38+01:00</time>
      </trkpt>
      <trkpt lat="43.76495" lon="6.99295">
        <ele>689.883301</ele>
        <time>2012-01-15T13:25:40+01:00</time>
      </trkpt>
      <trkpt lat="43.76472" lon="6.99285">
        <ele>681.231445</ele>
        <time>2012-01-15T13:25:46+01:00</time>
      </trkpt>
      <trkpt lat="43.76469" lon="6.99282">
        <ele>678.828125</ele>
        <time>2012-01-15T13:25:48+01:00</time>
      </trkpt>
      <trkpt lat="43.76478" lon="6.99273">
        <ele>674.021484</ele>
        <time>2012-01-15T13:25:52+01:00</time>
      </trkpt>
      <trkpt lat="43.76481" lon="6.99271">
        <ele>673.060303</ele>
        <time>2012-01-15T13:25:53+01:00</time>
      </trkpt>
      <trkpt lat="43.76484" lon="6.99269">
        <ele>670.656982</ele>
        <time>2012-01-15T13:25:55+01:00</time>
      </trkpt>
      <trkpt lat="43.76479" lon="6.99254">
        <ele>662.485596</ele>
        <time>2012-01-15T13:25:59+01:00</time>
      </trkpt>
      <trkpt lat="43.76462" lon="6.99245">
        <ele>656.237061</ele>
        <time>2012-01-15T13:26:02+01:00</time>
      </trkpt>
      <trkpt lat="43.76456" lon="6.99241">
        <ele>653.353271</ele>
        <time>2012-01-15T13:26:05+01:00</time>
      </trkpt>
      <trkpt lat="43.7646" lon="6.99242">
        <ele>653.833984</ele>
        <time>2012-01-15T13:26:10+01:00</time>
      </trkpt>
      <trkpt lat="43.76461" lon="6.99242">
        <ele>652.391846</ele>
        <time>2012-01-15T13:26:11+01:00</time>
      </trkpt>
      <trkpt lat="43.7647" lon="6.99229">
        <ele>647.585205</ele>
        <time>2012-01-15T13:26:17+01:00</time>
      </trkpt>
      <trkpt lat="43.76478" lon="6.99216">
        <ele>643.259277</ele>
        <time>2012-01-15T13:26:21+01:00</time>
      </trkpt>
      <trkpt lat="43.76483" lon="6.99208">
        <ele>640.855957</ele>
        <time>2012-01-15T13:26:24+01:00</time>
      </trkpt>
      <trkpt lat="43.76472" lon="6.99203">
        <ele>638.452881</ele>
        <time>2012-01-15T13:26:29+01:00</time>
      </trkpt>
      <trkpt lat="43.76472" lon="6.99196">
        <ele>636.530273</ele>
        <time>2012-01-15T13:26:32+01:00</time>
      </trkpt>
      <trkpt lat="43.76475" lon="6.99197">
        <ele>636.530273</ele>
        <time>2012-01-15T13:26:40+01:00</time>
      </trkpt>
      <trkpt lat="43.76474" lon="6.992">
        <ele>637.010742</ele>
        <time>2012-01-15T13:26:44+01:00</time>
      </trkpt>
      <trkpt lat="43.76472" lon="6.99198">
        <ele>640.855957</ele>
        <time>2012-01-15T13:26:52+01:00</time>
      </trkpt>
      <trkpt lat="43.76471" lon="6.99191">
        <ele>643.73999</ele>
        <time>2012-01-15T13:27:24+01:00</time>
      </trkpt>
      <trkpt lat="43.7647" lon="6.99191">
        <ele>646.143311</ele>
        <time>2012-01-15T13:27:29+01:00</time>
      </trkpt>
      <trkpt lat="43.76466" lon="6.99192">
        <ele>654.795166</ele>
        <time>2012-01-15T13:27:59+01:00</time>
      </trkpt>
      <trkpt lat="43.76472" lon="6.99193">
        <ele>651.43042</ele>
        <time>2012-01-15T13:28:13+01:00</time>
      </trkpt>
      <trkpt lat="43.76477" lon="6.99195">
        <ele>650.469238</ele>
        <time>2012-01-15T13:28:36+01:00</time>
      </trkpt>
      <trkpt lat="43.76477" lon="6.99195">
        <ele>649.0271</ele>
        <time>2012-01-15T13:28:50+01:00</time>
      </trkpt>
      <trkpt lat="43.76476" lon="6.99194">
        <ele>646.624023</ele>
        <time>2012-01-15T13:29:03+01:00</time>
      </trkpt>
      <trkpt lat="43.76476" lon="6.99194">
        <ele>644.701172</ele>
        <time>2012-01-15T13:29:10+01:00</time>
      </trkpt>
      <trkpt lat="43.76482" lon="6.9918">
        <ele>641.817383</ele>
        <time>2012-01-15T13:29:14+01:00</time>
      </trkpt>
      <trkpt lat="43.7647" lon="6.99171">
        <ele>637.010742</ele>
        <time>2012-01-15T13:29:18+01:00</time>
      </trkpt>
      <trkpt lat="43.76471" lon="6.99157">
        <ele>633.645996</ele>
        <time>2012-01-15T13:29:21+01:00</time>
      </trkpt>
      <trkpt lat="43.76477" lon="6.99138">
        <ele>629.800781</ele>
        <time>2012-01-15T13:29:24+01:00</time>
      </trkpt>
      <trkpt lat="43.76488" lon="6.99137">
        <ele>625.955566</ele>
        <time>2012-01-15T13:29:29+01:00</time>
      </trkpt>
      <trkpt lat="43.76485" lon="6.99122">
        <ele>621.14917</ele>
        <time>2012-01-15T13:29:34+01:00</time>
      </trkpt>
      <trkpt lat="43.76478" lon="6.99114">
        <ele>618.745605</ele>
        <time>2012-01-15T13:29:36+01:00</time>
      </trkpt>
      <trkpt lat="43.7646" lon="6.99113">
        <ele>614.900391</ele>
        <time>2012-01-15T13:29:41+01:00</time>
      </trkpt>
      <trkpt lat="43.76442" lon="6.99122">
        <ele>609.613281</ele>
        <time>2012-01-15T13:29:46+01:00</time>
      </trkpt>
      <trkpt lat="43.7643" lon="6.99127">
        <ele>609.132568</ele>
        <time>2012-01-15T13:29:49+01:00</time>
      </trkpt>
      <trkpt lat="43.7643" lon="6.99114">
        <ele>601.441895</ele>
        <time>2012-01-15T13:29:53+01:00</time>
      </trkpt>
      <trkpt lat="43.76431" lon="6.99106">
        <ele>598.077393</ele>
        <time>2012-01-15T13:29:56+01:00</time>
      </trkpt>
      <trkpt lat="43.76427" lon="6.99101">
        <ele>594.232178</ele>
        <time>2012-01-15T13:29:59+01:00</time>
      </trkpt>
      <trkpt lat="43.76434" lon="6.99086">
        <ele>589.90625</ele>
        <time>2012-01-15T13:30:02+01:00</time>
      </trkpt>
      <trkpt lat="43.76427" lon="6.99071">
        <ele>585.580078</ele>
        <time>2012-01-15T13:30:07+01:00</time>
      </trkpt>
      <trkpt lat="43.76429" lon="6.99054">
        <ele>580.773682</ele>
        <time>2012-01-15T13:30:10+01:00</time>
      </trkpt>
      <trkpt lat="43.76433" lon="6.99044">
        <ele>579.331543</ele>
        <time>2012-01-15T13:30:12+01:00</time>
      </trkpt>
      <trkpt lat="43.76435" lon="6.9904">
        <ele>577.889648</ele>
        <time>2012-01-15T13:30:14+01:00</time>
      </trkpt>
      <trkpt lat="43.76425" lon="6.99042">
        <ele>576.447754</ele>
        <time>2012-01-15T13:30:18+01:00</time>
      </trkpt>
      <trkpt lat="43.76422" lon="6.99043">
        <ele>575.486328</ele>
        <time>2012-01-15T13:30:19+01:00</time>
      </trkpt>
      <trkpt lat="43.7641" lon="6.99036">
        <ele>572.121826</ele>
        <time>2012-01-15T13:30:24+01:00</time>
      </trkpt>
      <trkpt lat="43.76399" lon="6.99044">
        <ele>570.679688</ele>
        <time>2012-01-15T13:30:27+01:00</time>
      </trkpt>
      <trkpt lat="43.76386" lon="6.99057">
        <ele>570.198975</ele>
        <time>2012-01-15T13:30:31+01:00</time>
      </trkpt>
      <trkpt lat="43.76382" lon="6.99049">
        <ele>568.276367</ele>
        <time>2012-01-15T13:30:34+01:00</time>
      </trkpt>
      <trkpt lat="43.76383" lon="6.99027">
        <ele>563.469971</ele>
        <time>2012-01-15T13:30:38+01:00</time>
      </trkpt>
      <trkpt lat="43.76384" lon="6.99017">
        <ele>560.105225</ele>
        <time>2012-01-15T13:30:42+01:00</time>
      </trkpt>
      <trkpt lat="43.76389" lon="6.99002">
        <ele>556.26001</ele>
        <time>2012-01-15T13:30:46+01:00</time>
      </trkpt>
      <trkpt lat="43.7639" lon="6.98998">
        <ele>554.817871</ele>
        <time>2012-01-15T13:30:48+01:00</time>
      </trkpt>
      <trkpt lat="43.76386" lon="6.98997">
        <ele>552.895264</ele>
        <time>2012-01-15T13:30:52+01:00</time>
      </trkpt>
      <trkpt lat="43.76385" lon="6.98994">
        <ele>551.934082</ele>
        <time>2012-01-15T13:30:54+01:00</time>
      </trkpt>
      <trkpt lat="43.76372" lon="6.99002">
        <ele>550.011475</ele>
        <time>2012-01-15T13:30:58+01:00</time>
      </trkpt>
      <trkpt lat="43.76371" lon="6.98997">
        <ele>547.127441</ele>
        <time>2012-01-15T13:31:01+01:00</time>
      </trkpt>
      <trkpt lat="43.76371" lon="6.98998">
        <ele>544.724243</ele>
        <time>2012-01-15T13:31:08+01:00</time>
      </trkpt>
      <trkpt lat="43.76368" lon="6.98996">
        <ele>546.16626</ele>
        <time>2012-01-15T13:31:12+01:00</time>
      </trkpt>
      <trkpt lat="43.76367" lon="6.98995">
        <ele>548.088867</ele>
        <time>2012-01-15T13:31:18+01:00</time>
      </trkpt>
      <trkpt lat="43.76367" lon="6.98995">
        <ele>547.608154</ele>
        <time>2012-01-15T13:31:19+01:00</time>
      </trkpt>
      <trkpt lat="43.76357" lon="6.98999">
        <ele>546.16626</ele>
        <time>2012-01-15T13:31:24+01:00</time>
      </trkpt>
      <trkpt lat="43.76347" lon="6.99005">
        <ele>544.243652</ele>
        <time>2012-01-15T13:31:27+01:00</time>
      </trkpt>
      <trkpt lat="43.7634" lon="6.99014">
        <ele>542.801514</ele>
        <time>2012-01-15T13:31:29+01:00</time>
      </trkpt>
      <trkpt lat="43.76331" lon="6.99016">
        <ele>539.43689</ele>
        <time>2012-01-15T13:31:33+01:00</time>
      </trkpt>
      <trkpt lat="43.76326" lon="6.99017">
        <ele>537.033691</ele>
        <time>2012-01-15T13:31:37+01:00</time>
      </trkpt>
      <trkpt lat="43.76326" lon="6.99017">
        <ele>537.514282</ele>
        <time>2012-01-15T13:31:43+01:00</time>
      </trkpt>
      <trkpt lat="43.76327" lon="6.99014">
        <ele>538.475708</ele>
        <time>2012-01-15T13:31:49+01:00</time>
      </trkpt>
      <trkpt lat="43.76327" lon="6.99012">
        <ele>539.917603</ele>
        <time>2012-01-15T13:31:54+01:00</time>
      </trkpt>
      <trkpt lat="43.76328" lon="6.99011">
        <ele>540.398315</ele>
        <time>2012-01-15T13:32:00+01:00</time>
      </trkpt>
      <trkpt lat="43.76327" lon="6.99011">
        <ele>542.801514</ele>
        <time>2012-01-15T13:32:10+01:00</time>
      </trkpt>
      <trkpt lat="43.76328" lon="6.9901">
        <ele>545.204834</ele>
        <time>2012-01-15T13:32:24+01:00</time>
      </trkpt>
      <trkpt lat="43.76329" lon="6.99014">
        <ele>542.801514</ele>
        <time>2012-01-15T13:32:40+01:00</time>
      </trkpt>
      <trkpt lat="43.76328" lon="6.99014">
        <ele>542.320923</ele>
        <time>2012-01-15T13:32:45+01:00</time>
      </trkpt>
      <trkpt lat="43.76328" lon="6.99013">
        <ele>540.878906</ele>
        <time>2012-01-15T13:32:53+01:00</time>
      </trkpt>
      <trkpt lat="43.76328" lon="6.99011">
        <ele>542.320923</ele>
        <time>2012-01-15T13:33:00+01:00</time>
      </trkpt>
      <trkpt lat="43.76332" lon="6.99013">
        <ele>536.072388</ele>
        <time>2012-01-15T13:33:15+01:00</time>
      </trkpt>
      <trkpt lat="43.76334" lon="6.99011">
        <ele>537.033691</ele>
        <time>2012-01-15T13:33:50+01:00</time>
      </trkpt>
      <trkpt lat="43.76334" lon="6.99013">
        <ele>539.43689</ele>
        <time>2012-01-15T13:33:55+01:00</time>
      </trkpt>
      <trkpt lat="43.76332" lon="6.99011">
        <ele>538.475708</ele>
        <time>2012-01-15T13:34:07+01:00</time>
      </trkpt>
      <trkpt lat="43.76333" lon="6.99011">
        <ele>537.994995</ele>
        <time>2012-01-15T13:34:17+01:00</time>
      </trkpt>
      <trkpt lat="43.76335" lon="6.99012">
        <ele>539.43689</ele>
        <time>2012-01-15T13:34:29+01:00</time>
      </trkpt>
      <trkpt lat="43.76334" lon="6.99015">
        <ele>540.878906</ele>
        <time>2012-01-15T13:34:34+01:00</time>
      </trkpt>
      <trkpt lat="43.76333" lon="6.99018">
        <ele>539.917603</ele>
        <time>2012-01-15T13:34:44+01:00</time>
      </trkpt>
      <trkpt lat="43.76332" lon="6.99018">
        <ele>540.398315</ele>
        <time>2012-01-15T13:34:50+01:00</time>
      </trkpt>
      <trkpt lat="43.76329" lon="6.99019">
        <ele>543.762817</ele>
        <time>2012-01-15T13:35:00+01:00</time>
      </trkpt>
      <trkpt lat="43.76327" lon="6.99012">
        <ele>552.414551</ele>
        <time>2012-01-15T13:35:22+01:00</time>
      </trkpt>
      <trkpt lat="43.76327" lon="6.99012">
        <ele>551.934082</ele>
        <time>2012-01-15T13:35:29+01:00</time>
      </trkpt>
      <trkpt lat="43.76327" lon="6.99012">
        <ele>550.011475</ele>
        <time>2012-01-15T13:35:39+01:00</time>
      </trkpt>
      <trkpt lat="43.76328" lon="6.99012">
        <ele>548.569336</ele>
        <time>2012-01-15T13:35:46+01:00</time>
      </trkpt>
      <trkpt lat="43.76326" lon="6.99012">
        <ele>547.608154</ele>
        <time>2012-01-15T13:35:58+01:00</time>
      </trkpt>
      <trkpt lat="43.76326" lon="6.99013">
        <ele>547.608154</ele>
        <time>2012-01-15T13:36:04+01:00</time>
      </trkpt>
      <trkpt lat="43.76332" lon="6.99007">
        <ele>545.204834</ele>
        <time>2012-01-15T13:36:08+01:00</time>
      </trkpt>
      <trkpt lat="43.76335" lon="6.99011">
        <ele>545.204834</ele>
        <time>2012-01-15T13:36:10+01:00</time>
      </trkpt>
      <trkpt lat="43.76335" lon="6.99014">
        <ele>545.204834</ele>
        <time>2012-01-15T13:36:13+01:00</time>
      </trkpt>
      <trkpt lat="43.76338" lon="6.99013">
        <ele>546.16626</ele>
        <time>2012-01-15T13:36:18+01:00</time>
      </trkpt>
      <trkpt lat="43.76342" lon="6.9901">
        <ele>546.16626</ele>
        <time>2012-01-15T13:36:23+01:00</time>
      </trkpt>
      <trkpt lat="43.76342" lon="6.99009">
        <ele>545.204834</ele>
        <time>2012-01-15T13:36:29+01:00</time>
      </trkpt>
      <trkpt lat="43.7634" lon="6.99012">
        <ele>545.204834</ele>
        <time>2012-01-15T13:36:31+01:00</time>
      </trkpt>
      <trkpt lat="43.76329" lon="6.99014">
        <ele>541.84021</ele>
        <time>2012-01-15T13:36:36+01:00</time>
      </trkpt>
      <trkpt lat="43.76325" lon="6.99015">
        <ele>540.878906</ele>
        <time>2012-01-15T13:36:38+01:00</time>
      </trkpt>
      <trkpt lat="43.76324" lon="6.99017">
        <ele>540.398315</ele>
        <time>2012-01-15T13:36:42+01:00</time>
      </trkpt>
      <trkpt lat="43.76323" lon="6.99017">
        <ele>540.398315</ele>
        <time>2012-01-15T13:37:00+01:00</time>
      </trkpt>
      <trkpt lat="43.76323" lon="6.99019">
        <ele>541.84021</ele>
        <time>2012-01-15T13:37:29+01:00</time>
      </trkpt>
      <trkpt lat="43.76325" lon="6.99025">
        <ele>539.917603</ele>
        <time>2012-01-15T13:37:42+01:00</time>
      </trkpt>
      <trkpt lat="43.7632" lon="6.99042">
        <ele>539.43689</ele>
        <time>2012-01-15T13:37:47+01:00</time>
      </trkpt>
      <trkpt lat="43.76309" lon="6.99068">
        <ele>537.033691</ele>
        <time>2012-01-15T13:37:51+01:00</time>
      </trkpt>
      <trkpt lat="43.763" lon="6.99077">
        <ele>535.591553</ele>
        <time>2012-01-15T13:37:53+01:00</time>
      </trkpt>
      <trkpt lat="43.76285" lon="6.99093">
        <ele>533.188354</ele>
        <time>2012-01-15T13:37:57+01:00</time>
      </trkpt>
      <trkpt lat="43.76276" lon="6.99102">
        <ele>533.188354</ele>
        <time>2012-01-15T13:38:01+01:00</time>
      </trkpt>
      <trkpt lat="43.76273" lon="6.99105">
        <ele>533.188354</ele>
        <time>2012-01-15T13:38:03+01:00</time>
      </trkpt>
      <trkpt lat="43.7627" lon="6.99116">
        <ele>532.707764</ele>
        <time>2012-01-15T13:38:10+01:00</time>
      </trkpt>
      <trkpt lat="43.76265" lon="6.99125">
        <ele>533.188354</ele>
        <time>2012-01-15T13:38:17+01:00</time>
      </trkpt>
      <trkpt lat="43.76261" lon="6.99131">
        <ele>533.668945</ele>
        <time>2012-01-15T13:38:22+01:00</time>
      </trkpt>
      <trkpt lat="43.7626" lon="6.99133">
        <ele>534.149658</ele>
        <time>2012-01-15T13:38:23+01:00</time>
      </trkpt>
      <trkpt lat="43.76248" lon="6.99146">
        <ele>536.072388</ele>
        <time>2012-01-15T13:38:31+01:00</time>
      </trkpt>
      <trkpt lat="43.7624" lon="6.99155">
        <ele>538.956299</ele>
        <time>2012-01-15T13:38:37+01:00</time>
      </trkpt>
      <trkpt lat="43.76227" lon="6.9917">
        <ele>541.359497</ele>
        <time>2012-01-15T13:38:46+01:00</time>
      </trkpt>
      <trkpt lat="43.76213" lon="6.99184">
        <ele>543.282104</ele>
        <time>2012-01-15T13:38:54+01:00</time>
      </trkpt>
      <trkpt lat="43.76196" lon="6.99197">
        <ele>546.16626</ele>
        <time>2012-01-15T13:39:01+01:00</time>
      </trkpt>
      <trkpt lat="43.7618" lon="6.99211">
        <ele>545.685547</ele>
        <time>2012-01-15T13:39:08+01:00</time>
      </trkpt>
      <trkpt lat="43.76173" lon="6.99222">
        <ele>544.243652</ele>
        <time>2012-01-15T13:39:15+01:00</time>
      </trkpt>
      <trkpt lat="43.76169" lon="6.99227">
        <ele>543.762817</ele>
        <time>2012-01-15T13:39:19+01:00</time>
      </trkpt>
      <trkpt lat="43.76162" lon="6.99238">
        <ele>544.243652</ele>
        <time>2012-01-15T13:39:27+01:00</time>
      </trkpt>
      <trkpt lat="43.76157" lon="6.99248">
        <ele>544.243652</ele>
        <time>2012-01-15T13:39:34+01:00</time>
      </trkpt>
      <trkpt lat="43.76152" lon="6.99256">
        <ele>543.762817</ele>
        <time>2012-01-15T13:39:41+01:00</time>
      </trkpt>
      <trkpt lat="43.76151" lon="6.99258">
        <ele>544.724243</ele>
        <time>2012-01-15T13:39:43+01:00</time>
      </trkpt>
      <trkpt lat="43.76147" lon="6.99265">
        <ele>545.204834</ele>
        <time>2012-01-15T13:39:48+01:00</time>
      </trkpt>
      <trkpt lat="43.76144" lon="6.9927">
        <ele>543.282104</ele>
        <time>2012-01-15T13:39:53+01:00</time>
      </trkpt>
      <trkpt lat="43.76139" lon="6.99274">
        <ele>543.762817</ele>
        <time>2012-01-15T13:39:58+01:00</time>
      </trkpt>
      <trkpt lat="43.76133" lon="6.99278">
        <ele>543.762817</ele>
        <time>2012-01-15T13:40:04+01:00</time>
      </trkpt>
      <trkpt lat="43.76127" lon="6.99282">
        <ele>545.685547</ele>
        <time>2012-01-15T13:40:10+01:00</time>
      </trkpt>
      <trkpt lat="43.76126" lon="6.99282">
        <ele>546.16626</ele>
        <time>2012-01-15T13:40:11+01:00</time>
      </trkpt>
      <trkpt lat="43.76118" lon="6.99286">
        <ele>549.530762</ele>
        <time>2012-01-15T13:40:18+01:00</time>
      </trkpt>
      <trkpt lat="43.76113" lon="6.99289">
        <ele>550.972656</ele>
        <time>2012-01-15T13:40:23+01:00</time>
      </trkpt>
      <trkpt lat="43.7611" lon="6.99294">
        <ele>550.492188</ele>
        <time>2012-01-15T13:40:27+01:00</time>
      </trkpt>
      <trkpt lat="43.76101" lon="6.99296">
        <ele>553.375977</ele>
        <time>2012-01-15T13:40:34+01:00</time>
      </trkpt>
      <trkpt lat="43.761" lon="6.99296">
        <ele>553.856689</ele>
        <time>2012-01-15T13:40:35+01:00</time>
      </trkpt>
      <trkpt lat="43.76089" lon="6.99298">
        <ele>557.702148</ele>
        <time>2012-01-15T13:40:44+01:00</time>
      </trkpt>
      <trkpt lat="43.76086" lon="6.99299">
        <ele>558.182861</ele>
        <time>2012-01-15T13:40:47+01:00</time>
      </trkpt>
      <trkpt lat="43.76081" lon="6.99301">
        <ele>561.06665</ele>
        <time>2012-01-15T13:40:52+01:00</time>
      </trkpt>
      <trkpt lat="43.76072" lon="6.99304">
        <ele>563.469971</ele>
        <time>2012-01-15T13:40:59+01:00</time>
      </trkpt>
      <trkpt lat="43.76066" lon="6.99306">
        <ele>565.392578</ele>
        <time>2012-01-15T13:41:04+01:00</time>
      </trkpt>
      <trkpt lat="43.76059" lon="6.9931">
        <ele>566.834473</ele>
        <time>2012-01-15T13:41:11+01:00</time>
      </trkpt>
      <trkpt lat="43.76057" lon="6.99312">
        <ele>566.834473</ele>
        <time>2012-01-15T13:41:28+01:00</time>
      </trkpt>
      <trkpt lat="43.76053" lon="6.99313">
        <ele>567.795654</ele>
        <time>2012-01-15T13:41:32+01:00</time>
      </trkpt>
      <trkpt lat="43.7605" lon="6.99313">
        <ele>568.75708</ele>
        <time>2012-01-15T13:41:37+01:00</time>
      </trkpt>
      <trkpt lat="43.76047" lon="6.99314">
        <ele>568.276367</ele>
        <time>2012-01-15T13:41:43+01:00</time>
      </trkpt>
      <trkpt lat="43.76046" lon="6.99315">
        <ele>568.276367</ele>
        <time>2012-01-15T13:41:49+01:00</time>
      </trkpt>
      <trkpt lat="43.76045" lon="6.99317">
        <ele>567.795654</ele>
        <time>2012-01-15T13:41:58+01:00</time>
      </trkpt>
      <trkpt lat="43.76042" lon="6.99321">
        <ele>567.315186</ele>
        <time>2012-01-15T13:42:02+01:00</time>
      </trkpt>
      <trkpt lat="43.76036" lon="6.99326">
        <ele>568.276367</ele>
        <time>2012-01-15T13:42:08+01:00</time>
      </trkpt>
      <trkpt lat="43.76033" lon="6.99329">
        <ele>568.75708</ele>
        <time>2012-01-15T13:42:13+01:00</time>
      </trkpt>
      <trkpt lat="43.76027" lon="6.99333">
        <ele>569.718506</ele>
        <time>2012-01-15T13:42:22+01:00</time>
      </trkpt>
      <trkpt lat="43.76024" lon="6.99337">
        <ele>565.873291</ele>
        <time>2012-01-15T13:42:27+01:00</time>
      </trkpt>
      <trkpt lat="43.76019" lon="6.99339">
        <ele>572.121826</ele>
        <time>2012-01-15T13:42:37+01:00</time>
      </trkpt>
      <trkpt lat="43.76016" lon="6.99341">
        <ele>573.083252</ele>
        <time>2012-01-15T13:42:40+01:00</time>
      </trkpt>
      <trkpt lat="43.76003" lon="6.9934">
        <ele>574.044434</ele>
        <time>2012-01-15T13:42:48+01:00</time>
      </trkpt>
      <trkpt lat="43.75993" lon="6.99336">
        <ele>572.602539</ele>
        <time>2012-01-15T13:42:53+01:00</time>
      </trkpt>
      <trkpt lat="43.75982" lon="6.99336">
        <ele>573.083252</ele>
        <time>2012-01-15T13:42:59+01:00</time>
      </trkpt>
      <trkpt lat="43.75969" lon="6.99341">
        <ele>575.967041</ele>
        <time>2012-01-15T13:43:06+01:00</time>
      </trkpt>
      <trkpt lat="43.75968" lon="6.99342">
        <ele>579.812256</ele>
        <time>2012-01-15T13:43:10+01:00</time>
      </trkpt>
      <trkpt lat="43.75967" lon="6.99342">
        <ele>582.696289</ele>
        <time>2012-01-15T13:43:17+01:00</time>
      </trkpt>
      <trkpt lat="43.75968" lon="6.9934">
        <ele>582.215576</ele>
        <time>2012-01-15T13:43:24+01:00</time>
      </trkpt>
      <trkpt lat="43.7597" lon="6.9934">
        <ele>585.580078</ele>
        <time>2012-01-15T13:43:36+01:00</time>
      </trkpt>
      <trkpt lat="43.75973" lon="6.99341">
        <ele>583.657471</ele>
        <time>2012-01-15T13:43:53+01:00</time>
      </trkpt>
      <trkpt lat="43.75972" lon="6.99325">
        <ele>603.845215</ele>
        <time>2012-01-15T13:44:13+01:00</time>
      </trkpt>
      <trkpt lat="43.75967" lon="6.99325">
        <ele>604.326172</ele>
        <time>2012-01-15T13:44:20+01:00</time>
      </trkpt>
      <trkpt lat="43.75967" lon="6.9934">
        <ele>592.790283</ele>
        <time>2012-01-15T13:44:58+01:00</time>
      </trkpt>
      <trkpt lat="43.75969" lon="6.9934">
        <ele>586.541504</ele>
        <time>2012-01-15T13:45:14+01:00</time>
      </trkpt>
      <trkpt lat="43.75967" lon="6.99343">
        <ele>584.138184</ele>
        <time>2012-01-15T13:45:19+01:00</time>
      </trkpt>
      <trkpt lat="43.75958" lon="6.99355">
        <ele>582.215576</ele>
        <time>2012-01-15T13:45:24+01:00</time>
      </trkpt>
      <trkpt lat="43.75942" lon="6.9937">
        <ele>583.657471</ele>
        <time>2012-01-15T13:45:30+01:00</time>
      </trkpt>
      <trkpt lat="43.75927" lon="6.99378">
        <ele>583.176758</ele>
        <time>2012-01-15T13:45:35+01:00</time>
      </trkpt>
      <trkpt lat="43.75915" lon="6.99377">
        <ele>580.773682</ele>
        <time>2012-01-15T13:45:41+01:00</time>
      </trkpt>
      <trkpt lat="43.75904" lon="6.99367">
        <ele>580.773682</ele>
        <time>2012-01-15T13:45:46+01:00</time>
      </trkpt>
      <trkpt lat="43.75893" lon="6.99356">
        <ele>580.773682</ele>
        <time>2012-01-15T13:45:52+01:00</time>
      </trkpt>
      <trkpt lat="43.7588" lon="6.99349">
        <ele>581.734863</ele>
        <time>2012-01-15T13:45:58+01:00</time>
      </trkpt>
      <trkpt lat="43.75864" lon="6.99348">
        <ele>581.254395</ele>
        <time>2012-01-15T13:46:02+01:00</time>
      </trkpt>
      <trkpt lat="43.7584" lon="6.99356">
        <ele>579.812256</ele>
        <time>2012-01-15T13:46:06+01:00</time>
      </trkpt>
      <trkpt lat="43.75807" lon="6.99367">
        <ele>577.40918</ele>
        <time>2012-01-15T13:46:12+01:00</time>
      </trkpt>
      <trkpt lat="43.75789" lon="6.9937">
        <ele>577.889648</ele>
        <time>2012-01-15T13:46:15+01:00</time>
      </trkpt>
      <trkpt lat="43.75772" lon="6.99368">
        <ele>578.370361</ele>
        <time>2012-01-15T13:46:18+01:00</time>
      </trkpt>
      <trkpt lat="43.75749" lon="6.99375">
        <ele>577.40918</ele>
        <time>2012-01-15T13:46:23+01:00</time>
      </trkpt>
      <trkpt lat="43.75728" lon="6.99398">
        <ele>578.370361</ele>
        <time>2012-01-15T13:46:29+01:00</time>
      </trkpt>
      <trkpt lat="43.75716" lon="6.99416">
        <ele>580.292969</ele>
        <time>2012-01-15T13:46:33+01:00</time>
      </trkpt>
      <trkpt lat="43.7569" lon="6.99448">
        <ele>583.176758</ele>
        <time>2012-01-15T13:46:41+01:00</time>
      </trkpt>
      <trkpt lat="43.75687" lon="6.99453">
        <ele>583.657471</ele>
        <time>2012-01-15T13:46:42+01:00</time>
      </trkpt>
      <trkpt lat="43.75666" lon="6.99477">
        <ele>580.773682</ele>
        <time>2012-01-15T13:46:47+01:00</time>
      </trkpt>
      <trkpt lat="43.7565" lon="6.99492">
        <ele>575.967041</ele>
        <time>2012-01-15T13:46:50+01:00</time>
      </trkpt>
      <trkpt lat="43.75639" lon="6.99522">
        <ele>571.640869</ele>
        <time>2012-01-15T13:46:54+01:00</time>
      </trkpt>
      <trkpt lat="43.75629" lon="6.99551">
        <ele>571.640869</ele>
        <time>2012-01-15T13:46:57+01:00</time>
      </trkpt>
      <trkpt lat="43.75602" lon="6.99591">
        <ele>570.198975</ele>
        <time>2012-01-15T13:47:02+01:00</time>
      </trkpt>
      <trkpt lat="43.7558" lon="6.9961">
        <ele>569.237793</ele>
        <time>2012-01-15T13:47:06+01:00</time>
      </trkpt>
      <trkpt lat="43.75556" lon="6.99634">
        <ele>571.1604</ele>
        <time>2012-01-15T13:47:12+01:00</time>
      </trkpt>
      <trkpt lat="43.75553" lon="6.99637">
        <ele>571.1604</ele>
        <time>2012-01-15T13:47:13+01:00</time>
      </trkpt>
      <trkpt lat="43.75548" lon="6.99647">
        <ele>570.679688</ele>
        <time>2012-01-15T13:47:16+01:00</time>
      </trkpt>
      <trkpt lat="43.75544" lon="6.99663">
        <ele>568.75708</ele>
        <time>2012-01-15T13:47:22+01:00</time>
      </trkpt>
      <trkpt lat="43.75545" lon="6.99688">
        <ele>566.35376</ele>
        <time>2012-01-15T13:47:27+01:00</time>
      </trkpt>
      <trkpt lat="43.7555" lon="6.99719">
        <ele>564.911865</ele>
        <time>2012-01-15T13:47:32+01:00</time>
      </trkpt>
      <trkpt lat="43.75551" lon="6.99773">
        <ele>561.547363</ele>
        <time>2012-01-15T13:47:38+01:00</time>
      </trkpt>
      <trkpt lat="43.75551" lon="6.99782">
        <ele>561.06665</ele>
        <time>2012-01-15T13:47:39+01:00</time>
      </trkpt>
      <trkpt lat="43.75545" lon="6.99821">
        <ele>562.028076</ele>
        <time>2012-01-15T13:47:43+01:00</time>
      </trkpt>
      <trkpt lat="43.75522" lon="6.99863">
        <ele>558.182861</ele>
        <time>2012-01-15T13:47:48+01:00</time>
      </trkpt>
      <trkpt lat="43.75508" lon="6.99871">
        <ele>555.779297</ele>
        <time>2012-01-15T13:47:51+01:00</time>
      </trkpt>
      <trkpt lat="43.75496" lon="6.99887">
        <ele>553.375977</ele>
        <time>2012-01-15T13:47:57+01:00</time>
      </trkpt>
      <trkpt lat="43.75489" lon="6.99901">
        <ele>554.817871</ele>
        <time>2012-01-15T13:48:02+01:00</time>
      </trkpt>
      <trkpt lat="43.75474" lon="6.9991">
        <ele>559.624756</ele>
        <time>2012-01-15T13:48:09+01:00</time>
      </trkpt>
      <trkpt lat="43.75459" lon="6.99919">
        <ele>565.392578</ele>
        <time>2012-01-15T13:48:16+01:00</time>
      </trkpt>
      <trkpt lat="43.75452" lon="6.99919">
        <ele>565.392578</ele>
        <time>2012-01-15T13:48:21+01:00</time>
      </trkpt>
      <trkpt lat="43.75449" lon="6.99923">
        <ele>565.873291</ele>
        <time>2012-01-15T13:48:26+01:00</time>
      </trkpt>
      <trkpt lat="43.75451" lon="6.99922">
        <ele>566.834473</ele>
        <time>2012-01-15T13:48:29+01:00</time>
      </trkpt>
      <trkpt lat="43.75456" lon="6.99919">
        <ele>568.276367</ele>
        <time>2012-01-15T13:48:36+01:00</time>
      </trkpt>
      <trkpt lat="43.75456" lon="6.99921">
        <ele>568.75708</ele>
        <time>2012-01-15T13:48:50+01:00</time>
      </trkpt>
      <trkpt lat="43.75454" lon="6.99922">
        <ele>567.795654</ele>
        <time>2012-01-15T13:48:52+01:00</time>
      </trkpt>
      <trkpt lat="43.75447" lon="6.99924">
        <ele>565.392578</ele>
        <time>2012-01-15T13:48:57+01:00</time>
      </trkpt>
      <trkpt lat="43.75446" lon="6.99925">
        <ele>565.392578</ele>
        <time>2012-01-15T13:48:58+01:00</time>
      </trkpt>
      <trkpt lat="43.75443" lon="6.9993">
        <ele>566.35376</ele>
        <time>2012-01-15T13:49:03+01:00</time>
      </trkpt>
      <trkpt lat="43.75437" lon="6.99932">
        <ele>567.315186</ele>
        <time>2012-01-15T13:49:20+01:00</time>
      </trkpt>
      <trkpt lat="43.7543" lon="6.99943">
        <ele>568.276367</ele>
        <time>2012-01-15T13:49:27+01:00</time>
      </trkpt>
      <trkpt lat="43.75423" lon="6.99953">
        <ele>569.237793</ele>
        <time>2012-01-15T13:49:34+01:00</time>
      </trkpt>
      <trkpt lat="43.75421" lon="6.99956">
        <ele>578.851074</ele>
        <time>2012-01-15T13:49:45+01:00</time>
      </trkpt>
      <trkpt lat="43.7542" lon="6.99957">
        <ele>585.580078</ele>
        <time>2012-01-15T13:50:12+01:00</time>
      </trkpt>
      <trkpt lat="43.7542" lon="6.99956">
        <ele>579.331543</ele>
        <time>2012-01-15T13:50:23+01:00</time>
      </trkpt>
      <trkpt lat="43.75422" lon="6.99956">
        <ele>572.602539</ele>
        <time>2012-01-15T13:50:37+01:00</time>
      </trkpt>
      <trkpt lat="43.75422" lon="6.99958">
        <ele>572.602539</ele>
        <time>2012-01-15T13:50:41+01:00</time>
      </trkpt>
      <trkpt lat="43.75421" lon="6.99958">
        <ele>572.121826</ele>
        <time>2012-01-15T13:50:50+01:00</time>
      </trkpt>
      <trkpt lat="43.75419" lon="6.99964">
        <ele>570.198975</ele>
        <time>2012-01-15T13:50:54+01:00</time>
      </trkpt>
      <trkpt lat="43.75415" lon="6.9998">
        <ele>568.276367</ele>
        <time>2012-01-15T13:50:58+01:00</time>
      </trkpt>
      <trkpt lat="43.75407" lon="6.99996">
        <ele>565.392578</ele>
        <time>2012-01-15T13:51:01+01:00</time>
      </trkpt>
      <trkpt lat="43.75387" lon="6.99999">
        <ele>561.06665</ele>
        <time>2012-01-15T13:51:05+01:00</time>
      </trkpt>
      <trkpt lat="43.75377" lon="6.99998">
        <ele>558.66333</ele>
        <time>2012-01-15T13:51:07+01:00</time>
      </trkpt>
      <trkpt lat="43.75365" lon="6.99994">
        <ele>554.817871</ele>
        <time>2012-01-15T13:51:10+01:00</time>
      </trkpt>
      <trkpt lat="43.75362" lon="7.00001">
        <ele>553.856689</ele>
        <time>2012-01-15T13:51:14+01:00</time>
      </trkpt>
      <trkpt lat="43.75364" lon="7.00002">
        <ele>553.375977</ele>
        <time>2012-01-15T13:51:15+01:00</time>
      </trkpt>
      <trkpt lat="43.75376" lon="7.00008">
        <ele>552.895264</ele>
        <time>2012-01-15T13:51:21+01:00</time>
      </trkpt>
      <trkpt lat="43.75386" lon="7.00016">
        <ele>552.895264</ele>
        <time>2012-01-15T13:51:27+01:00</time>
      </trkpt>
      <trkpt lat="43.75394" lon="7.00028">
        <ele>551.934082</ele>
        <time>2012-01-15T13:51:33+01:00</time>
      </trkpt>
      <trkpt lat="43.75397" lon="7.00047">
        <ele>550.492188</ele>
        <time>2012-01-15T13:51:40+01:00</time>
      </trkpt>
      <trkpt lat="43.75396" lon="7.00069">
        <ele>550.011475</ele>
        <time>2012-01-15T13:51:48+01:00</time>
      </trkpt>
      <trkpt lat="43.75394" lon="7.0009">
        <ele>550.011475</ele>
        <time>2012-01-15T13:51:55+01:00</time>
      </trkpt>
      <trkpt lat="43.75391" lon="7.00116">
        <ele>552.414551</ele>
        <time>2012-01-15T13:52:03+01:00</time>
      </trkpt>
      <trkpt lat="43.75392" lon="7.00127">
        <ele>552.414551</ele>
        <time>2012-01-15T13:52:08+01:00</time>
      </trkpt>
      <trkpt lat="43.75392" lon="7.00129">
        <ele>552.414551</ele>
        <time>2012-01-15T13:52:09+01:00</time>
      </trkpt>
      <trkpt lat="43.75391" lon="7.00137">
        <ele>552.895264</ele>
        <time>2012-01-15T13:52:13+01:00</time>
      </trkpt>
      <trkpt lat="43.75395" lon="7.00157">
        <ele>553.375977</ele>
        <time>2012-01-15T13:52:21+01:00</time>
      </trkpt>
      <trkpt lat="43.75402" lon="7.00177">
        <ele>554.817871</ele>
        <time>2012-01-15T13:52:31+01:00</time>
      </trkpt>
      <trkpt lat="43.75407" lon="7.00191">
        <ele>557.221436</ele>
        <time>2012-01-15T13:52:37+01:00</time>
      </trkpt>
      <trkpt lat="43.75416" lon="7.00208">
        <ele>558.182861</ele>
        <time>2012-01-15T13:52:44+01:00</time>
      </trkpt>
      <trkpt lat="43.75426" lon="7.00224">
        <ele>557.221436</ele>
        <time>2012-01-15T13:52:51+01:00</time>
      </trkpt>
      <trkpt lat="43.75435" lon="7.00244">
        <ele>556.740723</ele>
        <time>2012-01-15T13:52:58+01:00</time>
      </trkpt>
      <trkpt lat="43.75438" lon="7.00266">
        <ele>556.740723</ele>
        <time>2012-01-15T13:53:05+01:00</time>
      </trkpt>
      <trkpt lat="43.75434" lon="7.00288">
        <ele>559.624756</ele>
        <time>2012-01-15T13:53:12+01:00</time>
      </trkpt>
      <trkpt lat="43.75425" lon="7.00309">
        <ele>559.624756</ele>
        <time>2012-01-15T13:53:20+01:00</time>
      </trkpt>
      <trkpt lat="43.75418" lon="7.00323">
        <ele>560.105225</ele>
        <time>2012-01-15T13:53:27+01:00</time>
      </trkpt>
      <trkpt lat="43.75408" lon="7.00343">
        <ele>561.06665</ele>
        <time>2012-01-15T13:53:35+01:00</time>
      </trkpt>
      <trkpt lat="43.75399" lon="7.00365">
        <ele>561.06665</ele>
        <time>2012-01-15T13:53:43+01:00</time>
      </trkpt>
      <trkpt lat="43.75388" lon="7.00393">
        <ele>562.028076</ele>
        <time>2012-01-15T13:53:52+01:00</time>
      </trkpt>
      <trkpt lat="43.75379" lon="7.00414">
        <ele>562.989258</ele>
        <time>2012-01-15T13:54:00+01:00</time>
      </trkpt>
      <trkpt lat="43.75371" lon="7.00429">
        <ele>563.469971</ele>
        <time>2012-01-15T13:54:07+01:00</time>
      </trkpt>
      <trkpt lat="43.75371" lon="7.0043">
        <ele>563.469971</ele>
        <time>2012-01-15T13:54:08+01:00</time>
      </trkpt>
      <trkpt lat="43.75364" lon="7.00444">
        <ele>564.911865</ele>
        <time>2012-01-15T13:54:15+01:00</time>
      </trkpt>
      <trkpt lat="43.75355" lon="7.00462">
        <ele>566.35376</ele>
        <time>2012-01-15T13:54:23+01:00</time>
      </trkpt>
      <trkpt lat="43.75347" lon="7.00476">
        <ele>566.834473</ele>
        <time>2012-01-15T13:54:30+01:00</time>
      </trkpt>
      <trkpt lat="43.75341" lon="7.00489">
        <ele>566.35376</ele>
        <time>2012-01-15T13:54:36+01:00</time>
      </trkpt>
      <trkpt lat="43.75331" lon="7.00506">
        <ele>566.834473</ele>
        <time>2012-01-15T13:54:44+01:00</time>
      </trkpt>
      <trkpt lat="43.75323" lon="7.00519">
        <ele>568.276367</ele>
        <time>2012-01-15T13:54:50+01:00</time>
      </trkpt>
      <trkpt lat="43.75311" lon="7.00539">
        <ele>569.237793</ele>
        <time>2012-01-15T13:54:59+01:00</time>
      </trkpt>
      <trkpt lat="43.75296" lon="7.00557">
        <ele>571.640869</ele>
        <time>2012-01-15T13:55:08+01:00</time>
      </trkpt>
      <trkpt lat="43.75287" lon="7.00563">
        <ele>572.121826</ele>
        <time>2012-01-15T13:55:14+01:00</time>
      </trkpt>
      <trkpt lat="43.75274" lon="7.00575">
        <ele>573.083252</ele>
        <time>2012-01-15T13:55:21+01:00</time>
      </trkpt>
      <trkpt lat="43.75262" lon="7.00584">
        <ele>573.083252</ele>
        <time>2012-01-15T13:55:27+01:00</time>
      </trkpt>
      <trkpt lat="43.75247" lon="7.00596">
        <ele>573.083252</ele>
        <time>2012-01-15T13:55:35+01:00</time>
      </trkpt>
      <trkpt lat="43.75236" lon="7.00603">
        <ele>573.083252</ele>
        <time>2012-01-15T13:55:41+01:00</time>
      </trkpt>
      <trkpt lat="43.75225" lon="7.00611">
        <ele>573.563965</ele>
        <time>2012-01-15T13:55:47+01:00</time>
      </trkpt>
      <trkpt lat="43.75215" lon="7.00618">
        <ele>574.044434</ele>
        <time>2012-01-15T13:55:53+01:00</time>
      </trkpt>
      <trkpt lat="43.752" lon="7.00628">
        <ele>574.044434</ele>
        <time>2012-01-15T13:56:02+01:00</time>
      </trkpt>
      <trkpt lat="43.75185" lon="7.00637">
        <ele>575.005859</ele>
        <time>2012-01-15T13:56:10+01:00</time>
      </trkpt>
      <trkpt lat="43.75172" lon="7.00643">
        <ele>574.525146</ele>
        <time>2012-01-15T13:56:18+01:00</time>
      </trkpt>
      <trkpt lat="43.75158" lon="7.00651">
        <ele>574.044434</ele>
        <time>2012-01-15T13:56:26+01:00</time>
      </trkpt>
      <trkpt lat="43.75147" lon="7.00656">
        <ele>573.563965</ele>
        <time>2012-01-15T13:56:32+01:00</time>
      </trkpt>
      <trkpt lat="43.75136" lon="7.00662">
        <ele>573.563965</ele>
        <time>2012-01-15T13:56:38+01:00</time>
      </trkpt>
      <trkpt lat="43.75126" lon="7.00667">
        <ele>573.563965</ele>
        <time>2012-01-15T13:56:44+01:00</time>
      </trkpt>
      <trkpt lat="43.75112" lon="7.00674">
        <ele>573.083252</ele>
        <time>2012-01-15T13:56:52+01:00</time>
      </trkpt>
      <trkpt lat="43.751" lon="7.00679">
        <ele>574.044434</ele>
        <time>2012-01-15T13:56:59+01:00</time>
      </trkpt>
      <trkpt lat="43.75088" lon="7.00682">
        <ele>575.486328</ele>
        <time>2012-01-15T13:57:06+01:00</time>
      </trkpt>
      <trkpt lat="43.7508" lon="7.00684">
        <ele>576.928467</ele>
        <time>2012-01-15T13:57:10+01:00</time>
      </trkpt>
      <trkpt lat="43.75072" lon="7.00685">
        <ele>578.370361</ele>
        <time>2012-01-15T13:57:15+01:00</time>
      </trkpt>
      <trkpt lat="43.75054" lon="7.0069">
        <ele>580.773682</ele>
        <time>2012-01-15T13:57:24+01:00</time>
      </trkpt>
      <trkpt lat="43.75038" lon="7.00693">
        <ele>580.292969</ele>
        <time>2012-01-15T13:57:32+01:00</time>
      </trkpt>
      <trkpt lat="43.75025" lon="7.00696">
        <ele>583.176758</ele>
        <time>2012-01-15T13:57:38+01:00</time>
      </trkpt>
      <trkpt lat="43.75005" lon="7.00702">
        <ele>583.657471</ele>
        <time>2012-01-15T13:57:47+01:00</time>
      </trkpt>
      <trkpt lat="43.74994" lon="7.00704">
        <ele>582.696289</ele>
        <time>2012-01-15T13:57:53+01:00</time>
      </trkpt>
      <trkpt lat="43.74977" lon="7.00706">
        <ele>585.099609</ele>
        <time>2012-01-15T13:58:01+01:00</time>
      </trkpt>
      <trkpt lat="43.7496" lon="7.00703">
        <ele>586.060791</ele>
        <time>2012-01-15T13:58:09+01:00</time>
      </trkpt>
      <trkpt lat="43.74948" lon="7.007">
        <ele>586.060791</ele>
        <time>2012-01-15T13:58:15+01:00</time>
      </trkpt>
      <trkpt lat="43.74938" lon="7.00701">
        <ele>586.541504</ele>
        <time>2012-01-15T13:58:20+01:00</time>
      </trkpt>
      <trkpt lat="43.74924" lon="7.00711">
        <ele>587.502686</ele>
        <time>2012-01-15T13:58:28+01:00</time>
      </trkpt>
      <trkpt lat="43.74908" lon="7.00719">
        <ele>590.386963</ele>
        <time>2012-01-15T13:58:35+01:00</time>
      </trkpt>
      <trkpt lat="43.74893" lon="7.00721">
        <ele>591.828857</ele>
        <time>2012-01-15T13:58:42+01:00</time>
      </trkpt>
      <trkpt lat="43.74882" lon="7.00719">
        <ele>591.348145</ele>
        <time>2012-01-15T13:58:47+01:00</time>
      </trkpt>
      <trkpt lat="43.74872" lon="7.00725">
        <ele>592.30957</ele>
        <time>2012-01-15T13:58:52+01:00</time>
      </trkpt>
      <trkpt lat="43.74861" lon="7.00742">
        <ele>594.232178</ele>
        <time>2012-01-15T13:58:59+01:00</time>
      </trkpt>
      <trkpt lat="43.74853" lon="7.00758">
        <ele>597.115967</ele>
        <time>2012-01-15T13:59:05+01:00</time>
      </trkpt>
      <trkpt lat="43.74855" lon="7.00774">
        <ele>597.59668</ele>
        <time>2012-01-15T13:59:10+01:00</time>
      </trkpt>
      <trkpt lat="43.74859" lon="7.00795">
        <ele>598.077393</ele>
        <time>2012-01-15T13:59:16+01:00</time>
      </trkpt>
      <trkpt lat="43.74853" lon="7.00811">
        <ele>598.077393</ele>
        <time>2012-01-15T13:59:22+01:00</time>
      </trkpt>
      <trkpt lat="43.74852" lon="7.00813">
        <ele>598.077393</ele>
        <time>2012-01-15T13:59:23+01:00</time>
      </trkpt>
      <trkpt lat="43.74847" lon="7.00817">
        <ele>597.59668</ele>
        <time>2012-01-15T13:59:26+01:00</time>
      </trkpt>
      <trkpt lat="43.74832" lon="7.00822">
        <ele>596.635498</ele>
        <time>2012-01-15T13:59:34+01:00</time>
      </trkpt>
      <trkpt lat="43.74815" lon="7.00829">
        <ele>595.674072</ele>
        <time>2012-01-15T13:59:42+01:00</time>
      </trkpt>
      <trkpt lat="43.74797" lon="7.00826">
        <ele>599.038574</ele>
        <time>2012-01-15T13:59:50+01:00</time>
      </trkpt>
      <trkpt lat="43.74781" lon="7.00821">
        <ele>596.154785</ele>
        <time>2012-01-15T13:59:58+01:00</time>
      </trkpt>
      <trkpt lat="43.74768" lon="7.00817">
        <ele>597.115967</ele>
        <time>2012-01-15T14:00:04+01:00</time>
      </trkpt>
      <trkpt lat="43.74764" lon="7.00818">
        <ele>596.635498</ele>
        <time>2012-01-15T14:00:06+01:00</time>
      </trkpt>
      <trkpt lat="43.74747" lon="7.00828">
        <ele>599.519287</ele>
        <time>2012-01-15T14:00:14+01:00</time>
      </trkpt>
      <trkpt lat="43.74735" lon="7.0084">
        <ele>600.961182</ele>
        <time>2012-01-15T14:00:20+01:00</time>
      </trkpt>
      <trkpt lat="43.74718" lon="7.00856">
        <ele>602.403076</ele>
        <time>2012-01-15T14:00:29+01:00</time>
      </trkpt>
      <trkpt lat="43.74704" lon="7.00869">
        <ele>601.922607</ele>
        <time>2012-01-15T14:00:37+01:00</time>
      </trkpt>
      <trkpt lat="43.74695" lon="7.00877">
        <ele>601.441895</ele>
        <time>2012-01-15T14:00:43+01:00</time>
      </trkpt>
      <trkpt lat="43.74685" lon="7.00885">
        <ele>602.403076</ele>
        <time>2012-01-15T14:00:50+01:00</time>
      </trkpt>
      <trkpt lat="43.74676" lon="7.00899">
        <ele>603.845215</ele>
        <time>2012-01-15T14:00:57+01:00</time>
      </trkpt>
      <trkpt lat="43.74669" lon="7.0091">
        <ele>603.845215</ele>
        <time>2012-01-15T14:01:02+01:00</time>
      </trkpt>
      <trkpt lat="43.74656" lon="7.00922">
        <ele>605.768066</ele>
        <time>2012-01-15T14:01:09+01:00</time>
      </trkpt>
      <trkpt lat="43.74639" lon="7.00933">
        <ele>608.171387</ele>
        <time>2012-01-15T14:01:17+01:00</time>
      </trkpt>
      <trkpt lat="43.74626" lon="7.00942">
        <ele>609.613281</ele>
        <time>2012-01-15T14:01:24+01:00</time>
      </trkpt>
      <trkpt lat="43.74618" lon="7.00945">
        <ele>609.132568</ele>
        <time>2012-01-15T14:01:30+01:00</time>
      </trkpt>
      <trkpt lat="43.74609" lon="7.00952">
        <ele>610.09375</ele>
        <time>2012-01-15T14:01:36+01:00</time>
      </trkpt>
      <trkpt lat="43.74602" lon="7.00955">
        <ele>610.574463</ele>
        <time>2012-01-15T14:01:41+01:00</time>
      </trkpt>
      <trkpt lat="43.74593" lon="7.00958">
        <ele>609.613281</ele>
        <time>2012-01-15T14:01:47+01:00</time>
      </trkpt>
      <trkpt lat="43.74581" lon="7.00959">
        <ele>609.613281</ele>
        <time>2012-01-15T14:01:54+01:00</time>
      </trkpt>
      <trkpt lat="43.74579" lon="7.00959">
        <ele>609.613281</ele>
        <time>2012-01-15T14:01:55+01:00</time>
      </trkpt>
      <trkpt lat="43.74572" lon="7.00957">
        <ele>609.613281</ele>
        <time>2012-01-15T14:01:59+01:00</time>
      </trkpt>
      <trkpt lat="43.7456" lon="7.00952">
        <ele>609.132568</ele>
        <time>2012-01-15T14:02:06+01:00</time>
      </trkpt>
      <trkpt lat="43.74551" lon="7.00947">
        <ele>611.055176</ele>
        <time>2012-01-15T14:02:11+01:00</time>
      </trkpt>
      <trkpt lat="43.74539" lon="7.00939">
        <ele>610.574463</ele>
        <time>2012-01-15T14:02:17+01:00</time>
      </trkpt>
      <trkpt lat="43.74522" lon="7.00923">
        <ele>610.574463</ele>
        <time>2012-01-15T14:02:26+01:00</time>
      </trkpt>
      <trkpt lat="43.74507" lon="7.00917">
        <ele>612.016602</ele>
        <time>2012-01-15T14:02:33+01:00</time>
      </trkpt>
      <trkpt lat="43.74487" lon="7.00917">
        <ele>613.938965</ele>
        <time>2012-01-15T14:02:41+01:00</time>
      </trkpt>
      <trkpt lat="43.74473" lon="7.00915">
        <ele>615.381104</ele>
        <time>2012-01-15T14:02:47+01:00</time>
      </trkpt>
      <trkpt lat="43.74459" lon="7.00914">
        <ele>616.822998</ele>
        <time>2012-01-15T14:02:53+01:00</time>
      </trkpt>
      <trkpt lat="43.74448" lon="7.00914">
        <ele>617.303711</ele>
        <time>2012-01-15T14:02:58+01:00</time>
      </trkpt>
      <trkpt lat="43.74429" lon="7.00912">
        <ele>618.264893</ele>
        <time>2012-01-15T14:03:06+01:00</time>
      </trkpt>
      <trkpt lat="43.74415" lon="7.00907">
        <ele>620.668457</ele>
        <time>2012-01-15T14:03:13+01:00</time>
      </trkpt>
      <trkpt lat="43.74407" lon="7.00903">
        <ele>620.668457</ele>
        <time>2012-01-15T14:03:17+01:00</time>
      </trkpt>
      <trkpt lat="43.74401" lon="7.00899">
        <ele>621.14917</ele>
        <time>2012-01-15T14:03:22+01:00</time>
      </trkpt>
      <trkpt lat="43.74398" lon="7.00897">
        <ele>620.668457</ele>
        <time>2012-01-15T14:03:25+01:00</time>
      </trkpt>
      <trkpt lat="43.74394" lon="7.009">
        <ele>622.110352</ele>
        <time>2012-01-15T14:03:30+01:00</time>
      </trkpt>
      <trkpt lat="43.7439" lon="7.00905">
        <ele>624.032959</ele>
        <time>2012-01-15T14:03:34+01:00</time>
      </trkpt>
      <trkpt lat="43.74386" lon="7.0091">
        <ele>625.474854</ele>
        <time>2012-01-15T14:03:38+01:00</time>
      </trkpt>
      <trkpt lat="43.74389" lon="7.00924">
        <ele>629.800781</ele>
        <time>2012-01-15T14:03:46+01:00</time>
      </trkpt>
      <trkpt lat="43.74388" lon="7.00926">
        <ele>630.281494</ele>
        <time>2012-01-15T14:03:47+01:00</time>
      </trkpt>
      <trkpt lat="43.74385" lon="7.00932">
        <ele>631.24292</ele>
        <time>2012-01-15T14:03:51+01:00</time>
      </trkpt>
      <trkpt lat="43.74383" lon="7.00933">
        <ele>630.762207</ele>
        <time>2012-01-15T14:04:00+01:00</time>
      </trkpt>
      <trkpt lat="43.74383" lon="7.00935">
        <ele>628.8396</ele>
        <time>2012-01-15T14:04:05+01:00</time>
      </trkpt>
      <trkpt lat="43.74383" lon="7.00937">
        <ele>629.320068</ele>
        <time>2012-01-15T14:04:12+01:00</time>
      </trkpt>
      <trkpt lat="43.74382" lon="7.00933">
        <ele>631.24292</ele>
        <time>2012-01-15T14:04:18+01:00</time>
      </trkpt>
      <trkpt lat="43.74382" lon="7.00935">
        <ele>631.24292</ele>
        <time>2012-01-15T14:04:25+01:00</time>
      </trkpt>
      <trkpt lat="43.74381" lon="7.00939">
        <ele>632.684814</ele>
        <time>2012-01-15T14:04:31+01:00</time>
      </trkpt>
      <trkpt lat="43.74378" lon="7.00945">
        <ele>627.878174</ele>
        <time>2012-01-15T14:04:47+01:00</time>
      </trkpt>
      <trkpt lat="43.74377" lon="7.00946">
        <ele>627.878174</ele>
        <time>2012-01-15T14:04:48+01:00</time>
      </trkpt>
      <trkpt lat="43.74372" lon="7.00954">
        <ele>627.878174</ele>
        <time>2012-01-15T14:04:54+01:00</time>
      </trkpt>
      <trkpt lat="43.74365" lon="7.00967">
        <ele>631.723389</ele>
        <time>2012-01-15T14:05:03+01:00</time>
      </trkpt>
      <trkpt lat="43.74363" lon="7.00969">
        <ele>632.684814</ele>
        <time>2012-01-15T14:05:05+01:00</time>
      </trkpt>
      <trkpt lat="43.74355" lon="7.00975">
        <ele>635.088135</ele>
        <time>2012-01-15T14:05:11+01:00</time>
      </trkpt>
      <trkpt lat="43.74349" lon="7.00971">
        <ele>634.126709</ele>
        <time>2012-01-15T14:05:16+01:00</time>
      </trkpt>
      <trkpt lat="43.74344" lon="7.00965">
        <ele>633.165283</ele>
        <time>2012-01-15T14:05:22+01:00</time>
      </trkpt>
      <trkpt lat="43.74338" lon="7.00959">
        <ele>634.126709</ele>
        <time>2012-01-15T14:05:27+01:00</time>
      </trkpt>
      <trkpt lat="43.74329" lon="7.00957">
        <ele>637.010742</ele>
        <time>2012-01-15T14:05:32+01:00</time>
      </trkpt>
      <trkpt lat="43.74319" lon="7.00957">
        <ele>639.894775</ele>
        <time>2012-01-15T14:05:39+01:00</time>
      </trkpt>
      <trkpt lat="43.74313" lon="7.0096">
        <ele>640.855957</ele>
        <time>2012-01-15T14:05:44+01:00</time>
      </trkpt>
      <trkpt lat="43.74308" lon="7.00967">
        <ele>640.855957</ele>
        <time>2012-01-15T14:05:51+01:00</time>
      </trkpt>
      <trkpt lat="43.74306" lon="7.00969">
        <ele>640.375488</ele>
        <time>2012-01-15T14:05:53+01:00</time>
      </trkpt>
      <trkpt lat="43.74303" lon="7.00972">
        <ele>641.33667</ele>
        <time>2012-01-15T14:05:58+01:00</time>
      </trkpt>
      <trkpt lat="43.743" lon="7.00974">
        <ele>643.73999</ele>
        <time>2012-01-15T14:06:07+01:00</time>
      </trkpt>
      <trkpt lat="43.74297" lon="7.00977">
        <ele>645.181885</ele>
        <time>2012-01-15T14:06:12+01:00</time>
      </trkpt>
      <trkpt lat="43.74294" lon="7.00983">
        <ele>647.585205</ele>
        <time>2012-01-15T14:06:20+01:00</time>
      </trkpt>
      <trkpt lat="43.74291" lon="7.00986">
        <ele>647.585205</ele>
        <time>2012-01-15T14:06:25+01:00</time>
      </trkpt>
      <trkpt lat="43.74291" lon="7.00985">
        <ele>646.143311</ele>
        <time>2012-01-15T14:06:31+01:00</time>
      </trkpt>
      <trkpt lat="43.74288" lon="7.00988">
        <ele>646.624023</ele>
        <time>2012-01-15T14:06:38+01:00</time>
      </trkpt>
      <trkpt lat="43.74286" lon="7.0099">
        <ele>646.624023</ele>
        <time>2012-01-15T14:06:42+01:00</time>
      </trkpt>
      <trkpt lat="43.74283" lon="7.00994">
        <ele>649.988525</ele>
        <time>2012-01-15T14:06:48+01:00</time>
      </trkpt>
      <trkpt lat="43.74282" lon="7.00995">
        <ele>650.949707</ele>
        <time>2012-01-15T14:06:57+01:00</time>
      </trkpt>
      <trkpt lat="43.74278" lon="7.00997">
        <ele>650.949707</ele>
        <time>2012-01-15T14:07:02+01:00</time>
      </trkpt>
      <trkpt lat="43.74275" lon="7.00999">
        <ele>649.988525</ele>
        <time>2012-01-15T14:07:06+01:00</time>
      </trkpt>
      <trkpt lat="43.74274" lon="7.01001">
        <ele>649.0271</ele>
        <time>2012-01-15T14:07:12+01:00</time>
      </trkpt>
      <trkpt lat="43.74273" lon="7.01002">
        <ele>649.0271</ele>
        <time>2012-01-15T14:07:13+01:00</time>
      </trkpt>
      <trkpt lat="43.74263" lon="7.01008">
        <ele>649.0271</ele>
        <time>2012-01-15T14:07:20+01:00</time>
      </trkpt>
      <trkpt lat="43.74254" lon="7.0102">
        <ele>651.43042</ele>
        <time>2012-01-15T14:07:27+01:00</time>
      </trkpt>
      <trkpt lat="43.74247" lon="7.0103">
        <ele>651.911133</ele>
        <time>2012-01-15T14:07:33+01:00</time>
      </trkpt>
      <trkpt lat="43.74242" lon="7.0104">
        <ele>651.43042</ele>
        <time>2012-01-15T14:07:40+01:00</time>
      </trkpt>
      <trkpt lat="43.7424" lon="7.01044">
        <ele>650.949707</ele>
        <time>2012-01-15T14:07:43+01:00</time>
      </trkpt>
      <trkpt lat="43.7424" lon="7.01051">
        <ele>651.43042</ele>
        <time>2012-01-15T14:07:47+01:00</time>
      </trkpt>
      <trkpt lat="43.7424" lon="7.01063">
        <ele>650.949707</ele>
        <time>2012-01-15T14:07:53+01:00</time>
      </trkpt>
      <trkpt lat="43.74241" lon="7.01074">
        <ele>652.872559</ele>
        <time>2012-01-15T14:07:59+01:00</time>
      </trkpt>
      <trkpt lat="43.74241" lon="7.01083">
        <ele>654.795166</ele>
        <time>2012-01-15T14:08:05+01:00</time>
      </trkpt>
      <trkpt lat="43.74241" lon="7.01088">
        <ele>655.275879</ele>
        <time>2012-01-15T14:08:08+01:00</time>
      </trkpt>
      <trkpt lat="43.74233" lon="7.01095">
        <ele>658.640381</ele>
        <time>2012-01-15T14:08:16+01:00</time>
      </trkpt>
      <trkpt lat="43.74226" lon="7.011">
        <ele>660.562988</ele>
        <time>2012-01-15T14:08:22+01:00</time>
      </trkpt>
      <trkpt lat="43.74224" lon="7.011">
        <ele>661.043701</ele>
        <time>2012-01-15T14:08:23+01:00</time>
      </trkpt>
      <trkpt lat="43.74221" lon="7.01103">
        <ele>662.005127</ele>
        <time>2012-01-15T14:08:29+01:00</time>
      </trkpt>
      <trkpt lat="43.7422" lon="7.01104">
        <ele>662.966309</ele>
        <time>2012-01-15T14:08:33+01:00</time>
      </trkpt>
      <trkpt lat="43.74221" lon="7.01103">
        <ele>662.966309</ele>
        <time>2012-01-15T14:08:47+01:00</time>
      </trkpt>
      <trkpt lat="43.74221" lon="7.01103">
        <ele>662.485596</ele>
        <time>2012-01-15T14:08:59+01:00</time>
      </trkpt>
      <trkpt lat="43.74221" lon="7.01103">
        <ele>660.562988</ele>
        <time>2012-01-15T14:09:12+01:00</time>
      </trkpt>
      <trkpt lat="43.7422" lon="7.01103">
        <ele>660.562988</ele>
        <time>2012-01-15T14:09:23+01:00</time>
      </trkpt>
      <trkpt lat="43.74222" lon="7.01103">
        <ele>653.833984</ele>
        <time>2012-01-15T14:09:31+01:00</time>
      </trkpt>
      <trkpt lat="43.74223" lon="7.01105">
        <ele>653.353271</ele>
        <time>2012-01-15T14:09:41+01:00</time>
      </trkpt>
      <trkpt lat="43.74223" lon="7.01103">
        <ele>656.717773</ele>
        <time>2012-01-15T14:09:52+01:00</time>
      </trkpt>
      <trkpt lat="43.74221" lon="7.01104">
        <ele>660.562988</ele>
        <time>2012-01-15T14:10:00+01:00</time>
      </trkpt>
      <trkpt lat="43.74221" lon="7.01105">
        <ele>665.369629</ele>
        <time>2012-01-15T14:10:17+01:00</time>
      </trkpt>
      <trkpt lat="43.74219" lon="7.01105">
        <ele>664.408203</ele>
        <time>2012-01-15T14:10:35+01:00</time>
      </trkpt>
      <trkpt lat="43.74211" lon="7.01108">
        <ele>665.369629</ele>
        <time>2012-01-15T14:10:40+01:00</time>
      </trkpt>
      <trkpt lat="43.742" lon="7.01111">
        <ele>665.369629</ele>
        <time>2012-01-15T14:10:48+01:00</time>
      </trkpt>
      <trkpt lat="43.74191" lon="7.01113">
        <ele>665.369629</ele>
        <time>2012-01-15T14:10:55+01:00</time>
      </trkpt>
      <trkpt lat="43.74183" lon="7.01119">
        <ele>665.850342</ele>
        <time>2012-01-15T14:11:02+01:00</time>
      </trkpt>
      <trkpt lat="43.74181" lon="7.0112">
        <ele>665.850342</ele>
        <time>2012-01-15T14:11:04+01:00</time>
      </trkpt>
      <trkpt lat="43.74179" lon="7.01125">
        <ele>671.618164</ele>
        <time>2012-01-15T14:11:16+01:00</time>
      </trkpt>
      <trkpt lat="43.74174" lon="7.01128">
        <ele>671.137695</ele>
        <time>2012-01-15T14:11:22+01:00</time>
      </trkpt>
      <trkpt lat="43.74173" lon="7.0113">
        <ele>673.060303</ele>
        <time>2012-01-15T14:11:27+01:00</time>
      </trkpt>
      <trkpt lat="43.74173" lon="7.01129">
        <ele>672.098877</ele>
        <time>2012-01-15T14:11:38+01:00</time>
      </trkpt>
      <trkpt lat="43.74174" lon="7.01126">
        <ele>672.098877</ele>
        <time>2012-01-15T14:11:44+01:00</time>
      </trkpt>
      <trkpt lat="43.74174" lon="7.01125">
        <ele>674.502197</ele>
        <time>2012-01-15T14:11:54+01:00</time>
      </trkpt>
      <trkpt lat="43.74176" lon="7.01124">
        <ele>673.541016</ele>
        <time>2012-01-15T14:11:56+01:00</time>
      </trkpt>
      <trkpt lat="43.74179" lon="7.01121">
        <ele>672.57959</ele>
        <time>2012-01-15T14:11:59+01:00</time>
      </trkpt>
      <trkpt lat="43.74179" lon="7.01118">
        <ele>673.541016</ele>
        <time>2012-01-15T14:12:04+01:00</time>
      </trkpt>
      <trkpt lat="43.74193" lon="7.01112">
        <ele>670.656982</ele>
        <time>2012-01-15T14:12:10+01:00</time>
      </trkpt>
      <trkpt lat="43.74208" lon="7.0111">
        <ele>668.253662</ele>
        <time>2012-01-15T14:12:14+01:00</time>
      </trkpt>
      <trkpt lat="43.7422" lon="7.01108">
        <ele>663.92749</ele>
        <time>2012-01-15T14:12:19+01:00</time>
      </trkpt>
      <trkpt lat="43.74226" lon="7.01115">
        <ele>662.966309</ele>
        <time>2012-01-15T14:12:24+01:00</time>
      </trkpt>
      <trkpt lat="43.74233" lon="7.01123">
        <ele>665.369629</ele>
        <time>2012-01-15T14:12:30+01:00</time>
      </trkpt>
      <trkpt lat="43.74237" lon="7.01127">
        <ele>665.850342</ele>
        <time>2012-01-15T14:12:33+01:00</time>
      </trkpt>
      <trkpt lat="43.74235" lon="7.01135">
        <ele>666.330811</ele>
        <time>2012-01-15T14:12:38+01:00</time>
      </trkpt>
      <trkpt lat="43.74232" lon="7.01138">
        <ele>665.850342</ele>
        <time>2012-01-15T14:12:41+01:00</time>
      </trkpt>
      <trkpt lat="43.74222" lon="7.01142">
        <ele>666.330811</ele>
        <time>2012-01-15T14:12:50+01:00</time>
      </trkpt>
      <trkpt lat="43.74216" lon="7.01145">
        <ele>665.850342</ele>
        <time>2012-01-15T14:12:56+01:00</time>
      </trkpt>
      <trkpt lat="43.74214" lon="7.01146">
        <ele>666.330811</ele>
        <time>2012-01-15T14:12:58+01:00</time>
      </trkpt>
      <trkpt lat="43.74207" lon="7.01148">
        <ele>667.772705</ele>
        <time>2012-01-15T14:13:04+01:00</time>
      </trkpt>
      <trkpt lat="43.74196" lon="7.01153">
        <ele>671.137695</ele>
        <time>2012-01-15T14:13:14+01:00</time>
      </trkpt>
      <trkpt lat="43.74189" lon="7.01157">
        <ele>672.098877</ele>
        <time>2012-01-15T14:13:21+01:00</time>
      </trkpt>
      <trkpt lat="43.74182" lon="7.01162">
        <ele>673.060303</ele>
        <time>2012-01-15T14:13:28+01:00</time>
      </trkpt>
      <trkpt lat="43.74181" lon="7.01163">
        <ele>675.463379</ele>
        <time>2012-01-15T14:13:35+01:00</time>
      </trkpt>
      <trkpt lat="43.74179" lon="7.01165">
        <ele>676.905518</ele>
        <time>2012-01-15T14:13:44+01:00</time>
      </trkpt>
      <trkpt lat="43.74172" lon="7.0117">
        <ele>678.828125</ele>
        <time>2012-01-15T14:13:50+01:00</time>
      </trkpt>
      <trkpt lat="43.74164" lon="7.01179">
        <ele>681.231445</ele>
        <time>2012-01-15T14:13:58+01:00</time>
      </trkpt>
      <trkpt lat="43.74156" lon="7.01188">
        <ele>684.115479</ele>
        <time>2012-01-15T14:14:06+01:00</time>
      </trkpt>
      <trkpt lat="43.74146" lon="7.01198">
        <ele>686.038086</ele>
        <time>2012-01-15T14:14:15+01:00</time>
      </trkpt>
      <trkpt lat="43.74137" lon="7.01201">
        <ele>687.47998</ele>
        <time>2012-01-15T14:14:22+01:00</time>
      </trkpt>
      <trkpt lat="43.74133" lon="7.01201">
        <ele>687.47998</ele>
        <time>2012-01-15T14:14:27+01:00</time>
      </trkpt>
      <trkpt lat="43.74131" lon="7.01201">
        <ele>688.441406</ele>
        <time>2012-01-15T14:14:33+01:00</time>
      </trkpt>
      <trkpt lat="43.74132" lon="7.01205">
        <ele>683.153809</ele>
        <time>2012-01-15T14:15:04+01:00</time>
      </trkpt>
      <trkpt lat="43.74133" lon="7.01204">
        <ele>686.999268</ele>
        <time>2012-01-15T14:15:19+01:00</time>
      </trkpt>
      <trkpt lat="43.74132" lon="7.01201">
        <ele>692.767334</ele>
        <time>2012-01-15T14:15:47+01:00</time>
      </trkpt>
      <trkpt lat="43.74126" lon="7.01193">
        <ele>690.844482</ele>
        <time>2012-01-15T14:15:52+01:00</time>
      </trkpt>
      <trkpt lat="43.74123" lon="7.01179">
        <ele>688.922119</ele>
        <time>2012-01-15T14:15:58+01:00</time>
      </trkpt>
      <trkpt lat="43.74123" lon="7.01174">
        <ele>687.960693</ele>
        <time>2012-01-15T14:16:00+01:00</time>
      </trkpt>
      <trkpt lat="43.74117" lon="7.0117">
        <ele>689.402588</ele>
        <time>2012-01-15T14:16:05+01:00</time>
      </trkpt>
      <trkpt lat="43.74115" lon="7.01176">
        <ele>689.402588</ele>
        <time>2012-01-15T14:16:08+01:00</time>
      </trkpt>
      <trkpt lat="43.74115" lon="7.01193">
        <ele>688.922119</ele>
        <time>2012-01-15T14:16:16+01:00</time>
      </trkpt>
      <trkpt lat="43.74117" lon="7.01209">
        <ele>690.364014</ele>
        <time>2012-01-15T14:16:23+01:00</time>
      </trkpt>
      <trkpt lat="43.74121" lon="7.01221">
        <ele>691.805908</ele>
        <time>2012-01-15T14:16:28+01:00</time>
      </trkpt>
      <trkpt lat="43.74128" lon="7.01232">
        <ele>692.767334</ele>
        <time>2012-01-15T14:16:35+01:00</time>
      </trkpt>
      <trkpt lat="43.74138" lon="7.0124">
        <ele>696.131836</ele>
        <time>2012-01-15T14:16:42+01:00</time>
      </trkpt>
      <trkpt lat="43.74148" lon="7.0125">
        <ele>697.57373</ele>
        <time>2012-01-15T14:16:50+01:00</time>
      </trkpt>
      <trkpt lat="43.74157" lon="7.01259">
        <ele>697.093018</ele>
        <time>2012-01-15T14:16:57+01:00</time>
      </trkpt>
      <trkpt lat="43.74165" lon="7.01268">
        <ele>698.534912</ele>
        <time>2012-01-15T14:17:04+01:00</time>
      </trkpt>
      <trkpt lat="43.74173" lon="7.01277">
        <ele>700.938477</ele>
        <time>2012-01-15T14:17:11+01:00</time>
      </trkpt>
      <trkpt lat="43.74175" lon="7.01287">
        <ele>702.380371</ele>
        <time>2012-01-15T14:17:17+01:00</time>
      </trkpt>
      <trkpt lat="43.7417" lon="7.01294">
        <ele>703.341797</ele>
        <time>2012-01-15T14:17:22+01:00</time>
      </trkpt>
      <trkpt lat="43.7416" lon="7.01296">
        <ele>704.303223</ele>
        <time>2012-01-15T14:17:28+01:00</time>
      </trkpt>
      <trkpt lat="43.74146" lon="7.01299">
        <ele>705.264404</ele>
        <time>2012-01-15T14:17:36+01:00</time>
      </trkpt>
      <trkpt lat="43.74135" lon="7.01303">
        <ele>707.187012</ele>
        <time>2012-01-15T14:17:43+01:00</time>
      </trkpt>
      <trkpt lat="43.74125" lon="7.01308">
        <ele>709.109619</ele>
        <time>2012-01-15T14:17:50+01:00</time>
      </trkpt>
      <trkpt lat="43.74115" lon="7.01306">
        <ele>711.512939</ele>
        <time>2012-01-15T14:17:57+01:00</time>
      </trkpt>
      <trkpt lat="43.74106" lon="7.01299">
        <ele>711.032227</ele>
        <time>2012-01-15T14:18:03+01:00</time>
      </trkpt>
      <trkpt lat="43.74104" lon="7.01296">
        <ele>710.551514</ele>
        <time>2012-01-15T14:18:05+01:00</time>
      </trkpt>
      <trkpt lat="43.74095" lon="7.01289">
        <ele>709.590332</ele>
        <time>2012-01-15T14:18:11+01:00</time>
      </trkpt>
      <trkpt lat="43.74084" lon="7.0128">
        <ele>708.628906</ele>
        <time>2012-01-15T14:18:19+01:00</time>
      </trkpt>
      <trkpt lat="43.74072" lon="7.01272">
        <ele>708.148438</ele>
        <time>2012-01-15T14:18:25+01:00</time>
      </trkpt>
      <trkpt lat="43.74057" lon="7.01263">
        <ele>708.148438</ele>
        <time>2012-01-15T14:18:32+01:00</time>
      </trkpt>
      <trkpt lat="43.74046" lon="7.01255">
        <ele>709.590332</ele>
        <time>2012-01-15T14:18:39+01:00</time>
      </trkpt>
      <trkpt lat="43.74033" lon="7.01254">
        <ele>711.032227</ele>
        <time>2012-01-15T14:18:46+01:00</time>
      </trkpt>
      <trkpt lat="43.74023" lon="7.0126">
        <ele>711.993652</ele>
        <time>2012-01-15T14:18:52+01:00</time>
      </trkpt>
      <trkpt lat="43.74011" lon="7.01268">
        <ele>713.916016</ele>
        <time>2012-01-15T14:19:00+01:00</time>
      </trkpt>
      <trkpt lat="43.74011" lon="7.01269">
        <ele>715.358154</ele>
        <time>2012-01-15T14:19:07+01:00</time>
      </trkpt>
      <trkpt lat="43.74006" lon="7.01271">
        <ele>716.31958</ele>
        <time>2012-01-15T14:19:11+01:00</time>
      </trkpt>
      <trkpt lat="43.73991" lon="7.01282">
        <ele>717.281006</ele>
        <time>2012-01-15T14:19:17+01:00</time>
      </trkpt>
      <trkpt lat="43.73975" lon="7.0129">
        <ele>718.242188</ele>
        <time>2012-01-15T14:19:24+01:00</time>
      </trkpt>
      <trkpt lat="43.73973" lon="7.01289">
        <ele>718.7229</ele>
        <time>2012-01-15T14:19:25+01:00</time>
      </trkpt>
      <trkpt lat="43.73969" lon="7.01285">
        <ele>718.7229</ele>
        <time>2012-01-15T14:19:28+01:00</time>
      </trkpt>
      <trkpt lat="43.73954" lon="7.01287">
        <ele>722.087402</ele>
        <time>2012-01-15T14:19:36+01:00</time>
      </trkpt>
      <trkpt lat="43.73947" lon="7.01296">
        <ele>724.971436</ele>
        <time>2012-01-15T14:19:42+01:00</time>
      </trkpt>
      <trkpt lat="43.7394" lon="7.01302">
        <ele>726.894043</ele>
        <time>2012-01-15T14:19:47+01:00</time>
      </trkpt>
      <trkpt lat="43.73931" lon="7.01304">
        <ele>728.335938</ele>
        <time>2012-01-15T14:19:53+01:00</time>
      </trkpt>
      <trkpt lat="43.73922" lon="7.01304">
        <ele>728.81665</ele>
        <time>2012-01-15T14:20:00+01:00</time>
      </trkpt>
      <trkpt lat="43.73912" lon="7.01305">
        <ele>727.855225</ele>
        <time>2012-01-15T14:20:06+01:00</time>
      </trkpt>
      <trkpt lat="43.73902" lon="7.01307">
        <ele>728.335938</ele>
        <time>2012-01-15T14:20:12+01:00</time>
      </trkpt>
      <trkpt lat="43.73894" lon="7.01306">
        <ele>728.81665</ele>
        <time>2012-01-15T14:20:17+01:00</time>
      </trkpt>
      <trkpt lat="43.73887" lon="7.01308">
        <ele>732.181396</ele>
        <time>2012-01-15T14:20:23+01:00</time>
      </trkpt>
      <trkpt lat="43.73877" lon="7.01312">
        <ele>734.584717</ele>
        <time>2012-01-15T14:20:30+01:00</time>
      </trkpt>
      <trkpt lat="43.73869" lon="7.01315">
        <ele>736.507324</ele>
        <time>2012-01-15T14:20:36+01:00</time>
      </trkpt>
      <trkpt lat="43.7386" lon="7.01318">
        <ele>737.468506</ele>
        <time>2012-01-15T14:20:43+01:00</time>
      </trkpt>
      <trkpt lat="43.73852" lon="7.01323">
        <ele>738.910645</ele>
        <time>2012-01-15T14:20:50+01:00</time>
      </trkpt>
      <trkpt lat="43.73845" lon="7.01328">
        <ele>739.871826</ele>
        <time>2012-01-15T14:20:56+01:00</time>
      </trkpt>
      <trkpt lat="43.73837" lon="7.01332">
        <ele>740.352539</ele>
        <time>2012-01-15T14:21:02+01:00</time>
      </trkpt>
      <trkpt lat="43.73834" lon="7.01337">
        <ele>740.833008</ele>
        <time>2012-01-15T14:21:06+01:00</time>
      </trkpt>
      <trkpt lat="43.73834" lon="7.01337">
        <ele>741.794434</ele>
        <time>2012-01-15T14:21:16+01:00</time>
      </trkpt>
      <trkpt lat="43.73833" lon="7.01338">
        <ele>741.794434</ele>
        <time>2012-01-15T14:21:24+01:00</time>
      </trkpt>
      <trkpt lat="43.73833" lon="7.01342">
        <ele>741.313721</ele>
        <time>2012-01-15T14:21:38+01:00</time>
      </trkpt>
      <trkpt lat="43.73832" lon="7.01344">
        <ele>740.833008</ele>
        <time>2012-01-15T14:21:44+01:00</time>
      </trkpt>
      <trkpt lat="43.73833" lon="7.01344">
        <ele>739.871826</ele>
        <time>2012-01-15T14:21:53+01:00</time>
      </trkpt>
      <trkpt lat="43.73833" lon="7.01344">
        <ele>740.352539</ele>
        <time>2012-01-15T14:21:58+01:00</time>
      </trkpt>
      <trkpt lat="43.73832" lon="7.01342">
        <ele>745.158936</ele>
        <time>2012-01-15T14:22:27+01:00</time>
      </trkpt>
      <trkpt lat="43.7383" lon="7.01343">
        <ele>750.927002</ele>
        <time>2012-01-15T14:22:43+01:00</time>
      </trkpt>
      <trkpt lat="43.73831" lon="7.01343">
        <ele>752.849609</ele>
        <time>2012-01-15T14:22:52+01:00</time>
      </trkpt>
      <trkpt lat="43.73832" lon="7.01343">
        <ele>745.639648</ele>
        <time>2012-01-15T14:23:08+01:00</time>
      </trkpt>
      <trkpt lat="43.73832" lon="7.01344">
        <ele>743.236328</ele>
        <time>2012-01-15T14:23:18+01:00</time>
      </trkpt>
      <trkpt lat="43.73832" lon="7.01344">
        <ele>743.717041</ele>
        <time>2012-01-15T14:23:26+01:00</time>
      </trkpt>
      <trkpt lat="43.7383" lon="7.01346">
        <ele>748.523682</ele>
        <time>2012-01-15T14:23:45+01:00</time>
      </trkpt>
      <trkpt lat="43.7383" lon="7.01347">
        <ele>748.523682</ele>
        <time>2012-01-15T14:24:02+01:00</time>
      </trkpt>
      <trkpt lat="43.7383" lon="7.01348">
        <ele>748.523682</ele>
        <time>2012-01-15T14:24:07+01:00</time>
      </trkpt>
      <trkpt lat="43.73826" lon="7.01355">
        <ele>748.523682</ele>
        <time>2012-01-15T14:24:11+01:00</time>
      </trkpt>
      <trkpt lat="43.73822" lon="7.01372">
        <ele>748.043213</ele>
        <time>2012-01-15T14:24:19+01:00</time>
      </trkpt>
      <trkpt lat="43.73821" lon="7.01378">
        <ele>747.562256</ele>
        <time>2012-01-15T14:24:25+01:00</time>
      </trkpt>
      <trkpt lat="43.73821" lon="7.01386">
        <ele>747.562256</ele>
        <time>2012-01-15T14:24:31+01:00</time>
      </trkpt>
      <trkpt lat="43.73822" lon="7.01396">
        <ele>748.043213</ele>
        <time>2012-01-15T14:24:38+01:00</time>
      </trkpt>
      <trkpt lat="43.73822" lon="7.01397">
        <ele>748.043213</ele>
        <time>2012-01-15T14:24:39+01:00</time>
      </trkpt>
      <trkpt lat="43.7382" lon="7.01407">
        <ele>748.043213</ele>
        <time>2012-01-15T14:24:47+01:00</time>
      </trkpt>
      <trkpt lat="43.73817" lon="7.01414">
        <ele>747.562256</ele>
        <time>2012-01-15T14:24:53+01:00</time>
      </trkpt>
      <trkpt lat="43.73809" lon="7.01422">
        <ele>748.043213</ele>
        <time>2012-01-15T14:24:59+01:00</time>
      </trkpt>
      <trkpt lat="43.73804" lon="7.01431">
        <ele>749.485107</ele>
        <time>2012-01-15T14:25:05+01:00</time>
      </trkpt>
      <trkpt lat="43.738" lon="7.01442">
        <ele>752.368896</ele>
        <time>2012-01-15T14:25:12+01:00</time>
      </trkpt>
      <trkpt lat="43.73799" lon="7.01452">
        <ele>753.811035</ele>
        <time>2012-01-15T14:25:18+01:00</time>
      </trkpt>
      <trkpt lat="43.738" lon="7.01465">
        <ele>755.25293</ele>
        <time>2012-01-15T14:25:25+01:00</time>
      </trkpt>
      <trkpt lat="43.738" lon="7.01467">
        <ele>755.733643</ele>
        <time>2012-01-15T14:25:26+01:00</time>
      </trkpt>
      <trkpt lat="43.73795" lon="7.01474">
        <ele>756.694824</ele>
        <time>2012-01-15T14:25:31+01:00</time>
      </trkpt>
      <trkpt lat="43.73785" lon="7.01471">
        <ele>758.136963</ele>
        <time>2012-01-15T14:25:38+01:00</time>
      </trkpt>
      <trkpt lat="43.73774" lon="7.01462">
        <ele>760.540039</ele>
        <time>2012-01-15T14:25:46+01:00</time>
      </trkpt>
      <trkpt lat="43.73764" lon="7.01457">
        <ele>760.540039</ele>
        <time>2012-01-15T14:25:52+01:00</time>
      </trkpt>
      <trkpt lat="43.7376" lon="7.01456">
        <ele>761.020752</ele>
        <time>2012-01-15T14:25:55+01:00</time>
      </trkpt>
      <trkpt lat="43.73754" lon="7.01453">
        <ele>761.501465</ele>
        <time>2012-01-15T14:25:59+01:00</time>
      </trkpt>
      <trkpt lat="43.73739" lon="7.01447">
        <ele>762.943359</ele>
        <time>2012-01-15T14:26:07+01:00</time>
      </trkpt>
      <trkpt lat="43.73725" lon="7.01439">
        <ele>764.385498</ele>
        <time>2012-01-15T14:26:14+01:00</time>
      </trkpt>
      <trkpt lat="43.73711" lon="7.01435">
        <ele>765.346924</ele>
        <time>2012-01-15T14:26:22+01:00</time>
      </trkpt>
      <trkpt lat="43.73702" lon="7.01439">
        <ele>766.788818</ele>
        <time>2012-01-15T14:26:28+01:00</time>
      </trkpt>
      <trkpt lat="43.73692" lon="7.01451">
        <ele>769.192139</ele>
        <time>2012-01-15T14:26:36+01:00</time>
      </trkpt>
      <trkpt lat="43.73682" lon="7.01459">
        <ele>770.634033</ele>
        <time>2012-01-15T14:26:43+01:00</time>
      </trkpt>
      <trkpt lat="43.73673" lon="7.01465">
        <ele>772.556641</ele>
        <time>2012-01-15T14:26:50+01:00</time>
      </trkpt>
      <trkpt lat="43.73663" lon="7.01468">
        <ele>774.959961</ele>
        <time>2012-01-15T14:26:57+01:00</time>
      </trkpt>
      <trkpt lat="43.73655" lon="7.01473">
        <ele>774.959961</ele>
        <time>2012-01-15T14:27:07+01:00</time>
      </trkpt>
      <trkpt lat="43.73653" lon="7.01477">
        <ele>775.921143</ele>
        <time>2012-01-15T14:27:10+01:00</time>
      </trkpt>
      <trkpt lat="43.73651" lon="7.01487">
        <ele>776.401855</ele>
        <time>2012-01-15T14:27:17+01:00</time>
      </trkpt>
      <trkpt lat="43.73651" lon="7.01491">
        <ele>776.401855</ele>
        <time>2012-01-15T14:27:20+01:00</time>
      </trkpt>
      <trkpt lat="43.73652" lon="7.01503">
        <ele>776.401855</ele>
        <time>2012-01-15T14:27:27+01:00</time>
      </trkpt>
      <trkpt lat="43.73652" lon="7.01512">
        <ele>776.401855</ele>
        <time>2012-01-15T14:27:33+01:00</time>
      </trkpt>
      <trkpt lat="43.7365" lon="7.01529">
        <ele>775.921143</ele>
        <time>2012-01-15T14:27:43+01:00</time>
      </trkpt>
      <trkpt lat="43.73647" lon="7.01538">
        <ele>776.882568</ele>
        <time>2012-01-15T14:27:49+01:00</time>
      </trkpt>
      <trkpt lat="43.73645" lon="7.01552">
        <ele>778.805176</ele>
        <time>2012-01-15T14:27:57+01:00</time>
      </trkpt>
      <trkpt lat="43.73643" lon="7.01562">
        <ele>781.20874</ele>
        <time>2012-01-15T14:28:03+01:00</time>
      </trkpt>
      <trkpt lat="43.73639" lon="7.01575">
        <ele>783.131104</ele>
        <time>2012-01-15T14:28:10+01:00</time>
      </trkpt>
      <trkpt lat="43.73638" lon="7.01586">
        <ele>785.534424</ele>
        <time>2012-01-15T14:28:17+01:00</time>
      </trkpt>
      <trkpt lat="43.73639" lon="7.01599">
        <ele>786.976318</ele>
        <time>2012-01-15T14:28:25+01:00</time>
      </trkpt>
      <trkpt lat="43.73638" lon="7.01609">
        <ele>789.379639</ele>
        <time>2012-01-15T14:28:31+01:00</time>
      </trkpt>
      <trkpt lat="43.73635" lon="7.01618">
        <ele>791.782959</ele>
        <time>2012-01-15T14:28:38+01:00</time>
      </trkpt>
      <trkpt lat="43.7363" lon="7.01624">
        <ele>793.224854</ele>
        <time>2012-01-15T14:28:44+01:00</time>
      </trkpt>
      <trkpt lat="43.73624" lon="7.01631">
        <ele>795.628174</ele>
        <time>2012-01-15T14:28:51+01:00</time>
      </trkpt>
      <trkpt lat="43.7362" lon="7.0164">
        <ele>797.551025</ele>
        <time>2012-01-15T14:28:58+01:00</time>
      </trkpt>
      <trkpt lat="43.7362" lon="7.01641">
        <ele>798.512207</ele>
        <time>2012-01-15T14:29:04+01:00</time>
      </trkpt>
      <trkpt lat="43.73619" lon="7.01642">
        <ele>800.435059</ele>
        <time>2012-01-15T14:29:24+01:00</time>
      </trkpt>
      <trkpt lat="43.7362" lon="7.01639">
        <ele>801.39624</ele>
        <time>2012-01-15T14:29:51+01:00</time>
      </trkpt>
      <trkpt lat="43.73621" lon="7.01638">
        <ele>801.876953</ele>
        <time>2012-01-15T14:30:05+01:00</time>
      </trkpt>
      <trkpt lat="43.73622" lon="7.01637">
        <ele>803.318848</ele>
        <time>2012-01-15T14:30:50+01:00</time>
      </trkpt>
      <trkpt lat="43.7362" lon="7.01638">
        <ele>803.318848</ele>
        <time>2012-01-15T14:31:38+01:00</time>
      </trkpt>
      <trkpt lat="43.73624" lon="7.01639">
        <ele>804.760742</ele>
        <time>2012-01-15T14:32:00+01:00</time>
      </trkpt>
      <trkpt lat="43.73622" lon="7.01638">
        <ele>805.241455</ele>
        <time>2012-01-15T14:32:09+01:00</time>
      </trkpt>
      <trkpt lat="43.73619" lon="7.0164">
        <ele>805.722168</ele>
        <time>2012-01-15T14:33:10+01:00</time>
      </trkpt>
      <trkpt lat="43.73619" lon="7.01642">
        <ele>802.357422</ele>
        <time>2012-01-15T14:33:33+01:00</time>
      </trkpt>
      <trkpt lat="43.73618" lon="7.01644">
        <ele>802.357422</ele>
        <time>2012-01-15T14:33:46+01:00</time>
      </trkpt>
      <trkpt lat="43.73616" lon="7.01657">
        <ele>802.838135</ele>
        <time>2012-01-15T14:33:52+01:00</time>
      </trkpt>
      <trkpt lat="43.73615" lon="7.0167">
        <ele>805.241455</ele>
        <time>2012-01-15T14:33:58+01:00</time>
      </trkpt>
      <trkpt lat="43.73615" lon="7.01681">
        <ele>806.68335</ele>
        <time>2012-01-15T14:34:04+01:00</time>
      </trkpt>
      <trkpt lat="43.73616" lon="7.01685">
        <ele>807.644775</ele>
        <time>2012-01-15T14:34:10+01:00</time>
      </trkpt>
      <trkpt lat="43.73615" lon="7.01684">
        <ele>807.644775</ele>
        <time>2012-01-15T14:34:18+01:00</time>
      </trkpt>
      <trkpt lat="43.73614" lon="7.01685">
        <ele>808.125488</ele>
        <time>2012-01-15T14:34:33+01:00</time>
      </trkpt>
      <trkpt lat="43.73613" lon="7.01685">
        <ele>811.48999</ele>
        <time>2012-01-15T14:34:43+01:00</time>
      </trkpt>
      <trkpt lat="43.73612" lon="7.01688">
        <ele>812.451416</ele>
        <time>2012-01-15T14:34:51+01:00</time>
      </trkpt>
      <trkpt lat="43.7361" lon="7.01693">
        <ele>812.932129</ele>
        <time>2012-01-15T14:34:58+01:00</time>
      </trkpt>
      <trkpt lat="43.73589" lon="7.01766">
        <ele>837.92627</ele>
        <time>2012-01-15T14:37:30+01:00</time>
      </trkpt>
      <trkpt lat="43.73589" lon="7.01766">
        <ele>837.92627</ele>
        <time>2012-01-15T14:37:31+01:00</time>
      </trkpt>
      <trkpt lat="43.73588" lon="7.01764">
        <ele>840.32959</ele>
        <time>2012-01-15T14:37:43+01:00</time>
      </trkpt>
      <trkpt lat="43.73591" lon="7.01764">
        <ele>839.848877</ele>
        <time>2012-01-15T14:37:53+01:00</time>
      </trkpt>
      <trkpt lat="43.73592" lon="7.01764">
        <ele>837.92627</ele>
        <time>2012-01-15T14:38:10+01:00</time>
      </trkpt>
      <trkpt lat="43.73588" lon="7.01769">
        <ele>838.887695</ele>
        <time>2012-01-15T14:38:38+01:00</time>
      </trkpt>
      <trkpt lat="43.73586" lon="7.01771">
        <ele>838.406982</ele>
        <time>2012-01-15T14:38:48+01:00</time>
      </trkpt>
      <trkpt lat="43.73579" lon="7.01785">
        <ele>837.445557</ele>
        <time>2012-01-15T14:38:53+01:00</time>
      </trkpt>
      <trkpt lat="43.73572" lon="7.01789">
        <ele>836.964844</ele>
        <time>2012-01-15T14:38:56+01:00</time>
      </trkpt>
      <trkpt lat="43.73559" lon="7.01784">
        <ele>836.003662</ele>
        <time>2012-01-15T14:39:02+01:00</time>
      </trkpt>
      <trkpt lat="43.7355" lon="7.01778">
        <ele>835.04248</ele>
        <time>2012-01-15T14:39:07+01:00</time>
      </trkpt>
      <trkpt lat="43.73543" lon="7.01767">
        <ele>835.522949</ele>
        <time>2012-01-15T14:39:12+01:00</time>
      </trkpt>
      <trkpt lat="43.73542" lon="7.01754">
        <ele>835.04248</ele>
        <time>2012-01-15T14:39:17+01:00</time>
      </trkpt>
      <trkpt lat="43.73541" lon="7.01742">
        <ele>835.522949</ele>
        <time>2012-01-15T14:39:22+01:00</time>
      </trkpt>
      <trkpt lat="43.7354" lon="7.01736">
        <ele>836.003662</ele>
        <time>2012-01-15T14:39:24+01:00</time>
      </trkpt>
      <trkpt lat="43.73539" lon="7.01722">
        <ele>836.003662</ele>
        <time>2012-01-15T14:39:30+01:00</time>
      </trkpt>
      <trkpt lat="43.73539" lon="7.01713">
        <ele>836.964844</ele>
        <time>2012-01-15T14:39:33+01:00</time>
      </trkpt>
      <trkpt lat="43.73528" lon="7.01697">
        <ele>838.887695</ele>
        <time>2012-01-15T14:39:41+01:00</time>
      </trkpt>
      <trkpt lat="43.73514" lon="7.01678">
        <ele>839.368164</ele>
        <time>2012-01-15T14:39:47+01:00</time>
      </trkpt>
      <trkpt lat="43.73493" lon="7.01652">
        <ele>839.368164</ele>
        <time>2012-01-15T14:39:54+01:00</time>
      </trkpt>
      <trkpt lat="43.73475" lon="7.01639">
        <ele>838.406982</ele>
        <time>2012-01-15T14:40:00+01:00</time>
      </trkpt>
      <trkpt lat="43.73455" lon="7.01625">
        <ele>837.445557</ele>
        <time>2012-01-15T14:40:06+01:00</time>
      </trkpt>
      <trkpt lat="43.73437" lon="7.01609">
        <ele>836.964844</ele>
        <time>2012-01-15T14:40:12+01:00</time>
      </trkpt>
      <trkpt lat="43.73415" lon="7.01589">
        <ele>837.445557</ele>
        <time>2012-01-15T14:40:20+01:00</time>
      </trkpt>
      <trkpt lat="43.73401" lon="7.01576">
        <ele>838.406982</ele>
        <time>2012-01-15T14:40:26+01:00</time>
      </trkpt>
      <trkpt lat="43.73383" lon="7.01562">
        <ele>837.92627</ele>
        <time>2012-01-15T14:40:32+01:00</time>
      </trkpt>
      <trkpt lat="43.7336" lon="7.01545">
        <ele>837.445557</ele>
        <time>2012-01-15T14:40:38+01:00</time>
      </trkpt>
      <trkpt lat="43.73353" lon="7.01538">
        <ele>837.445557</ele>
        <time>2012-01-15T14:40:40+01:00</time>
      </trkpt>
      <trkpt lat="43.73333" lon="7.0151">
        <ele>837.92627</ele>
        <time>2012-01-15T14:40:48+01:00</time>
      </trkpt>
      <trkpt lat="43.73316" lon="7.01486">
        <ele>839.368164</ele>
        <time>2012-01-15T14:40:56+01:00</time>
      </trkpt>
      <trkpt lat="43.73295" lon="7.01464">
        <ele>840.32959</ele>
        <time>2012-01-15T14:41:05+01:00</time>
      </trkpt>
      <trkpt lat="43.73274" lon="7.01445">
        <ele>839.368164</ele>
        <time>2012-01-15T14:41:12+01:00</time>
      </trkpt>
      <trkpt lat="43.73256" lon="7.0143">
        <ele>839.368164</ele>
        <time>2012-01-15T14:41:18+01:00</time>
      </trkpt>
      <trkpt lat="43.73234" lon="7.01414">
        <ele>839.368164</ele>
        <time>2012-01-15T14:41:26+01:00</time>
      </trkpt>
      <trkpt lat="43.73225" lon="7.01402">
        <ele>840.32959</ele>
        <time>2012-01-15T14:41:32+01:00</time>
      </trkpt>
      <trkpt lat="43.73219" lon="7.01392">
        <ele>841.290771</ele>
        <time>2012-01-15T14:41:38+01:00</time>
      </trkpt>
      <trkpt lat="43.73213" lon="7.01381">
        <ele>843.213379</ele>
        <time>2012-01-15T14:41:44+01:00</time>
      </trkpt>
      <trkpt lat="43.73207" lon="7.0137">
        <ele>846.097656</ele>
        <time>2012-01-15T14:41:50+01:00</time>
      </trkpt>
      <trkpt lat="43.73202" lon="7.0136">
        <ele>848.500732</ele>
        <time>2012-01-15T14:41:56+01:00</time>
      </trkpt>
      <trkpt lat="43.73201" lon="7.01357">
        <ele>848.500732</ele>
        <time>2012-01-15T14:41:58+01:00</time>
      </trkpt>
      <trkpt lat="43.73196" lon="7.01354">
        <ele>848.981445</ele>
        <time>2012-01-15T14:42:02+01:00</time>
      </trkpt>
      <trkpt lat="43.73191" lon="7.01343">
        <ele>849.942871</ele>
        <time>2012-01-15T14:42:09+01:00</time>
      </trkpt>
      <trkpt lat="43.73183" lon="7.01334">
        <ele>850.904053</ele>
        <time>2012-01-15T14:42:17+01:00</time>
      </trkpt>
      <trkpt lat="43.73175" lon="7.01326">
        <ele>851.384766</ele>
        <time>2012-01-15T14:42:24+01:00</time>
      </trkpt>
      <trkpt lat="43.73167" lon="7.01319">
        <ele>852.82666</ele>
        <time>2012-01-15T14:42:31+01:00</time>
      </trkpt>
      <trkpt lat="43.7316" lon="7.01312">
        <ele>854.268799</ele>
        <time>2012-01-15T14:42:37+01:00</time>
      </trkpt>
      <trkpt lat="43.73155" lon="7.01309">
        <ele>854.749268</ele>
        <time>2012-01-15T14:42:43+01:00</time>
      </trkpt>
      <trkpt lat="43.73154" lon="7.0131">
        <ele>853.307373</ele>
        <time>2012-01-15T14:43:17+01:00</time>
      </trkpt>
      <trkpt lat="43.73153" lon="7.0131">
        <ele>853.307373</ele>
        <time>2012-01-15T14:43:38+01:00</time>
      </trkpt>
      <trkpt lat="43.73155" lon="7.01311">
        <ele>859.075195</ele>
        <time>2012-01-15T14:45:03+01:00</time>
      </trkpt>
      <trkpt lat="43.73149" lon="7.01307">
        <ele>859.075195</ele>
        <time>2012-01-15T14:45:08+01:00</time>
      </trkpt>
      <trkpt lat="43.73137" lon="7.01305">
        <ele>860.517334</ele>
        <time>2012-01-15T14:45:13+01:00</time>
      </trkpt>
      <trkpt lat="43.73118" lon="7.01305">
        <ele>860.517334</ele>
        <time>2012-01-15T14:45:21+01:00</time>
      </trkpt>
      <trkpt lat="43.73101" lon="7.01306">
        <ele>860.036621</ele>
        <time>2012-01-15T14:45:28+01:00</time>
      </trkpt>
      <trkpt lat="43.73098" lon="7.01304">
        <ele>860.517334</ele>
        <time>2012-01-15T14:45:29+01:00</time>
      </trkpt>
      <trkpt lat="43.73093" lon="7.01294">
        <ele>861.959473</ele>
        <time>2012-01-15T14:45:33+01:00</time>
      </trkpt>
      <trkpt lat="43.73086" lon="7.01273">
        <ele>863.401367</ele>
        <time>2012-01-15T14:45:40+01:00</time>
      </trkpt>
      <trkpt lat="43.7308" lon="7.01254">
        <ele>864.362549</ele>
        <time>2012-01-15T14:45:46+01:00</time>
      </trkpt>
      <trkpt lat="43.73074" lon="7.01239">
        <ele>864.843262</ele>
        <time>2012-01-15T14:45:51+01:00</time>
      </trkpt>
      <trkpt lat="43.73062" lon="7.01213">
        <ele>863.401367</ele>
        <time>2012-01-15T14:45:59+01:00</time>
      </trkpt>
      <trkpt lat="43.73052" lon="7.01201">
        <ele>864.843262</ele>
        <time>2012-01-15T14:46:05+01:00</time>
      </trkpt>
      <trkpt lat="43.73036" lon="7.01194">
        <ele>863.401367</ele>
        <time>2012-01-15T14:46:11+01:00</time>
      </trkpt>
      <trkpt lat="43.7302" lon="7.01187">
        <ele>864.362549</ele>
        <time>2012-01-15T14:46:15+01:00</time>
      </trkpt>
      <trkpt lat="43.73006" lon="7.01173">
        <ele>862.920654</ele>
        <time>2012-01-15T14:46:19+01:00</time>
      </trkpt>
      <trkpt lat="43.73001" lon="7.01164">
        <ele>861.959473</ele>
        <time>2012-01-15T14:46:21+01:00</time>
      </trkpt>
      <trkpt lat="43.72997" lon="7.01147">
        <ele>859.555908</ele>
        <time>2012-01-15T14:46:25+01:00</time>
      </trkpt>
      <trkpt lat="43.73007" lon="7.01143">
        <ele>855.710693</ele>
        <time>2012-01-15T14:46:32+01:00</time>
      </trkpt>
      <trkpt lat="43.73009" lon="7.01141">
        <ele>855.710693</ele>
        <time>2012-01-15T14:46:33+01:00</time>
      </trkpt>
      <trkpt lat="43.73013" lon="7.01135">
        <ele>856.191162</ele>
        <time>2012-01-15T14:46:40+01:00</time>
      </trkpt>
      <trkpt lat="43.73014" lon="7.01133">
        <ele>858.114014</ele>
        <time>2012-01-15T14:46:45+01:00</time>
      </trkpt>
      <trkpt lat="43.73019" lon="7.01127">
        <ele>859.075195</ele>
        <time>2012-01-15T14:46:50+01:00</time>
      </trkpt>
      <trkpt lat="43.73025" lon="7.01122">
        <ele>858.114014</ele>
        <time>2012-01-15T14:46:55+01:00</time>
      </trkpt>
      <trkpt lat="43.7303" lon="7.01108">
        <ele>858.114014</ele>
        <time>2012-01-15T14:47:02+01:00</time>
      </trkpt>
      <trkpt lat="43.73027" lon="7.01097">
        <ele>859.075195</ele>
        <time>2012-01-15T14:47:08+01:00</time>
      </trkpt>
      <trkpt lat="43.73023" lon="7.01085">
        <ele>859.075195</ele>
        <time>2012-01-15T14:47:14+01:00</time>
      </trkpt>
      <trkpt lat="43.7302" lon="7.01072">
        <ele>860.036621</ele>
        <time>2012-01-15T14:47:20+01:00</time>
      </trkpt>
      <trkpt lat="43.73014" lon="7.01053">
        <ele>861.47876</ele>
        <time>2012-01-15T14:47:27+01:00</time>
      </trkpt>
      <trkpt lat="43.73009" lon="7.01034">
        <ele>862.920654</ele>
        <time>2012-01-15T14:47:34+01:00</time>
      </trkpt>
      <trkpt lat="43.73006" lon="7.01021">
        <ele>861.959473</ele>
        <time>2012-01-15T14:47:40+01:00</time>
      </trkpt>
      <trkpt lat="43.73" lon="7.01003">
        <ele>863.401367</ele>
        <time>2012-01-15T14:47:48+01:00</time>
      </trkpt>
      <trkpt lat="43.72996" lon="7.00987">
        <ele>866.285156</ele>
        <time>2012-01-15T14:47:55+01:00</time>
      </trkpt>
      <trkpt lat="43.72993" lon="7.00974">
        <ele>867.246582</ele>
        <time>2012-01-15T14:48:01+01:00</time>
      </trkpt>
      <trkpt lat="43.7299" lon="7.00962">
        <ele>868.207764</ele>
        <time>2012-01-15T14:48:07+01:00</time>
      </trkpt>
      <trkpt lat="43.72982" lon="7.00945">
        <ele>872.533691</ele>
        <time>2012-01-15T14:48:15+01:00</time>
      </trkpt>
      <trkpt lat="43.72976" lon="7.00945">
        <ele>873.495117</ele>
        <time>2012-01-15T14:48:19+01:00</time>
      </trkpt>
      <trkpt lat="43.72972" lon="7.00944">
        <ele>873.975586</ele>
        <time>2012-01-15T14:48:21+01:00</time>
      </trkpt>
      <trkpt lat="43.72967" lon="7.00943">
        <ele>874.937012</ele>
        <time>2012-01-15T14:48:24+01:00</time>
      </trkpt>
      <trkpt lat="43.72964" lon="7.00949">
        <ele>875.41748</ele>
        <time>2012-01-15T14:48:30+01:00</time>
      </trkpt>
      <trkpt lat="43.72963" lon="7.00949">
        <ele>876.37915</ele>
        <time>2012-01-15T14:48:36+01:00</time>
      </trkpt>
      <trkpt lat="43.72964" lon="7.00949">
        <ele>876.859863</ele>
        <time>2012-01-15T14:48:44+01:00</time>
      </trkpt>
      <trkpt lat="43.72963" lon="7.00951">
        <ele>877.821045</ele>
        <time>2012-01-15T14:48:56+01:00</time>
      </trkpt>
      <trkpt lat="43.72963" lon="7.00951">
        <ele>877.821045</ele>
        <time>2012-01-15T14:49:04+01:00</time>
      </trkpt>
      <trkpt lat="43.72963" lon="7.0095">
        <ele>877.821045</ele>
        <time>2012-01-15T14:49:11+01:00</time>
      </trkpt>
      <trkpt lat="43.72964" lon="7.0095">
        <ele>878.301758</ele>
        <time>2012-01-15T14:49:22+01:00</time>
      </trkpt>
      <trkpt lat="43.72964" lon="7.00949">
        <ele>879.262939</ele>
        <time>2012-01-15T14:49:29+01:00</time>
      </trkpt>
      <trkpt lat="43.72963" lon="7.00951">
        <ele>877.340576</ele>
        <time>2012-01-15T14:49:35+01:00</time>
      </trkpt>
      <trkpt lat="43.72963" lon="7.00952">
        <ele>876.859863</ele>
        <time>2012-01-15T14:49:39+01:00</time>
      </trkpt>
      <trkpt lat="43.72964" lon="7.00951">
        <ele>877.821045</ele>
        <time>2012-01-15T14:49:44+01:00</time>
      </trkpt>
      <trkpt lat="43.72964" lon="7.00951">
        <ele>877.821045</ele>
        <time>2012-01-15T14:49:50+01:00</time>
      </trkpt>
      <trkpt lat="43.72964" lon="7.00951">
        <ele>878.301758</ele>
        <time>2012-01-15T14:49:59+01:00</time>
      </trkpt>
      <trkpt lat="43.72964" lon="7.00951">
        <ele>878.301758</ele>
        <time>2012-01-15T14:50:05+01:00</time>
      </trkpt>
      <trkpt lat="43.72964" lon="7.00951">
        <ele>878.301758</ele>
        <time>2012-01-15T14:50:11+01:00</time>
      </trkpt>
      <trkpt lat="43.72964" lon="7.00951">
        <ele>877.821045</ele>
        <time>2012-01-15T14:50:23+01:00</time>
      </trkpt>
      <trkpt lat="43.72962" lon="7.00953">
        <ele>878.301758</ele>
        <time>2012-01-15T14:50:33+01:00</time>
      </trkpt>
      <trkpt lat="43.72962" lon="7.00953">
        <ele>878.782471</ele>
        <time>2012-01-15T14:50:40+01:00</time>
      </trkpt>
      <trkpt lat="43.72962" lon="7.00954">
        <ele>878.301758</ele>
        <time>2012-01-15T14:50:43+01:00</time>
      </trkpt>
      <trkpt lat="43.72961" lon="7.00958">
        <ele>878.782471</ele>
        <time>2012-01-15T14:50:48+01:00</time>
      </trkpt>
      <trkpt lat="43.7296" lon="7.00962">
        <ele>878.782471</ele>
        <time>2012-01-15T14:50:50+01:00</time>
      </trkpt>
      <trkpt lat="43.72954" lon="7.00973">
        <ele>879.262939</ele>
        <time>2012-01-15T14:50:57+01:00</time>
      </trkpt>
      <trkpt lat="43.72952" lon="7.00977">
        <ele>879.262939</ele>
        <time>2012-01-15T14:51:00+01:00</time>
      </trkpt>
      <trkpt lat="43.72941" lon="7.00994">
        <ele>880.224365</ele>
        <time>2012-01-15T14:51:11+01:00</time>
      </trkpt>
      <trkpt lat="43.7293" lon="7.01011">
        <ele>880.705078</ele>
        <time>2012-01-15T14:51:21+01:00</time>
      </trkpt>
      <trkpt lat="43.72922" lon="7.01027">
        <ele>881.185791</ele>
        <time>2012-01-15T14:51:30+01:00</time>
      </trkpt>
      <trkpt lat="43.72914" lon="7.01045">
        <ele>883.108154</ele>
        <time>2012-01-15T14:51:38+01:00</time>
      </trkpt>
      <trkpt lat="43.72907" lon="7.01063">
        <ele>885.031006</ele>
        <time>2012-01-15T14:51:46+01:00</time>
      </trkpt>
      <trkpt lat="43.72903" lon="7.01077">
        <ele>885.031006</ele>
        <time>2012-01-15T14:51:53+01:00</time>
      </trkpt>
      <trkpt lat="43.72901" lon="7.01085">
        <ele>885.031006</ele>
        <time>2012-01-15T14:51:59+01:00</time>
      </trkpt>
      <trkpt lat="43.72898" lon="7.01093">
        <ele>885.511475</ele>
        <time>2012-01-15T14:52:05+01:00</time>
      </trkpt>
      <trkpt lat="43.72897" lon="7.01098">
        <ele>885.511475</ele>
        <time>2012-01-15T14:52:10+01:00</time>
      </trkpt>
      <trkpt lat="43.72894" lon="7.01108">
        <ele>885.511475</ele>
        <time>2012-01-15T14:52:16+01:00</time>
      </trkpt>
      <trkpt lat="43.7289" lon="7.01117">
        <ele>885.031006</ele>
        <time>2012-01-15T14:52:24+01:00</time>
      </trkpt>
      <trkpt lat="43.72882" lon="7.01129">
        <ele>886.4729</ele>
        <time>2012-01-15T14:52:33+01:00</time>
      </trkpt>
      <trkpt lat="43.72876" lon="7.01136">
        <ele>886.4729</ele>
        <time>2012-01-15T14:52:40+01:00</time>
      </trkpt>
      <trkpt lat="43.72869" lon="7.01145">
        <ele>886.953369</ele>
        <time>2012-01-15T14:52:46+01:00</time>
      </trkpt>
      <trkpt lat="43.72865" lon="7.0115">
        <ele>886.953369</ele>
        <time>2012-01-15T14:52:49+01:00</time>
      </trkpt>
      <trkpt lat="43.7286" lon="7.01157">
        <ele>887.434082</ele>
        <time>2012-01-15T14:52:56+01:00</time>
      </trkpt>
      <trkpt lat="43.72858" lon="7.01159">
        <ele>887.434082</ele>
        <time>2012-01-15T14:52:57+01:00</time>
      </trkpt>
      <trkpt lat="43.72851" lon="7.01167">
        <ele>888.876221</ele>
        <time>2012-01-15T14:53:04+01:00</time>
      </trkpt>
      <trkpt lat="43.7285" lon="7.01168">
        <ele>888.876221</ele>
        <time>2012-01-15T14:53:05+01:00</time>
      </trkpt>
      <trkpt lat="43.72842" lon="7.01181">
        <ele>890.798584</ele>
        <time>2012-01-15T14:53:10+01:00</time>
      </trkpt>
      <trkpt lat="43.7284" lon="7.01187">
        <ele>891.279297</ele>
        <time>2012-01-15T14:53:14+01:00</time>
      </trkpt>
      <trkpt lat="43.72837" lon="7.01196">
        <ele>892.240967</ele>
        <time>2012-01-15T14:53:21+01:00</time>
      </trkpt>
      <trkpt lat="43.72834" lon="7.01207">
        <ele>892.72168</ele>
        <time>2012-01-15T14:53:28+01:00</time>
      </trkpt>
      <trkpt lat="43.72834" lon="7.01222">
        <ele>893.202148</ele>
        <time>2012-01-15T14:53:35+01:00</time>
      </trkpt>
      <trkpt lat="43.72837" lon="7.01236">
        <ele>894.163574</ele>
        <time>2012-01-15T14:53:42+01:00</time>
      </trkpt>
      <trkpt lat="43.72841" lon="7.01248">
        <ele>894.644043</ele>
        <time>2012-01-15T14:53:49+01:00</time>
      </trkpt>
      <trkpt lat="43.72845" lon="7.01258">
        <ele>895.605469</ele>
        <time>2012-01-15T14:53:55+01:00</time>
      </trkpt>
      <trkpt lat="43.72849" lon="7.0127">
        <ele>894.644043</ele>
        <time>2012-01-15T14:54:02+01:00</time>
      </trkpt>
      <trkpt lat="43.72852" lon="7.01282">
        <ele>894.163574</ele>
        <time>2012-01-15T14:54:09+01:00</time>
      </trkpt>
      <trkpt lat="43.72853" lon="7.01299">
        <ele>895.605469</ele>
        <time>2012-01-15T14:54:18+01:00</time>
      </trkpt>
      <trkpt lat="43.72853" lon="7.01311">
        <ele>896.566895</ele>
        <time>2012-01-15T14:54:24+01:00</time>
      </trkpt>
      <trkpt lat="43.7285" lon="7.01322">
        <ele>897.528076</ele>
        <time>2012-01-15T14:54:30+01:00</time>
      </trkpt>
      <trkpt lat="43.72844" lon="7.01334">
        <ele>899.450684</ele>
        <time>2012-01-15T14:54:38+01:00</time>
      </trkpt>
      <trkpt lat="43.72842" lon="7.01345">
        <ele>902.334473</ele>
        <time>2012-01-15T14:54:44+01:00</time>
      </trkpt>
      <trkpt lat="43.72841" lon="7.01355">
        <ele>904.737793</ele>
        <time>2012-01-15T14:54:49+01:00</time>
      </trkpt>
      <trkpt lat="43.72842" lon="7.01364">
        <ele>905.218506</ele>
        <time>2012-01-15T14:54:53+01:00</time>
      </trkpt>
      <trkpt lat="43.72843" lon="7.01378">
        <ele>905.699219</ele>
        <time>2012-01-15T14:55:00+01:00</time>
      </trkpt>
      <trkpt lat="43.72837" lon="7.01383">
        <ele>908.102783</ele>
        <time>2012-01-15T14:55:05+01:00</time>
      </trkpt>
      <trkpt lat="43.72831" lon="7.01377">
        <ele>909.544678</ele>
        <time>2012-01-15T14:55:11+01:00</time>
      </trkpt>
      <trkpt lat="43.72826" lon="7.01366">
        <ele>910.505859</ele>
        <time>2012-01-15T14:55:19+01:00</time>
      </trkpt>
      <trkpt lat="43.7282" lon="7.01359">
        <ele>912.428467</ele>
        <time>2012-01-15T14:55:26+01:00</time>
      </trkpt>
      <trkpt lat="43.72808" lon="7.01355">
        <ele>914.351074</ele>
        <time>2012-01-15T14:55:35+01:00</time>
      </trkpt>
      <trkpt lat="43.72798" lon="7.0135">
        <ele>915.793213</ele>
        <time>2012-01-15T14:55:43+01:00</time>
      </trkpt>
      <trkpt lat="43.7279" lon="7.01344">
        <ele>917.715576</ele>
        <time>2012-01-15T14:55:50+01:00</time>
      </trkpt>
      <trkpt lat="43.72782" lon="7.01338">
        <ele>919.157715</ele>
        <time>2012-01-15T14:55:57+01:00</time>
      </trkpt>
      <trkpt lat="43.72779" lon="7.01335">
        <ele>919.638428</ele>
        <time>2012-01-15T14:56:00+01:00</time>
      </trkpt>
      <trkpt lat="43.72773" lon="7.01326">
        <ele>922.041504</ele>
        <time>2012-01-15T14:56:07+01:00</time>
      </trkpt>
      <trkpt lat="43.72767" lon="7.01317">
        <ele>923.483643</ele>
        <time>2012-01-15T14:56:13+01:00</time>
      </trkpt>
      <trkpt lat="43.7276" lon="7.01304">
        <ele>923.483643</ele>
        <time>2012-01-15T14:56:22+01:00</time>
      </trkpt>
      <trkpt lat="43.72754" lon="7.01289">
        <ele>925.40625</ele>
        <time>2012-01-15T14:56:31+01:00</time>
      </trkpt>
      <trkpt lat="43.72748" lon="7.01275">
        <ele>927.329102</ele>
        <time>2012-01-15T14:56:40+01:00</time>
      </trkpt>
      <trkpt lat="43.72742" lon="7.01265">
        <ele>929.251465</ele>
        <time>2012-01-15T14:56:47+01:00</time>
      </trkpt>
      <trkpt lat="43.72735" lon="7.01257">
        <ele>931.174316</ele>
        <time>2012-01-15T14:56:53+01:00</time>
      </trkpt>
      <trkpt lat="43.72728" lon="7.01251">
        <ele>931.654785</ele>
        <time>2012-01-15T14:56:59+01:00</time>
      </trkpt>
      <trkpt lat="43.72717" lon="7.01237">
        <ele>934.058105</ele>
        <time>2012-01-15T14:57:09+01:00</time>
      </trkpt>
      <trkpt lat="43.72711" lon="7.01227">
        <ele>935.019531</ele>
        <time>2012-01-15T14:57:15+01:00</time>
      </trkpt>
      <trkpt lat="43.72705" lon="7.01217">
        <ele>936.941895</ele>
        <time>2012-01-15T14:57:21+01:00</time>
      </trkpt>
      <trkpt lat="43.72703" lon="7.01215">
        <ele>937.422607</ele>
        <time>2012-01-15T14:57:23+01:00</time>
      </trkpt>
      <trkpt lat="43.72694" lon="7.01205">
        <ele>938.864746</ele>
        <time>2012-01-15T14:57:30+01:00</time>
      </trkpt>
      <trkpt lat="43.72684" lon="7.01199">
        <ele>939.825928</ele>
        <time>2012-01-15T14:57:36+01:00</time>
      </trkpt>
      <trkpt lat="43.72674" lon="7.01199">
        <ele>939.825928</ele>
        <time>2012-01-15T14:57:43+01:00</time>
      </trkpt>
      <trkpt lat="43.72667" lon="7.01197">
        <ele>940.306885</ele>
        <time>2012-01-15T14:57:47+01:00</time>
      </trkpt>
      <trkpt lat="43.72654" lon="7.01195">
        <ele>939.825928</ele>
        <time>2012-01-15T14:57:54+01:00</time>
      </trkpt>
      <trkpt lat="43.72649" lon="7.01197">
        <ele>939.345215</ele>
        <time>2012-01-15T14:57:57+01:00</time>
      </trkpt>
      <trkpt lat="43.72649" lon="7.01197">
        <ele>939.825928</ele>
        <time>2012-01-15T14:58:07+01:00</time>
      </trkpt>
      <trkpt lat="43.72649" lon="7.01198">
        <ele>939.825928</ele>
        <time>2012-01-15T14:58:12+01:00</time>
      </trkpt>
      <trkpt lat="43.72648" lon="7.01198">
        <ele>939.345215</ele>
        <time>2012-01-15T14:58:18+01:00</time>
      </trkpt>
      <trkpt lat="43.72648" lon="7.01199">
        <ele>936.941895</ele>
        <time>2012-01-15T14:58:53+01:00</time>
      </trkpt>
      <trkpt lat="43.72647" lon="7.01199">
        <ele>936.461426</ele>
        <time>2012-01-15T14:59:08+01:00</time>
      </trkpt>
      <trkpt lat="43.72648" lon="7.01199">
        <ele>935.980713</ele>
        <time>2012-01-15T14:59:17+01:00</time>
      </trkpt>
      <trkpt lat="43.72647" lon="7.01198">
        <ele>936.461426</ele>
        <time>2012-01-15T14:59:37+01:00</time>
      </trkpt>
      <trkpt lat="43.72647" lon="7.01198">
        <ele>935.980713</ele>
        <time>2012-01-15T14:59:52+01:00</time>
      </trkpt>
      <trkpt lat="43.72648" lon="7.01197">
        <ele>935.5</ele>
        <time>2012-01-15T15:00:13+01:00</time>
      </trkpt>
      <trkpt lat="43.72648" lon="7.01197">
        <ele>935.5</ele>
        <time>2012-01-15T15:00:34+01:00</time>
      </trkpt>
      <trkpt lat="43.72648" lon="7.01197">
        <ele>935.5</ele>
        <time>2012-01-15T15:00:46+01:00</time>
      </trkpt>
      <trkpt lat="43.72648" lon="7.01197">
        <ele>935.980713</ele>
        <time>2012-01-15T15:00:50+01:00</time>
      </trkpt>
      <trkpt lat="43.72647" lon="7.01197">
        <ele>936.941895</ele>
        <time>2012-01-15T15:01:06+01:00</time>
      </trkpt>
      <trkpt lat="43.72646" lon="7.01197">
        <ele>937.90332</ele>
        <time>2012-01-15T15:01:52+01:00</time>
      </trkpt>
      <trkpt lat="43.72647" lon="7.01197">
        <ele>936.941895</ele>
        <time>2012-01-15T15:02:13+01:00</time>
      </trkpt>
      <trkpt lat="43.72648" lon="7.01196">
        <ele>935.5</ele>
        <time>2012-01-15T15:02:38+01:00</time>
      </trkpt>
      <trkpt lat="43.72648" lon="7.01196">
        <ele>935.019531</ele>
        <time>2012-01-15T15:02:51+01:00</time>
      </trkpt>
      <trkpt lat="43.72649" lon="7.01195">
        <ele>935.019531</ele>
        <time>2012-01-15T15:03:02+01:00</time>
      </trkpt>
      <trkpt lat="43.72648" lon="7.01196">
        <ele>935.980713</ele>
        <time>2012-01-15T15:03:11+01:00</time>
      </trkpt>
      <trkpt lat="43.72647" lon="7.01196">
        <ele>937.90332</ele>
        <time>2012-01-15T15:03:32+01:00</time>
      </trkpt>
      <trkpt lat="43.72646" lon="7.01197">
        <ele>937.90332</ele>
        <time>2012-01-15T15:03:33+01:00</time>
      </trkpt>
      <trkpt lat="43.72636" lon="7.01206">
        <ele>936.941895</ele>
        <time>2012-01-15T15:03:41+01:00</time>
      </trkpt>
      <trkpt lat="43.72626" lon="7.01213">
        <ele>935.980713</ele>
        <time>2012-01-15T15:03:46+01:00</time>
      </trkpt>
      <trkpt lat="43.72613" lon="7.01222">
        <ele>935.019531</ele>
        <time>2012-01-15T15:03:51+01:00</time>
      </trkpt>
      <trkpt lat="43.72595" lon="7.01232">
        <ele>934.058105</ele>
        <time>2012-01-15T15:03:56+01:00</time>
      </trkpt>
      <trkpt lat="43.7258" lon="7.01238">
        <ele>933.09668</ele>
        <time>2012-01-15T15:03:59+01:00</time>
      </trkpt>
      <trkpt lat="43.72543" lon="7.01269">
        <ele>930.212891</ele>
        <time>2012-01-15T15:04:06+01:00</time>
      </trkpt>
      <trkpt lat="43.72533" lon="7.01282">
        <ele>929.251465</ele>
        <time>2012-01-15T15:04:08+01:00</time>
      </trkpt>
      <trkpt lat="43.72502" lon="7.01307">
        <ele>926.848389</ele>
        <time>2012-01-15T15:04:13+01:00</time>
      </trkpt>
      <trkpt lat="43.72466" lon="7.01332">
        <ele>924.445068</ele>
        <time>2012-01-15T15:04:19+01:00</time>
      </trkpt>
      <trkpt lat="43.7244" lon="7.01346">
        <ele>923.483643</ele>
        <time>2012-01-15T15:04:24+01:00</time>
      </trkpt>
      <trkpt lat="43.72412" lon="7.01366">
        <ele>922.041504</ele>
        <time>2012-01-15T15:04:30+01:00</time>
      </trkpt>
      <trkpt lat="43.72388" lon="7.01381">
        <ele>920.599609</ele>
        <time>2012-01-15T15:04:35+01:00</time>
      </trkpt>
      <trkpt lat="43.72381" lon="7.0138">
        <ele>920.118896</ele>
        <time>2012-01-15T15:04:39+01:00</time>
      </trkpt>
      <trkpt lat="43.7238" lon="7.01381">
        <ele>919.638428</ele>
        <time>2012-01-15T15:04:40+01:00</time>
      </trkpt>
      <trkpt lat="43.72367" lon="7.0139">
        <ele>918.677002</ele>
        <time>2012-01-15T15:04:45+01:00</time>
      </trkpt>
      <trkpt lat="43.72348" lon="7.01397">
        <ele>916.754395</ele>
        <time>2012-01-15T15:04:49+01:00</time>
      </trkpt>
      <trkpt lat="43.72318" lon="7.01399">
        <ele>914.351074</ele>
        <time>2012-01-15T15:04:54+01:00</time>
      </trkpt>
      <trkpt lat="43.72313" lon="7.01399">
        <ele>913.870361</ele>
        <time>2012-01-15T15:04:55+01:00</time>
      </trkpt>
      <trkpt lat="43.72296" lon="7.0139">
        <ele>912.90918</ele>
        <time>2012-01-15T15:04:59+01:00</time>
      </trkpt>
      <trkpt lat="43.72292" lon="7.01387">
        <ele>912.428467</ele>
        <time>2012-01-15T15:05:00+01:00</time>
      </trkpt>
      <trkpt lat="43.72278" lon="7.0138">
        <ele>911.947998</ele>
        <time>2012-01-15T15:05:05+01:00</time>
      </trkpt>
      <trkpt lat="43.72276" lon="7.01375">
        <ele>910.986572</ele>
        <time>2012-01-15T15:05:08+01:00</time>
      </trkpt>
      <trkpt lat="43.72274" lon="7.01373">
        <ele>910.505859</ele>
        <time>2012-01-15T15:05:10+01:00</time>
      </trkpt>
      <trkpt lat="43.72264" lon="7.0137">
        <ele>908.102783</ele>
        <time>2012-01-15T15:05:14+01:00</time>
      </trkpt>
      <trkpt lat="43.72258" lon="7.01371">
        <ele>906.6604</ele>
        <time>2012-01-15T15:05:16+01:00</time>
      </trkpt>
      <trkpt lat="43.72244" lon="7.01369">
        <ele>902.815186</ele>
        <time>2012-01-15T15:05:21+01:00</time>
      </trkpt>
      <trkpt lat="43.72238" lon="7.01364">
        <ele>901.373291</ele>
        <time>2012-01-15T15:05:23+01:00</time>
      </trkpt>
      <trkpt lat="43.72237" lon="7.01343">
        <ele>898.969971</ele>
        <time>2012-01-15T15:05:27+01:00</time>
      </trkpt>
      <trkpt lat="43.72232" lon="7.01323">
        <ele>896.566895</ele>
        <time>2012-01-15T15:05:30+01:00</time>
      </trkpt>
      <trkpt lat="43.7223" lon="7.01298">
        <ele>894.163574</ele>
        <time>2012-01-15T15:05:33+01:00</time>
      </trkpt>
      <trkpt lat="43.72228" lon="7.01272">
        <ele>891.279297</ele>
        <time>2012-01-15T15:05:36+01:00</time>
      </trkpt>
      <trkpt lat="43.72224" lon="7.01231">
        <ele>887.434082</ele>
        <time>2012-01-15T15:05:41+01:00</time>
      </trkpt>
      <trkpt lat="43.72224" lon="7.01222">
        <ele>886.953369</ele>
        <time>2012-01-15T15:05:42+01:00</time>
      </trkpt>
      <trkpt lat="43.72222" lon="7.01206">
        <ele>884.06958</ele>
        <time>2012-01-15T15:05:47+01:00</time>
      </trkpt>
      <trkpt lat="43.72221" lon="7.01209">
        <ele>882.627686</ele>
        <time>2012-01-15T15:05:49+01:00</time>
      </trkpt>
      <trkpt lat="43.72221" lon="7.01211">
        <ele>884.550293</ele>
        <time>2012-01-15T15:05:58+01:00</time>
      </trkpt>
      <trkpt lat="43.7222" lon="7.01211">
        <ele>884.550293</ele>
        <time>2012-01-15T15:06:07+01:00</time>
      </trkpt>
      <trkpt lat="43.7222" lon="7.0121">
        <ele>885.511475</ele>
        <time>2012-01-15T15:06:15+01:00</time>
      </trkpt>
      <trkpt lat="43.72219" lon="7.0121">
        <ele>885.511475</ele>
        <time>2012-01-15T15:06:16+01:00</time>
      </trkpt>
      <trkpt lat="43.72218" lon="7.01213">
        <ele>885.511475</ele>
        <time>2012-01-15T15:06:18+01:00</time>
      </trkpt>
      <trkpt lat="43.72209" lon="7.01213">
        <ele>885.031006</ele>
        <time>2012-01-15T15:06:22+01:00</time>
      </trkpt>
      <trkpt lat="43.72186" lon="7.01211">
        <ele>883.588867</ele>
        <time>2012-01-15T15:06:27+01:00</time>
      </trkpt>
      <trkpt lat="43.72163" lon="7.01218">
        <ele>883.108154</ele>
        <time>2012-01-15T15:06:32+01:00</time>
      </trkpt>
      <trkpt lat="43.72149" lon="7.01221">
        <ele>882.627686</ele>
        <time>2012-01-15T15:06:35+01:00</time>
      </trkpt>
      <trkpt lat="43.72122" lon="7.01215">
        <ele>882.146973</ele>
        <time>2012-01-15T15:06:41+01:00</time>
      </trkpt>
      <trkpt lat="43.72118" lon="7.01212">
        <ele>881.66626</ele>
        <time>2012-01-15T15:06:42+01:00</time>
      </trkpt>
      <trkpt lat="43.72089" lon="7.01181">
        <ele>878.301758</ele>
        <time>2012-01-15T15:06:48+01:00</time>
      </trkpt>
      <trkpt lat="43.72064" lon="7.01143">
        <ele>875.41748</ele>
        <time>2012-01-15T15:06:53+01:00</time>
      </trkpt>
      <trkpt lat="43.72059" lon="7.01123">
        <ele>873.975586</ele>
        <time>2012-01-15T15:06:55+01:00</time>
      </trkpt>
      <trkpt lat="43.72043" lon="7.01094">
        <ele>872.052979</ele>
        <time>2012-01-15T15:07:00+01:00</time>
      </trkpt>
      <trkpt lat="43.72033" lon="7.01078">
        <ele>872.052979</ele>
        <time>2012-01-15T15:07:04+01:00</time>
      </trkpt>
      <trkpt lat="43.72027" lon="7.01077">
        <ele>872.052979</ele>
        <time>2012-01-15T15:07:07+01:00</time>
      </trkpt>
      <trkpt lat="43.72023" lon="7.01089">
        <ele>871.572266</ele>
        <time>2012-01-15T15:07:12+01:00</time>
      </trkpt>
      <trkpt lat="43.72023" lon="7.01091">
        <ele>871.572266</ele>
        <time>2012-01-15T15:07:13+01:00</time>
      </trkpt>
      <trkpt lat="43.72017" lon="7.0111">
        <ele>870.611084</ele>
        <time>2012-01-15T15:07:20+01:00</time>
      </trkpt>
      <trkpt lat="43.72014" lon="7.01124">
        <ele>869.649902</ele>
        <time>2012-01-15T15:07:25+01:00</time>
      </trkpt>
      <trkpt lat="43.7201" lon="7.01145">
        <ele>869.169189</ele>
        <time>2012-01-15T15:07:30+01:00</time>
      </trkpt>
      <trkpt lat="43.72006" lon="7.01156">
        <ele>868.688477</ele>
        <time>2012-01-15T15:07:34+01:00</time>
      </trkpt>
      <trkpt lat="43.72003" lon="7.0116">
        <ele>868.207764</ele>
        <time>2012-01-15T15:07:39+01:00</time>
      </trkpt>
      <trkpt lat="43.72002" lon="7.01161">
        <ele>869.169189</ele>
        <time>2012-01-15T15:07:46+01:00</time>
      </trkpt>
      <trkpt lat="43.72002" lon="7.01163">
        <ele>873.975586</ele>
        <time>2012-01-15T15:08:16+01:00</time>
      </trkpt>
      <trkpt lat="43.72004" lon="7.01161">
        <ele>874.456299</ele>
        <time>2012-01-15T15:08:23+01:00</time>
      </trkpt>
      <trkpt lat="43.72005" lon="7.01161">
        <ele>874.456299</ele>
        <time>2012-01-15T15:08:28+01:00</time>
      </trkpt>
      <trkpt lat="43.72005" lon="7.01157">
        <ele>873.495117</ele>
        <time>2012-01-15T15:08:33+01:00</time>
      </trkpt>
      <trkpt lat="43.72011" lon="7.01134">
        <ele>872.533691</ele>
        <time>2012-01-15T15:08:40+01:00</time>
      </trkpt>
      <trkpt lat="43.72018" lon="7.01105">
        <ele>871.572266</ele>
        <time>2012-01-15T15:08:46+01:00</time>
      </trkpt>
      <trkpt lat="43.72021" lon="7.01093">
        <ele>871.572266</ele>
        <time>2012-01-15T15:08:49+01:00</time>
      </trkpt>
      <trkpt lat="43.72028" lon="7.01091">
        <ele>871.572266</ele>
        <time>2012-01-15T15:08:53+01:00</time>
      </trkpt>
      <trkpt lat="43.72038" lon="7.01096">
        <ele>870.611084</ele>
        <time>2012-01-15T15:08:58+01:00</time>
      </trkpt>
      <trkpt lat="43.7205" lon="7.01105">
        <ele>871.091797</ele>
        <time>2012-01-15T15:09:03+01:00</time>
      </trkpt>
      <trkpt lat="43.72054" lon="7.01104">
        <ele>871.572266</ele>
        <time>2012-01-15T15:09:07+01:00</time>
      </trkpt>
      <trkpt lat="43.72054" lon="7.01101">
        <ele>871.572266</ele>
        <time>2012-01-15T15:09:08+01:00</time>
      </trkpt>
      <trkpt lat="43.72051" lon="7.01095">
        <ele>871.572266</ele>
        <time>2012-01-15T15:09:10+01:00</time>
      </trkpt>
      <trkpt lat="43.7204" lon="7.01094">
        <ele>871.091797</ele>
        <time>2012-01-15T15:09:14+01:00</time>
      </trkpt>
      <trkpt lat="43.72037" lon="7.01096">
        <ele>871.091797</ele>
        <time>2012-01-15T15:09:15+01:00</time>
      </trkpt>
      <trkpt lat="43.72024" lon="7.0109">
        <ele>872.052979</ele>
        <time>2012-01-15T15:09:20+01:00</time>
      </trkpt>
      <trkpt lat="43.7202" lon="7.01099">
        <ele>872.052979</ele>
        <time>2012-01-15T15:09:23+01:00</time>
      </trkpt>
      <trkpt lat="43.72011" lon="7.01143">
        <ele>870.611084</ele>
        <time>2012-01-15T15:09:30+01:00</time>
      </trkpt>
      <trkpt lat="43.72008" lon="7.01157">
        <ele>870.611084</ele>
        <time>2012-01-15T15:09:32+01:00</time>
      </trkpt>
      <trkpt lat="43.72003" lon="7.01174">
        <ele>870.130371</ele>
        <time>2012-01-15T15:09:35+01:00</time>
      </trkpt>
      <trkpt lat="43.71997" lon="7.01197">
        <ele>869.649902</ele>
        <time>2012-01-15T15:09:41+01:00</time>
      </trkpt>
      <trkpt lat="43.71989" lon="7.01224">
        <ele>868.207764</ele>
        <time>2012-01-15T15:09:47+01:00</time>
      </trkpt>
      <trkpt lat="43.71976" lon="7.01254">
        <ele>866.765869</ele>
        <time>2012-01-15T15:09:52+01:00</time>
      </trkpt>
      <trkpt lat="43.71973" lon="7.0126">
        <ele>866.765869</ele>
        <time>2012-01-15T15:09:53+01:00</time>
      </trkpt>
      <trkpt lat="43.71969" lon="7.01289">
        <ele>865.804688</ele>
        <time>2012-01-15T15:09:57+01:00</time>
      </trkpt>
      <trkpt lat="43.71973" lon="7.01303">
        <ele>865.323975</ele>
        <time>2012-01-15T15:09:59+01:00</time>
      </trkpt>
      <trkpt lat="43.71979" lon="7.01317">
        <ele>864.843262</ele>
        <time>2012-01-15T15:10:01+01:00</time>
      </trkpt>
      <trkpt lat="43.71989" lon="7.0138">
        <ele>863.881836</ele>
        <time>2012-01-15T15:10:08+01:00</time>
      </trkpt>
      <trkpt lat="43.71991" lon="7.01398">
        <ele>863.881836</ele>
        <time>2012-01-15T15:10:10+01:00</time>
      </trkpt>
      <trkpt lat="43.71985" lon="7.01442">
        <ele>862.920654</ele>
        <time>2012-01-15T15:10:15+01:00</time>
      </trkpt>
      <trkpt lat="43.71976" lon="7.01465">
        <ele>862.920654</ele>
        <time>2012-01-15T15:10:18+01:00</time>
      </trkpt>
      <trkpt lat="43.71963" lon="7.01507">
        <ele>861.959473</ele>
        <time>2012-01-15T15:10:24+01:00</time>
      </trkpt>
      <trkpt lat="43.71947" lon="7.0152">
        <ele>860.517334</ele>
        <time>2012-01-15T15:10:28+01:00</time>
      </trkpt>
      <trkpt lat="43.71922" lon="7.01525">
        <ele>858.114014</ele>
        <time>2012-01-15T15:10:33+01:00</time>
      </trkpt>
      <trkpt lat="43.71921" lon="7.0154">
        <ele>856.671875</ele>
        <time>2012-01-15T15:10:35+01:00</time>
      </trkpt>
      <trkpt lat="43.71932" lon="7.01594">
        <ele>851.865479</ele>
        <time>2012-01-15T15:10:41+01:00</time>
      </trkpt>
      <trkpt lat="43.71933" lon="7.01647">
        <ele>847.539551</ele>
        <time>2012-01-15T15:10:46+01:00</time>
      </trkpt>
      <trkpt lat="43.71933" lon="7.01656">
        <ele>846.578369</ele>
        <time>2012-01-15T15:10:47+01:00</time>
      </trkpt>
      <trkpt lat="43.71921" lon="7.01676">
        <ele>843.694092</ele>
        <time>2012-01-15T15:10:51+01:00</time>
      </trkpt>
      <trkpt lat="43.71912" lon="7.01676">
        <ele>842.73291</ele>
        <time>2012-01-15T15:10:54+01:00</time>
      </trkpt>
      <trkpt lat="43.71907" lon="7.01678">
        <ele>841.290771</ele>
        <time>2012-01-15T15:11:00+01:00</time>
      </trkpt>
      <trkpt lat="43.71907" lon="7.01678">
        <ele>841.771484</ele>
        <time>2012-01-15T15:11:09+01:00</time>
      </trkpt>
      <trkpt lat="43.71905" lon="7.0168">
        <ele>844.655518</ele>
        <time>2012-01-15T15:11:41+01:00</time>
      </trkpt>
      <trkpt lat="43.71909" lon="7.01699">
        <ele>843.213379</ele>
        <time>2012-01-15T15:11:46+01:00</time>
      </trkpt>
      <trkpt lat="43.71917" lon="7.0173">
        <ele>840.810059</ele>
        <time>2012-01-15T15:11:51+01:00</time>
      </trkpt>
      <trkpt lat="43.71923" lon="7.01743">
        <ele>838.887695</ele>
        <time>2012-01-15T15:11:53+01:00</time>
      </trkpt>
      <trkpt lat="43.71922" lon="7.01772">
        <ele>836.964844</ele>
        <time>2012-01-15T15:11:57+01:00</time>
      </trkpt>
      <trkpt lat="43.7191" lon="7.01805">
        <ele>836.003662</ele>
        <time>2012-01-15T15:12:02+01:00</time>
      </trkpt>
      <trkpt lat="43.71895" lon="7.0182">
        <ele>835.522949</ele>
        <time>2012-01-15T15:12:06+01:00</time>
      </trkpt>
      <trkpt lat="43.71888" lon="7.01822">
        <ele>835.522949</ele>
        <time>2012-01-15T15:12:08+01:00</time>
      </trkpt>
      <trkpt lat="43.71881" lon="7.01826">
        <ele>835.04248</ele>
        <time>2012-01-15T15:12:10+01:00</time>
      </trkpt>
      <trkpt lat="43.71861" lon="7.01844">
        <ele>833.119629</ele>
        <time>2012-01-15T15:12:15+01:00</time>
      </trkpt>
      <trkpt lat="43.71846" lon="7.01879">
        <ele>828.793945</ele>
        <time>2012-01-15T15:12:20+01:00</time>
      </trkpt>
      <trkpt lat="43.71837" lon="7.01919">
        <ele>827.351807</ele>
        <time>2012-01-15T15:12:26+01:00</time>
      </trkpt>
      <trkpt lat="43.71831" lon="7.0194">
        <ele>827.832275</ele>
        <time>2012-01-15T15:12:30+01:00</time>
      </trkpt>
      <trkpt lat="43.71824" lon="7.01969">
        <ele>829.274414</ele>
        <time>2012-01-15T15:12:37+01:00</time>
      </trkpt>
      <trkpt lat="43.71819" lon="7.01988">
        <ele>829.274414</ele>
        <time>2012-01-15T15:12:43+01:00</time>
      </trkpt>
      <trkpt lat="43.71816" lon="7.02004">
        <ele>830.716553</ele>
        <time>2012-01-15T15:12:49+01:00</time>
      </trkpt>
      <trkpt lat="43.71813" lon="7.02017">
        <ele>832.158447</ele>
        <time>2012-01-15T15:12:54+01:00</time>
      </trkpt>
      <trkpt lat="43.71809" lon="7.02039">
        <ele>834.561768</ele>
        <time>2012-01-15T15:13:02+01:00</time>
      </trkpt>
      <trkpt lat="43.71805" lon="7.02056">
        <ele>836.003662</ele>
        <time>2012-01-15T15:13:08+01:00</time>
      </trkpt>
      <trkpt lat="43.71802" lon="7.02075">
        <ele>836.964844</ele>
        <time>2012-01-15T15:13:15+01:00</time>
      </trkpt>
      <trkpt lat="43.718" lon="7.02095">
        <ele>836.964844</ele>
        <time>2012-01-15T15:13:22+01:00</time>
      </trkpt>
      <trkpt lat="43.718" lon="7.02116">
        <ele>836.484375</ele>
        <time>2012-01-15T15:13:29+01:00</time>
      </trkpt>
      <trkpt lat="43.71801" lon="7.02138">
        <ele>836.003662</ele>
        <time>2012-01-15T15:13:34+01:00</time>
      </trkpt>
      <trkpt lat="43.71798" lon="7.02156">
        <ele>836.003662</ele>
        <time>2012-01-15T15:13:37+01:00</time>
      </trkpt>
      <trkpt lat="43.718" lon="7.02168">
        <ele>837.445557</ele>
        <time>2012-01-15T15:13:41+01:00</time>
      </trkpt>
      <trkpt lat="43.718" lon="7.02166">
        <ele>837.92627</ele>
        <time>2012-01-15T15:13:42+01:00</time>
      </trkpt>
      <trkpt lat="43.71801" lon="7.02147">
        <ele>837.92627</ele>
        <time>2012-01-15T15:13:50+01:00</time>
      </trkpt>
      <trkpt lat="43.71798" lon="7.02131">
        <ele>837.92627</ele>
        <time>2012-01-15T15:13:54+01:00</time>
      </trkpt>
      <trkpt lat="43.71798" lon="7.02126">
        <ele>837.92627</ele>
        <time>2012-01-15T15:13:59+01:00</time>
      </trkpt>
      <trkpt lat="43.718" lon="7.02134">
        <ele>837.92627</ele>
        <time>2012-01-15T15:14:02+01:00</time>
      </trkpt>
      <trkpt lat="43.718" lon="7.02152">
        <ele>837.92627</ele>
        <time>2012-01-15T15:14:05+01:00</time>
      </trkpt>
      <trkpt lat="43.71798" lon="7.02171">
        <ele>837.92627</ele>
        <time>2012-01-15T15:14:08+01:00</time>
      </trkpt>
      <trkpt lat="43.71802" lon="7.02168">
        <ele>837.92627</ele>
        <time>2012-01-15T15:14:11+01:00</time>
      </trkpt>
      <trkpt lat="43.71804" lon="7.0215">
        <ele>838.406982</ele>
        <time>2012-01-15T15:14:16+01:00</time>
      </trkpt>
      <trkpt lat="43.718" lon="7.02141">
        <ele>837.92627</ele>
        <time>2012-01-15T15:14:20+01:00</time>
      </trkpt>
      <trkpt lat="43.71802" lon="7.02137">
        <ele>837.92627</ele>
        <time>2012-01-15T15:14:23+01:00</time>
      </trkpt>
      <trkpt lat="43.71804" lon="7.0214">
        <ele>837.445557</ele>
        <time>2012-01-15T15:14:25+01:00</time>
      </trkpt>
      <trkpt lat="43.71799" lon="7.02159">
        <ele>836.964844</ele>
        <time>2012-01-15T15:14:29+01:00</time>
      </trkpt>
      <trkpt lat="43.718" lon="7.02171">
        <ele>836.964844</ele>
        <time>2012-01-15T15:14:32+01:00</time>
      </trkpt>
      <trkpt lat="43.71801" lon="7.02164">
        <ele>837.445557</ele>
        <time>2012-01-15T15:14:36+01:00</time>
      </trkpt>
      <trkpt lat="43.71801" lon="7.02156">
        <ele>838.406982</ele>
        <time>2012-01-15T15:14:40+01:00</time>
      </trkpt>
      <trkpt lat="43.71801" lon="7.02147">
        <ele>837.92627</ele>
        <time>2012-01-15T15:14:44+01:00</time>
      </trkpt>
      <trkpt lat="43.71798" lon="7.02157">
        <ele>837.92627</ele>
        <time>2012-01-15T15:14:47+01:00</time>
      </trkpt>
      <trkpt lat="43.71803" lon="7.02174">
        <ele>838.406982</ele>
        <time>2012-01-15T15:14:50+01:00</time>
      </trkpt>
      <trkpt lat="43.71803" lon="7.0218">
        <ele>838.406982</ele>
        <time>2012-01-15T15:14:51+01:00</time>
      </trkpt>
      <trkpt lat="43.71804" lon="7.02218">
        <ele>838.887695</ele>
        <time>2012-01-15T15:14:58+01:00</time>
      </trkpt>
      <trkpt lat="43.71806" lon="7.02246">
        <ele>838.887695</ele>
        <time>2012-01-15T15:15:05+01:00</time>
      </trkpt>
      <trkpt lat="43.71806" lon="7.02273">
        <ele>839.368164</ele>
        <time>2012-01-15T15:15:10+01:00</time>
      </trkpt>
      <trkpt lat="43.71804" lon="7.02304">
        <ele>839.368164</ele>
        <time>2012-01-15T15:15:17+01:00</time>
      </trkpt>
      <trkpt lat="43.71805" lon="7.02328">
        <ele>839.848877</ele>
        <time>2012-01-15T15:15:23+01:00</time>
      </trkpt>
      <trkpt lat="43.71807" lon="7.02352">
        <ele>839.368164</ele>
        <time>2012-01-15T15:15:29+01:00</time>
      </trkpt>
      <trkpt lat="43.7181" lon="7.02385">
        <ele>838.887695</ele>
        <time>2012-01-15T15:15:37+01:00</time>
      </trkpt>
      <trkpt lat="43.71812" lon="7.02403">
        <ele>839.368164</ele>
        <time>2012-01-15T15:15:42+01:00</time>
      </trkpt>
      <trkpt lat="43.71813" lon="7.02434">
        <ele>839.368164</ele>
        <time>2012-01-15T15:15:49+01:00</time>
      </trkpt>
      <trkpt lat="43.71812" lon="7.02468">
        <ele>839.368164</ele>
        <time>2012-01-15T15:15:56+01:00</time>
      </trkpt>
      <trkpt lat="43.71808" lon="7.02497">
        <ele>838.406982</ele>
        <time>2012-01-15T15:16:01+01:00</time>
      </trkpt>
      <trkpt lat="43.71804" lon="7.02514">
        <ele>838.406982</ele>
        <time>2012-01-15T15:16:03+01:00</time>
      </trkpt>
      <trkpt lat="43.71797" lon="7.02542">
        <ele>838.406982</ele>
        <time>2012-01-15T15:16:07+01:00</time>
      </trkpt>
      <trkpt lat="43.71792" lon="7.02561">
        <ele>837.92627</ele>
        <time>2012-01-15T15:16:11+01:00</time>
      </trkpt>
      <trkpt lat="43.71783" lon="7.0259">
        <ele>837.445557</ele>
        <time>2012-01-15T15:16:20+01:00</time>
      </trkpt>
      <trkpt lat="43.7177" lon="7.02605">
        <ele>838.406982</ele>
        <time>2012-01-15T15:16:26+01:00</time>
      </trkpt>
      <trkpt lat="43.71755" lon="7.02616">
        <ele>838.406982</ele>
        <time>2012-01-15T15:16:33+01:00</time>
      </trkpt>
      <trkpt lat="43.71738" lon="7.02625">
        <ele>839.368164</ele>
        <time>2012-01-15T15:16:39+01:00</time>
      </trkpt>
      <trkpt lat="43.71714" lon="7.0263">
        <ele>838.887695</ele>
        <time>2012-01-15T15:16:47+01:00</time>
      </trkpt>
      <trkpt lat="43.71694" lon="7.02641">
        <ele>839.848877</ele>
        <time>2012-01-15T15:16:54+01:00</time>
      </trkpt>
      <trkpt lat="43.71681" lon="7.02652">
        <ele>840.810059</ele>
        <time>2012-01-15T15:17:00+01:00</time>
      </trkpt>
      <trkpt lat="43.71675" lon="7.02657">
        <ele>839.848877</ele>
        <time>2012-01-15T15:17:05+01:00</time>
      </trkpt>
      <trkpt lat="43.71673" lon="7.02662">
        <ele>841.290771</ele>
        <time>2012-01-15T15:17:12+01:00</time>
      </trkpt>
      <trkpt lat="43.71671" lon="7.02666">
        <ele>841.771484</ele>
        <time>2012-01-15T15:17:15+01:00</time>
      </trkpt>
      <trkpt lat="43.7167" lon="7.0268">
        <ele>842.252197</ele>
        <time>2012-01-15T15:17:21+01:00</time>
      </trkpt>
      <trkpt lat="43.71669" lon="7.02695">
        <ele>842.252197</ele>
        <time>2012-01-15T15:17:28+01:00</time>
      </trkpt>
      <trkpt lat="43.71669" lon="7.027">
        <ele>842.73291</ele>
        <time>2012-01-15T15:17:31+01:00</time>
      </trkpt>
      <trkpt lat="43.7167" lon="7.02714">
        <ele>843.694092</ele>
        <time>2012-01-15T15:17:39+01:00</time>
      </trkpt>
      <trkpt lat="43.71674" lon="7.02727">
        <ele>844.175049</ele>
        <time>2012-01-15T15:17:45+01:00</time>
      </trkpt>
      <trkpt lat="43.7168" lon="7.0274">
        <ele>844.655518</ele>
        <time>2012-01-15T15:17:52+01:00</time>
      </trkpt>
      <trkpt lat="43.71687" lon="7.0275">
        <ele>845.13623</ele>
        <time>2012-01-15T15:17:58+01:00</time>
      </trkpt>
      <trkpt lat="43.71695" lon="7.02762">
        <ele>845.616943</ele>
        <time>2012-01-15T15:18:05+01:00</time>
      </trkpt>
      <trkpt lat="43.71696" lon="7.02763">
        <ele>845.616943</ele>
        <time>2012-01-15T15:18:06+01:00</time>
      </trkpt>
      <trkpt lat="43.71704" lon="7.02773">
        <ele>848.020264</ele>
        <time>2012-01-15T15:18:12+01:00</time>
      </trkpt>
      <trkpt lat="43.71711" lon="7.02783">
        <ele>848.020264</ele>
        <time>2012-01-15T15:18:17+01:00</time>
      </trkpt>
      <trkpt lat="43.71721" lon="7.02794">
        <ele>847.539551</ele>
        <time>2012-01-15T15:18:24+01:00</time>
      </trkpt>
      <trkpt lat="43.71728" lon="7.02806">
        <ele>848.020264</ele>
        <time>2012-01-15T15:18:30+01:00</time>
      </trkpt>
      <trkpt lat="43.71737" lon="7.02818">
        <ele>848.020264</ele>
        <time>2012-01-15T15:18:36+01:00</time>
      </trkpt>
      <trkpt lat="43.71748" lon="7.02833">
        <ele>848.020264</ele>
        <time>2012-01-15T15:18:43+01:00</time>
      </trkpt>
      <trkpt lat="43.71757" lon="7.02846">
        <ele>848.020264</ele>
        <time>2012-01-15T15:18:49+01:00</time>
      </trkpt>
      <trkpt lat="43.71762" lon="7.02851">
        <ele>848.020264</ele>
        <time>2012-01-15T15:18:52+01:00</time>
      </trkpt>
      <trkpt lat="43.71771" lon="7.02865">
        <ele>847.539551</ele>
        <time>2012-01-15T15:19:00+01:00</time>
      </trkpt>
      <trkpt lat="43.71776" lon="7.02876">
        <ele>848.020264</ele>
        <time>2012-01-15T15:19:08+01:00</time>
      </trkpt>
      <trkpt lat="43.71779" lon="7.02879">
        <ele>848.020264</ele>
        <time>2012-01-15T15:19:14+01:00</time>
      </trkpt>
      <trkpt lat="43.71786" lon="7.02888">
        <ele>848.020264</ele>
        <time>2012-01-15T15:19:20+01:00</time>
      </trkpt>
      <trkpt lat="43.7179" lon="7.02896">
        <ele>848.020264</ele>
        <time>2012-01-15T15:19:25+01:00</time>
      </trkpt>
      <trkpt lat="43.718" lon="7.02908">
        <ele>847.539551</ele>
        <time>2012-01-15T15:19:31+01:00</time>
      </trkpt>
      <trkpt lat="43.7181" lon="7.02924">
        <ele>847.058838</ele>
        <time>2012-01-15T15:19:35+01:00</time>
      </trkpt>
      <trkpt lat="43.71831" lon="7.02954">
        <ele>844.175049</ele>
        <time>2012-01-15T15:19:41+01:00</time>
      </trkpt>
      <trkpt lat="43.71857" lon="7.02986">
        <ele>840.810059</ele>
        <time>2012-01-15T15:19:46+01:00</time>
      </trkpt>
      <trkpt lat="43.71868" lon="7.03001">
        <ele>839.848877</ele>
        <time>2012-01-15T15:19:48+01:00</time>
      </trkpt>
      <trkpt lat="43.719" lon="7.03065">
        <ele>835.04248</ele>
        <time>2012-01-15T15:19:55+01:00</time>
      </trkpt>
      <trkpt lat="43.71914" lon="7.03117">
        <ele>834.081055</ele>
        <time>2012-01-15T15:20:00+01:00</time>
      </trkpt>
      <trkpt lat="43.71916" lon="7.03126">
        <ele>834.081055</ele>
        <time>2012-01-15T15:20:01+01:00</time>
      </trkpt>
      <trkpt lat="43.71919" lon="7.0316">
        <ele>832.158447</ele>
        <time>2012-01-15T15:20:05+01:00</time>
      </trkpt>
      <trkpt lat="43.71918" lon="7.03187">
        <ele>830.716553</ele>
        <time>2012-01-15T15:20:09+01:00</time>
      </trkpt>
      <trkpt lat="43.7192" lon="7.03218">
        <ele>831.197266</ele>
        <time>2012-01-15T15:20:13+01:00</time>
      </trkpt>
      <trkpt lat="43.71924" lon="7.03229">
        <ele>831.197266</ele>
        <time>2012-01-15T15:20:15+01:00</time>
      </trkpt>
      <trkpt lat="43.71939" lon="7.03252">
        <ele>832.63916</ele>
        <time>2012-01-15T15:20:21+01:00</time>
      </trkpt>
      <trkpt lat="43.71956" lon="7.0327">
        <ele>833.600342</ele>
        <time>2012-01-15T15:20:28+01:00</time>
      </trkpt>
      <trkpt lat="43.71965" lon="7.03286">
        <ele>833.600342</ele>
        <time>2012-01-15T15:20:35+01:00</time>
      </trkpt>
      <trkpt lat="43.71972" lon="7.03293">
        <ele>833.119629</ele>
        <time>2012-01-15T15:20:40+01:00</time>
      </trkpt>
      <trkpt lat="43.71974" lon="7.03298">
        <ele>833.119629</ele>
        <time>2012-01-15T15:20:46+01:00</time>
      </trkpt>
      <trkpt lat="43.71975" lon="7.03297">
        <ele>834.561768</ele>
        <time>2012-01-15T15:21:04+01:00</time>
      </trkpt>
      <trkpt lat="43.71976" lon="7.03296">
        <ele>836.003662</ele>
        <time>2012-01-15T15:21:26+01:00</time>
      </trkpt>
      <trkpt lat="43.71975" lon="7.03296">
        <ele>836.484375</ele>
        <time>2012-01-15T15:21:34+01:00</time>
      </trkpt>
      <trkpt lat="43.71976" lon="7.033">
        <ele>836.484375</ele>
        <time>2012-01-15T15:21:55+01:00</time>
      </trkpt>
      <trkpt lat="43.71983" lon="7.03316">
        <ele>834.561768</ele>
        <time>2012-01-15T15:21:59+01:00</time>
      </trkpt>
      <trkpt lat="43.71996" lon="7.03346">
        <ele>831.197266</ele>
        <time>2012-01-15T15:22:03+01:00</time>
      </trkpt>
      <trkpt lat="43.72" lon="7.03355">
        <ele>830.716553</ele>
        <time>2012-01-15T15:22:04+01:00</time>
      </trkpt>
      <trkpt lat="43.72015" lon="7.03383">
        <ele>828.313232</ele>
        <time>2012-01-15T15:22:07+01:00</time>
      </trkpt>
      <trkpt lat="43.7203" lon="7.03415">
        <ele>826.871094</ele>
        <time>2012-01-15T15:22:10+01:00</time>
      </trkpt>
      <trkpt lat="43.72037" lon="7.03463">
        <ele>823.506592</ele>
        <time>2012-01-15T15:22:14+01:00</time>
      </trkpt>
      <trkpt lat="43.7204" lon="7.03498">
        <ele>821.58374</ele>
        <time>2012-01-15T15:22:17+01:00</time>
      </trkpt>
      <trkpt lat="43.72056" lon="7.03521">
        <ele>820.141846</ele>
        <time>2012-01-15T15:22:20+01:00</time>
      </trkpt>
      <trkpt lat="43.72087" lon="7.03555">
        <ele>818.699951</ele>
        <time>2012-01-15T15:22:26+01:00</time>
      </trkpt>
      <trkpt lat="43.72104" lon="7.03575">
        <ele>817.738525</ele>
        <time>2012-01-15T15:22:30+01:00</time>
      </trkpt>
      <trkpt lat="43.72127" lon="7.03604">
        <ele>815.335449</ele>
        <time>2012-01-15T15:22:34+01:00</time>
      </trkpt>
      <trkpt lat="43.72149" lon="7.03641">
        <ele>812.451416</ele>
        <time>2012-01-15T15:22:38+01:00</time>
      </trkpt>
      <trkpt lat="43.72154" lon="7.03671">
        <ele>810.047852</ele>
        <time>2012-01-15T15:22:41+01:00</time>
      </trkpt>
      <trkpt lat="43.72145" lon="7.03701">
        <ele>809.567383</ele>
        <time>2012-01-15T15:22:44+01:00</time>
      </trkpt>
      <trkpt lat="43.72137" lon="7.03719">
        <ele>808.605957</ele>
        <time>2012-01-15T15:22:46+01:00</time>
      </trkpt>
      <trkpt lat="43.72129" lon="7.0376">
        <ele>807.644775</ele>
        <time>2012-01-15T15:22:50+01:00</time>
      </trkpt>
      <trkpt lat="43.72126" lon="7.03795">
        <ele>808.125488</ele>
        <time>2012-01-15T15:22:54+01:00</time>
      </trkpt>
      <trkpt lat="43.72127" lon="7.03821">
        <ele>808.605957</ele>
        <time>2012-01-15T15:22:59+01:00</time>
      </trkpt>
      <trkpt lat="43.72128" lon="7.03829">
        <ele>809.08667</ele>
        <time>2012-01-15T15:23:01+01:00</time>
      </trkpt>
      <trkpt lat="43.72129" lon="7.03834">
        <ele>809.567383</ele>
        <time>2012-01-15T15:23:06+01:00</time>
      </trkpt>
      <trkpt lat="43.72129" lon="7.03833">
        <ele>812.451416</ele>
        <time>2012-01-15T15:23:15+01:00</time>
      </trkpt>
      <trkpt lat="43.72131" lon="7.03838">
        <ele>812.451416</ele>
        <time>2012-01-15T15:23:25+01:00</time>
      </trkpt>
      <trkpt lat="43.72132" lon="7.03844">
        <ele>811.48999</ele>
        <time>2012-01-15T15:23:28+01:00</time>
      </trkpt>
      <trkpt lat="43.72135" lon="7.03853">
        <ele>810.528564</ele>
        <time>2012-01-15T15:23:33+01:00</time>
      </trkpt>
      <trkpt lat="43.72135" lon="7.03856">
        <ele>810.047852</ele>
        <time>2012-01-15T15:23:34+01:00</time>
      </trkpt>
      <trkpt lat="43.72143" lon="7.03874">
        <ele>810.047852</ele>
        <time>2012-01-15T15:23:40+01:00</time>
      </trkpt>
      <trkpt lat="43.72151" lon="7.03896">
        <ele>811.48999</ele>
        <time>2012-01-15T15:23:46+01:00</time>
      </trkpt>
      <trkpt lat="43.72165" lon="7.0392">
        <ele>811.009277</ele>
        <time>2012-01-15T15:23:53+01:00</time>
      </trkpt>
      <trkpt lat="43.72188" lon="7.03942">
        <ele>811.970703</ele>
        <time>2012-01-15T15:24:01+01:00</time>
      </trkpt>
      <trkpt lat="43.72212" lon="7.03961">
        <ele>811.970703</ele>
        <time>2012-01-15T15:24:09+01:00</time>
      </trkpt>
      <trkpt lat="43.72226" lon="7.03969">
        <ele>812.932129</ele>
        <time>2012-01-15T15:24:14+01:00</time>
      </trkpt>
      <trkpt lat="43.72239" lon="7.03973">
        <ele>814.374023</ele>
        <time>2012-01-15T15:24:20+01:00</time>
      </trkpt>
      <trkpt lat="43.72251" lon="7.03978">
        <ele>814.374023</ele>
        <time>2012-01-15T15:24:27+01:00</time>
      </trkpt>
      <trkpt lat="43.72267" lon="7.03984">
        <ele>814.854736</ele>
        <time>2012-01-15T15:24:32+01:00</time>
      </trkpt>
      <trkpt lat="43.7228" lon="7.03989">
        <ele>815.335449</ele>
        <time>2012-01-15T15:24:37+01:00</time>
      </trkpt>
      <trkpt lat="43.72298" lon="7.03992">
        <ele>816.296631</ele>
        <time>2012-01-15T15:24:44+01:00</time>
      </trkpt>
      <trkpt lat="43.72307" lon="7.03993">
        <ele>815.816162</ele>
        <time>2012-01-15T15:24:50+01:00</time>
      </trkpt>
      <trkpt lat="43.72311" lon="7.03993">
        <ele>815.816162</ele>
        <time>2012-01-15T15:24:52+01:00</time>
      </trkpt>
      <trkpt lat="43.72317" lon="7.03993">
        <ele>815.335449</ele>
        <time>2012-01-15T15:24:57+01:00</time>
      </trkpt>
      <trkpt lat="43.72334" lon="7.03994">
        <ele>814.374023</ele>
        <time>2012-01-15T15:25:04+01:00</time>
      </trkpt>
      <trkpt lat="43.72347" lon="7.03988">
        <ele>813.412842</ele>
        <time>2012-01-15T15:25:09+01:00</time>
      </trkpt>
      <trkpt lat="43.72361" lon="7.03979">
        <ele>812.932129</ele>
        <time>2012-01-15T15:25:13+01:00</time>
      </trkpt>
      <trkpt lat="43.7238" lon="7.03963">
        <ele>811.970703</ele>
        <time>2012-01-15T15:25:17+01:00</time>
      </trkpt>
      <trkpt lat="43.7239" lon="7.03954">
        <ele>811.48999</ele>
        <time>2012-01-15T15:25:19+01:00</time>
      </trkpt>
      <trkpt lat="43.7241" lon="7.03942">
        <ele>809.567383</ele>
        <time>2012-01-15T15:25:23+01:00</time>
      </trkpt>
      <trkpt lat="43.72422" lon="7.03954">
        <ele>808.605957</ele>
        <time>2012-01-15T15:25:26+01:00</time>
      </trkpt>
      <trkpt lat="43.72423" lon="7.03961">
        <ele>808.605957</ele>
        <time>2012-01-15T15:25:27+01:00</time>
      </trkpt>
      <trkpt lat="43.72442" lon="7.03998">
        <ele>809.567383</ele>
        <time>2012-01-15T15:25:33+01:00</time>
      </trkpt>
      <trkpt lat="43.72445" lon="7.04003">
        <ele>809.567383</ele>
        <time>2012-01-15T15:25:34+01:00</time>
      </trkpt>
      <trkpt lat="43.72452" lon="7.04013">
        <ele>810.047852</ele>
        <time>2012-01-15T15:25:36+01:00</time>
      </trkpt>
      <trkpt lat="43.72458" lon="7.04021">
        <ele>810.528564</ele>
        <time>2012-01-15T15:25:38+01:00</time>
      </trkpt>
      <trkpt lat="43.72474" lon="7.04028">
        <ele>811.970703</ele>
        <time>2012-01-15T15:25:43+01:00</time>
      </trkpt>
      <trkpt lat="43.72486" lon="7.04032">
        <ele>813.412842</ele>
        <time>2012-01-15T15:25:49+01:00</time>
      </trkpt>
      <trkpt lat="43.72499" lon="7.04036">
        <ele>813.893311</ele>
        <time>2012-01-15T15:25:55+01:00</time>
      </trkpt>
      <trkpt lat="43.72513" lon="7.04042">
        <ele>813.412842</ele>
        <time>2012-01-15T15:26:04+01:00</time>
      </trkpt>
      <trkpt lat="43.72519" lon="7.04046">
        <ele>813.412842</ele>
        <time>2012-01-15T15:26:10+01:00</time>
      </trkpt>
      <trkpt lat="43.72525" lon="7.0405">
        <ele>813.412842</ele>
        <time>2012-01-15T15:26:14+01:00</time>
      </trkpt>
      <trkpt lat="43.72535" lon="7.04057">
        <ele>813.893311</ele>
        <time>2012-01-15T15:26:21+01:00</time>
      </trkpt>
      <trkpt lat="43.72545" lon="7.04064">
        <ele>813.412842</ele>
        <time>2012-01-15T15:26:29+01:00</time>
      </trkpt>
      <trkpt lat="43.72557" lon="7.0407">
        <ele>812.932129</ele>
        <time>2012-01-15T15:26:35+01:00</time>
      </trkpt>
      <trkpt lat="43.72575" lon="7.04073">
        <ele>811.48999</ele>
        <time>2012-01-15T15:26:40+01:00</time>
      </trkpt>
      <trkpt lat="43.72595" lon="7.04082">
        <ele>810.528564</ele>
        <time>2012-01-15T15:26:44+01:00</time>
      </trkpt>
      <trkpt lat="43.72603" lon="7.04092">
        <ele>811.009277</ele>
        <time>2012-01-15T15:26:47+01:00</time>
      </trkpt>
      <trkpt lat="43.7262" lon="7.04098">
        <ele>811.970703</ele>
        <time>2012-01-15T15:26:53+01:00</time>
      </trkpt>
      <trkpt lat="43.72632" lon="7.04098">
        <ele>813.412842</ele>
        <time>2012-01-15T15:26:58+01:00</time>
      </trkpt>
      <trkpt lat="43.72635" lon="7.04098">
        <ele>813.412842</ele>
        <time>2012-01-15T15:27:03+01:00</time>
      </trkpt>
      <trkpt lat="43.72635" lon="7.04098">
        <ele>814.374023</ele>
        <time>2012-01-15T15:27:19+01:00</time>
      </trkpt>
      <trkpt lat="43.72635" lon="7.04098">
        <ele>814.374023</ele>
        <time>2012-01-15T15:27:25+01:00</time>
      </trkpt>
      <trkpt lat="43.72642" lon="7.041">
        <ele>814.374023</ele>
        <time>2012-01-15T15:27:31+01:00</time>
      </trkpt>
      <trkpt lat="43.72644" lon="7.04101">
        <ele>814.374023</ele>
        <time>2012-01-15T15:27:32+01:00</time>
      </trkpt>
      <trkpt lat="43.72666" lon="7.04114">
        <ele>813.412842</ele>
        <time>2012-01-15T15:27:40+01:00</time>
      </trkpt>
      <trkpt lat="43.72689" lon="7.04129">
        <ele>815.335449</ele>
        <time>2012-01-15T15:27:48+01:00</time>
      </trkpt>
      <trkpt lat="43.72705" lon="7.04137">
        <ele>817.258057</ele>
        <time>2012-01-15T15:27:54+01:00</time>
      </trkpt>
      <trkpt lat="43.72724" lon="7.04137">
        <ele>817.738525</ele>
        <time>2012-01-15T15:28:01+01:00</time>
      </trkpt>
      <trkpt lat="43.72747" lon="7.04138">
        <ele>818.699951</ele>
        <time>2012-01-15T15:28:09+01:00</time>
      </trkpt>
      <trkpt lat="43.72763" lon="7.04134">
        <ele>820.141846</ele>
        <time>2012-01-15T15:28:16+01:00</time>
      </trkpt>
      <trkpt lat="43.72781" lon="7.04126">
        <ele>821.103271</ele>
        <time>2012-01-15T15:28:23+01:00</time>
      </trkpt>
      <trkpt lat="43.72797" lon="7.04117">
        <ele>822.545166</ele>
        <time>2012-01-15T15:28:30+01:00</time>
      </trkpt>
      <trkpt lat="43.72805" lon="7.04116">
        <ele>823.506592</ele>
        <time>2012-01-15T15:28:33+01:00</time>
      </trkpt>
      <trkpt lat="43.72817" lon="7.04119">
        <ele>823.506592</ele>
        <time>2012-01-15T15:28:38+01:00</time>
      </trkpt>
      <trkpt lat="43.72827" lon="7.04122">
        <ele>823.987061</ele>
        <time>2012-01-15T15:28:43+01:00</time>
      </trkpt>
      <trkpt lat="43.72842" lon="7.04129">
        <ele>826.390381</ele>
        <time>2012-01-15T15:28:49+01:00</time>
      </trkpt>
      <trkpt lat="43.72858" lon="7.04133">
        <ele>828.313232</ele>
        <time>2012-01-15T15:28:57+01:00</time>
      </trkpt>
      <trkpt lat="43.72872" lon="7.04134">
        <ele>830.23584</ele>
        <time>2012-01-15T15:29:04+01:00</time>
      </trkpt>
      <trkpt lat="43.72879" lon="7.04135">
        <ele>830.716553</ele>
        <time>2012-01-15T15:29:11+01:00</time>
      </trkpt>
      <trkpt lat="43.72879" lon="7.04134">
        <ele>831.197266</ele>
        <time>2012-01-15T15:29:22+01:00</time>
      </trkpt>
      <trkpt lat="43.72882" lon="7.04134">
        <ele>832.158447</ele>
        <time>2012-01-15T15:29:56+01:00</time>
      </trkpt>
      <trkpt lat="43.72901" lon="7.04135">
        <ele>831.677734</ele>
        <time>2012-01-15T15:30:02+01:00</time>
      </trkpt>
      <trkpt lat="43.72921" lon="7.04138">
        <ele>831.677734</ele>
        <time>2012-01-15T15:30:06+01:00</time>
      </trkpt>
      <trkpt lat="43.72932" lon="7.04139">
        <ele>831.197266</ele>
        <time>2012-01-15T15:30:08+01:00</time>
      </trkpt>
      <trkpt lat="43.72948" lon="7.04151">
        <ele>830.716553</ele>
        <time>2012-01-15T15:30:12+01:00</time>
      </trkpt>
      <trkpt lat="43.7295" lon="7.04157">
        <ele>831.677734</ele>
        <time>2012-01-15T15:30:14+01:00</time>
      </trkpt>
      <trkpt lat="43.72951" lon="7.04177">
        <ele>833.119629</ele>
        <time>2012-01-15T15:30:22+01:00</time>
      </trkpt>
      <trkpt lat="43.72946" lon="7.04197">
        <ele>835.04248</ele>
        <time>2012-01-15T15:30:30+01:00</time>
      </trkpt>
      <trkpt lat="43.72944" lon="7.04214">
        <ele>836.003662</ele>
        <time>2012-01-15T15:30:37+01:00</time>
      </trkpt>
      <trkpt lat="43.72945" lon="7.04231">
        <ele>835.522949</ele>
        <time>2012-01-15T15:30:44+01:00</time>
      </trkpt>
      <trkpt lat="43.72946" lon="7.04245">
        <ele>835.04248</ele>
        <time>2012-01-15T15:30:49+01:00</time>
      </trkpt>
      <trkpt lat="43.72952" lon="7.04249">
        <ele>836.003662</ele>
        <time>2012-01-15T15:30:55+01:00</time>
      </trkpt>
      <trkpt lat="43.7295" lon="7.0424">
        <ele>836.003662</ele>
        <time>2012-01-15T15:30:59+01:00</time>
      </trkpt>
      <trkpt lat="43.72941" lon="7.04223">
        <ele>836.003662</ele>
        <time>2012-01-15T15:31:05+01:00</time>
      </trkpt>
      <trkpt lat="43.72934" lon="7.04228">
        <ele>836.003662</ele>
        <time>2012-01-15T15:31:09+01:00</time>
      </trkpt>
      <trkpt lat="43.72934" lon="7.04245">
        <ele>836.003662</ele>
        <time>2012-01-15T15:31:12+01:00</time>
      </trkpt>
      <trkpt lat="43.72935" lon="7.04247">
        <ele>836.484375</ele>
        <time>2012-01-15T15:31:14+01:00</time>
      </trkpt>
      <trkpt lat="43.72935" lon="7.04248">
        <ele>837.445557</ele>
        <time>2012-01-15T15:31:22+01:00</time>
      </trkpt>
      <trkpt lat="43.72937" lon="7.04252">
        <ele>838.887695</ele>
        <time>2012-01-15T15:31:28+01:00</time>
      </trkpt>
      <trkpt lat="43.72938" lon="7.04256">
        <ele>838.887695</ele>
        <time>2012-01-15T15:31:32+01:00</time>
      </trkpt>
      <trkpt lat="43.72939" lon="7.04257">
        <ele>838.406982</ele>
        <time>2012-01-15T15:31:33+01:00</time>
      </trkpt>
      <trkpt lat="43.72949" lon="7.04262">
        <ele>837.445557</ele>
        <time>2012-01-15T15:31:37+01:00</time>
      </trkpt>
      <trkpt lat="43.72949" lon="7.04265">
        <ele>837.445557</ele>
        <time>2012-01-15T15:31:38+01:00</time>
      </trkpt>
      <trkpt lat="43.72945" lon="7.04285">
        <ele>837.445557</ele>
        <time>2012-01-15T15:31:46+01:00</time>
      </trkpt>
      <trkpt lat="43.72943" lon="7.04301">
        <ele>837.445557</ele>
        <time>2012-01-15T15:31:51+01:00</time>
      </trkpt>
      <trkpt lat="43.72943" lon="7.04325">
        <ele>838.406982</ele>
        <time>2012-01-15T15:31:58+01:00</time>
      </trkpt>
      <trkpt lat="43.72943" lon="7.04358">
        <ele>840.32959</ele>
        <time>2012-01-15T15:32:06+01:00</time>
      </trkpt>
      <trkpt lat="43.72944" lon="7.04389">
        <ele>841.290771</ele>
        <time>2012-01-15T15:32:13+01:00</time>
      </trkpt>
      <trkpt lat="43.72943" lon="7.04413">
        <ele>843.213379</ele>
        <time>2012-01-15T15:32:19+01:00</time>
      </trkpt>
      <trkpt lat="43.72943" lon="7.04445">
        <ele>844.175049</ele>
        <time>2012-01-15T15:32:26+01:00</time>
      </trkpt>
      <trkpt lat="43.72939" lon="7.0447">
        <ele>843.694092</ele>
        <time>2012-01-15T15:32:32+01:00</time>
      </trkpt>
      <trkpt lat="43.72938" lon="7.04473">
        <ele>843.694092</ele>
        <time>2012-01-15T15:32:36+01:00</time>
      </trkpt>
      <trkpt lat="43.72938" lon="7.04472">
        <ele>844.655518</ele>
        <time>2012-01-15T15:32:47+01:00</time>
      </trkpt>
      <trkpt lat="43.72937" lon="7.04473">
        <ele>845.616943</ele>
        <time>2012-01-15T15:32:58+01:00</time>
      </trkpt>
      <trkpt lat="43.72934" lon="7.04489">
        <ele>847.058838</ele>
        <time>2012-01-15T15:33:08+01:00</time>
      </trkpt>
      <trkpt lat="43.7293" lon="7.04506">
        <ele>848.020264</ele>
        <time>2012-01-15T15:33:18+01:00</time>
      </trkpt>
      <trkpt lat="43.72931" lon="7.04516">
        <ele>848.020264</ele>
        <time>2012-01-15T15:33:25+01:00</time>
      </trkpt>
      <trkpt lat="43.72932" lon="7.04521">
        <ele>847.058838</ele>
        <time>2012-01-15T15:33:31+01:00</time>
      </trkpt>
      <trkpt lat="43.72941" lon="7.04534">
        <ele>847.058838</ele>
        <time>2012-01-15T15:33:42+01:00</time>
      </trkpt>
      <trkpt lat="43.72944" lon="7.04538">
        <ele>847.058838</ele>
        <time>2012-01-15T15:33:46+01:00</time>
      </trkpt>
      <trkpt lat="43.72944" lon="7.04537">
        <ele>847.058838</ele>
        <time>2012-01-15T15:33:53+01:00</time>
      </trkpt>
      <trkpt lat="43.72944" lon="7.04538">
        <ele>846.578369</ele>
        <time>2012-01-15T15:34:02+01:00</time>
      </trkpt>
      <trkpt lat="43.72944" lon="7.04538">
        <ele>846.578369</ele>
        <time>2012-01-15T15:34:08+01:00</time>
      </trkpt>
      <trkpt lat="43.72948" lon="7.0454">
        <ele>846.578369</ele>
        <time>2012-01-15T15:34:13+01:00</time>
      </trkpt>
      <trkpt lat="43.7295" lon="7.04542">
        <ele>846.578369</ele>
        <time>2012-01-15T15:34:16+01:00</time>
      </trkpt>
      <trkpt lat="43.7296" lon="7.0455">
        <ele>846.578369</ele>
        <time>2012-01-15T15:34:23+01:00</time>
      </trkpt>
      <trkpt lat="43.72968" lon="7.04558">
        <ele>845.13623</ele>
        <time>2012-01-15T15:34:29+01:00</time>
      </trkpt>
      <trkpt lat="43.72984" lon="7.04572">
        <ele>843.213379</ele>
        <time>2012-01-15T15:34:34+01:00</time>
      </trkpt>
      <trkpt lat="43.73006" lon="7.04593">
        <ele>841.771484</ele>
        <time>2012-01-15T15:34:40+01:00</time>
      </trkpt>
      <trkpt lat="43.73031" lon="7.0462">
        <ele>839.848877</ele>
        <time>2012-01-15T15:34:47+01:00</time>
      </trkpt>
      <trkpt lat="43.7305" lon="7.04644">
        <ele>838.887695</ele>
        <time>2012-01-15T15:34:53+01:00</time>
      </trkpt>
      <trkpt lat="43.73075" lon="7.04678">
        <ele>838.406982</ele>
        <time>2012-01-15T15:35:02+01:00</time>
      </trkpt>
      <trkpt lat="43.73096" lon="7.04706">
        <ele>836.484375</ele>
        <time>2012-01-15T15:35:07+01:00</time>
      </trkpt>
      <trkpt lat="43.73118" lon="7.04733">
        <ele>834.561768</ele>
        <time>2012-01-15T15:35:12+01:00</time>
      </trkpt>
      <trkpt lat="43.73121" lon="7.04736">
        <ele>834.081055</ele>
        <time>2012-01-15T15:35:17+01:00</time>
      </trkpt>
      <trkpt lat="43.73122" lon="7.04736">
        <ele>833.600342</ele>
        <time>2012-01-15T15:35:24+01:00</time>
      </trkpt>
      <trkpt lat="43.73123" lon="7.04736">
        <ele>833.600342</ele>
        <time>2012-01-15T15:35:32+01:00</time>
      </trkpt>
      <trkpt lat="43.73124" lon="7.04736">
        <ele>835.522949</ele>
        <time>2012-01-15T15:35:52+01:00</time>
      </trkpt>
      <trkpt lat="43.73125" lon="7.04737">
        <ele>835.522949</ele>
        <time>2012-01-15T15:35:55+01:00</time>
      </trkpt>
      <trkpt lat="43.73138" lon="7.04743">
        <ele>835.04248</ele>
        <time>2012-01-15T15:36:01+01:00</time>
      </trkpt>
      <trkpt lat="43.73154" lon="7.04748">
        <ele>834.081055</ele>
        <time>2012-01-15T15:36:07+01:00</time>
      </trkpt>
      <trkpt lat="43.73178" lon="7.04751">
        <ele>833.119629</ele>
        <time>2012-01-15T15:36:15+01:00</time>
      </trkpt>
      <trkpt lat="43.73199" lon="7.0476">
        <ele>832.63916</ele>
        <time>2012-01-15T15:36:22+01:00</time>
      </trkpt>
      <trkpt lat="43.73217" lon="7.0477">
        <ele>832.63916</ele>
        <time>2012-01-15T15:36:28+01:00</time>
      </trkpt>
      <trkpt lat="43.73237" lon="7.0478">
        <ele>833.119629</ele>
        <time>2012-01-15T15:36:36+01:00</time>
      </trkpt>
      <trkpt lat="43.73248" lon="7.0479">
        <ele>833.600342</ele>
        <time>2012-01-15T15:36:42+01:00</time>
      </trkpt>
      <trkpt lat="43.73255" lon="7.04817">
        <ele>833.119629</ele>
        <time>2012-01-15T15:36:52+01:00</time>
      </trkpt>
      <trkpt lat="43.73262" lon="7.04839">
        <ele>832.158447</ele>
        <time>2012-01-15T15:36:59+01:00</time>
      </trkpt>
      <trkpt lat="43.73268" lon="7.04859">
        <ele>832.63916</ele>
        <time>2012-01-15T15:37:05+01:00</time>
      </trkpt>
      <trkpt lat="43.7328" lon="7.04895">
        <ele>832.63916</ele>
        <time>2012-01-15T15:37:14+01:00</time>
      </trkpt>
      <trkpt lat="43.73293" lon="7.04929">
        <ele>832.158447</ele>
        <time>2012-01-15T15:37:21+01:00</time>
      </trkpt>
      <trkpt lat="43.73301" lon="7.04945">
        <ele>831.677734</ele>
        <time>2012-01-15T15:37:24+01:00</time>
      </trkpt>
      <trkpt lat="43.73319" lon="7.0496">
        <ele>831.197266</ele>
        <time>2012-01-15T15:37:28+01:00</time>
      </trkpt>
      <trkpt lat="43.73333" lon="7.04977">
        <ele>830.23584</ele>
        <time>2012-01-15T15:37:31+01:00</time>
      </trkpt>
      <trkpt lat="43.7335" lon="7.04991">
        <ele>828.793945</ele>
        <time>2012-01-15T15:37:35+01:00</time>
      </trkpt>
      <trkpt lat="43.73362" lon="7.04997">
        <ele>826.871094</ele>
        <time>2012-01-15T15:37:37+01:00</time>
      </trkpt>
      <trkpt lat="43.73381" lon="7.05013">
        <ele>823.987061</ele>
        <time>2012-01-15T15:37:40+01:00</time>
      </trkpt>
      <trkpt lat="43.734" lon="7.05034">
        <ele>821.103271</ele>
        <time>2012-01-15T15:37:43+01:00</time>
      </trkpt>
      <trkpt lat="43.73416" lon="7.0507">
        <ele>816.296631</ele>
        <time>2012-01-15T15:37:48+01:00</time>
      </trkpt>
      <trkpt lat="43.73419" lon="7.05095">
        <ele>813.893311</ele>
        <time>2012-01-15T15:37:53+01:00</time>
      </trkpt>
      <trkpt lat="43.7342" lon="7.05102">
        <ele>812.932129</ele>
        <time>2012-01-15T15:37:55+01:00</time>
      </trkpt>
      <trkpt lat="43.73424" lon="7.05127">
        <ele>812.451416</ele>
        <time>2012-01-15T15:38:01+01:00</time>
      </trkpt>
      <trkpt lat="43.73426" lon="7.05139">
        <ele>812.932129</ele>
        <time>2012-01-15T15:38:05+01:00</time>
      </trkpt>
      <trkpt lat="43.73429" lon="7.0516">
        <ele>814.854736</ele>
        <time>2012-01-15T15:38:12+01:00</time>
      </trkpt>
      <trkpt lat="43.73432" lon="7.0518">
        <ele>817.258057</ele>
        <time>2012-01-15T15:38:19+01:00</time>
      </trkpt>
      <trkpt lat="43.73434" lon="7.052">
        <ele>818.219238</ele>
        <time>2012-01-15T15:38:26+01:00</time>
      </trkpt>
      <trkpt lat="43.73437" lon="7.05222">
        <ele>818.219238</ele>
        <time>2012-01-15T15:38:32+01:00</time>
      </trkpt>
      <trkpt lat="43.73441" lon="7.05243">
        <ele>817.738525</ele>
        <time>2012-01-15T15:38:37+01:00</time>
      </trkpt>
      <trkpt lat="43.7345" lon="7.05268">
        <ele>816.296631</ele>
        <time>2012-01-15T15:38:45+01:00</time>
      </trkpt>
      <trkpt lat="43.73457" lon="7.05294">
        <ele>818.219238</ele>
        <time>2012-01-15T15:38:53+01:00</time>
      </trkpt>
      <trkpt lat="43.7346" lon="7.05318">
        <ele>820.622559</ele>
        <time>2012-01-15T15:39:00+01:00</time>
      </trkpt>
      <trkpt lat="43.73462" lon="7.05334">
        <ele>822.064453</ele>
        <time>2012-01-15T15:39:06+01:00</time>
      </trkpt>
      <trkpt lat="43.73464" lon="7.05347">
        <ele>822.545166</ele>
        <time>2012-01-15T15:39:12+01:00</time>
      </trkpt>
      <trkpt lat="43.73466" lon="7.05355">
        <ele>822.545166</ele>
        <time>2012-01-15T15:39:16+01:00</time>
      </trkpt>
      <trkpt lat="43.73467" lon="7.05365">
        <ele>822.545166</ele>
        <time>2012-01-15T15:39:22+01:00</time>
      </trkpt>
      <trkpt lat="43.73467" lon="7.05367">
        <ele>823.025879</ele>
        <time>2012-01-15T15:39:25+01:00</time>
      </trkpt>
      <trkpt lat="43.73467" lon="7.05381">
        <ele>823.987061</ele>
        <time>2012-01-15T15:39:33+01:00</time>
      </trkpt>
      <trkpt lat="43.73467" lon="7.05385">
        <ele>823.987061</ele>
        <time>2012-01-15T15:39:35+01:00</time>
      </trkpt>
      <trkpt lat="43.73472" lon="7.05406">
        <ele>822.064453</ele>
        <time>2012-01-15T15:39:40+01:00</time>
      </trkpt>
      <trkpt lat="43.73477" lon="7.05432">
        <ele>819.661377</ele>
        <time>2012-01-15T15:39:44+01:00</time>
      </trkpt>
      <trkpt lat="43.73478" lon="7.05435">
        <ele>818.699951</ele>
        <time>2012-01-15T15:39:51+01:00</time>
      </trkpt>
      <trkpt lat="43.7348" lon="7.05437">
        <ele>819.661377</ele>
        <time>2012-01-15T15:39:55+01:00</time>
      </trkpt>
      <trkpt lat="43.73479" lon="7.05438">
        <ele>821.58374</ele>
        <time>2012-01-15T15:40:03+01:00</time>
      </trkpt>
      <trkpt lat="43.73478" lon="7.05438">
        <ele>823.506592</ele>
        <time>2012-01-15T15:40:14+01:00</time>
      </trkpt>
      <trkpt lat="43.73477" lon="7.05438">
        <ele>824.467773</ele>
        <time>2012-01-15T15:40:21+01:00</time>
      </trkpt>
      <trkpt lat="43.73477" lon="7.05438">
        <ele>825.909668</ele>
        <time>2012-01-15T15:40:32+01:00</time>
      </trkpt>
      <trkpt lat="43.73478" lon="7.05437">
        <ele>823.506592</ele>
        <time>2012-01-15T15:40:47+01:00</time>
      </trkpt>
      <trkpt lat="43.73478" lon="7.05438">
        <ele>823.987061</ele>
        <time>2012-01-15T15:41:02+01:00</time>
      </trkpt>
      <trkpt lat="43.7348" lon="7.05436">
        <ele>823.506592</ele>
        <time>2012-01-15T15:41:12+01:00</time>
      </trkpt>
      <trkpt lat="43.73479" lon="7.05439">
        <ele>824.948486</ele>
        <time>2012-01-15T15:41:19+01:00</time>
      </trkpt>
      <trkpt lat="43.7348" lon="7.0544">
        <ele>826.871094</ele>
        <time>2012-01-15T15:41:25+01:00</time>
      </trkpt>
      <trkpt lat="43.73482" lon="7.05439">
        <ele>826.871094</ele>
        <time>2012-01-15T15:41:31+01:00</time>
      </trkpt>
      <trkpt lat="43.7349" lon="7.05431">
        <ele>825.909668</ele>
        <time>2012-01-15T15:41:37+01:00</time>
      </trkpt>
      <trkpt lat="43.735" lon="7.05422">
        <ele>824.948486</ele>
        <time>2012-01-15T15:41:43+01:00</time>
      </trkpt>
      <trkpt lat="43.7351" lon="7.05408">
        <ele>824.948486</ele>
        <time>2012-01-15T15:41:51+01:00</time>
      </trkpt>
      <trkpt lat="43.73521" lon="7.05398">
        <ele>825.909668</ele>
        <time>2012-01-15T15:41:59+01:00</time>
      </trkpt>
      <trkpt lat="43.73532" lon="7.0539">
        <ele>826.871094</ele>
        <time>2012-01-15T15:42:07+01:00</time>
      </trkpt>
      <trkpt lat="43.73541" lon="7.05381">
        <ele>828.313232</ele>
        <time>2012-01-15T15:42:15+01:00</time>
      </trkpt>
      <trkpt lat="43.73552" lon="7.05367">
        <ele>829.755127</ele>
        <time>2012-01-15T15:42:25+01:00</time>
      </trkpt>
      <trkpt lat="43.73561" lon="7.05355">
        <ele>832.158447</ele>
        <time>2012-01-15T15:42:32+01:00</time>
      </trkpt>
      <trkpt lat="43.73563" lon="7.0535">
        <ele>833.600342</ele>
        <time>2012-01-15T15:42:35+01:00</time>
      </trkpt>
      <trkpt lat="43.73568" lon="7.05343">
        <ele>834.561768</ele>
        <time>2012-01-15T15:42:40+01:00</time>
      </trkpt>
      <trkpt lat="43.73571" lon="7.05341">
        <ele>835.04248</ele>
        <time>2012-01-15T15:42:43+01:00</time>
      </trkpt>
      <trkpt lat="43.73577" lon="7.05328">
        <ele>836.484375</ele>
        <time>2012-01-15T15:42:52+01:00</time>
      </trkpt>
      <trkpt lat="43.73578" lon="7.05322">
        <ele>836.964844</ele>
        <time>2012-01-15T15:42:56+01:00</time>
      </trkpt>
      <trkpt lat="43.73576" lon="7.05312">
        <ele>835.522949</ele>
        <time>2012-01-15T15:43:01+01:00</time>
      </trkpt>
      <trkpt lat="43.73576" lon="7.05308">
        <ele>834.561768</ele>
        <time>2012-01-15T15:43:07+01:00</time>
      </trkpt>
      <trkpt lat="43.73575" lon="7.05306">
        <ele>836.964844</ele>
        <time>2012-01-15T15:43:12+01:00</time>
      </trkpt>
      <trkpt lat="43.73575" lon="7.05305">
        <ele>840.810059</ele>
        <time>2012-01-15T15:43:19+01:00</time>
      </trkpt>
      <trkpt lat="43.73575" lon="7.05303">
        <ele>841.771484</ele>
        <time>2012-01-15T15:43:27+01:00</time>
      </trkpt>
      <trkpt lat="43.73574" lon="7.05296">
        <ele>840.32959</ele>
        <time>2012-01-15T15:43:56+01:00</time>
      </trkpt>
      <trkpt lat="43.73575" lon="7.05298">
        <ele>840.32959</ele>
        <time>2012-01-15T15:44:10+01:00</time>
      </trkpt>
      <trkpt lat="43.73574" lon="7.05298">
        <ele>840.810059</ele>
        <time>2012-01-15T15:44:17+01:00</time>
      </trkpt>
      <trkpt lat="43.73575" lon="7.053">
        <ele>837.92627</ele>
        <time>2012-01-15T15:44:27+01:00</time>
      </trkpt>
      <trkpt lat="43.73575" lon="7.053">
        <ele>837.92627</ele>
        <time>2012-01-15T15:44:35+01:00</time>
      </trkpt>
      <trkpt lat="43.73575" lon="7.05298">
        <ele>838.887695</ele>
        <time>2012-01-15T15:44:41+01:00</time>
      </trkpt>
      <trkpt lat="43.73574" lon="7.05298">
        <ele>838.406982</ele>
        <time>2012-01-15T15:44:51+01:00</time>
      </trkpt>
      <trkpt lat="43.73574" lon="7.05298">
        <ele>839.368164</ele>
        <time>2012-01-15T15:44:57+01:00</time>
      </trkpt>
      <trkpt lat="43.73575" lon="7.05301">
        <ele>838.406982</ele>
        <time>2012-01-15T15:45:04+01:00</time>
      </trkpt>
      <trkpt lat="43.73576" lon="7.05303">
        <ele>836.964844</ele>
        <time>2012-01-15T15:45:23+01:00</time>
      </trkpt>
      <trkpt lat="43.73574" lon="7.053">
        <ele>840.32959</ele>
        <time>2012-01-15T15:45:41+01:00</time>
      </trkpt>
      <trkpt lat="43.73575" lon="7.05302">
        <ele>838.887695</ele>
        <time>2012-01-15T15:45:56+01:00</time>
      </trkpt>
      <trkpt lat="43.73577" lon="7.05302">
        <ele>834.081055</ele>
        <time>2012-01-15T15:46:17+01:00</time>
      </trkpt>
      <trkpt lat="43.73576" lon="7.05303">
        <ele>833.600342</ele>
        <time>2012-01-15T15:46:49+01:00</time>
      </trkpt>
      <trkpt lat="43.73574" lon="7.05304">
        <ele>836.484375</ele>
        <time>2012-01-15T15:47:06+01:00</time>
      </trkpt>
      <trkpt lat="43.7357" lon="7.05311">
        <ele>846.578369</ele>
        <time>2012-01-15T15:47:25+01:00</time>
      </trkpt>
      <trkpt lat="43.73573" lon="7.0531">
        <ele>843.213379</ele>
        <time>2012-01-15T15:47:40+01:00</time>
      </trkpt>
      <trkpt lat="43.73573" lon="7.05308">
        <ele>841.771484</ele>
        <time>2012-01-15T15:47:59+01:00</time>
      </trkpt>
      <trkpt lat="43.73571" lon="7.05307">
        <ele>842.73291</ele>
        <time>2012-01-15T15:48:27+01:00</time>
      </trkpt>
      <trkpt lat="43.73572" lon="7.05307">
        <ele>841.290771</ele>
        <time>2012-01-15T15:48:36+01:00</time>
      </trkpt>
      <trkpt lat="43.73571" lon="7.05309">
        <ele>843.213379</ele>
        <time>2012-01-15T15:48:46+01:00</time>
      </trkpt>
      <trkpt lat="43.73575" lon="7.05305">
        <ele>834.561768</ele>
        <time>2012-01-15T15:49:27+01:00</time>
      </trkpt>
      <trkpt lat="43.73574" lon="7.05306">
        <ele>836.964844</ele>
        <time>2012-01-15T15:49:32+01:00</time>
      </trkpt>
      <trkpt lat="43.73573" lon="7.05309">
        <ele>840.32959</ele>
        <time>2012-01-15T15:49:43+01:00</time>
      </trkpt>
      <trkpt lat="43.73572" lon="7.05308">
        <ele>840.810059</ele>
        <time>2012-01-15T15:50:00+01:00</time>
      </trkpt>
      <trkpt lat="43.73572" lon="7.05306">
        <ele>839.848877</ele>
        <time>2012-01-15T15:50:04+01:00</time>
      </trkpt>
      <trkpt lat="43.73573" lon="7.05305">
        <ele>838.887695</ele>
        <time>2012-01-15T15:50:09+01:00</time>
      </trkpt>
      <trkpt lat="43.73572" lon="7.05304">
        <ele>838.887695</ele>
        <time>2012-01-15T15:50:18+01:00</time>
      </trkpt>
      <trkpt lat="43.73574" lon="7.05304">
        <ele>836.964844</ele>
        <time>2012-01-15T15:50:26+01:00</time>
      </trkpt>
      <trkpt lat="43.73574" lon="7.05305">
        <ele>837.92627</ele>
        <time>2012-01-15T15:50:36+01:00</time>
      </trkpt>
      <trkpt lat="43.73573" lon="7.05304">
        <ele>841.290771</ele>
        <time>2012-01-15T15:50:47+01:00</time>
      </trkpt>
      <trkpt lat="43.73574" lon="7.05303">
        <ele>840.810059</ele>
        <time>2012-01-15T15:50:56+01:00</time>
      </trkpt>
      <trkpt lat="43.73575" lon="7.05303">
        <ele>839.848877</ele>
        <time>2012-01-15T15:51:04+01:00</time>
      </trkpt>
      <trkpt lat="43.73573" lon="7.05302">
        <ele>839.368164</ele>
        <time>2012-01-15T15:51:12+01:00</time>
      </trkpt>
      <trkpt lat="43.73572" lon="7.053">
        <ele>839.848877</ele>
        <time>2012-01-15T15:51:17+01:00</time>
      </trkpt>
      <trkpt lat="43.73573" lon="7.053">
        <ele>839.848877</ele>
        <time>2012-01-15T15:51:24+01:00</time>
      </trkpt>
      <trkpt lat="43.73574" lon="7.05301">
        <ele>837.92627</ele>
        <time>2012-01-15T15:51:33+01:00</time>
      </trkpt>
      <trkpt lat="43.73575" lon="7.05301">
        <ele>835.522949</ele>
        <time>2012-01-15T15:51:39+01:00</time>
      </trkpt>
      <trkpt lat="43.73575" lon="7.053">
        <ele>834.081055</ele>
        <time>2012-01-15T15:51:48+01:00</time>
      </trkpt>
      <trkpt lat="43.73577" lon="7.053">
        <ele>836.484375</ele>
        <time>2012-01-15T15:51:53+01:00</time>
      </trkpt>
      <trkpt lat="43.73581" lon="7.05297">
        <ele>838.887695</ele>
        <time>2012-01-15T15:51:59+01:00</time>
      </trkpt>
      <trkpt lat="43.73584" lon="7.05292">
        <ele>839.848877</ele>
        <time>2012-01-15T15:52:06+01:00</time>
      </trkpt>
      <trkpt lat="43.73589" lon="7.05287">
        <ele>840.32959</ele>
        <time>2012-01-15T15:52:14+01:00</time>
      </trkpt>
      <trkpt lat="43.73594" lon="7.05281">
        <ele>840.810059</ele>
        <time>2012-01-15T15:52:21+01:00</time>
      </trkpt>
      <trkpt lat="43.73597" lon="7.05278">
        <ele>842.252197</ele>
        <time>2012-01-15T15:52:27+01:00</time>
      </trkpt>
      <trkpt lat="43.73602" lon="7.05271">
        <ele>842.252197</ele>
        <time>2012-01-15T15:52:34+01:00</time>
      </trkpt>
      <trkpt lat="43.73605" lon="7.05264">
        <ele>843.213379</ele>
        <time>2012-01-15T15:52:41+01:00</time>
      </trkpt>
      <trkpt lat="43.73607" lon="7.05262">
        <ele>844.175049</ele>
        <time>2012-01-15T15:52:46+01:00</time>
      </trkpt>
      <trkpt lat="43.73611" lon="7.05262">
        <ele>850.423584</ele>
        <time>2012-01-15T15:53:00+01:00</time>
      </trkpt>
      <trkpt lat="43.7361" lon="7.05262">
        <ele>852.345947</ele>
        <time>2012-01-15T15:53:07+01:00</time>
      </trkpt>
      <trkpt lat="43.73608" lon="7.05263">
        <ele>855.22998</ele>
        <time>2012-01-15T15:53:14+01:00</time>
      </trkpt>
      <trkpt lat="43.73608" lon="7.0526">
        <ele>857.633301</ele>
        <time>2012-01-15T15:53:20+01:00</time>
      </trkpt>
      <trkpt lat="43.73612" lon="7.05258">
        <ele>856.671875</ele>
        <time>2012-01-15T15:53:26+01:00</time>
      </trkpt>
      <trkpt lat="43.73613" lon="7.05256">
        <ele>857.152588</ele>
        <time>2012-01-15T15:53:32+01:00</time>
      </trkpt>
      <trkpt lat="43.73614" lon="7.05255">
        <ele>859.075195</ele>
        <time>2012-01-15T15:53:38+01:00</time>
      </trkpt>
      <trkpt lat="43.73615" lon="7.05254">
        <ele>859.075195</ele>
        <time>2012-01-15T15:53:45+01:00</time>
      </trkpt>
      <trkpt lat="43.7362" lon="7.05253">
        <ele>853.788086</ele>
        <time>2012-01-15T15:53:51+01:00</time>
      </trkpt>
      <trkpt lat="43.73624" lon="7.05254">
        <ele>849.462158</ele>
        <time>2012-01-15T15:53:58+01:00</time>
      </trkpt>
      <trkpt lat="43.7362" lon="7.05256">
        <ele>853.307373</ele>
        <time>2012-01-15T15:54:06+01:00</time>
      </trkpt>
      <trkpt lat="43.73616" lon="7.05256">
        <ele>858.114014</ele>
        <time>2012-01-15T15:54:10+01:00</time>
      </trkpt>
      <trkpt lat="43.73615" lon="7.05257">
        <ele>860.036621</ele>
        <time>2012-01-15T15:54:16+01:00</time>
      </trkpt>
      <trkpt lat="43.73615" lon="7.05257">
        <ele>859.075195</ele>
        <time>2012-01-15T15:54:21+01:00</time>
      </trkpt>
      <trkpt lat="43.73614" lon="7.05257">
        <ele>854.268799</ele>
        <time>2012-01-15T15:54:30+01:00</time>
      </trkpt>
      <trkpt lat="43.73614" lon="7.05258">
        <ele>853.307373</ele>
        <time>2012-01-15T15:54:34+01:00</time>
      </trkpt>
      <trkpt lat="43.73613" lon="7.05257">
        <ele>854.268799</ele>
        <time>2012-01-15T15:54:41+01:00</time>
      </trkpt>
      <trkpt lat="43.73616" lon="7.05255">
        <ele>853.307373</ele>
        <time>2012-01-15T15:54:46+01:00</time>
      </trkpt>
      <trkpt lat="43.73615" lon="7.05258">
        <ele>854.749268</ele>
        <time>2012-01-15T15:54:59+01:00</time>
      </trkpt>
      <trkpt lat="43.73618" lon="7.05255">
        <ele>855.22998</ele>
        <time>2012-01-15T15:55:09+01:00</time>
      </trkpt>
      <trkpt lat="43.73618" lon="7.05253">
        <ele>856.671875</ele>
        <time>2012-01-15T15:55:15+01:00</time>
      </trkpt>
      <trkpt lat="43.73619" lon="7.05254">
        <ele>859.075195</ele>
        <time>2012-01-15T15:55:24+01:00</time>
      </trkpt>
      <trkpt lat="43.73621" lon="7.0525">
        <ele>860.998047</ele>
        <time>2012-01-15T15:55:31+01:00</time>
      </trkpt>
      <trkpt lat="43.7362" lon="7.05245">
        <ele>862.920654</ele>
        <time>2012-01-15T15:55:38+01:00</time>
      </trkpt>
      <trkpt lat="43.73622" lon="7.05243">
        <ele>861.959473</ele>
        <time>2012-01-15T15:55:47+01:00</time>
      </trkpt>
      <trkpt lat="43.73626" lon="7.05243">
        <ele>864.362549</ele>
        <time>2012-01-15T15:55:53+01:00</time>
      </trkpt>
      <trkpt lat="43.73627" lon="7.05246">
        <ele>867.246582</ele>
        <time>2012-01-15T15:55:59+01:00</time>
      </trkpt>
      <trkpt lat="43.7363" lon="7.05248">
        <ele>867.246582</ele>
        <time>2012-01-15T15:56:06+01:00</time>
      </trkpt>
      <trkpt lat="43.73635" lon="7.0525">
        <ele>866.765869</ele>
        <time>2012-01-15T15:56:13+01:00</time>
      </trkpt>
      <trkpt lat="43.73636" lon="7.05248">
        <ele>867.246582</ele>
        <time>2012-01-15T15:56:19+01:00</time>
      </trkpt>
      <trkpt lat="43.73635" lon="7.05242">
        <ele>866.765869</ele>
        <time>2012-01-15T15:56:24+01:00</time>
      </trkpt>
      <trkpt lat="43.73637" lon="7.05236">
        <ele>867.727051</ele>
        <time>2012-01-15T15:56:31+01:00</time>
      </trkpt>
      <trkpt lat="43.73641" lon="7.05238">
        <ele>868.688477</ele>
        <time>2012-01-15T15:56:39+01:00</time>
      </trkpt>
      <trkpt lat="43.73644" lon="7.05235">
        <ele>870.130371</ele>
        <time>2012-01-15T15:56:46+01:00</time>
      </trkpt>
      <trkpt lat="43.73645" lon="7.05231">
        <ele>871.572266</ele>
        <time>2012-01-15T15:56:53+01:00</time>
      </trkpt>
      <trkpt lat="43.73644" lon="7.05224">
        <ele>873.014404</ele>
        <time>2012-01-15T15:57:00+01:00</time>
      </trkpt>
      <trkpt lat="43.73644" lon="7.05212">
        <ele>870.130371</ele>
        <time>2012-01-15T15:57:10+01:00</time>
      </trkpt>
      <trkpt lat="43.73646" lon="7.05207">
        <ele>869.169189</ele>
        <time>2012-01-15T15:57:17+01:00</time>
      </trkpt>
      <trkpt lat="43.73645" lon="7.05203">
        <ele>869.649902</ele>
        <time>2012-01-15T15:57:23+01:00</time>
      </trkpt>
      <trkpt lat="43.73645" lon="7.05195">
        <ele>869.649902</ele>
        <time>2012-01-15T15:57:30+01:00</time>
      </trkpt>
      <trkpt lat="43.73646" lon="7.05189">
        <ele>870.611084</ele>
        <time>2012-01-15T15:57:36+01:00</time>
      </trkpt>
      <trkpt lat="43.73644" lon="7.05185">
        <ele>873.014404</ele>
        <time>2012-01-15T15:57:42+01:00</time>
      </trkpt>
      <trkpt lat="43.73642" lon="7.05177">
        <ele>874.937012</ele>
        <time>2012-01-15T15:57:49+01:00</time>
      </trkpt>
      <trkpt lat="43.73641" lon="7.05173">
        <ele>876.37915</ele>
        <time>2012-01-15T15:57:55+01:00</time>
      </trkpt>
      <trkpt lat="43.73639" lon="7.05166">
        <ele>876.859863</ele>
        <time>2012-01-15T15:58:01+01:00</time>
      </trkpt>
      <trkpt lat="43.73638" lon="7.05163">
        <ele>877.821045</ele>
        <time>2012-01-15T15:58:05+01:00</time>
      </trkpt>
      <trkpt lat="43.73639" lon="7.05156">
        <ele>880.224365</ele>
        <time>2012-01-15T15:58:11+01:00</time>
      </trkpt>
      <trkpt lat="43.73635" lon="7.0515">
        <ele>881.185791</ele>
        <time>2012-01-15T15:58:17+01:00</time>
      </trkpt>
      <trkpt lat="43.73635" lon="7.05145">
        <ele>881.66626</ele>
        <time>2012-01-15T15:58:20+01:00</time>
      </trkpt>
      <trkpt lat="43.73635" lon="7.05142">
        <ele>881.185791</ele>
        <time>2012-01-15T15:58:23+01:00</time>
      </trkpt>
      <trkpt lat="43.73637" lon="7.05135">
        <ele>881.66626</ele>
        <time>2012-01-15T15:58:31+01:00</time>
      </trkpt>
      <trkpt lat="43.73637" lon="7.05132">
        <ele>884.550293</ele>
        <time>2012-01-15T15:58:37+01:00</time>
      </trkpt>
      <trkpt lat="43.73637" lon="7.05125">
        <ele>883.108154</ele>
        <time>2012-01-15T15:58:45+01:00</time>
      </trkpt>
      <trkpt lat="43.73639" lon="7.05118">
        <ele>882.627686</ele>
        <time>2012-01-15T15:58:52+01:00</time>
      </trkpt>
      <trkpt lat="43.73637" lon="7.0511">
        <ele>887.434082</ele>
        <time>2012-01-15T15:59:00+01:00</time>
      </trkpt>
      <trkpt lat="43.73635" lon="7.05104">
        <ele>889.837402</ele>
        <time>2012-01-15T15:59:07+01:00</time>
      </trkpt>
      <trkpt lat="43.73635" lon="7.05098">
        <ele>889.837402</ele>
        <time>2012-01-15T15:59:12+01:00</time>
      </trkpt>
      <trkpt lat="43.73634" lon="7.05092">
        <ele>890.318115</ele>
        <time>2012-01-15T15:59:19+01:00</time>
      </trkpt>
      <trkpt lat="43.73634" lon="7.05086">
        <ele>890.318115</ele>
        <time>2012-01-15T15:59:25+01:00</time>
      </trkpt>
      <trkpt lat="43.73632" lon="7.05078">
        <ele>892.72168</ele>
        <time>2012-01-15T15:59:33+01:00</time>
      </trkpt>
      <trkpt lat="43.73633" lon="7.05071">
        <ele>894.644043</ele>
        <time>2012-01-15T15:59:41+01:00</time>
      </trkpt>
      <trkpt lat="43.73635" lon="7.05074">
        <ele>896.566895</ele>
        <time>2012-01-15T15:59:47+01:00</time>
      </trkpt>
      <trkpt lat="43.73639" lon="7.05074">
        <ele>896.566895</ele>
        <time>2012-01-15T15:59:53+01:00</time>
      </trkpt>
      <trkpt lat="43.7364" lon="7.05066">
        <ele>898.969971</ele>
        <time>2012-01-15T16:00:00+01:00</time>
      </trkpt>
      <trkpt lat="43.73639" lon="7.0506">
        <ele>900.892578</ele>
        <time>2012-01-15T16:00:06+01:00</time>
      </trkpt>
      <trkpt lat="43.73639" lon="7.05051">
        <ele>901.854004</ele>
        <time>2012-01-15T16:00:14+01:00</time>
      </trkpt>
      <trkpt lat="43.73642" lon="7.05049">
        <ele>903.776611</ele>
        <time>2012-01-15T16:00:20+01:00</time>
      </trkpt>
      <trkpt lat="43.73643" lon="7.05049">
        <ele>905.699219</ele>
        <time>2012-01-15T16:00:28+01:00</time>
      </trkpt>
      <trkpt lat="43.73644" lon="7.05045">
        <ele>908.583252</ele>
        <time>2012-01-15T16:00:35+01:00</time>
      </trkpt>
      <trkpt lat="43.73644" lon="7.05041">
        <ele>909.544678</ele>
        <time>2012-01-15T16:00:43+01:00</time>
      </trkpt>
      <trkpt lat="43.73644" lon="7.05035">
        <ele>910.986572</ele>
        <time>2012-01-15T16:00:50+01:00</time>
      </trkpt>
      <trkpt lat="43.73643" lon="7.0503">
        <ele>913.389893</ele>
        <time>2012-01-15T16:00:57+01:00</time>
      </trkpt>
      <trkpt lat="43.73643" lon="7.05022">
        <ele>913.870361</ele>
        <time>2012-01-15T16:01:04+01:00</time>
      </trkpt>
      <trkpt lat="43.73641" lon="7.05018">
        <ele>913.389893</ele>
        <time>2012-01-15T16:01:10+01:00</time>
      </trkpt>
      <trkpt lat="43.73643" lon="7.05012">
        <ele>913.870361</ele>
        <time>2012-01-15T16:01:16+01:00</time>
      </trkpt>
      <trkpt lat="43.73642" lon="7.05007">
        <ele>914.831787</ele>
        <time>2012-01-15T16:01:22+01:00</time>
      </trkpt>
      <trkpt lat="43.73645" lon="7.05003">
        <ele>915.793213</ele>
        <time>2012-01-15T16:01:30+01:00</time>
      </trkpt>
      <trkpt lat="43.73647" lon="7.05006">
        <ele>916.273682</ele>
        <time>2012-01-15T16:01:35+01:00</time>
      </trkpt>
      <trkpt lat="43.73651" lon="7.05014">
        <ele>916.273682</ele>
        <time>2012-01-15T16:01:42+01:00</time>
      </trkpt>
      <trkpt lat="43.73652" lon="7.05014">
        <ele>915.793213</ele>
        <time>2012-01-15T16:01:43+01:00</time>
      </trkpt>
      <trkpt lat="43.73655" lon="7.05011">
        <ele>916.754395</ele>
        <time>2012-01-15T16:01:49+01:00</time>
      </trkpt>
      <trkpt lat="43.73657" lon="7.05004">
        <ele>917.235107</ele>
        <time>2012-01-15T16:01:55+01:00</time>
      </trkpt>
      <trkpt lat="43.73658" lon="7.04996">
        <ele>919.157715</ele>
        <time>2012-01-15T16:02:02+01:00</time>
      </trkpt>
      <trkpt lat="43.7366" lon="7.04991">
        <ele>921.080322</ele>
        <time>2012-01-15T16:02:08+01:00</time>
      </trkpt>
      <trkpt lat="43.73662" lon="7.04995">
        <ele>923.964111</ele>
        <time>2012-01-15T16:02:14+01:00</time>
      </trkpt>
      <trkpt lat="43.73666" lon="7.05">
        <ele>925.40625</ele>
        <time>2012-01-15T16:02:20+01:00</time>
      </trkpt>
      <trkpt lat="43.73671" lon="7.05003">
        <ele>926.367676</ele>
        <time>2012-01-15T16:02:26+01:00</time>
      </trkpt>
      <trkpt lat="43.73673" lon="7.04997">
        <ele>926.848389</ele>
        <time>2012-01-15T16:02:32+01:00</time>
      </trkpt>
      <trkpt lat="43.73671" lon="7.04989">
        <ele>926.848389</ele>
        <time>2012-01-15T16:02:39+01:00</time>
      </trkpt>
      <trkpt lat="43.73672" lon="7.04985">
        <ele>927.329102</ele>
        <time>2012-01-15T16:02:45+01:00</time>
      </trkpt>
      <trkpt lat="43.73676" lon="7.0499">
        <ele>928.770996</ele>
        <time>2012-01-15T16:02:51+01:00</time>
      </trkpt>
      <trkpt lat="43.7368" lon="7.04997">
        <ele>929.251465</ele>
        <time>2012-01-15T16:02:57+01:00</time>
      </trkpt>
      <trkpt lat="43.73681" lon="7.05002">
        <ele>930.212891</ele>
        <time>2012-01-15T16:03:01+01:00</time>
      </trkpt>
      <trkpt lat="43.73685" lon="7.05005">
        <ele>933.09668</ele>
        <time>2012-01-15T16:03:08+01:00</time>
      </trkpt>
      <trkpt lat="43.73685" lon="7.05">
        <ele>936.461426</ele>
        <time>2012-01-15T16:03:14+01:00</time>
      </trkpt>
      <trkpt lat="43.7369" lon="7.05003">
        <ele>937.422607</ele>
        <time>2012-01-15T16:03:20+01:00</time>
      </trkpt>
      <trkpt lat="43.73693" lon="7.05003">
        <ele>937.90332</ele>
        <time>2012-01-15T16:03:25+01:00</time>
      </trkpt>
      <trkpt lat="43.73691" lon="7.04997">
        <ele>938.864746</ele>
        <time>2012-01-15T16:03:31+01:00</time>
      </trkpt>
      <trkpt lat="43.73689" lon="7.04989">
        <ele>940.306885</ele>
        <time>2012-01-15T16:03:38+01:00</time>
      </trkpt>
      <trkpt lat="43.73692" lon="7.04989">
        <ele>941.268066</ele>
        <time>2012-01-15T16:03:42+01:00</time>
      </trkpt>
      <trkpt lat="43.73698" lon="7.04993">
        <ele>941.748779</ele>
        <time>2012-01-15T16:03:49+01:00</time>
      </trkpt>
      <trkpt lat="43.73701" lon="7.0499">
        <ele>941.268066</ele>
        <time>2012-01-15T16:03:55+01:00</time>
      </trkpt>
      <trkpt lat="43.73703" lon="7.04982">
        <ele>941.748779</ele>
        <time>2012-01-15T16:04:02+01:00</time>
      </trkpt>
      <trkpt lat="43.73707" lon="7.04982">
        <ele>943.190674</ele>
        <time>2012-01-15T16:04:08+01:00</time>
      </trkpt>
      <trkpt lat="43.73709" lon="7.04977">
        <ele>944.1521</ele>
        <time>2012-01-15T16:04:14+01:00</time>
      </trkpt>
      <trkpt lat="43.7371" lon="7.04969">
        <ele>945.113281</ele>
        <time>2012-01-15T16:04:21+01:00</time>
      </trkpt>
      <trkpt lat="43.73714" lon="7.04971">
        <ele>947.035889</ele>
        <time>2012-01-15T16:04:27+01:00</time>
      </trkpt>
      <trkpt lat="43.73719" lon="7.0497">
        <ele>947.997314</ele>
        <time>2012-01-15T16:04:33+01:00</time>
      </trkpt>
      <trkpt lat="43.73718" lon="7.04964">
        <ele>947.997314</ele>
        <time>2012-01-15T16:04:39+01:00</time>
      </trkpt>
      <trkpt lat="43.7372" lon="7.04961">
        <ele>950.881104</ele>
        <time>2012-01-15T16:04:45+01:00</time>
      </trkpt>
      <trkpt lat="43.73723" lon="7.04964">
        <ele>952.322998</ele>
        <time>2012-01-15T16:04:50+01:00</time>
      </trkpt>
      <trkpt lat="43.73731" lon="7.04969">
        <ele>953.765137</ele>
        <time>2012-01-15T16:04:59+01:00</time>
      </trkpt>
      <trkpt lat="43.73738" lon="7.04972">
        <ele>954.726318</ele>
        <time>2012-01-15T16:05:07+01:00</time>
      </trkpt>
      <trkpt lat="43.73741" lon="7.04969">
        <ele>955.687744</ele>
        <time>2012-01-15T16:05:14+01:00</time>
      </trkpt>
      <trkpt lat="43.73738" lon="7.04964">
        <ele>955.207031</ele>
        <time>2012-01-15T16:05:20+01:00</time>
      </trkpt>
      <trkpt lat="43.7374" lon="7.04959">
        <ele>957.129883</ele>
        <time>2012-01-15T16:05:25+01:00</time>
      </trkpt>
      <trkpt lat="43.73745" lon="7.04955">
        <ele>960.013672</ele>
        <time>2012-01-15T16:05:32+01:00</time>
      </trkpt>
      <trkpt lat="43.7375" lon="7.04957">
        <ele>961.936523</ele>
        <time>2012-01-15T16:05:39+01:00</time>
      </trkpt>
      <trkpt lat="43.73757" lon="7.04962">
        <ele>962.897705</ele>
        <time>2012-01-15T16:05:48+01:00</time>
      </trkpt>
      <trkpt lat="43.73763" lon="7.04963">
        <ele>963.378418</ele>
        <time>2012-01-15T16:05:55+01:00</time>
      </trkpt>
      <trkpt lat="43.73767" lon="7.04963">
        <ele>964.3396</ele>
        <time>2012-01-15T16:06:01+01:00</time>
      </trkpt>
      <trkpt lat="43.73772" lon="7.04963">
        <ele>966.262207</ele>
        <time>2012-01-15T16:06:07+01:00</time>
      </trkpt>
      <trkpt lat="43.73774" lon="7.04963">
        <ele>969.14624</ele>
        <time>2012-01-15T16:06:13+01:00</time>
      </trkpt>
      <trkpt lat="43.73779" lon="7.04966">
        <ele>970.107422</ele>
        <time>2012-01-15T16:06:20+01:00</time>
      </trkpt>
      <trkpt lat="43.73782" lon="7.04965">
        <ele>971.068848</ele>
        <time>2012-01-15T16:06:26+01:00</time>
      </trkpt>
      <trkpt lat="43.73786" lon="7.04965">
        <ele>972.030273</ele>
        <time>2012-01-15T16:06:32+01:00</time>
      </trkpt>
      <trkpt lat="43.73791" lon="7.04965">
        <ele>973.952881</ele>
        <time>2012-01-15T16:06:38+01:00</time>
      </trkpt>
      <trkpt lat="43.73796" lon="7.04967">
        <ele>975.875488</ele>
        <time>2012-01-15T16:06:45+01:00</time>
      </trkpt>
      <trkpt lat="43.73799" lon="7.04969">
        <ele>976.836914</ele>
        <time>2012-01-15T16:06:50+01:00</time>
      </trkpt>
      <trkpt lat="43.73805" lon="7.04971">
        <ele>978.759521</ele>
        <time>2012-01-15T16:06:58+01:00</time>
      </trkpt>
      <trkpt lat="43.73811" lon="7.04974">
        <ele>979.720703</ele>
        <time>2012-01-15T16:07:06+01:00</time>
      </trkpt>
      <trkpt lat="43.73816" lon="7.04979">
        <ele>979.720703</ele>
        <time>2012-01-15T16:07:13+01:00</time>
      </trkpt>
      <trkpt lat="43.73822" lon="7.04984">
        <ele>980.682129</ele>
        <time>2012-01-15T16:07:21+01:00</time>
      </trkpt>
      <trkpt lat="43.73827" lon="7.04986">
        <ele>982.124023</ele>
        <time>2012-01-15T16:07:27+01:00</time>
      </trkpt>
      <trkpt lat="43.73833" lon="7.04989">
        <ele>984.527344</ele>
        <time>2012-01-15T16:07:35+01:00</time>
      </trkpt>
      <trkpt lat="43.73838" lon="7.04992">
        <ele>986.93042</ele>
        <time>2012-01-15T16:07:43+01:00</time>
      </trkpt>
      <trkpt lat="43.73841" lon="7.04997">
        <ele>988.853516</ele>
        <time>2012-01-15T16:07:49+01:00</time>
      </trkpt>
      <trkpt lat="43.73847" lon="7.05005">
        <ele>989.333984</ele>
        <time>2012-01-15T16:07:57+01:00</time>
      </trkpt>
      <trkpt lat="43.73853" lon="7.05013">
        <ele>988.853516</ele>
        <time>2012-01-15T16:08:05+01:00</time>
      </trkpt>
      <trkpt lat="43.73858" lon="7.0502">
        <ele>990.775879</ele>
        <time>2012-01-15T16:08:14+01:00</time>
      </trkpt>
      <trkpt lat="43.73863" lon="7.05027">
        <ele>991.737305</ele>
        <time>2012-01-15T16:08:22+01:00</time>
      </trkpt>
      <trkpt lat="43.73867" lon="7.05034">
        <ele>992.69873</ele>
        <time>2012-01-15T16:08:29+01:00</time>
      </trkpt>
      <trkpt lat="43.73871" lon="7.05043">
        <ele>993.659912</ele>
        <time>2012-01-15T16:08:36+01:00</time>
      </trkpt>
      <trkpt lat="43.73874" lon="7.05046">
        <ele>997.024414</ele>
        <time>2012-01-15T16:08:43+01:00</time>
      </trkpt>
      <trkpt lat="43.73878" lon="7.05052">
        <ele>997.98584</ele>
        <time>2012-01-15T16:08:50+01:00</time>
      </trkpt>
      <trkpt lat="43.73883" lon="7.0506">
        <ele>998.947021</ele>
        <time>2012-01-15T16:08:57+01:00</time>
      </trkpt>
      <trkpt lat="43.73887" lon="7.05061">
        <ele>1001.35034</ele>
        <time>2012-01-15T16:09:03+01:00</time>
      </trkpt>
      <trkpt lat="43.73891" lon="7.05062">
        <ele>1004.23462</ele>
        <time>2012-01-15T16:09:10+01:00</time>
      </trkpt>
      <trkpt lat="43.73895" lon="7.0506">
        <ele>1007.11841</ele>
        <time>2012-01-15T16:09:17+01:00</time>
      </trkpt>
      <trkpt lat="43.73901" lon="7.05061">
        <ele>1008.07983</ele>
        <time>2012-01-15T16:09:24+01:00</time>
      </trkpt>
      <trkpt lat="43.73906" lon="7.0506">
        <ele>1009.04102</ele>
        <time>2012-01-15T16:09:31+01:00</time>
      </trkpt>
      <trkpt lat="43.73913" lon="7.05061">
        <ele>1010.48291</ele>
        <time>2012-01-15T16:09:39+01:00</time>
      </trkpt>
      <trkpt lat="43.73918" lon="7.05062">
        <ele>1011.44434</ele>
        <time>2012-01-15T16:09:46+01:00</time>
      </trkpt>
      <trkpt lat="43.73923" lon="7.05063">
        <ele>1013.36694</ele>
        <time>2012-01-15T16:09:52+01:00</time>
      </trkpt>
      <trkpt lat="43.73927" lon="7.05064">
        <ele>1016.73145</ele>
        <time>2012-01-15T16:09:58+01:00</time>
      </trkpt>
      <trkpt lat="43.73932" lon="7.05067">
        <ele>1016.73145</ele>
        <time>2012-01-15T16:10:04+01:00</time>
      </trkpt>
      <trkpt lat="43.73938" lon="7.0507">
        <ele>1016.73145</ele>
        <time>2012-01-15T16:10:11+01:00</time>
      </trkpt>
      <trkpt lat="43.73944" lon="7.05073">
        <ele>1017.69263</ele>
        <time>2012-01-15T16:10:18+01:00</time>
      </trkpt>
      <trkpt lat="43.73948" lon="7.05074">
        <ele>1018.65405</ele>
        <time>2012-01-15T16:10:24+01:00</time>
      </trkpt>
      <trkpt lat="43.73954" lon="7.05078">
        <ele>1018.65405</ele>
        <time>2012-01-15T16:10:31+01:00</time>
      </trkpt>
      <trkpt lat="43.73958" lon="7.05083">
        <ele>1022.49951</ele>
        <time>2012-01-15T16:10:38+01:00</time>
      </trkpt>
      <trkpt lat="43.73964" lon="7.05086">
        <ele>1022.49951</ele>
        <time>2012-01-15T16:10:45+01:00</time>
      </trkpt>
      <trkpt lat="43.73968" lon="7.05089">
        <ele>1023.46094</ele>
        <time>2012-01-15T16:10:51+01:00</time>
      </trkpt>
      <trkpt lat="43.73971" lon="7.05087">
        <ele>1023.46094</ele>
        <time>2012-01-15T16:10:57+01:00</time>
      </trkpt>
      <trkpt lat="43.73973" lon="7.05078">
        <ele>1022.98022</ele>
        <time>2012-01-15T16:11:04+01:00</time>
      </trkpt>
      <trkpt lat="43.73977" lon="7.05081">
        <ele>1024.42212</ele>
        <time>2012-01-15T16:11:09+01:00</time>
      </trkpt>
      <trkpt lat="43.73981" lon="7.05087">
        <ele>1025.3833</ele>
        <time>2012-01-15T16:11:16+01:00</time>
      </trkpt>
      <trkpt lat="43.73985" lon="7.05082">
        <ele>1026.34473</ele>
        <time>2012-01-15T16:11:22+01:00</time>
      </trkpt>
      <trkpt lat="43.7399" lon="7.0508">
        <ele>1027.78662</ele>
        <time>2012-01-15T16:11:29+01:00</time>
      </trkpt>
      <trkpt lat="43.73994" lon="7.05081">
        <ele>1027.78662</ele>
        <time>2012-01-15T16:11:35+01:00</time>
      </trkpt>
      <trkpt lat="43.73998" lon="7.05082">
        <ele>1028.74805</ele>
        <time>2012-01-15T16:11:42+01:00</time>
      </trkpt>
      <trkpt lat="43.74001" lon="7.05084">
        <ele>1031.15137</ele>
        <time>2012-01-15T16:11:48+01:00</time>
      </trkpt>
      <trkpt lat="43.74002" lon="7.05085">
        <ele>1031.63184</ele>
        <time>2012-01-15T16:11:54+01:00</time>
      </trkpt>
      <trkpt lat="43.74005" lon="7.05086">
        <ele>1031.63184</ele>
        <time>2012-01-15T16:11:59+01:00</time>
      </trkpt>
      <trkpt lat="43.74004" lon="7.05086">
        <ele>1032.11255</ele>
        <time>2012-01-15T16:12:04+01:00</time>
      </trkpt>
      <trkpt lat="43.74003" lon="7.05086">
        <ele>1031.15137</ele>
        <time>2012-01-15T16:12:12+01:00</time>
      </trkpt>
      <trkpt lat="43.74002" lon="7.05084">
        <ele>1031.63184</ele>
        <time>2012-01-15T16:12:18+01:00</time>
      </trkpt>
      <trkpt lat="43.73999" lon="7.05082">
        <ele>1030.18994</ele>
        <time>2012-01-15T16:12:21+01:00</time>
      </trkpt>
      <trkpt lat="43.73994" lon="7.05082">
        <ele>1029.70923</ele>
        <time>2012-01-15T16:12:24+01:00</time>
      </trkpt>
      <trkpt lat="43.73987" lon="7.05081">
        <ele>1026.82544</ele>
        <time>2012-01-15T16:12:30+01:00</time>
      </trkpt>
      <trkpt lat="43.73984" lon="7.05082">
        <ele>1026.34473</ele>
        <time>2012-01-15T16:12:32+01:00</time>
      </trkpt>
      <trkpt lat="43.7398" lon="7.05083">
        <ele>1025.3833</ele>
        <time>2012-01-15T16:12:36+01:00</time>
      </trkpt>
      <trkpt lat="43.73973" lon="7.0508">
        <ele>1022.98022</ele>
        <time>2012-01-15T16:12:41+01:00</time>
      </trkpt>
      <trkpt lat="43.73972" lon="7.05089">
        <ele>1019.13477</ele>
        <time>2012-01-15T16:12:47+01:00</time>
      </trkpt>
      <trkpt lat="43.73971" lon="7.05094">
        <ele>1018.65405</ele>
        <time>2012-01-15T16:12:49+01:00</time>
      </trkpt>
      <trkpt lat="43.73965" lon="7.05088">
        <ele>1017.21216</ele>
        <time>2012-01-15T16:12:54+01:00</time>
      </trkpt>
      <trkpt lat="43.73964" lon="7.05087">
        <ele>1016.73145</ele>
        <time>2012-01-15T16:12:55+01:00</time>
      </trkpt>
      <trkpt lat="43.73961" lon="7.05084">
        <ele>1015.77026</ele>
        <time>2012-01-15T16:12:58+01:00</time>
      </trkpt>
      <trkpt lat="43.73953" lon="7.05078">
        <ele>1015.28955</ele>
        <time>2012-01-15T16:13:04+01:00</time>
      </trkpt>
      <trkpt lat="43.73949" lon="7.05071">
        <ele>1013.84741</ele>
        <time>2012-01-15T16:13:08+01:00</time>
      </trkpt>
      <trkpt lat="43.73942" lon="7.05065">
        <ele>1010.96362</ele>
        <time>2012-01-15T16:13:16+01:00</time>
      </trkpt>
      <trkpt lat="43.73939" lon="7.05063">
        <ele>1009.52173</ele>
        <time>2012-01-15T16:13:19+01:00</time>
      </trkpt>
      <trkpt lat="43.73935" lon="7.0506">
        <ele>1007.59912</ele>
        <time>2012-01-15T16:13:23+01:00</time>
      </trkpt>
      <trkpt lat="43.73928" lon="7.05059">
        <ele>1006.6377</ele>
        <time>2012-01-15T16:13:28+01:00</time>
      </trkpt>
      <trkpt lat="43.73918" lon="7.05057">
        <ele>1004.71509</ele>
        <time>2012-01-15T16:13:36+01:00</time>
      </trkpt>
      <trkpt lat="43.73912" lon="7.05057">
        <ele>1004.23462</ele>
        <time>2012-01-15T16:13:40+01:00</time>
      </trkpt>
      <trkpt lat="43.73904" lon="7.05057">
        <ele>1002.31152</ele>
        <time>2012-01-15T16:13:46+01:00</time>
      </trkpt>
      <trkpt lat="43.73903" lon="7.05057">
        <ele>1001.35034</ele>
        <time>2012-01-15T16:13:47+01:00</time>
      </trkpt>
      <trkpt lat="43.73895" lon="7.0506">
        <ele>1001.35034</ele>
        <time>2012-01-15T16:13:53+01:00</time>
      </trkpt>
      <trkpt lat="43.73892" lon="7.0506">
        <ele>1000.38916</ele>
        <time>2012-01-15T16:13:55+01:00</time>
      </trkpt>
      <trkpt lat="43.73885" lon="7.05058">
        <ele>997.98584</ele>
        <time>2012-01-15T16:14:02+01:00</time>
      </trkpt>
      <trkpt lat="43.73879" lon="7.05048">
        <ele>998.466309</ele>
        <time>2012-01-15T16:14:07+01:00</time>
      </trkpt>
      <trkpt lat="43.73879" lon="7.05047">
        <ele>997.505127</ele>
        <time>2012-01-15T16:14:08+01:00</time>
      </trkpt>
      <trkpt lat="43.73877" lon="7.05044">
        <ele>996.543945</ele>
        <time>2012-01-15T16:14:11+01:00</time>
      </trkpt>
      <trkpt lat="43.73874" lon="7.0504">
        <ele>995.58252</ele>
        <time>2012-01-15T16:14:17+01:00</time>
      </trkpt>
      <trkpt lat="43.73873" lon="7.0504">
        <ele>994.621094</ele>
        <time>2012-01-15T16:14:21+01:00</time>
      </trkpt>
      <trkpt lat="43.7387" lon="7.05037">
        <ele>993.179199</ele>
        <time>2012-01-15T16:14:25+01:00</time>
      </trkpt>
      <trkpt lat="43.73867" lon="7.05029">
        <ele>992.69873</ele>
        <time>2012-01-15T16:14:32+01:00</time>
      </trkpt>
      <trkpt lat="43.73867" lon="7.0503">
        <ele>993.179199</ele>
        <time>2012-01-15T16:14:39+01:00</time>
      </trkpt>
      <trkpt lat="43.73867" lon="7.05031">
        <ele>994.140625</ele>
        <time>2012-01-15T16:14:45+01:00</time>
      </trkpt>
      <trkpt lat="43.73865" lon="7.05032">
        <ele>994.621094</ele>
        <time>2012-01-15T16:14:54+01:00</time>
      </trkpt>
      <trkpt lat="43.73865" lon="7.05034">
        <ele>994.621094</ele>
        <time>2012-01-15T16:14:56+01:00</time>
      </trkpt>
      <trkpt lat="43.73869" lon="7.05041">
        <ele>996.063232</ele>
        <time>2012-01-15T16:15:02+01:00</time>
      </trkpt>
      <trkpt lat="43.73874" lon="7.05047">
        <ele>997.98584</ele>
        <time>2012-01-15T16:15:11+01:00</time>
      </trkpt>
      <trkpt lat="43.73877" lon="7.05055">
        <ele>1001.35034</ele>
        <time>2012-01-15T16:15:19+01:00</time>
      </trkpt>
      <trkpt lat="43.73882" lon="7.05057">
        <ele>1005.1958</ele>
        <time>2012-01-15T16:15:26+01:00</time>
      </trkpt>
      <trkpt lat="43.73887" lon="7.05057">
        <ele>1008.07983</ele>
        <time>2012-01-15T16:15:33+01:00</time>
      </trkpt>
      <trkpt lat="43.73894" lon="7.05058">
        <ele>1009.52173</ele>
        <time>2012-01-15T16:15:41+01:00</time>
      </trkpt>
      <trkpt lat="43.73899" lon="7.05059">
        <ele>1010.96362</ele>
        <time>2012-01-15T16:15:48+01:00</time>
      </trkpt>
      <trkpt lat="43.73905" lon="7.05059">
        <ele>1010.96362</ele>
        <time>2012-01-15T16:15:55+01:00</time>
      </trkpt>
      <trkpt lat="43.73909" lon="7.05059">
        <ele>1010.96362</ele>
        <time>2012-01-15T16:16:00+01:00</time>
      </trkpt>
      <trkpt lat="43.73917" lon="7.0506">
        <ele>1010.48291</ele>
        <time>2012-01-15T16:16:08+01:00</time>
      </trkpt>
      <trkpt lat="43.73923" lon="7.05061">
        <ele>1011.44434</ele>
        <time>2012-01-15T16:16:15+01:00</time>
      </trkpt>
      <trkpt lat="43.73929" lon="7.05062">
        <ele>1012.40552</ele>
        <time>2012-01-15T16:16:22+01:00</time>
      </trkpt>
      <trkpt lat="43.73935" lon="7.05064">
        <ele>1013.84741</ele>
        <time>2012-01-15T16:16:28+01:00</time>
      </trkpt>
      <trkpt lat="43.7394" lon="7.05067">
        <ele>1014.80884</ele>
        <time>2012-01-15T16:16:35+01:00</time>
      </trkpt>
      <trkpt lat="43.73942" lon="7.05067">
        <ele>1014.32812</ele>
        <time>2012-01-15T16:16:42+01:00</time>
      </trkpt>
      <trkpt lat="43.73945" lon="7.05069">
        <ele>1016.25073</ele>
        <time>2012-01-15T16:16:48+01:00</time>
      </trkpt>
      <trkpt lat="43.73948" lon="7.05072">
        <ele>1020.5769</ele>
        <time>2012-01-15T16:16:55+01:00</time>
      </trkpt>
      <trkpt lat="43.73955" lon="7.05077">
        <ele>1021.05762</ele>
        <time>2012-01-15T16:17:03+01:00</time>
      </trkpt>
      <trkpt lat="43.73962" lon="7.05081">
        <ele>1022.0188</ele>
        <time>2012-01-15T16:17:11+01:00</time>
      </trkpt>
      <trkpt lat="43.73967" lon="7.05085">
        <ele>1023.46094</ele>
        <time>2012-01-15T16:17:18+01:00</time>
      </trkpt>
      <trkpt lat="43.73972" lon="7.05089">
        <ele>1024.42212</ele>
        <time>2012-01-15T16:17:25+01:00</time>
      </trkpt>
      <trkpt lat="43.73973" lon="7.05084">
        <ele>1026.82544</ele>
        <time>2012-01-15T16:17:30+01:00</time>
      </trkpt>
      <trkpt lat="43.73974" lon="7.05079">
        <ele>1029.22852</ele>
        <time>2012-01-15T16:17:37+01:00</time>
      </trkpt>
      <trkpt lat="43.73979" lon="7.05083">
        <ele>1031.15137</ele>
        <time>2012-01-15T16:17:43+01:00</time>
      </trkpt>
      <trkpt lat="43.73985" lon="7.05083">
        <ele>1032.59326</ele>
        <time>2012-01-15T16:17:50+01:00</time>
      </trkpt>
      <trkpt lat="43.73991" lon="7.0508">
        <ele>1033.07373</ele>
        <time>2012-01-15T16:17:57+01:00</time>
      </trkpt>
      <trkpt lat="43.73995" lon="7.05081">
        <ele>1033.55444</ele>
        <time>2012-01-15T16:18:03+01:00</time>
      </trkpt>
      <trkpt lat="43.74" lon="7.05081">
        <ele>1034.51587</ele>
        <time>2012-01-15T16:18:09+01:00</time>
      </trkpt>
      <trkpt lat="43.74003" lon="7.05084">
        <ele>1034.99658</ele>
        <time>2012-01-15T16:18:15+01:00</time>
      </trkpt>
      <trkpt lat="43.74003" lon="7.05084">
        <ele>1034.51587</ele>
        <time>2012-01-15T16:18:21+01:00</time>
      </trkpt>
      <trkpt lat="43.74004" lon="7.05084">
        <ele>1034.51587</ele>
        <time>2012-01-15T16:18:32+01:00</time>
      </trkpt>
      <trkpt lat="43.74005" lon="7.05082">
        <ele>1034.03516</ele>
        <time>2012-01-15T16:18:37+01:00</time>
      </trkpt>
      <trkpt lat="43.74005" lon="7.05083">
        <ele>1034.03516</ele>
        <time>2012-01-15T16:18:43+01:00</time>
      </trkpt>
      <trkpt lat="43.74005" lon="7.05084">
        <ele>1033.07373</ele>
        <time>2012-01-15T16:18:49+01:00</time>
      </trkpt>
      <trkpt lat="43.74005" lon="7.05084">
        <ele>1034.03516</ele>
        <time>2012-01-15T16:18:58+01:00</time>
      </trkpt>
      <trkpt lat="43.74005" lon="7.05084">
        <ele>1033.55444</ele>
        <time>2012-01-15T16:19:03+01:00</time>
      </trkpt>
      <trkpt lat="43.74005" lon="7.05083">
        <ele>1033.55444</ele>
        <time>2012-01-15T16:19:11+01:00</time>
      </trkpt>
      <trkpt lat="43.74005" lon="7.05084">
        <ele>1033.55444</ele>
        <time>2012-01-15T16:19:18+01:00</time>
      </trkpt>
      <trkpt lat="43.74004" lon="7.05085">
        <ele>1034.51587</ele>
        <time>2012-01-15T16:19:32+01:00</time>
      </trkpt>
      <trkpt lat="43.74005" lon="7.05084">
        <ele>1033.55444</ele>
        <time>2012-01-15T16:19:38+01:00</time>
      </trkpt>
      <trkpt lat="43.74005" lon="7.05084">
        <ele>1033.07373</ele>
        <time>2012-01-15T16:19:52+01:00</time>
      </trkpt>
      <trkpt lat="43.74005" lon="7.05084">
        <ele>1033.55444</ele>
        <time>2012-01-15T16:20:01+01:00</time>
      </trkpt>
      <trkpt lat="43.74006" lon="7.05084">
        <ele>1032.59326</ele>
        <time>2012-01-15T16:20:15+01:00</time>
      </trkpt>
      <trkpt lat="43.74005" lon="7.05084">
        <ele>1034.03516</ele>
        <time>2012-01-15T16:20:23+01:00</time>
      </trkpt>
      <trkpt lat="43.74005" lon="7.05085">
        <ele>1034.03516</ele>
        <time>2012-01-15T16:20:34+01:00</time>
      </trkpt>
      <trkpt lat="43.74006" lon="7.05084">
        <ele>1030.67065</ele>
        <time>2012-01-15T16:21:23+01:00</time>
      </trkpt>
      <trkpt lat="43.74006" lon="7.05084">
        <ele>1030.67065</ele>
        <time>2012-01-15T16:21:31+01:00</time>
      </trkpt>
      <trkpt lat="43.74006" lon="7.05084">
        <ele>1032.59326</ele>
        <time>2012-01-15T16:21:42+01:00</time>
      </trkpt>
      <trkpt lat="43.74006" lon="7.05085">
        <ele>1034.03516</ele>
        <time>2012-01-15T16:21:48+01:00</time>
      </trkpt>
      <trkpt lat="43.74006" lon="7.05084">
        <ele>1034.03516</ele>
        <time>2012-01-15T16:21:57+01:00</time>
      </trkpt>
      <trkpt lat="43.74006" lon="7.05084">
        <ele>1032.59326</ele>
        <time>2012-01-15T16:22:07+01:00</time>
      </trkpt>
      <trkpt lat="43.74007" lon="7.05086">
        <ele>1032.59326</ele>
        <time>2012-01-15T16:22:24+01:00</time>
      </trkpt>
      <trkpt lat="43.74006" lon="7.05085">
        <ele>1033.07373</ele>
        <time>2012-01-15T16:22:32+01:00</time>
      </trkpt>
      <trkpt lat="43.74005" lon="7.05085">
        <ele>1034.03516</ele>
        <time>2012-01-15T16:22:42+01:00</time>
      </trkpt>
      <trkpt lat="43.74002" lon="7.0509">
        <ele>1034.03516</ele>
        <time>2012-01-15T16:22:47+01:00</time>
      </trkpt>
      <trkpt lat="43.73995" lon="7.05105">
        <ele>1034.51587</ele>
        <time>2012-01-15T16:22:54+01:00</time>
      </trkpt>
      <trkpt lat="43.73988" lon="7.05116">
        <ele>1034.03516</ele>
        <time>2012-01-15T16:22:59+01:00</time>
      </trkpt>
      <trkpt lat="43.73988" lon="7.05119">
        <ele>1034.03516</ele>
        <time>2012-01-15T16:23:00+01:00</time>
      </trkpt>
      <trkpt lat="43.73985" lon="7.05128">
        <ele>1034.51587</ele>
        <time>2012-01-15T16:23:06+01:00</time>
      </trkpt>
      <trkpt lat="43.73981" lon="7.0514">
        <ele>1035.47705</ele>
        <time>2012-01-15T16:23:11+01:00</time>
      </trkpt>
      <trkpt lat="43.73972" lon="7.05158">
        <ele>1036.43872</ele>
        <time>2012-01-15T16:23:18+01:00</time>
      </trkpt>
      <trkpt lat="43.73966" lon="7.05172">
        <ele>1037.3999</ele>
        <time>2012-01-15T16:23:24+01:00</time>
      </trkpt>
      <trkpt lat="43.7396" lon="7.05184">
        <ele>1037.3999</ele>
        <time>2012-01-15T16:23:30+01:00</time>
      </trkpt>
      <trkpt lat="43.73954" lon="7.05197">
        <ele>1036.91919</ele>
        <time>2012-01-15T16:23:36+01:00</time>
      </trkpt>
      <trkpt lat="43.73946" lon="7.05216">
        <ele>1035.47705</ele>
        <time>2012-01-15T16:23:44+01:00</time>
      </trkpt>
      <trkpt lat="43.73943" lon="7.05231">
        <ele>1034.99658</ele>
        <time>2012-01-15T16:23:50+01:00</time>
      </trkpt>
      <trkpt lat="43.7394" lon="7.05246">
        <ele>1033.07373</ele>
        <time>2012-01-15T16:23:56+01:00</time>
      </trkpt>
      <trkpt lat="43.73939" lon="7.05265">
        <ele>1031.15137</ele>
        <time>2012-01-15T16:24:02+01:00</time>
      </trkpt>
      <trkpt lat="43.73938" lon="7.05272">
        <ele>1030.18994</ele>
        <time>2012-01-15T16:24:05+01:00</time>
      </trkpt>
      <trkpt lat="43.73937" lon="7.05275">
        <ele>1028.26733</ele>
        <time>2012-01-15T16:24:13+01:00</time>
      </trkpt>
      <trkpt lat="43.73935" lon="7.05279">
        <ele>1027.30615</ele>
        <time>2012-01-15T16:24:18+01:00</time>
      </trkpt>
      <trkpt lat="43.73931" lon="7.05291">
        <ele>1024.90283</ele>
        <time>2012-01-15T16:24:23+01:00</time>
      </trkpt>
      <trkpt lat="43.73922" lon="7.05309">
        <ele>1021.53809</ele>
        <time>2012-01-15T16:24:28+01:00</time>
      </trkpt>
      <trkpt lat="43.73911" lon="7.05334">
        <ele>1017.21216</ele>
        <time>2012-01-15T16:24:33+01:00</time>
      </trkpt>
      <trkpt lat="43.73905" lon="7.05352">
        <ele>1014.32812</ele>
        <time>2012-01-15T16:24:37+01:00</time>
      </trkpt>
      <trkpt lat="43.73894" lon="7.05372">
        <ele>1010.48291</ele>
        <time>2012-01-15T16:24:41+01:00</time>
      </trkpt>
      <trkpt lat="43.7389" lon="7.05382">
        <ele>1008.5603</ele>
        <time>2012-01-15T16:24:43+01:00</time>
      </trkpt>
      <trkpt lat="43.73886" lon="7.05393">
        <ele>1006.6377</ele>
        <time>2012-01-15T16:24:45+01:00</time>
      </trkpt>
      <trkpt lat="43.73876" lon="7.05414">
        <ele>1002.79224</ele>
        <time>2012-01-15T16:24:49+01:00</time>
      </trkpt>
      <trkpt lat="43.73865" lon="7.05446">
        <ele>997.505127</ele>
        <time>2012-01-15T16:24:54+01:00</time>
      </trkpt>
      <trkpt lat="43.73856" lon="7.05477">
        <ele>993.179199</ele>
        <time>2012-01-15T16:24:58+01:00</time>
      </trkpt>
      <trkpt lat="43.7385" lon="7.05496">
        <ele>990.29541</ele>
        <time>2012-01-15T16:25:01+01:00</time>
      </trkpt>
      <trkpt lat="43.73852" lon="7.05517">
        <ele>988.853516</ele>
        <time>2012-01-15T16:25:05+01:00</time>
      </trkpt>
      <trkpt lat="43.73849" lon="7.05527">
        <ele>988.853516</ele>
        <time>2012-01-15T16:25:08+01:00</time>
      </trkpt>
      <trkpt lat="43.73841" lon="7.05543">
        <ele>987.411133</ele>
        <time>2012-01-15T16:25:14+01:00</time>
      </trkpt>
      <trkpt lat="43.73837" lon="7.05565">
        <ele>985.969238</ele>
        <time>2012-01-15T16:25:18+01:00</time>
      </trkpt>
      <trkpt lat="43.73837" lon="7.05582">
        <ele>985.969238</ele>
        <time>2012-01-15T16:25:22+01:00</time>
      </trkpt>
      <trkpt lat="43.73832" lon="7.0559">
        <ele>986.449951</ele>
        <time>2012-01-15T16:25:25+01:00</time>
      </trkpt>
      <trkpt lat="43.73827" lon="7.05605">
        <ele>987.411133</ele>
        <time>2012-01-15T16:25:30+01:00</time>
      </trkpt>
      <trkpt lat="43.73828" lon="7.05608">
        <ele>988.372803</ele>
        <time>2012-01-15T16:25:35+01:00</time>
      </trkpt>
      <trkpt lat="43.73829" lon="7.05613">
        <ele>989.333984</ele>
        <time>2012-01-15T16:25:41+01:00</time>
      </trkpt>
      <trkpt lat="43.73829" lon="7.05621">
        <ele>989.814697</ele>
        <time>2012-01-15T16:25:47+01:00</time>
      </trkpt>
      <trkpt lat="43.73829" lon="7.05624">
        <ele>989.814697</ele>
        <time>2012-01-15T16:25:53+01:00</time>
      </trkpt>
      <trkpt lat="43.73829" lon="7.05628">
        <ele>989.814697</ele>
        <time>2012-01-15T16:25:59+01:00</time>
      </trkpt>
      <trkpt lat="43.73828" lon="7.0563">
        <ele>990.29541</ele>
        <time>2012-01-15T16:26:06+01:00</time>
      </trkpt>
      <trkpt lat="43.73828" lon="7.0563">
        <ele>990.775879</ele>
        <time>2012-01-15T16:26:19+01:00</time>
      </trkpt>
      <trkpt lat="43.73828" lon="7.05632">
        <ele>990.775879</ele>
        <time>2012-01-15T16:26:30+01:00</time>
      </trkpt>
      <trkpt lat="43.73827" lon="7.05645">
        <ele>991.256592</ele>
        <time>2012-01-15T16:26:36+01:00</time>
      </trkpt>
      <trkpt lat="43.73827" lon="7.05648">
        <ele>991.256592</ele>
        <time>2012-01-15T16:26:37+01:00</time>
      </trkpt>
      <trkpt lat="43.73827" lon="7.0566">
        <ele>991.737305</ele>
        <time>2012-01-15T16:26:41+01:00</time>
      </trkpt>
      <trkpt lat="43.73823" lon="7.05678">
        <ele>991.256592</ele>
        <time>2012-01-15T16:26:46+01:00</time>
      </trkpt>
      <trkpt lat="43.73818" lon="7.05703">
        <ele>991.737305</ele>
        <time>2012-01-15T16:26:52+01:00</time>
      </trkpt>
      <trkpt lat="43.73812" lon="7.05726">
        <ele>990.775879</ele>
        <time>2012-01-15T16:26:57+01:00</time>
      </trkpt>
      <trkpt lat="43.73802" lon="7.05752">
        <ele>990.775879</ele>
        <time>2012-01-15T16:27:03+01:00</time>
      </trkpt>
      <trkpt lat="43.73793" lon="7.05774">
        <ele>990.29541</ele>
        <time>2012-01-15T16:27:08+01:00</time>
      </trkpt>
      <trkpt lat="43.73787" lon="7.05796">
        <ele>989.814697</ele>
        <time>2012-01-15T16:27:14+01:00</time>
      </trkpt>
      <trkpt lat="43.73788" lon="7.05799">
        <ele>990.29541</ele>
        <time>2012-01-15T16:27:18+01:00</time>
      </trkpt>
      <trkpt lat="43.73788" lon="7.05802">
        <ele>989.814697</ele>
        <time>2012-01-15T16:27:22+01:00</time>
      </trkpt>
      <trkpt lat="43.73784" lon="7.05806">
        <ele>990.29541</ele>
        <time>2012-01-15T16:27:28+01:00</time>
      </trkpt>
      <trkpt lat="43.73783" lon="7.05806">
        <ele>990.775879</ele>
        <time>2012-01-15T16:27:36+01:00</time>
      </trkpt>
      <trkpt lat="43.73784" lon="7.05804">
        <ele>992.69873</ele>
        <time>2012-01-15T16:28:08+01:00</time>
      </trkpt>
      <trkpt lat="43.73787" lon="7.05799">
        <ele>993.659912</ele>
        <time>2012-01-15T16:28:13+01:00</time>
      </trkpt>
      <trkpt lat="43.73788" lon="7.05797">
        <ele>993.179199</ele>
        <time>2012-01-15T16:28:20+01:00</time>
      </trkpt>
      <trkpt lat="43.73788" lon="7.05798">
        <ele>993.179199</ele>
        <time>2012-01-15T16:28:29+01:00</time>
      </trkpt>
      <trkpt lat="43.73789" lon="7.05796">
        <ele>993.179199</ele>
        <time>2012-01-15T16:28:36+01:00</time>
      </trkpt>
      <trkpt lat="43.73789" lon="7.05797">
        <ele>993.659912</ele>
        <time>2012-01-15T16:28:50+01:00</time>
      </trkpt>
      <trkpt lat="43.73789" lon="7.058">
        <ele>994.140625</ele>
        <time>2012-01-15T16:29:01+01:00</time>
      </trkpt>
      <trkpt lat="43.73789" lon="7.058">
        <ele>994.621094</ele>
        <time>2012-01-15T16:29:09+01:00</time>
      </trkpt>
      <trkpt lat="43.73788" lon="7.05799">
        <ele>995.58252</ele>
        <time>2012-01-15T16:29:25+01:00</time>
      </trkpt>
      <trkpt lat="43.73788" lon="7.058">
        <ele>996.063232</ele>
        <time>2012-01-15T16:29:39+01:00</time>
      </trkpt>
      <trkpt lat="43.73788" lon="7.05799">
        <ele>996.543945</ele>
        <time>2012-01-15T16:29:45+01:00</time>
      </trkpt>
      <trkpt lat="43.73787" lon="7.058">
        <ele>996.543945</ele>
        <time>2012-01-15T16:29:52+01:00</time>
      </trkpt>
      <trkpt lat="43.73787" lon="7.058">
        <ele>996.543945</ele>
        <time>2012-01-15T16:29:56+01:00</time>
      </trkpt>
      <trkpt lat="43.73787" lon="7.05799">
        <ele>996.063232</ele>
        <time>2012-01-15T16:30:02+01:00</time>
      </trkpt>
      <trkpt lat="43.73786" lon="7.058">
        <ele>996.063232</ele>
        <time>2012-01-15T16:30:08+01:00</time>
      </trkpt>
      <trkpt lat="43.73786" lon="7.05801">
        <ele>995.101807</ele>
        <time>2012-01-15T16:30:26+01:00</time>
      </trkpt>
      <trkpt lat="43.73786" lon="7.05801">
        <ele>994.621094</ele>
        <time>2012-01-15T16:30:39+01:00</time>
      </trkpt>
      <trkpt lat="43.73799" lon="7.05809">
        <ele>992.69873</ele>
        <time>2012-01-15T16:30:45+01:00</time>
      </trkpt>
      <trkpt lat="43.73812" lon="7.05822">
        <ele>989.814697</ele>
        <time>2012-01-15T16:30:48+01:00</time>
      </trkpt>
      <trkpt lat="43.73822" lon="7.05835">
        <ele>987.891846</ele>
        <time>2012-01-15T16:30:50+01:00</time>
      </trkpt>
      <trkpt lat="43.73842" lon="7.05855">
        <ele>984.527344</ele>
        <time>2012-01-15T16:30:55+01:00</time>
      </trkpt>
      <trkpt lat="43.73853" lon="7.05854">
        <ele>982.604736</ele>
        <time>2012-01-15T16:30:57+01:00</time>
      </trkpt>
      <trkpt lat="43.73868" lon="7.05838">
        <ele>976.836914</ele>
        <time>2012-01-15T16:31:02+01:00</time>
      </trkpt>
      <trkpt lat="43.73873" lon="7.05812">
        <ele>971.068848</ele>
        <time>2012-01-15T16:31:06+01:00</time>
      </trkpt>
      <trkpt lat="43.73876" lon="7.05801">
        <ele>968.184814</ele>
        <time>2012-01-15T16:31:08+01:00</time>
      </trkpt>
      <trkpt lat="43.73889" lon="7.05799">
        <ele>964.3396</ele>
        <time>2012-01-15T16:31:11+01:00</time>
      </trkpt>
      <trkpt lat="43.7391" lon="7.05797">
        <ele>956.64917</ele>
        <time>2012-01-15T16:31:16+01:00</time>
      </trkpt>
      <trkpt lat="43.73922" lon="7.05796">
        <ele>952.803711</ele>
        <time>2012-01-15T16:31:19+01:00</time>
      </trkpt>
      <trkpt lat="43.73929" lon="7.05791">
        <ele>947.516602</ele>
        <time>2012-01-15T16:31:24+01:00</time>
      </trkpt>
      <trkpt lat="43.73932" lon="7.05788">
        <ele>945.593994</ele>
        <time>2012-01-15T16:31:26+01:00</time>
      </trkpt>
      <trkpt lat="43.73943" lon="7.05776">
        <ele>938.384033</ele>
        <time>2012-01-15T16:31:32+01:00</time>
      </trkpt>
      <trkpt lat="43.7396" lon="7.0577">
        <ele>934.058105</ele>
        <time>2012-01-15T16:31:35+01:00</time>
      </trkpt>
      <trkpt lat="43.73973" lon="7.05764">
        <ele>932.135498</ele>
        <time>2012-01-15T16:31:38+01:00</time>
      </trkpt>
      <trkpt lat="43.73974" lon="7.05764">
        <ele>933.09668</ele>
        <time>2012-01-15T16:31:49+01:00</time>
      </trkpt>
      <trkpt lat="43.73974" lon="7.05764">
        <ele>934.538818</ele>
        <time>2012-01-15T16:32:06+01:00</time>
      </trkpt>
      <trkpt lat="43.73974" lon="7.05764">
        <ele>935.019531</ele>
        <time>2012-01-15T16:32:13+01:00</time>
      </trkpt>
      <trkpt lat="43.73974" lon="7.05763">
        <ele>934.058105</ele>
        <time>2012-01-15T16:32:53+01:00</time>
      </trkpt>
      <trkpt lat="43.73975" lon="7.05763">
        <ele>934.058105</ele>
        <time>2012-01-15T16:33:02+01:00</time>
      </trkpt>
      <trkpt lat="43.73976" lon="7.05764">
        <ele>934.058105</ele>
        <time>2012-01-15T16:33:12+01:00</time>
      </trkpt>
      <trkpt lat="43.73983" lon="7.05768">
        <ele>932.616211</ele>
        <time>2012-01-15T16:33:16+01:00</time>
      </trkpt>
      <trkpt lat="43.73999" lon="7.05778">
        <ele>927.329102</ele>
        <time>2012-01-15T16:33:21+01:00</time>
      </trkpt>
      <trkpt lat="43.74019" lon="7.05782">
        <ele>922.041504</ele>
        <time>2012-01-15T16:33:26+01:00</time>
      </trkpt>
      <trkpt lat="43.74032" lon="7.05783">
        <ele>918.196289</ele>
        <time>2012-01-15T16:33:29+01:00</time>
      </trkpt>
      <trkpt lat="43.74046" lon="7.05785">
        <ele>913.389893</ele>
        <time>2012-01-15T16:33:32+01:00</time>
      </trkpt>
      <trkpt lat="43.74069" lon="7.05787">
        <ele>909.544678</ele>
        <time>2012-01-15T16:33:36+01:00</time>
      </trkpt>
      <trkpt lat="43.74091" lon="7.05801">
        <ele>903.776611</ele>
        <time>2012-01-15T16:33:41+01:00</time>
      </trkpt>
      <trkpt lat="43.74101" lon="7.05807">
        <ele>900.412109</ele>
        <time>2012-01-15T16:33:43+01:00</time>
      </trkpt>
      <trkpt lat="43.74109" lon="7.05814">
        <ele>897.047363</ele>
        <time>2012-01-15T16:33:45+01:00</time>
      </trkpt>
      <trkpt lat="43.74132" lon="7.05822">
        <ele>891.76001</ele>
        <time>2012-01-15T16:33:50+01:00</time>
      </trkpt>
      <trkpt lat="43.74147" lon="7.05823">
        <ele>888.876221</ele>
        <time>2012-01-15T16:33:53+01:00</time>
      </trkpt>
      <trkpt lat="43.74162" lon="7.05832">
        <ele>886.4729</ele>
        <time>2012-01-15T16:33:56+01:00</time>
      </trkpt>
      <trkpt lat="43.74183" lon="7.0584">
        <ele>882.627686</ele>
        <time>2012-01-15T16:34:01+01:00</time>
      </trkpt>
      <trkpt lat="43.74187" lon="7.05852">
        <ele>879.743652</ele>
        <time>2012-01-15T16:34:04+01:00</time>
      </trkpt>
      <trkpt lat="43.74186" lon="7.05855">
        <ele>879.262939</ele>
        <time>2012-01-15T16:34:05+01:00</time>
      </trkpt>
      <trkpt lat="43.74185" lon="7.05871">
        <ele>877.340576</ele>
        <time>2012-01-15T16:34:10+01:00</time>
      </trkpt>
      <trkpt lat="43.74185" lon="7.05873">
        <ele>876.859863</ele>
        <time>2012-01-15T16:34:17+01:00</time>
      </trkpt>
      <trkpt lat="43.74186" lon="7.05872">
        <ele>877.821045</ele>
        <time>2012-01-15T16:34:36+01:00</time>
      </trkpt>
      <trkpt lat="43.74186" lon="7.05872">
        <ele>879.743652</ele>
        <time>2012-01-15T16:34:56+01:00</time>
      </trkpt>
      <trkpt lat="43.74187" lon="7.05871">
        <ele>880.224365</ele>
        <time>2012-01-15T16:35:03+01:00</time>
      </trkpt>
      <trkpt lat="43.74186" lon="7.05871">
        <ele>880.705078</ele>
        <time>2012-01-15T16:35:15+01:00</time>
      </trkpt>
      <trkpt lat="43.7419" lon="7.05879">
        <ele>879.743652</ele>
        <time>2012-01-15T16:35:31+01:00</time>
      </trkpt>
      <trkpt lat="43.74197" lon="7.05898">
        <ele>877.340576</ele>
        <time>2012-01-15T16:35:34+01:00</time>
      </trkpt>
      <trkpt lat="43.74196" lon="7.05921">
        <ele>875.41748</ele>
        <time>2012-01-15T16:35:37+01:00</time>
      </trkpt>
      <trkpt lat="43.7419" lon="7.05943">
        <ele>873.975586</ele>
        <time>2012-01-15T16:35:40+01:00</time>
      </trkpt>
      <trkpt lat="43.74188" lon="7.05966">
        <ele>872.052979</ele>
        <time>2012-01-15T16:35:43+01:00</time>
      </trkpt>
      <trkpt lat="43.74189" lon="7.05985">
        <ele>869.649902</ele>
        <time>2012-01-15T16:35:46+01:00</time>
      </trkpt>
      <trkpt lat="43.7419" lon="7.06009">
        <ele>866.765869</ele>
        <time>2012-01-15T16:35:50+01:00</time>
      </trkpt>
      <trkpt lat="43.74191" lon="7.06038">
        <ele>861.959473</ele>
        <time>2012-01-15T16:35:55+01:00</time>
      </trkpt>
      <trkpt lat="43.74188" lon="7.06043">
        <ele>860.036621</ele>
        <time>2012-01-15T16:35:58+01:00</time>
      </trkpt>
      <trkpt lat="43.74188" lon="7.06043">
        <ele>859.075195</ele>
        <time>2012-01-15T16:36:05+01:00</time>
      </trkpt>
      <trkpt lat="43.74188" lon="7.06048">
        <ele>858.594482</ele>
        <time>2012-01-15T16:36:09+01:00</time>
      </trkpt>
      <trkpt lat="43.74189" lon="7.06048">
        <ele>858.594482</ele>
        <time>2012-01-15T16:36:15+01:00</time>
      </trkpt>
      <trkpt lat="43.7419" lon="7.0605">
        <ele>858.114014</ele>
        <time>2012-01-15T16:36:19+01:00</time>
      </trkpt>
      <trkpt lat="43.7419" lon="7.06057">
        <ele>857.152588</ele>
        <time>2012-01-15T16:36:23+01:00</time>
      </trkpt>
      <trkpt lat="43.74192" lon="7.06069">
        <ele>855.22998</ele>
        <time>2012-01-15T16:36:27+01:00</time>
      </trkpt>
      <trkpt lat="43.7419" lon="7.06084">
        <ele>853.307373</ele>
        <time>2012-01-15T16:36:32+01:00</time>
      </trkpt>
      <trkpt lat="43.74188" lon="7.06094">
        <ele>851.384766</ele>
        <time>2012-01-15T16:36:36+01:00</time>
      </trkpt>
      <trkpt lat="43.74188" lon="7.06094">
        <ele>850.423584</ele>
        <time>2012-01-15T16:36:42+01:00</time>
      </trkpt>
      <trkpt lat="43.74188" lon="7.06096">
        <ele>850.904053</ele>
        <time>2012-01-15T16:36:46+01:00</time>
      </trkpt>
      <trkpt lat="43.74187" lon="7.06098">
        <ele>850.423584</ele>
        <time>2012-01-15T16:36:52+01:00</time>
      </trkpt>
      <trkpt lat="43.74185" lon="7.06106">
        <ele>849.942871</ele>
        <time>2012-01-15T16:36:56+01:00</time>
      </trkpt>
      <trkpt lat="43.74182" lon="7.06121">
        <ele>848.981445</ele>
        <time>2012-01-15T16:37:01+01:00</time>
      </trkpt>
      <trkpt lat="43.7418" lon="7.06147">
        <ele>847.058838</ele>
        <time>2012-01-15T16:37:06+01:00</time>
      </trkpt>
      <trkpt lat="43.74181" lon="7.0618">
        <ele>845.13623</ele>
        <time>2012-01-15T16:37:10+01:00</time>
      </trkpt>
      <trkpt lat="43.74182" lon="7.06201">
        <ele>843.694092</ele>
        <time>2012-01-15T16:37:13+01:00</time>
      </trkpt>
      <trkpt lat="43.74188" lon="7.06222">
        <ele>841.771484</ele>
        <time>2012-01-15T16:37:16+01:00</time>
      </trkpt>
      <trkpt lat="43.7419" lon="7.06249">
        <ele>839.368164</ele>
        <time>2012-01-15T16:37:20+01:00</time>
      </trkpt>
      <trkpt lat="43.7419" lon="7.06274">
        <ele>836.964844</ele>
        <time>2012-01-15T16:37:24+01:00</time>
      </trkpt>
      <trkpt lat="43.74192" lon="7.06295">
        <ele>834.081055</ele>
        <time>2012-01-15T16:37:28+01:00</time>
      </trkpt>
      <trkpt lat="43.74189" lon="7.06326">
        <ele>832.158447</ele>
        <time>2012-01-15T16:37:34+01:00</time>
      </trkpt>
      <trkpt lat="43.74189" lon="7.0633">
        <ele>831.197266</ele>
        <time>2012-01-15T16:37:37+01:00</time>
      </trkpt>
      <trkpt lat="43.74189" lon="7.06332">
        <ele>830.716553</ele>
        <time>2012-01-15T16:37:42+01:00</time>
      </trkpt>
      <trkpt lat="43.74189" lon="7.06338">
        <ele>830.23584</ele>
        <time>2012-01-15T16:37:48+01:00</time>
      </trkpt>
      <trkpt lat="43.74189" lon="7.06344">
        <ele>829.755127</ele>
        <time>2012-01-15T16:37:50+01:00</time>
      </trkpt>
      <trkpt lat="43.74189" lon="7.06352">
        <ele>828.793945</ele>
        <time>2012-01-15T16:37:55+01:00</time>
      </trkpt>
      <trkpt lat="43.74191" lon="7.06362">
        <ele>827.832275</ele>
        <time>2012-01-15T16:38:00+01:00</time>
      </trkpt>
      <trkpt lat="43.74192" lon="7.06363">
        <ele>827.351807</ele>
        <time>2012-01-15T16:38:01+01:00</time>
      </trkpt>
      <trkpt lat="43.74192" lon="7.06363">
        <ele>826.390381</ele>
        <time>2012-01-15T16:38:17+01:00</time>
      </trkpt>
      <trkpt lat="43.74193" lon="7.06361">
        <ele>826.871094</ele>
        <time>2012-01-15T16:38:24+01:00</time>
      </trkpt>
      <trkpt lat="43.74193" lon="7.06363">
        <ele>829.274414</ele>
        <time>2012-01-15T16:38:54+01:00</time>
      </trkpt>
      <trkpt lat="43.74193" lon="7.06365">
        <ele>828.793945</ele>
        <time>2012-01-15T16:39:23+01:00</time>
      </trkpt>
      <trkpt lat="43.74197" lon="7.06376">
        <ele>826.871094</ele>
        <time>2012-01-15T16:39:27+01:00</time>
      </trkpt>
      <trkpt lat="43.74203" lon="7.06404">
        <ele>823.025879</ele>
        <time>2012-01-15T16:39:33+01:00</time>
      </trkpt>
      <trkpt lat="43.74209" lon="7.06435">
        <ele>817.738525</ele>
        <time>2012-01-15T16:39:39+01:00</time>
      </trkpt>
      <trkpt lat="43.74213" lon="7.06463">
        <ele>813.893311</ele>
        <time>2012-01-15T16:39:43+01:00</time>
      </trkpt>
      <trkpt lat="43.74213" lon="7.0648">
        <ele>811.009277</ele>
        <time>2012-01-15T16:39:46+01:00</time>
      </trkpt>
      <trkpt lat="43.74217" lon="7.06506">
        <ele>805.722168</ele>
        <time>2012-01-15T16:39:51+01:00</time>
      </trkpt>
      <trkpt lat="43.74218" lon="7.06522">
        <ele>802.838135</ele>
        <time>2012-01-15T16:39:55+01:00</time>
      </trkpt>
      <trkpt lat="43.74222" lon="7.06534">
        <ele>800.435059</ele>
        <time>2012-01-15T16:39:58+01:00</time>
      </trkpt>
      <trkpt lat="43.74224" lon="7.06538">
        <ele>799.473633</ele>
        <time>2012-01-15T16:39:59+01:00</time>
      </trkpt>
      <trkpt lat="43.74232" lon="7.06555">
        <ele>795.147461</ele>
        <time>2012-01-15T16:40:04+01:00</time>
      </trkpt>
      <trkpt lat="43.74234" lon="7.0656">
        <ele>793.705566</ele>
        <time>2012-01-15T16:40:09+01:00</time>
      </trkpt>
      <trkpt lat="43.74237" lon="7.06562">
        <ele>788.89917</ele>
        <time>2012-01-15T16:41:40+01:00</time>
      </trkpt>
      <trkpt lat="43.74245" lon="7.06571">
        <ele>787.457031</ele>
        <time>2012-01-15T16:41:44+01:00</time>
      </trkpt>
      <trkpt lat="43.74255" lon="7.06584">
        <ele>784.573242</ele>
        <time>2012-01-15T16:41:48+01:00</time>
      </trkpt>
      <trkpt lat="43.74262" lon="7.06602">
        <ele>782.650635</ele>
        <time>2012-01-15T16:41:51+01:00</time>
      </trkpt>
      <trkpt lat="43.74274" lon="7.06646">
        <ele>779.285645</ele>
        <time>2012-01-15T16:41:56+01:00</time>
      </trkpt>
      <trkpt lat="43.74288" lon="7.06679">
        <ele>775.44043</ele>
        <time>2012-01-15T16:42:00+01:00</time>
      </trkpt>
      <trkpt lat="43.74293" lon="7.06693">
        <ele>773.998535</ele>
        <time>2012-01-15T16:42:02+01:00</time>
      </trkpt>
      <trkpt lat="43.74303" lon="7.06712">
        <ele>769.192139</ele>
        <time>2012-01-15T16:42:07+01:00</time>
      </trkpt>
      <trkpt lat="43.74315" lon="7.06721">
        <ele>767.269531</ele>
        <time>2012-01-15T16:42:11+01:00</time>
      </trkpt>
      <trkpt lat="43.74319" lon="7.06734">
        <ele>765.827637</ele>
        <time>2012-01-15T16:42:14+01:00</time>
      </trkpt>
      <trkpt lat="43.74326" lon="7.06746">
        <ele>764.385498</ele>
        <time>2012-01-15T16:42:17+01:00</time>
      </trkpt>
      <trkpt lat="43.74344" lon="7.06757">
        <ele>762.943359</ele>
        <time>2012-01-15T16:42:22+01:00</time>
      </trkpt>
      <trkpt lat="43.74348" lon="7.06764">
        <ele>762.462646</ele>
        <time>2012-01-15T16:42:24+01:00</time>
      </trkpt>
      <trkpt lat="43.74365" lon="7.06778">
        <ele>759.098145</ele>
        <time>2012-01-15T16:42:30+01:00</time>
      </trkpt>
      <trkpt lat="43.74368" lon="7.06778">
        <ele>758.617432</ele>
        <time>2012-01-15T16:42:33+01:00</time>
      </trkpt>
      <trkpt lat="43.74368" lon="7.06776">
        <ele>758.136963</ele>
        <time>2012-01-15T16:42:36+01:00</time>
      </trkpt>
      <trkpt lat="43.74369" lon="7.06777">
        <ele>758.136963</ele>
        <time>2012-01-15T16:42:42+01:00</time>
      </trkpt>
      <trkpt lat="43.74372" lon="7.06778">
        <ele>758.136963</ele>
        <time>2012-01-15T16:42:47+01:00</time>
      </trkpt>
      <trkpt lat="43.74378" lon="7.0678">
        <ele>756.214111</ele>
        <time>2012-01-15T16:42:52+01:00</time>
      </trkpt>
      <trkpt lat="43.74378" lon="7.06782">
        <ele>755.733643</ele>
        <time>2012-01-15T16:42:57+01:00</time>
      </trkpt>
      <trkpt lat="43.74378" lon="7.06781">
        <ele>755.733643</ele>
        <time>2012-01-15T16:43:32+01:00</time>
      </trkpt>
      <trkpt lat="43.74379" lon="7.06783">
        <ele>755.25293</ele>
        <time>2012-01-15T16:43:38+01:00</time>
      </trkpt>
      <trkpt lat="43.74379" lon="7.06784">
        <ele>754.772217</ele>
        <time>2012-01-15T16:43:40+01:00</time>
      </trkpt>
      <trkpt lat="43.74381" lon="7.06801">
        <ele>756.214111</ele>
        <time>2012-01-15T16:43:47+01:00</time>
      </trkpt>
      <trkpt lat="43.74384" lon="7.06815">
        <ele>757.65625</ele>
        <time>2012-01-15T16:43:53+01:00</time>
      </trkpt>
      <trkpt lat="43.74385" lon="7.06817">
        <ele>758.136963</ele>
        <time>2012-01-15T16:43:58+01:00</time>
      </trkpt>
      <trkpt lat="43.74385" lon="7.06818">
        <ele>757.65625</ele>
        <time>2012-01-15T16:44:02+01:00</time>
      </trkpt>
      <trkpt lat="43.74382" lon="7.06825">
        <ele>759.578857</ele>
        <time>2012-01-15T16:44:33+01:00</time>
      </trkpt>
      <trkpt lat="43.74378" lon="7.06845">
        <ele>757.65625</ele>
        <time>2012-01-15T16:44:38+01:00</time>
      </trkpt>
      <trkpt lat="43.74378" lon="7.06868">
        <ele>756.214111</ele>
        <time>2012-01-15T16:44:42+01:00</time>
      </trkpt>
      <trkpt lat="43.74375" lon="7.06893">
        <ele>754.291748</ele>
        <time>2012-01-15T16:44:46+01:00</time>
      </trkpt>
      <trkpt lat="43.74377" lon="7.06929">
        <ele>752.368896</ele>
        <time>2012-01-15T16:44:51+01:00</time>
      </trkpt>
      <trkpt lat="43.74378" lon="7.06934">
        <ele>752.368896</ele>
        <time>2012-01-15T16:44:52+01:00</time>
      </trkpt>
      <trkpt lat="43.74379" lon="7.06946">
        <ele>750.927002</ele>
        <time>2012-01-15T16:44:56+01:00</time>
      </trkpt>
      <trkpt lat="43.74381" lon="7.06952">
        <ele>749.485107</ele>
        <time>2012-01-15T16:44:58+01:00</time>
      </trkpt>
      <trkpt lat="43.74379" lon="7.06962">
        <ele>748.523682</ele>
        <time>2012-01-15T16:45:00+01:00</time>
      </trkpt>
      <trkpt lat="43.74382" lon="7.06995">
        <ele>744.678223</ele>
        <time>2012-01-15T16:45:06+01:00</time>
      </trkpt>
      <trkpt lat="43.74385" lon="7.07012">
        <ele>741.794434</ele>
        <time>2012-01-15T16:45:09+01:00</time>
      </trkpt>
      <trkpt lat="43.74386" lon="7.07018">
        <ele>741.313721</ele>
        <time>2012-01-15T16:45:10+01:00</time>
      </trkpt>
      <trkpt lat="43.74389" lon="7.07053">
        <ele>736.987793</ele>
        <time>2012-01-15T16:45:16+01:00</time>
      </trkpt>
      <trkpt lat="43.74395" lon="7.07075">
        <ele>734.584717</ele>
        <time>2012-01-15T16:45:20+01:00</time>
      </trkpt>
      <trkpt lat="43.74398" lon="7.07096">
        <ele>732.662109</ele>
        <time>2012-01-15T16:45:24+01:00</time>
      </trkpt>
      <trkpt lat="43.74397" lon="7.07112">
        <ele>730.258545</ele>
        <time>2012-01-15T16:45:28+01:00</time>
      </trkpt>
      <trkpt lat="43.74398" lon="7.07135">
        <ele>727.374756</ele>
        <time>2012-01-15T16:45:33+01:00</time>
      </trkpt>
      <trkpt lat="43.74399" lon="7.07153">
        <ele>724.971436</ele>
        <time>2012-01-15T16:45:36+01:00</time>
      </trkpt>
      <trkpt lat="43.74404" lon="7.07177">
        <ele>721.606689</ele>
        <time>2012-01-15T16:45:42+01:00</time>
      </trkpt>
      <trkpt lat="43.74405" lon="7.07178">
        <ele>720.164795</ele>
        <time>2012-01-15T16:45:46+01:00</time>
      </trkpt>
      <trkpt lat="43.74404" lon="7.07184">
        <ele>717.761475</ele>
        <time>2012-01-15T16:45:53+01:00</time>
      </trkpt>
      <trkpt lat="43.74404" lon="7.07198">
        <ele>717.281006</ele>
        <time>2012-01-15T16:45:57+01:00</time>
      </trkpt>
      <trkpt lat="43.74403" lon="7.07203">
        <ele>716.800293</ele>
        <time>2012-01-15T16:45:58+01:00</time>
      </trkpt>
      <trkpt lat="43.74402" lon="7.07228">
        <ele>715.838867</ele>
        <time>2012-01-15T16:46:03+01:00</time>
      </trkpt>
      <trkpt lat="43.74398" lon="7.07254">
        <ele>715.358154</ele>
        <time>2012-01-15T16:46:07+01:00</time>
      </trkpt>
      <trkpt lat="43.74397" lon="7.07259">
        <ele>714.877441</ele>
        <time>2012-01-15T16:46:08+01:00</time>
      </trkpt>
      <trkpt lat="43.74388" lon="7.07279">
        <ele>712.474121</ele>
        <time>2012-01-15T16:46:13+01:00</time>
      </trkpt>
      <trkpt lat="43.74387" lon="7.07295">
        <ele>710.551514</ele>
        <time>2012-01-15T16:46:16+01:00</time>
      </trkpt>
      <trkpt lat="43.74385" lon="7.07304">
        <ele>709.590332</ele>
        <time>2012-01-15T16:46:18+01:00</time>
      </trkpt>
      <trkpt lat="43.74382" lon="7.0732">
        <ele>707.667725</ele>
        <time>2012-01-15T16:46:21+01:00</time>
      </trkpt>
      <trkpt lat="43.74383" lon="7.07335">
        <ele>706.706299</ele>
        <time>2012-01-15T16:46:25+01:00</time>
      </trkpt>
      <trkpt lat="43.7438" lon="7.07344">
        <ele>706.706299</ele>
        <time>2012-01-15T16:46:27+01:00</time>
      </trkpt>
      <trkpt lat="43.74375" lon="7.07371">
        <ele>705.264404</ele>
        <time>2012-01-15T16:46:32+01:00</time>
      </trkpt>
      <trkpt lat="43.74372" lon="7.0739">
        <ele>705.745117</ele>
        <time>2012-01-15T16:46:35+01:00</time>
      </trkpt>
      <trkpt lat="43.74371" lon="7.07403">
        <ele>705.745117</ele>
        <time>2012-01-15T16:46:37+01:00</time>
      </trkpt>
      <trkpt lat="43.74362" lon="7.07432">
        <ele>703.82251</ele>
        <time>2012-01-15T16:46:42+01:00</time>
      </trkpt>
      <trkpt lat="43.7436" lon="7.07443">
        <ele>702.380371</ele>
        <time>2012-01-15T16:46:45+01:00</time>
      </trkpt>
      <trkpt lat="43.7436" lon="7.07448">
        <ele>702.861084</ele>
        <time>2012-01-15T16:46:52+01:00</time>
      </trkpt>
      <trkpt lat="43.7436" lon="7.07448">
        <ele>702.861084</ele>
        <time>2012-01-15T16:47:00+01:00</time>
      </trkpt>
      <trkpt lat="43.74361" lon="7.07448">
        <ele>703.341797</ele>
        <time>2012-01-15T16:47:11+01:00</time>
      </trkpt>
      <trkpt lat="43.7436" lon="7.0745">
        <ele>703.341797</ele>
        <time>2012-01-15T16:47:19+01:00</time>
      </trkpt>
      <trkpt lat="43.7436" lon="7.07454">
        <ele>702.380371</ele>
        <time>2012-01-15T16:47:24+01:00</time>
      </trkpt>
      <trkpt lat="43.7436" lon="7.07459">
        <ele>702.380371</ele>
        <time>2012-01-15T16:47:30+01:00</time>
      </trkpt>
      <trkpt lat="43.74358" lon="7.07463">
        <ele>703.341797</ele>
        <time>2012-01-15T16:47:40+01:00</time>
      </trkpt>
      <trkpt lat="43.74357" lon="7.07465">
        <ele>703.82251</ele>
        <time>2012-01-15T16:47:46+01:00</time>
      </trkpt>
      <trkpt lat="43.74357" lon="7.07465">
        <ele>705.264404</ele>
        <time>2012-01-15T16:47:57+01:00</time>
      </trkpt>
      <trkpt lat="43.74357" lon="7.07465">
        <ele>706.225586</ele>
        <time>2012-01-15T16:48:10+01:00</time>
      </trkpt>
      <trkpt lat="43.74358" lon="7.07465">
        <ele>706.706299</ele>
        <time>2012-01-15T16:48:30+01:00</time>
      </trkpt>
      <trkpt lat="43.74357" lon="7.07465">
        <ele>707.667725</ele>
        <time>2012-01-15T16:48:38+01:00</time>
      </trkpt>
      <trkpt lat="43.74357" lon="7.07465">
        <ele>708.628906</ele>
        <time>2012-01-15T16:49:10+01:00</time>
      </trkpt>
      <trkpt lat="43.74357" lon="7.07466">
        <ele>708.148438</ele>
        <time>2012-01-15T16:49:21+01:00</time>
      </trkpt>
      <trkpt lat="43.74357" lon="7.07467">
        <ele>708.148438</ele>
        <time>2012-01-15T16:49:35+01:00</time>
      </trkpt>
      <trkpt lat="43.74357" lon="7.07468">
        <ele>708.148438</ele>
        <time>2012-01-15T16:49:37+01:00</time>
      </trkpt>
      <trkpt lat="43.74357" lon="7.0748">
        <ele>705.264404</ele>
        <time>2012-01-15T16:49:41+01:00</time>
      </trkpt>
      <trkpt lat="43.74354" lon="7.07508">
        <ele>701.419189</ele>
        <time>2012-01-15T16:49:47+01:00</time>
      </trkpt>
      <trkpt lat="43.74347" lon="7.07529">
        <ele>698.534912</ele>
        <time>2012-01-15T16:49:51+01:00</time>
      </trkpt>
      <trkpt lat="43.74345" lon="7.0755">
        <ele>695.17041</ele>
        <time>2012-01-15T16:49:55+01:00</time>
      </trkpt>
      <trkpt lat="43.74346" lon="7.07561">
        <ele>693.728516</ele>
        <time>2012-01-15T16:49:57+01:00</time>
      </trkpt>
      <trkpt lat="43.7435" lon="7.07583">
        <ele>691.325195</ele>
        <time>2012-01-15T16:50:02+01:00</time>
      </trkpt>
      <trkpt lat="43.74352" lon="7.07599">
        <ele>689.883301</ele>
        <time>2012-01-15T16:50:06+01:00</time>
      </trkpt>
      <trkpt lat="43.74352" lon="7.07627">
        <ele>687.47998</ele>
        <time>2012-01-15T16:50:11+01:00</time>
      </trkpt>
      <trkpt lat="43.74352" lon="7.07644">
        <ele>685.557373</ele>
        <time>2012-01-15T16:50:14+01:00</time>
      </trkpt>
      <trkpt lat="43.74354" lon="7.07663">
        <ele>683.634521</ele>
        <time>2012-01-15T16:50:19+01:00</time>
      </trkpt>
      <trkpt lat="43.74358" lon="7.07689">
        <ele>680.750732</ele>
        <time>2012-01-15T16:50:23+01:00</time>
      </trkpt>
      <trkpt lat="43.74371" lon="7.07702">
        <ele>680.750732</ele>
        <time>2012-01-15T16:50:27+01:00</time>
      </trkpt>
      <trkpt lat="43.74378" lon="7.07717">
        <ele>680.27002</ele>
        <time>2012-01-15T16:50:31+01:00</time>
      </trkpt>
      <trkpt lat="43.7438" lon="7.07723">
        <ele>680.27002</ele>
        <time>2012-01-15T16:50:32+01:00</time>
      </trkpt>
      <trkpt lat="43.74388" lon="7.07746">
        <ele>677.866699</ele>
        <time>2012-01-15T16:50:36+01:00</time>
      </trkpt>
      <trkpt lat="43.74393" lon="7.07763">
        <ele>676.424805</ele>
        <time>2012-01-15T16:50:40+01:00</time>
      </trkpt>
      <trkpt lat="43.74396" lon="7.07789">
        <ele>671.618164</ele>
        <time>2012-01-15T16:50:46+01:00</time>
      </trkpt>
      <trkpt lat="43.74392" lon="7.07796">
        <ele>668.734375</ele>
        <time>2012-01-15T16:50:49+01:00</time>
      </trkpt>
      <trkpt lat="43.74379" lon="7.07795">
        <ele>663.92749</ele>
        <time>2012-01-15T16:50:54+01:00</time>
      </trkpt>
      <trkpt lat="43.74374" lon="7.07797">
        <ele>662.485596</ele>
        <time>2012-01-15T16:50:57+01:00</time>
      </trkpt>
      <trkpt lat="43.74373" lon="7.07798">
        <ele>662.966309</ele>
        <time>2012-01-15T16:51:01+01:00</time>
      </trkpt>
      <trkpt lat="43.74373" lon="7.07796">
        <ele>662.966309</ele>
        <time>2012-01-15T16:51:15+01:00</time>
      </trkpt>
      <trkpt lat="43.74373" lon="7.07796">
        <ele>662.485596</ele>
        <time>2012-01-15T16:51:20+01:00</time>
      </trkpt>
      <trkpt lat="43.74371" lon="7.07796">
        <ele>661.524414</ele>
        <time>2012-01-15T16:51:26+01:00</time>
      </trkpt>
      <trkpt lat="43.74359" lon="7.07797">
        <ele>658.159912</ele>
        <time>2012-01-15T16:51:32+01:00</time>
      </trkpt>
      <trkpt lat="43.74353" lon="7.07793">
        <ele>656.237061</ele>
        <time>2012-01-15T16:51:35+01:00</time>
      </trkpt>
      <trkpt lat="43.74342" lon="7.07779">
        <ele>652.872559</ele>
        <time>2012-01-15T16:51:40+01:00</time>
      </trkpt>
      <trkpt lat="43.74331" lon="7.07772">
        <ele>650.469238</ele>
        <time>2012-01-15T16:51:44+01:00</time>
      </trkpt>
      <trkpt lat="43.74319" lon="7.0776">
        <ele>648.065918</ele>
        <time>2012-01-15T16:51:49+01:00</time>
      </trkpt>
      <trkpt lat="43.74307" lon="7.07757">
        <ele>645.181885</ele>
        <time>2012-01-15T16:51:54+01:00</time>
      </trkpt>
      <trkpt lat="43.74296" lon="7.07755">
        <ele>641.817383</ele>
        <time>2012-01-15T16:51:58+01:00</time>
      </trkpt>
      <trkpt lat="43.74292" lon="7.07762">
        <ele>639.894775</ele>
        <time>2012-01-15T16:52:02+01:00</time>
      </trkpt>
      <trkpt lat="43.74298" lon="7.07773">
        <ele>638.452881</ele>
        <time>2012-01-15T16:52:06+01:00</time>
      </trkpt>
      <trkpt lat="43.743" lon="7.07781">
        <ele>637.491455</ele>
        <time>2012-01-15T16:52:09+01:00</time>
      </trkpt>
      <trkpt lat="43.743" lon="7.0779">
        <ele>637.010742</ele>
        <time>2012-01-15T16:52:13+01:00</time>
      </trkpt>
      <trkpt lat="43.74299" lon="7.0779">
        <ele>636.049561</ele>
        <time>2012-01-15T16:52:17+01:00</time>
      </trkpt>
      <trkpt lat="43.74299" lon="7.07791">
        <ele>636.530273</ele>
        <time>2012-01-15T16:52:25+01:00</time>
      </trkpt>
      <trkpt lat="43.74297" lon="7.07792">
        <ele>637.491455</ele>
        <time>2012-01-15T16:52:31+01:00</time>
      </trkpt>
      <trkpt lat="43.74297" lon="7.0779">
        <ele>640.855957</ele>
        <time>2012-01-15T16:52:47+01:00</time>
      </trkpt>
      <trkpt lat="43.74298" lon="7.0779">
        <ele>641.33667</ele>
        <time>2012-01-15T16:53:11+01:00</time>
      </trkpt>
      <trkpt lat="43.74295" lon="7.07794">
        <ele>645.662598</ele>
        <time>2012-01-15T16:53:31+01:00</time>
      </trkpt>
      <trkpt lat="43.74296" lon="7.07794">
        <ele>644.701172</ele>
        <time>2012-01-15T16:53:36+01:00</time>
      </trkpt>
      <trkpt lat="43.74296" lon="7.07792">
        <ele>644.701172</ele>
        <time>2012-01-15T16:53:43+01:00</time>
      </trkpt>
      <trkpt lat="43.74296" lon="7.07791">
        <ele>642.298096</ele>
        <time>2012-01-15T16:54:03+01:00</time>
      </trkpt>
      <trkpt lat="43.74297" lon="7.07791">
        <ele>640.855957</ele>
        <time>2012-01-15T16:54:17+01:00</time>
      </trkpt>
      <trkpt lat="43.74297" lon="7.07791">
        <ele>640.375488</ele>
        <time>2012-01-15T16:54:36+01:00</time>
      </trkpt>
      <trkpt lat="43.74296" lon="7.07791">
        <ele>642.298096</ele>
        <time>2012-01-15T16:55:04+01:00</time>
      </trkpt>
      <trkpt lat="43.74296" lon="7.0779">
        <ele>641.817383</ele>
        <time>2012-01-15T16:55:17+01:00</time>
      </trkpt>
      <trkpt lat="43.74292" lon="7.07788">
        <ele>643.73999</ele>
        <time>2012-01-15T16:55:47+01:00</time>
      </trkpt>
      <trkpt lat="43.74291" lon="7.07787">
        <ele>643.73999</ele>
        <time>2012-01-15T16:55:48+01:00</time>
      </trkpt>
      <trkpt lat="43.74289" lon="7.07782">
        <ele>642.298096</ele>
        <time>2012-01-15T16:55:54+01:00</time>
      </trkpt>
      <trkpt lat="43.74288" lon="7.07787">
        <ele>640.855957</ele>
        <time>2012-01-15T16:55:58+01:00</time>
      </trkpt>
      <trkpt lat="43.74291" lon="7.078">
        <ele>639.414062</ele>
        <time>2012-01-15T16:56:03+01:00</time>
      </trkpt>
      <trkpt lat="43.74287" lon="7.07803">
        <ele>637.972168</ele>
        <time>2012-01-15T16:56:09+01:00</time>
      </trkpt>
      <trkpt lat="43.74285" lon="7.07799">
        <ele>636.530273</ele>
        <time>2012-01-15T16:56:12+01:00</time>
      </trkpt>
      <trkpt lat="43.7428" lon="7.0779">
        <ele>633.165283</ele>
        <time>2012-01-15T16:56:18+01:00</time>
      </trkpt>
      <trkpt lat="43.74279" lon="7.07791">
        <ele>632.204102</ele>
        <time>2012-01-15T16:56:23+01:00</time>
      </trkpt>
      <trkpt lat="43.74278" lon="7.07793">
        <ele>631.723389</ele>
        <time>2012-01-15T16:56:29+01:00</time>
      </trkpt>
      <trkpt lat="43.74273" lon="7.07797">
        <ele>632.204102</ele>
        <time>2012-01-15T16:56:35+01:00</time>
      </trkpt>
      <trkpt lat="43.74269" lon="7.07798">
        <ele>630.281494</ele>
        <time>2012-01-15T16:56:42+01:00</time>
      </trkpt>
      <trkpt lat="43.74266" lon="7.07798">
        <ele>629.320068</ele>
        <time>2012-01-15T16:56:47+01:00</time>
      </trkpt>
      <trkpt lat="43.74262" lon="7.07799">
        <ele>628.358887</ele>
        <time>2012-01-15T16:56:53+01:00</time>
      </trkpt>
      <trkpt lat="43.7426" lon="7.078">
        <ele>629.320068</ele>
        <time>2012-01-15T16:57:12+01:00</time>
      </trkpt>
      <trkpt lat="43.74258" lon="7.078">
        <ele>630.762207</ele>
        <time>2012-01-15T16:57:33+01:00</time>
      </trkpt>
      <trkpt lat="43.7425" lon="7.07806">
        <ele>631.24292</ele>
        <time>2012-01-15T16:57:39+01:00</time>
      </trkpt>
      <trkpt lat="43.74245" lon="7.07814">
        <ele>631.723389</ele>
        <time>2012-01-15T16:57:45+01:00</time>
      </trkpt>
      <trkpt lat="43.74239" lon="7.07829">
        <ele>632.684814</ele>
        <time>2012-01-15T16:57:51+01:00</time>
      </trkpt>
      <trkpt lat="43.74233" lon="7.07847">
        <ele>632.204102</ele>
        <time>2012-01-15T16:57:57+01:00</time>
      </trkpt>
      <trkpt lat="43.74229" lon="7.0787">
        <ele>631.723389</ele>
        <time>2012-01-15T16:58:03+01:00</time>
      </trkpt>
      <trkpt lat="43.74228" lon="7.0788">
        <ele>631.24292</ele>
        <time>2012-01-15T16:58:06+01:00</time>
      </trkpt>
      <trkpt lat="43.74227" lon="7.07895">
        <ele>628.358887</ele>
        <time>2012-01-15T16:58:11+01:00</time>
      </trkpt>
      <trkpt lat="43.74228" lon="7.0791">
        <ele>626.916992</ele>
        <time>2012-01-15T16:58:14+01:00</time>
      </trkpt>
      <trkpt lat="43.74231" lon="7.07919">
        <ele>625.955566</ele>
        <time>2012-01-15T16:58:16+01:00</time>
      </trkpt>
      <trkpt lat="43.74233" lon="7.07943">
        <ele>624.994385</ele>
        <time>2012-01-15T16:58:20+01:00</time>
      </trkpt>
      <trkpt lat="43.74236" lon="7.07958">
        <ele>626.916992</ele>
        <time>2012-01-15T16:58:25+01:00</time>
      </trkpt>
      <trkpt lat="43.74239" lon="7.07966">
        <ele>628.358887</ele>
        <time>2012-01-15T16:58:28+01:00</time>
      </trkpt>
      <trkpt lat="43.74236" lon="7.07973">
        <ele>628.8396</ele>
        <time>2012-01-15T16:58:31+01:00</time>
      </trkpt>
      <trkpt lat="43.74234" lon="7.0798">
        <ele>629.800781</ele>
        <time>2012-01-15T16:58:36+01:00</time>
      </trkpt>
      <trkpt lat="43.74232" lon="7.07984">
        <ele>630.281494</ele>
        <time>2012-01-15T16:58:43+01:00</time>
      </trkpt>
      <trkpt lat="43.74227" lon="7.07995">
        <ele>630.762207</ele>
        <time>2012-01-15T16:58:48+01:00</time>
      </trkpt>
      <trkpt lat="43.74222" lon="7.08005">
        <ele>630.762207</ele>
        <time>2012-01-15T16:58:53+01:00</time>
      </trkpt>
      <trkpt lat="43.74222" lon="7.08005">
        <ele>630.281494</ele>
        <time>2012-01-15T16:58:57+01:00</time>
      </trkpt>
      <trkpt lat="43.74223" lon="7.08007">
        <ele>630.281494</ele>
        <time>2012-01-15T16:59:15+01:00</time>
      </trkpt>
      <trkpt lat="43.74223" lon="7.08008">
        <ele>631.24292</ele>
        <time>2012-01-15T16:59:30+01:00</time>
      </trkpt>
      <trkpt lat="43.74222" lon="7.08009">
        <ele>631.723389</ele>
        <time>2012-01-15T16:59:35+01:00</time>
      </trkpt>
      <trkpt lat="43.74222" lon="7.0801">
        <ele>631.723389</ele>
        <time>2012-01-15T17:00:26+01:00</time>
      </trkpt>
      <trkpt lat="43.74214" lon="7.08026">
        <ele>632.684814</ele>
        <time>2012-01-15T17:00:32+01:00</time>
      </trkpt>
      <trkpt lat="43.74214" lon="7.08029">
        <ele>633.165283</ele>
        <time>2012-01-15T17:00:33+01:00</time>
      </trkpt>
      <trkpt lat="43.74207" lon="7.08051">
        <ele>634.126709</ele>
        <time>2012-01-15T17:00:40+01:00</time>
      </trkpt>
      <trkpt lat="43.74202" lon="7.08065">
        <ele>633.645996</ele>
        <time>2012-01-15T17:00:43+01:00</time>
      </trkpt>
      <trkpt lat="43.74194" lon="7.08081">
        <ele>634.126709</ele>
        <time>2012-01-15T17:00:47+01:00</time>
      </trkpt>
      <trkpt lat="43.74191" lon="7.08086">
        <ele>634.126709</ele>
        <time>2012-01-15T17:00:49+01:00</time>
      </trkpt>
      <trkpt lat="43.74187" lon="7.08096">
        <ele>634.126709</ele>
        <time>2012-01-15T17:00:54+01:00</time>
      </trkpt>
      <trkpt lat="43.74184" lon="7.08097">
        <ele>633.645996</ele>
        <time>2012-01-15T17:00:59+01:00</time>
      </trkpt>
      <trkpt lat="43.74184" lon="7.08096">
        <ele>634.126709</ele>
        <time>2012-01-15T17:01:16+01:00</time>
      </trkpt>
      <trkpt lat="43.7418" lon="7.08099">
        <ele>633.645996</ele>
        <time>2012-01-15T17:01:27+01:00</time>
      </trkpt>
      <trkpt lat="43.74178" lon="7.08104">
        <ele>634.607422</ele>
        <time>2012-01-15T17:01:32+01:00</time>
      </trkpt>
      <trkpt lat="43.74178" lon="7.08104">
        <ele>633.645996</ele>
        <time>2012-01-15T17:01:38+01:00</time>
      </trkpt>
      <trkpt lat="43.74179" lon="7.08101">
        <ele>634.126709</ele>
        <time>2012-01-15T17:01:44+01:00</time>
      </trkpt>
      <trkpt lat="43.74181" lon="7.08098">
        <ele>634.607422</ele>
        <time>2012-01-15T17:01:52+01:00</time>
      </trkpt>
      <trkpt lat="43.74178" lon="7.08105">
        <ele>635.088135</ele>
        <time>2012-01-15T17:01:58+01:00</time>
      </trkpt>
      <trkpt lat="43.74178" lon="7.08108">
        <ele>635.568604</ele>
        <time>2012-01-15T17:01:59+01:00</time>
      </trkpt>
      <trkpt lat="43.74166" lon="7.08125">
        <ele>635.568604</ele>
        <time>2012-01-15T17:02:06+01:00</time>
      </trkpt>
      <trkpt lat="43.74164" lon="7.08129">
        <ele>635.088135</ele>
        <time>2012-01-15T17:02:07+01:00</time>
      </trkpt>
      <trkpt lat="43.74154" lon="7.0814">
        <ele>634.126709</ele>
        <time>2012-01-15T17:02:10+01:00</time>
      </trkpt>
      <trkpt lat="43.74135" lon="7.08144">
        <ele>633.165283</ele>
        <time>2012-01-15T17:02:15+01:00</time>
      </trkpt>
      <trkpt lat="43.74127" lon="7.08147">
        <ele>632.684814</ele>
        <time>2012-01-15T17:02:17+01:00</time>
      </trkpt>
      <trkpt lat="43.74114" lon="7.08165">
        <ele>631.723389</ele>
        <time>2012-01-15T17:02:21+01:00</time>
      </trkpt>
      <trkpt lat="43.74103" lon="7.08182">
        <ele>630.762207</ele>
        <time>2012-01-15T17:02:24+01:00</time>
      </trkpt>
      <trkpt lat="43.74079" lon="7.08213">
        <ele>629.320068</ele>
        <time>2012-01-15T17:02:30+01:00</time>
      </trkpt>
      <trkpt lat="43.74062" lon="7.08224">
        <ele>627.878174</ele>
        <time>2012-01-15T17:02:34+01:00</time>
      </trkpt>
      <trkpt lat="43.74054" lon="7.08233">
        <ele>627.397705</ele>
        <time>2012-01-15T17:02:36+01:00</time>
      </trkpt>
      <trkpt lat="43.74025" lon="7.08264">
        <ele>623.55249</ele>
        <time>2012-01-15T17:02:42+01:00</time>
      </trkpt>
      <trkpt lat="43.74006" lon="7.08283">
        <ele>620.668457</ele>
        <time>2012-01-15T17:02:46+01:00</time>
      </trkpt>
      <trkpt lat="43.73984" lon="7.08306">
        <ele>618.264893</ele>
        <time>2012-01-15T17:02:51+01:00</time>
      </trkpt>
      <trkpt lat="43.73973" lon="7.08328">
        <ele>618.745605</ele>
        <time>2012-01-15T17:02:55+01:00</time>
      </trkpt>
      <trkpt lat="43.73959" lon="7.08339">
        <ele>617.78418</ele>
        <time>2012-01-15T17:02:59+01:00</time>
      </trkpt>
      <trkpt lat="43.73949" lon="7.08347">
        <ele>617.78418</ele>
        <time>2012-01-15T17:03:03+01:00</time>
      </trkpt>
      <trkpt lat="43.73942" lon="7.0835">
        <ele>617.78418</ele>
        <time>2012-01-15T17:03:07+01:00</time>
      </trkpt>
      <trkpt lat="43.73937" lon="7.08352">
        <ele>617.78418</ele>
        <time>2012-01-15T17:03:09+01:00</time>
      </trkpt>
      <trkpt lat="43.73918" lon="7.08355">
        <ele>614.419678</ele>
        <time>2012-01-15T17:03:16+01:00</time>
      </trkpt>
      <trkpt lat="43.73914" lon="7.08357">
        <ele>614.419678</ele>
        <time>2012-01-15T17:03:19+01:00</time>
      </trkpt>
      <trkpt lat="43.73912" lon="7.0836">
        <ele>614.419678</ele>
        <time>2012-01-15T17:03:25+01:00</time>
      </trkpt>
      <trkpt lat="43.73914" lon="7.08359">
        <ele>611.535889</ele>
        <time>2012-01-15T17:03:51+01:00</time>
      </trkpt>
      <trkpt lat="43.73909" lon="7.08361">
        <ele>608.651855</ele>
        <time>2012-01-15T17:04:51+01:00</time>
      </trkpt>
      <trkpt lat="43.73897" lon="7.0837">
        <ele>608.651855</ele>
        <time>2012-01-15T17:04:56+01:00</time>
      </trkpt>
      <trkpt lat="43.73881" lon="7.08376">
        <ele>607.209961</ele>
        <time>2012-01-15T17:05:01+01:00</time>
      </trkpt>
      <trkpt lat="43.73865" lon="7.08379">
        <ele>605.287354</ele>
        <time>2012-01-15T17:05:05+01:00</time>
      </trkpt>
      <trkpt lat="43.73851" lon="7.08382">
        <ele>604.326172</ele>
        <time>2012-01-15T17:05:09+01:00</time>
      </trkpt>
      <trkpt lat="43.73843" lon="7.08382">
        <ele>601.922607</ele>
        <time>2012-01-15T17:05:12+01:00</time>
      </trkpt>
      <trkpt lat="43.73831" lon="7.0839">
        <ele>599.519287</ele>
        <time>2012-01-15T17:05:17+01:00</time>
      </trkpt>
      <trkpt lat="43.73825" lon="7.08398">
        <ele>599.038574</ele>
        <time>2012-01-15T17:05:20+01:00</time>
      </trkpt>
      <trkpt lat="43.73824" lon="7.08404">
        <ele>599.038574</ele>
        <time>2012-01-15T17:05:22+01:00</time>
      </trkpt>
      <trkpt lat="43.73812" lon="7.08413">
        <ele>598.557861</ele>
        <time>2012-01-15T17:05:27+01:00</time>
      </trkpt>
      <trkpt lat="43.73799" lon="7.08418">
        <ele>598.077393</ele>
        <time>2012-01-15T17:05:31+01:00</time>
      </trkpt>
      <trkpt lat="43.73786" lon="7.08424">
        <ele>598.557861</ele>
        <time>2012-01-15T17:05:37+01:00</time>
      </trkpt>
      <trkpt lat="43.73778" lon="7.08428">
        <ele>600</ele>
        <time>2012-01-15T17:05:41+01:00</time>
      </trkpt>
      <trkpt lat="43.73765" lon="7.08436">
        <ele>602.403076</ele>
        <time>2012-01-15T17:05:48+01:00</time>
      </trkpt>
      <trkpt lat="43.73755" lon="7.08442">
        <ele>602.883789</ele>
        <time>2012-01-15T17:05:54+01:00</time>
      </trkpt>
      <trkpt lat="43.73746" lon="7.08455">
        <ele>602.403076</ele>
        <time>2012-01-15T17:06:00+01:00</time>
      </trkpt>
      <trkpt lat="43.73734" lon="7.08463">
        <ele>601.922607</ele>
        <time>2012-01-15T17:06:06+01:00</time>
      </trkpt>
      <trkpt lat="43.73721" lon="7.08465">
        <ele>601.441895</ele>
        <time>2012-01-15T17:06:10+01:00</time>
      </trkpt>
      <trkpt lat="43.7371" lon="7.08478">
        <ele>601.922607</ele>
        <time>2012-01-15T17:06:14+01:00</time>
      </trkpt>
      <trkpt lat="43.73703" lon="7.08502">
        <ele>600.961182</ele>
        <time>2012-01-15T17:06:19+01:00</time>
      </trkpt>
      <trkpt lat="43.73697" lon="7.08532">
        <ele>597.115967</ele>
        <time>2012-01-15T17:06:25+01:00</time>
      </trkpt>
      <trkpt lat="43.73691" lon="7.08558">
        <ele>594.712646</ele>
        <time>2012-01-15T17:06:30+01:00</time>
      </trkpt>
      <trkpt lat="43.73687" lon="7.08575">
        <ele>594.232178</ele>
        <time>2012-01-15T17:06:33+01:00</time>
      </trkpt>
      <trkpt lat="43.73675" lon="7.08593">
        <ele>592.790283</ele>
        <time>2012-01-15T17:06:38+01:00</time>
      </trkpt>
      <trkpt lat="43.73662" lon="7.08609">
        <ele>591.828857</ele>
        <time>2012-01-15T17:06:43+01:00</time>
      </trkpt>
      <trkpt lat="43.73648" lon="7.08621">
        <ele>591.348145</ele>
        <time>2012-01-15T17:06:46+01:00</time>
      </trkpt>
      <trkpt lat="43.73638" lon="7.08656">
        <ele>591.348145</ele>
        <time>2012-01-15T17:06:51+01:00</time>
      </trkpt>
      <trkpt lat="43.73635" lon="7.08673">
        <ele>591.348145</ele>
        <time>2012-01-15T17:06:55+01:00</time>
      </trkpt>
      <trkpt lat="43.73632" lon="7.08682">
        <ele>592.790283</ele>
        <time>2012-01-15T17:06:58+01:00</time>
      </trkpt>
      <trkpt lat="43.73626" lon="7.087">
        <ele>597.115967</ele>
        <time>2012-01-15T17:07:04+01:00</time>
      </trkpt>
      <trkpt lat="43.73624" lon="7.08704">
        <ele>599.038574</ele>
        <time>2012-01-15T17:07:08+01:00</time>
      </trkpt>
      <trkpt lat="43.73622" lon="7.08703">
        <ele>603.364502</ele>
        <time>2012-01-15T17:07:18+01:00</time>
      </trkpt>
      <trkpt lat="43.7362" lon="7.08695">
        <ele>602.883789</ele>
        <time>2012-01-15T17:07:40+01:00</time>
      </trkpt>
      <trkpt lat="43.73619" lon="7.08694">
        <ele>606.248535</ele>
        <time>2012-01-15T17:08:00+01:00</time>
      </trkpt>
      <trkpt lat="43.73623" lon="7.08698">
        <ele>600.961182</ele>
        <time>2012-01-15T17:08:22+01:00</time>
      </trkpt>
      <trkpt lat="43.73626" lon="7.08703">
        <ele>596.635498</ele>
        <time>2012-01-15T17:09:29+01:00</time>
      </trkpt>
      <trkpt lat="43.73619" lon="7.08709">
        <ele>599.519287</ele>
        <time>2012-01-15T17:09:39+01:00</time>
      </trkpt>
      <trkpt lat="43.73602" lon="7.08726">
        <ele>596.154785</ele>
        <time>2012-01-15T17:09:44+01:00</time>
      </trkpt>
      <trkpt lat="43.73595" lon="7.08745">
        <ele>592.30957</ele>
        <time>2012-01-15T17:09:47+01:00</time>
      </trkpt>
      <trkpt lat="43.73592" lon="7.08753">
        <ele>590.867432</ele>
        <time>2012-01-15T17:09:48+01:00</time>
      </trkpt>
      <trkpt lat="43.73587" lon="7.08767">
        <ele>589.425537</ele>
        <time>2012-01-15T17:09:50+01:00</time>
      </trkpt>
      <trkpt lat="43.73568" lon="7.08797">
        <ele>585.580078</ele>
        <time>2012-01-15T17:09:55+01:00</time>
      </trkpt>
      <trkpt lat="43.73556" lon="7.08813">
        <ele>580.773682</ele>
        <time>2012-01-15T17:09:58+01:00</time>
      </trkpt>
      <trkpt lat="43.73549" lon="7.0883">
        <ele>575.967041</ele>
        <time>2012-01-15T17:10:01+01:00</time>
      </trkpt>
      <trkpt lat="43.73536" lon="7.08853">
        <ele>571.1604</ele>
        <time>2012-01-15T17:10:05+01:00</time>
      </trkpt>
      <trkpt lat="43.73518" lon="7.08888">
        <ele>566.35376</ele>
        <time>2012-01-15T17:10:10+01:00</time>
      </trkpt>
      <trkpt lat="43.73496" lon="7.08926">
        <ele>562.028076</ele>
        <time>2012-01-15T17:10:16+01:00</time>
      </trkpt>
      <trkpt lat="43.73485" lon="7.08946">
        <ele>559.624756</ele>
        <time>2012-01-15T17:10:21+01:00</time>
      </trkpt>
      <trkpt lat="43.73476" lon="7.0896">
        <ele>559.144043</ele>
        <time>2012-01-15T17:10:26+01:00</time>
      </trkpt>
      <trkpt lat="43.73471" lon="7.08969">
        <ele>558.66333</ele>
        <time>2012-01-15T17:10:30+01:00</time>
      </trkpt>
      <trkpt lat="43.73458" lon="7.08997">
        <ele>557.221436</ele>
        <time>2012-01-15T17:10:36+01:00</time>
      </trkpt>
      <trkpt lat="43.73455" lon="7.09002">
        <ele>557.221436</ele>
        <time>2012-01-15T17:10:37+01:00</time>
      </trkpt>
      <trkpt lat="43.73442" lon="7.0901">
        <ele>556.26001</ele>
        <time>2012-01-15T17:10:40+01:00</time>
      </trkpt>
      <trkpt lat="43.7343" lon="7.09014">
        <ele>555.779297</ele>
        <time>2012-01-15T17:10:44+01:00</time>
      </trkpt>
      <trkpt lat="43.73423" lon="7.09013">
        <ele>554.337402</ele>
        <time>2012-01-15T17:10:49+01:00</time>
      </trkpt>
      <trkpt lat="43.7342" lon="7.09018">
        <ele>552.895264</ele>
        <time>2012-01-15T17:10:54+01:00</time>
      </trkpt>
      <trkpt lat="43.7342" lon="7.09019">
        <ele>552.414551</ele>
        <time>2012-01-15T17:10:59+01:00</time>
      </trkpt>
      <trkpt lat="43.73421" lon="7.0902">
        <ele>549.050049</ele>
        <time>2012-01-15T17:11:12+01:00</time>
      </trkpt>
      <trkpt lat="43.73412" lon="7.09037">
        <ele>547.127441</ele>
        <time>2012-01-15T17:11:17+01:00</time>
      </trkpt>
      <trkpt lat="43.73396" lon="7.09059">
        <ele>545.685547</ele>
        <time>2012-01-15T17:11:22+01:00</time>
      </trkpt>
      <trkpt lat="43.73388" lon="7.09066">
        <ele>544.724243</ele>
        <time>2012-01-15T17:11:24+01:00</time>
      </trkpt>
      <trkpt lat="43.73371" lon="7.09093">
        <ele>539.917603</ele>
        <time>2012-01-15T17:11:28+01:00</time>
      </trkpt>
      <trkpt lat="43.73359" lon="7.09121">
        <ele>534.149658</ele>
        <time>2012-01-15T17:11:31+01:00</time>
      </trkpt>
      <trkpt lat="43.73339" lon="7.09166">
        <ele>526.939819</ele>
        <time>2012-01-15T17:11:36+01:00</time>
      </trkpt>
      <trkpt lat="43.7334" lon="7.09234">
        <ele>520.210571</ele>
        <time>2012-01-15T17:11:41+01:00</time>
      </trkpt>
      <trkpt lat="43.73334" lon="7.09269">
        <ele>516.845947</ele>
        <time>2012-01-15T17:11:44+01:00</time>
      </trkpt>
      <trkpt lat="43.73314" lon="7.09304">
        <ele>513.481445</ele>
        <time>2012-01-15T17:11:48+01:00</time>
      </trkpt>
      <trkpt lat="43.73306" lon="7.09322">
        <ele>513.481445</ele>
        <time>2012-01-15T17:11:51+01:00</time>
      </trkpt>
      <trkpt lat="43.73303" lon="7.09337">
        <ele>514.442627</ele>
        <time>2012-01-15T17:11:55+01:00</time>
      </trkpt>
      <trkpt lat="43.73302" lon="7.0934">
        <ele>514.92334</ele>
        <time>2012-01-15T17:11:56+01:00</time>
      </trkpt>
      <trkpt lat="43.733" lon="7.09359">
        <ele>518.768555</ele>
        <time>2012-01-15T17:12:03+01:00</time>
      </trkpt>
      <trkpt lat="43.733" lon="7.09362">
        <ele>519.249268</ele>
        <time>2012-01-15T17:12:04+01:00</time>
      </trkpt>
      <trkpt lat="43.73296" lon="7.09384">
        <ele>518.768555</ele>
        <time>2012-01-15T17:12:11+01:00</time>
      </trkpt>
      <trkpt lat="43.73299" lon="7.0941">
        <ele>516.365234</ele>
        <time>2012-01-15T17:12:16+01:00</time>
      </trkpt>
      <trkpt lat="43.733" lon="7.09434">
        <ele>514.92334</ele>
        <time>2012-01-15T17:12:19+01:00</time>
      </trkpt>
      <trkpt lat="43.73303" lon="7.09458">
        <ele>513.000732</ele>
        <time>2012-01-15T17:12:22+01:00</time>
      </trkpt>
      <trkpt lat="43.73297" lon="7.09494">
        <ele>511.558716</ele>
        <time>2012-01-15T17:12:26+01:00</time>
      </trkpt>
      <trkpt lat="43.73294" lon="7.09504">
        <ele>511.558716</ele>
        <time>2012-01-15T17:12:27+01:00</time>
      </trkpt>
      <trkpt lat="43.73269" lon="7.09566">
        <ele>510.116699</ele>
        <time>2012-01-15T17:12:33+01:00</time>
      </trkpt>
      <trkpt lat="43.73265" lon="7.09579">
        <ele>509.636108</ele>
        <time>2012-01-15T17:12:34+01:00</time>
      </trkpt>
      <trkpt lat="43.73243" lon="7.09616">
        <ele>505.310181</ele>
        <time>2012-01-15T17:12:38+01:00</time>
      </trkpt>
      <trkpt lat="43.73237" lon="7.09636">
        <ele>504.348877</ele>
        <time>2012-01-15T17:12:40+01:00</time>
      </trkpt>
      <trkpt lat="43.73229" lon="7.09692">
        <ele>503.387451</ele>
        <time>2012-01-15T17:12:46+01:00</time>
      </trkpt>
      <trkpt lat="43.73223" lon="7.09716">
        <ele>502.906738</ele>
        <time>2012-01-15T17:12:50+01:00</time>
      </trkpt>
      <trkpt lat="43.7322" lon="7.09727">
        <ele>502.426147</ele>
        <time>2012-01-15T17:12:53+01:00</time>
      </trkpt>
      <trkpt lat="43.73219" lon="7.09734">
        <ele>501.464844</ele>
        <time>2012-01-15T17:12:59+01:00</time>
      </trkpt>
      <trkpt lat="43.73222" lon="7.09733">
        <ele>500.984131</ele>
        <time>2012-01-15T17:13:11+01:00</time>
      </trkpt>
      <trkpt lat="43.73222" lon="7.09733">
        <ele>498.580933</ele>
        <time>2012-01-15T17:13:16+01:00</time>
      </trkpt>
      <trkpt lat="43.7322" lon="7.09737">
        <ele>499.061523</ele>
        <time>2012-01-15T17:13:35+01:00</time>
      </trkpt>
      <trkpt lat="43.7322" lon="7.09739">
        <ele>500.022949</ele>
        <time>2012-01-15T17:13:42+01:00</time>
      </trkpt>
      <trkpt lat="43.73218" lon="7.0974">
        <ele>500.022949</ele>
        <time>2012-01-15T17:13:47+01:00</time>
      </trkpt>
      <trkpt lat="43.73217" lon="7.0974">
        <ele>500.50354</ele>
        <time>2012-01-15T17:13:51+01:00</time>
      </trkpt>
      <trkpt lat="43.73208" lon="7.09753">
        <ele>498.580933</ele>
        <time>2012-01-15T17:13:56+01:00</time>
      </trkpt>
      <trkpt lat="43.73197" lon="7.09763">
        <ele>496.177734</ele>
        <time>2012-01-15T17:13:59+01:00</time>
      </trkpt>
      <trkpt lat="43.73198" lon="7.09771">
        <ele>494.735596</ele>
        <time>2012-01-15T17:14:00+01:00</time>
      </trkpt>
      <trkpt lat="43.73203" lon="7.09788">
        <ele>492.332397</ele>
        <time>2012-01-15T17:14:02+01:00</time>
      </trkpt>
      <trkpt lat="43.73206" lon="7.09827">
        <ele>486.564453</ele>
        <time>2012-01-15T17:14:06+01:00</time>
      </trkpt>
      <trkpt lat="43.7319" lon="7.09863">
        <ele>481.757812</ele>
        <time>2012-01-15T17:14:09+01:00</time>
      </trkpt>
      <trkpt lat="43.73182" lon="7.09901">
        <ele>476.951294</ele>
        <time>2012-01-15T17:14:12+01:00</time>
      </trkpt>
      <trkpt lat="43.73185" lon="7.09929">
        <ele>473.106079</ele>
        <time>2012-01-15T17:14:15+01:00</time>
      </trkpt>
      <trkpt lat="43.73188" lon="7.09951">
        <ele>469.741333</ele>
        <time>2012-01-15T17:14:18+01:00</time>
      </trkpt>
      <trkpt lat="43.73184" lon="7.09971">
        <ele>465.415527</ele>
        <time>2012-01-15T17:14:23+01:00</time>
      </trkpt>
      <trkpt lat="43.73175" lon="7.09978">
        <ele>461.57019</ele>
        <time>2012-01-15T17:14:27+01:00</time>
      </trkpt>
      <trkpt lat="43.7317" lon="7.09986">
        <ele>459.16687</ele>
        <time>2012-01-15T17:14:30+01:00</time>
      </trkpt>
      <trkpt lat="43.73171" lon="7.0999">
        <ele>458.686157</ele>
        <time>2012-01-15T17:14:34+01:00</time>
      </trkpt>
      <trkpt lat="43.73172" lon="7.09993">
        <ele>461.089478</ele>
        <time>2012-01-15T17:14:50+01:00</time>
      </trkpt>
      <trkpt lat="43.73174" lon="7.09992">
        <ele>461.089478</ele>
        <time>2012-01-15T17:15:01+01:00</time>
      </trkpt>
      <trkpt lat="43.73175" lon="7.09991">
        <ele>460.128174</ele>
        <time>2012-01-15T17:15:06+01:00</time>
      </trkpt>
      <trkpt lat="43.73178" lon="7.09988">
        <ele>459.16687</ele>
        <time>2012-01-15T17:15:11+01:00</time>
      </trkpt>
      <trkpt lat="43.73178" lon="7.09987">
        <ele>458.205566</ele>
        <time>2012-01-15T17:15:16+01:00</time>
      </trkpt>
      <trkpt lat="43.73178" lon="7.09989">
        <ele>457.244263</ele>
        <time>2012-01-15T17:15:25+01:00</time>
      </trkpt>
      <trkpt lat="43.73178" lon="7.0999">
        <ele>458.205566</ele>
        <time>2012-01-15T17:15:33+01:00</time>
      </trkpt>
      <trkpt lat="43.73178" lon="7.0999">
        <ele>460.128174</ele>
        <time>2012-01-15T17:15:38+01:00</time>
      </trkpt>
      <trkpt lat="43.73178" lon="7.0999">
        <ele>459.16687</ele>
        <time>2012-01-15T17:15:54+01:00</time>
      </trkpt>
      <trkpt lat="43.73179" lon="7.0999">
        <ele>459.647583</ele>
        <time>2012-01-15T17:16:01+01:00</time>
      </trkpt>
      <trkpt lat="43.73179" lon="7.09991">
        <ele>459.16687</ele>
        <time>2012-01-15T17:16:08+01:00</time>
      </trkpt>
      <trkpt lat="43.73179" lon="7.09988">
        <ele>456.76355</ele>
        <time>2012-01-15T17:16:20+01:00</time>
      </trkpt>
      <trkpt lat="43.7318" lon="7.09989">
        <ele>456.76355</ele>
        <time>2012-01-15T17:16:24+01:00</time>
      </trkpt>
      <trkpt lat="43.7318" lon="7.0999">
        <ele>457.244263</ele>
        <time>2012-01-15T17:16:32+01:00</time>
      </trkpt>
      <trkpt lat="43.73192" lon="7.09999">
        <ele>454.84082</ele>
        <time>2012-01-15T17:16:37+01:00</time>
      </trkpt>
      <trkpt lat="43.73211" lon="7.10007">
        <ele>451.957031</ele>
        <time>2012-01-15T17:16:40+01:00</time>
      </trkpt>
      <trkpt lat="43.73238" lon="7.10031">
        <ele>448.592407</ele>
        <time>2012-01-15T17:16:44+01:00</time>
      </trkpt>
      <trkpt lat="43.73252" lon="7.10061">
        <ele>445.708374</ele>
        <time>2012-01-15T17:16:48+01:00</time>
      </trkpt>
      <trkpt lat="43.73265" lon="7.10087">
        <ele>445.227661</ele>
        <time>2012-01-15T17:16:52+01:00</time>
      </trkpt>
      <trkpt lat="43.73293" lon="7.10122">
        <ele>445.708374</ele>
        <time>2012-01-15T17:16:59+01:00</time>
      </trkpt>
      <trkpt lat="43.73309" lon="7.10162">
        <ele>444.74707</ele>
        <time>2012-01-15T17:17:05+01:00</time>
      </trkpt>
      <trkpt lat="43.73329" lon="7.1022">
        <ele>441.863159</ele>
        <time>2012-01-15T17:17:12+01:00</time>
      </trkpt>
      <trkpt lat="43.73332" lon="7.10228">
        <ele>440.901855</ele>
        <time>2012-01-15T17:17:13+01:00</time>
      </trkpt>
      <trkpt lat="43.73353" lon="7.10256">
        <ele>437.537109</ele>
        <time>2012-01-15T17:17:17+01:00</time>
      </trkpt>
      <trkpt lat="43.73382" lon="7.10283">
        <ele>435.614502</ele>
        <time>2012-01-15T17:17:22+01:00</time>
      </trkpt>
      <trkpt lat="43.73393" lon="7.10299">
        <ele>436.095215</ele>
        <time>2012-01-15T17:17:26+01:00</time>
      </trkpt>
      <trkpt lat="43.73394" lon="7.10301">
        <ele>436.095215</ele>
        <time>2012-01-15T17:17:27+01:00</time>
      </trkpt>
      <trkpt lat="43.73402" lon="7.1031">
        <ele>434.65332</ele>
        <time>2012-01-15T17:17:34+01:00</time>
      </trkpt>
      <trkpt lat="43.73403" lon="7.10312">
        <ele>434.172607</ele>
        <time>2012-01-15T17:17:35+01:00</time>
      </trkpt>
      <trkpt lat="43.73403" lon="7.10312">
        <ele>433.691895</ele>
        <time>2012-01-15T17:17:43+01:00</time>
      </trkpt>
      <trkpt lat="43.7341" lon="7.10326">
        <ele>433.211304</ele>
        <time>2012-01-15T17:17:48+01:00</time>
      </trkpt>
      <trkpt lat="43.73427" lon="7.10346">
        <ele>432.730713</ele>
        <time>2012-01-15T17:17:53+01:00</time>
      </trkpt>
      <trkpt lat="43.73443" lon="7.10349">
        <ele>433.211304</ele>
        <time>2012-01-15T17:17:57+01:00</time>
      </trkpt>
      <trkpt lat="43.73464" lon="7.10351">
        <ele>435.133911</ele>
        <time>2012-01-15T17:18:03+01:00</time>
      </trkpt>
      <trkpt lat="43.73475" lon="7.10362">
        <ele>435.133911</ele>
        <time>2012-01-15T17:18:08+01:00</time>
      </trkpt>
      <trkpt lat="43.73478" lon="7.10373">
        <ele>434.172607</ele>
        <time>2012-01-15T17:18:13+01:00</time>
      </trkpt>
      <trkpt lat="43.73481" lon="7.10381">
        <ele>434.172607</ele>
        <time>2012-01-15T17:18:19+01:00</time>
      </trkpt>
      <trkpt lat="43.7348" lon="7.10383">
        <ele>436.095215</ele>
        <time>2012-01-15T17:18:29+01:00</time>
      </trkpt>
      <trkpt lat="43.73483" lon="7.10385">
        <ele>435.614502</ele>
        <time>2012-01-15T17:18:37+01:00</time>
      </trkpt>
      <trkpt lat="43.73488" lon="7.10391">
        <ele>436.095215</ele>
        <time>2012-01-15T17:18:43+01:00</time>
      </trkpt>
      <trkpt lat="43.73488" lon="7.10392">
        <ele>435.614502</ele>
        <time>2012-01-15T17:18:50+01:00</time>
      </trkpt>
      <trkpt lat="43.73489" lon="7.10394">
        <ele>434.172607</ele>
        <time>2012-01-15T17:18:59+01:00</time>
      </trkpt>
      <trkpt lat="43.7349" lon="7.10397">
        <ele>433.691895</ele>
        <time>2012-01-15T17:19:03+01:00</time>
      </trkpt>
      <trkpt lat="43.73492" lon="7.10402">
        <ele>434.172607</ele>
        <time>2012-01-15T17:19:07+01:00</time>
      </trkpt>
      <trkpt lat="43.73503" lon="7.10408">
        <ele>438.979126</ele>
        <time>2012-01-15T17:19:14+01:00</time>
      </trkpt>
      <trkpt lat="43.73513" lon="7.10411">
        <ele>442.343872</ele>
        <time>2012-01-15T17:19:22+01:00</time>
      </trkpt>
      <trkpt lat="43.73522" lon="7.10415">
        <ele>442.824463</ele>
        <time>2012-01-15T17:19:29+01:00</time>
      </trkpt>
      <trkpt lat="43.73533" lon="7.10418">
        <ele>442.824463</ele>
        <time>2012-01-15T17:19:38+01:00</time>
      </trkpt>
      <trkpt lat="43.73543" lon="7.10422">
        <ele>445.708374</ele>
        <time>2012-01-15T17:19:46+01:00</time>
      </trkpt>
      <trkpt lat="43.7355" lon="7.10424">
        <ele>447.630981</ele>
        <time>2012-01-15T17:19:52+01:00</time>
      </trkpt>
      <trkpt lat="43.73559" lon="7.10427">
        <ele>451.476318</ele>
        <time>2012-01-15T17:19:59+01:00</time>
      </trkpt>
      <trkpt lat="43.73567" lon="7.1043">
        <ele>457.244263</ele>
        <time>2012-01-15T17:20:06+01:00</time>
      </trkpt>
      <trkpt lat="43.73578" lon="7.10433">
        <ele>460.128174</ele>
        <time>2012-01-15T17:20:14+01:00</time>
      </trkpt>
      <trkpt lat="43.73586" lon="7.10437">
        <ele>462.531372</ele>
        <time>2012-01-15T17:20:21+01:00</time>
      </trkpt>
      <trkpt lat="43.73593" lon="7.10439">
        <ele>463.973389</ele>
        <time>2012-01-15T17:20:27+01:00</time>
      </trkpt>
      <trkpt lat="43.73601" lon="7.10443">
        <ele>465.896118</ele>
        <time>2012-01-15T17:20:33+01:00</time>
      </trkpt>
      <trkpt lat="43.7361" lon="7.10446">
        <ele>464.934814</ele>
        <time>2012-01-15T17:20:40+01:00</time>
      </trkpt>
      <trkpt lat="43.73619" lon="7.1045">
        <ele>464.454102</ele>
        <time>2012-01-15T17:20:47+01:00</time>
      </trkpt>
      <trkpt lat="43.73627" lon="7.10455">
        <ele>465.415527</ele>
        <time>2012-01-15T17:20:54+01:00</time>
      </trkpt>
      <trkpt lat="43.73633" lon="7.10458">
        <ele>464.454102</ele>
        <time>2012-01-15T17:20:59+01:00</time>
      </trkpt>
      <trkpt lat="43.73644" lon="7.10465">
        <ele>469.741333</ele>
        <time>2012-01-15T17:21:08+01:00</time>
      </trkpt>
      <trkpt lat="43.73652" lon="7.10474">
        <ele>470.702637</ele>
        <time>2012-01-15T17:21:16+01:00</time>
      </trkpt>
      <trkpt lat="43.73655" lon="7.10477">
        <ele>470.702637</ele>
        <time>2012-01-15T17:21:19+01:00</time>
      </trkpt>
      <trkpt lat="43.7366" lon="7.1048">
        <ele>471.66394</ele>
        <time>2012-01-15T17:21:23+01:00</time>
      </trkpt>
      <trkpt lat="43.73666" lon="7.10487">
        <ele>472.625366</ele>
        <time>2012-01-15T17:21:30+01:00</time>
      </trkpt>
      <trkpt lat="43.73677" lon="7.10495">
        <ele>474.547974</ele>
        <time>2012-01-15T17:21:39+01:00</time>
      </trkpt>
      <trkpt lat="43.73685" lon="7.10497">
        <ele>475.989868</ele>
        <time>2012-01-15T17:21:45+01:00</time>
      </trkpt>
      <trkpt lat="43.73694" lon="7.10495">
        <ele>475.989868</ele>
        <time>2012-01-15T17:21:52+01:00</time>
      </trkpt>
      <trkpt lat="43.73704" lon="7.1049">
        <ele>477.912476</ele>
        <time>2012-01-15T17:21:59+01:00</time>
      </trkpt>
      <trkpt lat="43.73717" lon="7.10483">
        <ele>479.354492</ele>
        <time>2012-01-15T17:22:07+01:00</time>
      </trkpt>
      <trkpt lat="43.73724" lon="7.10481">
        <ele>480.315918</ele>
        <time>2012-01-15T17:22:12+01:00</time>
      </trkpt>
      <trkpt lat="43.73737" lon="7.10479">
        <ele>480.796631</ele>
        <time>2012-01-15T17:22:20+01:00</time>
      </trkpt>
      <trkpt lat="43.73751" lon="7.10481">
        <ele>481.757812</ele>
        <time>2012-01-15T17:22:29+01:00</time>
      </trkpt>
      <trkpt lat="43.73765" lon="7.10487">
        <ele>483.68042</ele>
        <time>2012-01-15T17:22:38+01:00</time>
      </trkpt>
      <trkpt lat="43.73777" lon="7.10495">
        <ele>483.68042</ele>
        <time>2012-01-15T17:22:47+01:00</time>
      </trkpt>
      <trkpt lat="43.73787" lon="7.105">
        <ele>482.719238</ele>
        <time>2012-01-15T17:22:54+01:00</time>
      </trkpt>
      <trkpt lat="43.73797" lon="7.10506">
        <ele>484.641846</ele>
        <time>2012-01-15T17:23:00+01:00</time>
      </trkpt>
      <trkpt lat="43.73807" lon="7.10509">
        <ele>488.487183</ele>
        <time>2012-01-15T17:23:07+01:00</time>
      </trkpt>
      <trkpt lat="43.73818" lon="7.10512">
        <ele>491.370972</ele>
        <time>2012-01-15T17:23:14+01:00</time>
      </trkpt>
      <trkpt lat="43.73827" lon="7.10514">
        <ele>494.255005</ele>
        <time>2012-01-15T17:23:20+01:00</time>
      </trkpt>
      <trkpt lat="43.73837" lon="7.10515">
        <ele>495.696899</ele>
        <time>2012-01-15T17:23:27+01:00</time>
      </trkpt>
      <trkpt lat="43.73849" lon="7.10518">
        <ele>498.580933</ele>
        <time>2012-01-15T17:23:35+01:00</time>
      </trkpt>
      <trkpt lat="43.73865" lon="7.10519">
        <ele>499.542236</ele>
        <time>2012-01-15T17:23:44+01:00</time>
      </trkpt>
      <trkpt lat="43.73875" lon="7.10518">
        <ele>499.542236</ele>
        <time>2012-01-15T17:23:50+01:00</time>
      </trkpt>
      <trkpt lat="43.73888" lon="7.10523">
        <ele>502.906738</ele>
        <time>2012-01-15T17:23:57+01:00</time>
      </trkpt>
      <trkpt lat="43.739" lon="7.10527">
        <ele>504.348877</ele>
        <time>2012-01-15T17:24:04+01:00</time>
      </trkpt>
      <trkpt lat="43.73916" lon="7.1053">
        <ele>504.348877</ele>
        <time>2012-01-15T17:24:12+01:00</time>
      </trkpt>
      <trkpt lat="43.73927" lon="7.10536">
        <ele>505.310181</ele>
        <time>2012-01-15T17:24:19+01:00</time>
      </trkpt>
      <trkpt lat="43.73939" lon="7.10541">
        <ele>505.790894</ele>
        <time>2012-01-15T17:24:26+01:00</time>
      </trkpt>
      <trkpt lat="43.73951" lon="7.10543">
        <ele>506.752075</ele>
        <time>2012-01-15T17:24:32+01:00</time>
      </trkpt>
      <trkpt lat="43.73967" lon="7.10541">
        <ele>510.116699</ele>
        <time>2012-01-15T17:24:41+01:00</time>
      </trkpt>
      <trkpt lat="43.73982" lon="7.10541">
        <ele>511.078003</ele>
        <time>2012-01-15T17:24:49+01:00</time>
      </trkpt>
      <trkpt lat="43.73997" lon="7.1054">
        <ele>512.039429</ele>
        <time>2012-01-15T17:24:57+01:00</time>
      </trkpt>
      <trkpt lat="43.74013" lon="7.10539">
        <ele>512.52002</ele>
        <time>2012-01-15T17:25:06+01:00</time>
      </trkpt>
      <trkpt lat="43.74027" lon="7.10537">
        <ele>512.52002</ele>
        <time>2012-01-15T17:25:13+01:00</time>
      </trkpt>
      <trkpt lat="43.74041" lon="7.10534">
        <ele>513.000732</ele>
        <time>2012-01-15T17:25:20+01:00</time>
      </trkpt>
      <trkpt lat="43.74049" lon="7.1054">
        <ele>513.962036</ele>
        <time>2012-01-15T17:25:26+01:00</time>
      </trkpt>
      <trkpt lat="43.74049" lon="7.1054">
        <ele>512.52002</ele>
        <time>2012-01-15T17:25:36+01:00</time>
      </trkpt>
      <trkpt lat="43.74051" lon="7.10539">
        <ele>512.52002</ele>
        <time>2012-01-15T17:25:56+01:00</time>
      </trkpt>
      <trkpt lat="43.74052" lon="7.10537">
        <ele>515.404053</ele>
        <time>2012-01-15T17:26:18+01:00</time>
      </trkpt>
      <trkpt lat="43.74052" lon="7.10537">
        <ele>513.962036</ele>
        <time>2012-01-15T17:26:54+01:00</time>
      </trkpt>
      <trkpt lat="43.74054" lon="7.10537">
        <ele>514.442627</ele>
        <time>2012-01-15T17:27:19+01:00</time>
      </trkpt>
      <trkpt lat="43.74052" lon="7.10534">
        <ele>514.442627</ele>
        <time>2012-01-15T17:27:23+01:00</time>
      </trkpt>
      <trkpt lat="43.74052" lon="7.10533">
        <ele>516.365234</ele>
        <time>2012-01-15T17:27:32+01:00</time>
      </trkpt>
      <trkpt lat="43.74051" lon="7.10533">
        <ele>518.287842</ele>
        <time>2012-01-15T17:27:46+01:00</time>
      </trkpt>
      <trkpt lat="43.74044" lon="7.10531">
        <ele>517.807251</ele>
        <time>2012-01-15T17:27:50+01:00</time>
      </trkpt>
      <trkpt lat="43.74022" lon="7.10533">
        <ele>516.845947</ele>
        <time>2012-01-15T17:27:55+01:00</time>
      </trkpt>
      <trkpt lat="43.73987" lon="7.10536">
        <ele>515.404053</ele>
        <time>2012-01-15T17:28:00+01:00</time>
      </trkpt>
      <trkpt lat="43.73952" lon="7.10538">
        <ele>512.52002</ele>
        <time>2012-01-15T17:28:05+01:00</time>
      </trkpt>
      <trkpt lat="43.73948" lon="7.10538">
        <ele>512.039429</ele>
        <time>2012-01-15T17:28:08+01:00</time>
      </trkpt>
      <trkpt lat="43.7395" lon="7.10538">
        <ele>509.155396</ele>
        <time>2012-01-15T17:28:15+01:00</time>
      </trkpt>
      <trkpt lat="43.73951" lon="7.10539">
        <ele>506.271484</ele>
        <time>2012-01-15T17:28:22+01:00</time>
      </trkpt>
      <trkpt lat="43.73955" lon="7.1054">
        <ele>505.790894</ele>
        <time>2012-01-15T17:28:28+01:00</time>
      </trkpt>
      <trkpt lat="43.73958" lon="7.1054">
        <ele>506.271484</ele>
        <time>2012-01-15T17:28:31+01:00</time>
      </trkpt>
      <trkpt lat="43.73961" lon="7.10541">
        <ele>507.232788</ele>
        <time>2012-01-15T17:28:37+01:00</time>
      </trkpt>
      <trkpt lat="43.73967" lon="7.10539">
        <ele>506.271484</ele>
        <time>2012-01-15T17:28:56+01:00</time>
      </trkpt>
      <trkpt lat="43.73984" lon="7.1054">
        <ele>508.194092</ele>
        <time>2012-01-15T17:29:05+01:00</time>
      </trkpt>
      <trkpt lat="43.73995" lon="7.1054">
        <ele>510.59729</ele>
        <time>2012-01-15T17:29:12+01:00</time>
      </trkpt>
      <trkpt lat="43.74004" lon="7.1054">
        <ele>512.039429</ele>
        <time>2012-01-15T17:29:19+01:00</time>
      </trkpt>
      <trkpt lat="43.74011" lon="7.10539">
        <ele>512.52002</ele>
        <time>2012-01-15T17:29:25+01:00</time>
      </trkpt>
      <trkpt lat="43.7402" lon="7.10538">
        <ele>513.000732</ele>
        <time>2012-01-15T17:29:32+01:00</time>
      </trkpt>
      <trkpt lat="43.74029" lon="7.10537">
        <ele>513.962036</ele>
        <time>2012-01-15T17:29:40+01:00</time>
      </trkpt>
      <trkpt lat="43.74035" lon="7.10536">
        <ele>514.442627</ele>
        <time>2012-01-15T17:29:45+01:00</time>
      </trkpt>
      <trkpt lat="43.74041" lon="7.10534">
        <ele>514.92334</ele>
        <time>2012-01-15T17:29:52+01:00</time>
      </trkpt>
      <trkpt lat="43.74044" lon="7.10535">
        <ele>515.404053</ele>
        <time>2012-01-15T17:29:55+01:00</time>
      </trkpt>
      <trkpt lat="43.74051" lon="7.10538">
        <ele>516.845947</ele>
        <time>2012-01-15T17:30:02+01:00</time>
      </trkpt>
      <trkpt lat="43.74059" lon="7.10549">
        <ele>517.807251</ele>
        <time>2012-01-15T17:30:09+01:00</time>
      </trkpt>
      <trkpt lat="43.74065" lon="7.10548">
        <ele>517.807251</ele>
        <time>2012-01-15T17:30:13+01:00</time>
      </trkpt>
      <trkpt lat="43.74073" lon="7.10549">
        <ele>518.287842</ele>
        <time>2012-01-15T17:30:18+01:00</time>
      </trkpt>
      <trkpt lat="43.74075" lon="7.1055">
        <ele>518.287842</ele>
        <time>2012-01-15T17:30:19+01:00</time>
      </trkpt>
      <trkpt lat="43.74081" lon="7.10551">
        <ele>518.287842</ele>
        <time>2012-01-15T17:30:23+01:00</time>
      </trkpt>
      <trkpt lat="43.74088" lon="7.1055">
        <ele>518.768555</ele>
        <time>2012-01-15T17:30:27+01:00</time>
      </trkpt>
      <trkpt lat="43.74101" lon="7.10547">
        <ele>519.249268</ele>
        <time>2012-01-15T17:30:34+01:00</time>
      </trkpt>
      <trkpt lat="43.74119" lon="7.1054">
        <ele>520.210571</ele>
        <time>2012-01-15T17:30:43+01:00</time>
      </trkpt>
      <trkpt lat="43.74133" lon="7.10533">
        <ele>521.652588</ele>
        <time>2012-01-15T17:30:50+01:00</time>
      </trkpt>
      <trkpt lat="43.74148" lon="7.10523">
        <ele>523.094604</ele>
        <time>2012-01-15T17:30:57+01:00</time>
      </trkpt>
      <trkpt lat="43.74162" lon="7.10509">
        <ele>524.536499</ele>
        <time>2012-01-15T17:31:04+01:00</time>
      </trkpt>
      <trkpt lat="43.74182" lon="7.10495">
        <ele>526.459106</ele>
        <time>2012-01-15T17:31:13+01:00</time>
      </trkpt>
      <trkpt lat="43.74207" lon="7.10482">
        <ele>528.862549</ele>
        <time>2012-01-15T17:31:24+01:00</time>
      </trkpt>
      <trkpt lat="43.7423" lon="7.10473">
        <ele>531.265747</ele>
        <time>2012-01-15T17:31:34+01:00</time>
      </trkpt>
      <trkpt lat="43.74248" lon="7.10466">
        <ele>533.188354</ele>
        <time>2012-01-15T17:31:42+01:00</time>
      </trkpt>
      <trkpt lat="43.74262" lon="7.10457">
        <ele>535.110962</ele>
        <time>2012-01-15T17:31:49+01:00</time>
      </trkpt>
      <trkpt lat="43.74281" lon="7.10442">
        <ele>537.033691</ele>
        <time>2012-01-15T17:31:59+01:00</time>
      </trkpt>
      <trkpt lat="43.74294" lon="7.10429">
        <ele>539.43689</ele>
        <time>2012-01-15T17:32:07+01:00</time>
      </trkpt>
      <trkpt lat="43.7431" lon="7.10416">
        <ele>542.320923</ele>
        <time>2012-01-15T17:32:16+01:00</time>
      </trkpt>
      <trkpt lat="43.74325" lon="7.10402">
        <ele>544.724243</ele>
        <time>2012-01-15T17:32:25+01:00</time>
      </trkpt>
      <trkpt lat="43.74338" lon="7.10395">
        <ele>546.646851</ele>
        <time>2012-01-15T17:32:33+01:00</time>
      </trkpt>
      <trkpt lat="43.74349" lon="7.10391">
        <ele>547.608154</ele>
        <time>2012-01-15T17:32:40+01:00</time>
      </trkpt>
      <trkpt lat="43.74361" lon="7.10385">
        <ele>548.569336</ele>
        <time>2012-01-15T17:32:47+01:00</time>
      </trkpt>
      <trkpt lat="43.74376" lon="7.10379">
        <ele>550.011475</ele>
        <time>2012-01-15T17:32:55+01:00</time>
      </trkpt>
      <trkpt lat="43.74385" lon="7.1037">
        <ele>550.972656</ele>
        <time>2012-01-15T17:33:01+01:00</time>
      </trkpt>
      <trkpt lat="43.74397" lon="7.10357">
        <ele>551.453369</ele>
        <time>2012-01-15T17:33:08+01:00</time>
      </trkpt>
      <trkpt lat="43.74408" lon="7.10336">
        <ele>552.895264</ele>
        <time>2012-01-15T17:33:17+01:00</time>
      </trkpt>
      <trkpt lat="43.74418" lon="7.10317">
        <ele>554.337402</ele>
        <time>2012-01-15T17:33:25+01:00</time>
      </trkpt>
      <trkpt lat="43.74432" lon="7.103">
        <ele>556.740723</ele>
        <time>2012-01-15T17:33:33+01:00</time>
      </trkpt>
      <trkpt lat="43.74454" lon="7.10279">
        <ele>558.66333</ele>
        <time>2012-01-15T17:33:45+01:00</time>
      </trkpt>
      <trkpt lat="43.74469" lon="7.10266">
        <ele>560.105225</ele>
        <time>2012-01-15T17:33:53+01:00</time>
      </trkpt>
      <trkpt lat="43.74488" lon="7.1025">
        <ele>562.028076</ele>
        <time>2012-01-15T17:34:03+01:00</time>
      </trkpt>
      <trkpt lat="43.74508" lon="7.10232">
        <ele>564.431152</ele>
        <time>2012-01-15T17:34:14+01:00</time>
      </trkpt>
      <trkpt lat="43.74525" lon="7.10216">
        <ele>566.35376</ele>
        <time>2012-01-15T17:34:23+01:00</time>
      </trkpt>
      <trkpt lat="43.74544" lon="7.10198">
        <ele>568.276367</ele>
        <time>2012-01-15T17:34:33+01:00</time>
      </trkpt>
      <trkpt lat="43.7456" lon="7.10184">
        <ele>569.237793</ele>
        <time>2012-01-15T17:34:40+01:00</time>
      </trkpt>
      <trkpt lat="43.74577" lon="7.10168">
        <ele>570.679688</ele>
        <time>2012-01-15T17:34:48+01:00</time>
      </trkpt>
      <trkpt lat="43.74599" lon="7.10146">
        <ele>572.121826</ele>
        <time>2012-01-15T17:34:58+01:00</time>
      </trkpt>
      <trkpt lat="43.74619" lon="7.10127">
        <ele>574.044434</ele>
        <time>2012-01-15T17:35:07+01:00</time>
      </trkpt>
      <trkpt lat="43.74636" lon="7.1011">
        <ele>575.486328</ele>
        <time>2012-01-15T17:35:15+01:00</time>
      </trkpt>
      <trkpt lat="43.74646" lon="7.10085">
        <ele>576.928467</ele>
        <time>2012-01-15T17:35:23+01:00</time>
      </trkpt>
      <trkpt lat="43.74655" lon="7.10054">
        <ele>579.331543</ele>
        <time>2012-01-15T17:35:32+01:00</time>
      </trkpt>
      <trkpt lat="43.74662" lon="7.10031">
        <ele>581.254395</ele>
        <time>2012-01-15T17:35:40+01:00</time>
      </trkpt>
      <trkpt lat="43.74664" lon="7.10023">
        <ele>581.734863</ele>
        <time>2012-01-15T17:35:45+01:00</time>
      </trkpt>
      <trkpt lat="43.74665" lon="7.10023">
        <ele>581.734863</ele>
        <time>2012-01-15T17:35:53+01:00</time>
      </trkpt>
    </trkseg>
  </trk>
</gpx>